<?xml version="1.0" encoding="UTF-8"?>
<gpx version="1.1" 
creator="ViewRanger/10.1.86 http://www.viewranger.com"
xmlns:xsi="http://www.w3.org/2001/XMLSchema-instance"
xmlns="http://www.topografix.com/GPX/1/1"
xmlns:gpxtpx="http://www.garmin.com/xmlschemas/TrackPointExtension/v1"
xmlns:viewranger="http://www.viewranger.com/xmlschemas/GpxExtensions/v2"
xmlns:gpx_style="http://www.topografix.com/GPX/gpx_style/0/2"
xsi:schemaLocation="http://www.topografix.com/GPX/1/1 http://www.topografix.com/GPX/1/1/gpx.xsd http://www.topografix.com/GPX/gpx_style/0/2
http://www.topografix.com/GPX/gpx_style/0/2/gpx_style.xsd http://www.viewranger.com/xmlschemas/GpxExtensions/v2 http://www.viewranger.com/xmlschemas/GpxExtensions/v2/GpxExtensionsV2.xsd">
<trk>
<name><![CDATA[Cingoli-San Severino]]></name>
<extensions><gpx_style:line><gpx_style:color>000000</gpx_style:color>
</gpx_style:line></extensions>
<trkseg>
<trkpt lat="43.372611" lon="13.207567"><ele>641.8976398563469</ele><time>2020-05-16T05:43:08Z</time></trkpt>
<trkpt lat="43.372681" lon="13.207553"><ele>645.8981269290938</ele><time>2020-05-16T05:43:15Z</time></trkpt>
<trkpt lat="43.372764" lon="13.207531"><ele>643.8986941154576</ele><time>2020-05-16T05:43:21Z</time></trkpt>
<trkpt lat="43.372824" lon="13.207502"><ele>620.8990735784352</ele><time>2020-05-16T05:43:27Z</time></trkpt>
<trkpt lat="43.372891" lon="13.207602"><ele>630.8997593135228</ele><time>2020-05-16T05:43:31Z</time></trkpt>
<trkpt lat="43.372969" lon="13.207652"><ele>633.9004355298132</ele><time>2020-05-16T05:43:41Z</time></trkpt>
<trkpt lat="43.373042" lon="13.207719"><ele>640.9010967498597</ele><time>2020-05-16T05:43:52Z</time></trkpt>
<trkpt lat="43.373114" lon="13.207790"><ele>637.9017662533481</ele><time>2020-05-16T05:44:00Z</time></trkpt>
<trkpt lat="43.373185" lon="13.207830"><ele>639.9023663607433</ele><time>2020-05-16T05:44:06Z</time></trkpt>
<trkpt lat="43.373255" lon="13.207896"><ele>634.9030097331</ele><time>2020-05-16T05:44:17Z</time></trkpt>
<trkpt lat="43.373328" lon="13.207956"><ele>631.9036641288833</ele><time>2020-05-16T05:44:25Z</time></trkpt>
<trkpt lat="43.373406" lon="13.208012"><ele>631.9043460837061</ele><time>2020-05-16T05:44:31Z</time></trkpt>
<trkpt lat="43.373482" lon="13.208067"><ele>632.9050112767032</ele><time>2020-05-16T05:44:39Z</time></trkpt>
<trkpt lat="43.373549" lon="13.208131"><ele>633.9056231941917</ele><time>2020-05-16T05:44:46Z</time></trkpt>
<trkpt lat="43.373617" lon="13.208186"><ele>630.9062366358837</ele><time>2020-05-16T05:44:53Z</time></trkpt>
<trkpt lat="43.373695" lon="13.208223"><ele>625.9068791907589</ele><time>2020-05-16T05:44:59Z</time></trkpt>
<trkpt lat="43.373755" lon="13.208280"><ele>628.9074306311131</ele><time>2020-05-16T05:45:04Z</time></trkpt>
<trkpt lat="43.373826" lon="13.208349"><ele>628.908090007658</ele><time>2020-05-16T05:45:10Z</time></trkpt>
<trkpt lat="43.373895" lon="13.208407"><ele>627.9087067892326</ele><time>2020-05-16T05:45:15Z</time></trkpt>
<trkpt lat="43.373974" lon="13.208463"><ele>628.909398793169</ele><time>2020-05-16T05:45:21Z</time></trkpt>
<trkpt lat="43.374043" lon="13.208519"><ele>624.9100178414374</ele><time>2020-05-16T05:45:27Z</time></trkpt>
<trkpt lat="43.374116" lon="13.208581"><ele>624.9106751087288</ele><time>2020-05-16T05:45:32Z</time></trkpt>
<trkpt lat="43.374204" lon="13.208590"><ele>622.9113379715417</ele><time>2020-05-16T05:45:38Z</time></trkpt>
<trkpt lat="43.374289" lon="13.208617"><ele>619.9120140997686</ele><time>2020-05-16T05:45:44Z</time></trkpt>
<trkpt lat="43.374375" lon="13.208640"><ele>616.9126935875648</ele><time>2020-05-16T05:45:51Z</time></trkpt>
<trkpt lat="43.374451" lon="13.208622"><ele>613.9132188733649</ele><time>2020-05-16T05:45:57Z</time></trkpt>
<trkpt lat="43.374526" lon="13.208596"><ele>612.9137111443747</ele><time>2020-05-16T05:46:02Z</time></trkpt>
<trkpt lat="43.374594" lon="13.208574"><ele>611.914172007718</ele><time>2020-05-16T05:46:07Z</time></trkpt>
<trkpt lat="43.374672" lon="13.208544"><ele>608.914680668516</ele><time>2020-05-16T05:46:13Z</time></trkpt>
<trkpt lat="43.374759" lon="13.208550"><ele>607.9153284578584</ele><time>2020-05-16T05:46:22Z</time></trkpt>
<trkpt lat="43.374815" lon="13.208629"><ele>605.915897536404</ele><time>2020-05-16T05:46:31Z</time></trkpt>
<trkpt lat="43.374857" lon="13.208737"><ele>602.9164277312932</ele><time>2020-05-16T05:46:38Z</time></trkpt>
<trkpt lat="43.374901" lon="13.208840"><ele>596.9169533177624</ele><time>2020-05-16T05:46:49Z</time></trkpt>
<trkpt lat="43.374943" lon="13.208931"><ele>593.9174423588651</ele><time>2020-05-16T05:46:56Z</time></trkpt>
<trkpt lat="43.375009" lon="13.208996"><ele>595.9180560779129</ele><time>2020-05-16T05:47:01Z</time></trkpt>
<trkpt lat="43.375052" lon="13.209066"><ele>593.9185139500149</ele><time>2020-05-16T05:47:06Z</time></trkpt>
<trkpt lat="43.375071" lon="13.209181"><ele>594.9188837170833</ele><time>2020-05-16T05:47:12Z</time></trkpt>
<trkpt lat="43.375098" lon="13.209291"><ele>595.9193049750756</ele><time>2020-05-16T05:47:21Z</time></trkpt>
<trkpt lat="43.375169" lon="13.209329"><ele>594.9199010012276</ele><time>2020-05-16T05:47:27Z</time></trkpt>
<trkpt lat="43.375238" lon="13.209399"><ele>593.9205452334659</ele><time>2020-05-16T05:47:33Z</time></trkpt>
<trkpt lat="43.375291" lon="13.209494"><ele>593.9211275912401</ele><time>2020-05-16T05:47:39Z</time></trkpt>
<trkpt lat="43.375330" lon="13.209580"><ele>594.9215888953778</ele><time>2020-05-16T05:47:44Z</time></trkpt>
<trkpt lat="43.375370" lon="13.209691"><ele>595.9221016857455</ele><time>2020-05-16T05:47:50Z</time></trkpt>
<trkpt lat="43.375403" lon="13.209799"><ele>595.9225629779068</ele><time>2020-05-16T05:47:56Z</time></trkpt>
<trkpt lat="43.375438" lon="13.209893"><ele>594.92300511051</ele><time>2020-05-16T05:48:02Z</time></trkpt>
<trkpt lat="43.375472" lon="13.210002"><ele>594.9234791327244</ele><time>2020-05-16T05:48:08Z</time></trkpt>
<trkpt lat="43.375517" lon="13.210109"><ele>594.9240212711206</ele><time>2020-05-16T05:48:14Z</time></trkpt>
<trkpt lat="43.375550" lon="13.210211"><ele>593.9244730749821</ele><time>2020-05-16T05:48:20Z</time></trkpt>
<trkpt lat="43.375586" lon="13.210306"><ele>594.9249299645351</ele><time>2020-05-16T05:48:26Z</time></trkpt>
<trkpt lat="43.375622" lon="13.210417"><ele>593.9254125071509</ele><time>2020-05-16T05:48:32Z</time></trkpt>
<trkpt lat="43.375653" lon="13.210523"><ele>592.9258618518284</ele><time>2020-05-16T05:48:39Z</time></trkpt>
<trkpt lat="43.375692" lon="13.210627"><ele>593.9263527084515</ele><time>2020-05-16T05:48:45Z</time></trkpt>
<trkpt lat="43.375710" lon="13.210743"><ele>595.9267235455884</ele><time>2020-05-16T05:48:51Z</time></trkpt>
<trkpt lat="43.375728" lon="13.210862"><ele>596.9270895869095</ele><time>2020-05-16T05:48:58Z</time></trkpt>
<trkpt lat="43.375736" lon="13.210976"><ele>597.9273788039872</ele><time>2020-05-16T05:49:04Z</time></trkpt>
<trkpt lat="43.375737" lon="13.211096"><ele>596.9276261857323</ele><time>2020-05-16T05:49:11Z</time></trkpt>
<trkpt lat="43.375745" lon="13.211207"><ele>598.9279101516787</ele><time>2020-05-16T05:49:17Z</time></trkpt>
<trkpt lat="43.375752" lon="13.211312"><ele>597.9281734659738</ele><time>2020-05-16T05:49:23Z</time></trkpt>
<trkpt lat="43.375749" lon="13.211424"><ele>598.9283743769753</ele><time>2020-05-16T05:49:29Z</time></trkpt>
<trkpt lat="43.375738" lon="13.211541"><ele>597.9285292036761</ele><time>2020-05-16T05:49:35Z</time></trkpt>
<trkpt lat="43.375733" lon="13.211645"><ele>596.9287049787484</ele><time>2020-05-16T05:49:42Z</time></trkpt>
<trkpt lat="43.375740" lon="13.211754"><ele>595.9289740469833</ele><time>2020-05-16T05:49:48Z</time></trkpt>
<trkpt lat="43.375729" lon="13.211862"><ele>596.9291143150417</ele><time>2020-05-16T05:49:54Z</time></trkpt>
<trkpt lat="43.375721" lon="13.211983"><ele>597.9292950481172</ele><time>2020-05-16T05:50:01Z</time></trkpt>
<trkpt lat="43.375718" lon="13.212097"><ele>597.929502737779</ele><time>2020-05-16T05:50:08Z</time></trkpt>
<trkpt lat="43.375715" lon="13.212217"><ele>598.9297258820151</ele><time>2020-05-16T05:50:15Z</time></trkpt>
<trkpt lat="43.375712" lon="13.212335"><ele>598.9299340243903</ele><time>2020-05-16T05:50:21Z</time></trkpt>
<trkpt lat="43.375707" lon="13.212446"><ele>600.930123291177</ele><time>2020-05-16T05:50:27Z</time></trkpt>
<trkpt lat="43.375705" lon="13.212556"><ele>601.9303283719547</ele><time>2020-05-16T05:50:34Z</time></trkpt>
<trkpt lat="43.375689" lon="13.212675"><ele>601.9304490387397</ele><time>2020-05-16T05:50:41Z</time></trkpt>
<trkpt lat="43.375681" lon="13.212788"><ele>601.9306188049144</ele><time>2020-05-16T05:50:47Z</time></trkpt>
<trkpt lat="43.375680" lon="13.212897"><ele>602.9308327531108</ele><time>2020-05-16T05:50:53Z</time></trkpt>
<trkpt lat="43.375684" lon="13.213015"><ele>601.9310947470454</ele><time>2020-05-16T05:51:00Z</time></trkpt>
<trkpt lat="43.375654" lon="13.213131"><ele>602.9311079150013</ele><time>2020-05-16T05:51:25Z</time></trkpt>
<trkpt lat="43.375586" lon="13.213187"><ele>601.930716371592</ele><time>2020-05-16T05:51:30Z</time></trkpt>
<trkpt lat="43.375511" lon="13.213225"><ele>601.9302395324463</ele><time>2020-05-16T05:51:35Z</time></trkpt>
<trkpt lat="43.375428" lon="13.213239"><ele>600.9296514235416</ele><time>2020-05-16T05:51:42Z</time></trkpt>
<trkpt lat="43.375340" lon="13.213242"><ele>600.9290048936523</ele><time>2020-05-16T05:51:49Z</time></trkpt>
<trkpt lat="43.375251" lon="13.213249"><ele>601.9283540365473</ele><time>2020-05-16T05:51:57Z</time></trkpt>
<trkpt lat="43.375170" lon="13.213262"><ele>600.9277854245828</ele><time>2020-05-16T05:52:03Z</time></trkpt>
<trkpt lat="43.375084" lon="13.213264"><ele>599.9271504792962</ele><time>2020-05-16T05:52:11Z</time></trkpt>
<trkpt lat="43.374995" lon="13.213272"><ele>598.9265107855272</ele><time>2020-05-16T05:52:18Z</time></trkpt>
<trkpt lat="43.374920" lon="13.213261"><ele>599.9259306424386</ele><time>2020-05-16T05:52:23Z</time></trkpt>
<trkpt lat="43.374838" lon="13.213279"><ele>600.9253592106018</ele><time>2020-05-16T05:52:29Z</time></trkpt>
<trkpt lat="43.374763" lon="13.213296"><ele>598.9248333883913</ele><time>2020-05-16T05:52:35Z</time></trkpt>
<trkpt lat="43.374687" lon="13.213301"><ele>596.9242818994849</ele><time>2020-05-16T05:52:47Z</time></trkpt>
<trkpt lat="43.374599" lon="13.213300"><ele>595.9236253593184</ele><time>2020-05-16T05:52:52Z</time></trkpt>
<trkpt lat="43.374529" lon="13.213306"><ele>594.923121881091</ele><time>2020-05-16T05:52:56Z</time></trkpt>
<trkpt lat="43.374416" lon="13.213299"><ele>596.9222677611816</ele><time>2020-05-16T05:53:01Z</time></trkpt>
<trkpt lat="43.374329" lon="13.213309"><ele>597.9216443739783</ele><time>2020-05-16T05:53:07Z</time></trkpt>
<trkpt lat="43.374246" lon="13.213316"><ele>597.9210449259044</ele><time>2020-05-16T05:53:13Z</time></trkpt>
<trkpt lat="43.374165" lon="13.213330"><ele>597.9204713342567</ele><time>2020-05-16T05:53:18Z</time></trkpt>
<trkpt lat="43.374078" lon="13.213337"><ele>597.9198372402311</ele><time>2020-05-16T05:53:24Z</time></trkpt>
<trkpt lat="43.373994" lon="13.213357"><ele>596.9192550716836</ele><time>2020-05-16T05:53:32Z</time></trkpt>
<trkpt lat="43.373907" lon="13.213374"><ele>596.9186436084354</ele><time>2020-05-16T05:53:38Z</time></trkpt>
<trkpt lat="43.373837" lon="13.213429"><ele>600.9182388156352</ele><time>2020-05-16T05:53:46Z</time></trkpt>
<trkpt lat="43.373750" lon="13.213428"><ele>596.9175879539878</ele><time>2020-05-16T05:53:52Z</time></trkpt>
<trkpt lat="43.373681" lon="13.213455"><ele>592.9171269373822</ele><time>2020-05-16T05:53:58Z</time></trkpt>
<trkpt lat="43.373607" lon="13.213498"><ele>592.9166630845981</ele><time>2020-05-16T05:54:03Z</time></trkpt>
<trkpt lat="43.373523" lon="13.213506"><ele>590.9160558399819</ele><time>2020-05-16T05:54:07Z</time></trkpt>
<trkpt lat="43.373441" lon="13.213510"><ele>587.9154597143834</ele><time>2020-05-16T05:54:11Z</time></trkpt>
<trkpt lat="43.373358" lon="13.213549"><ele>583.9149182894691</ele><time>2020-05-16T05:54:18Z</time></trkpt>
<trkpt lat="43.373282" lon="13.213600"><ele>583.9144578163957</ele><time>2020-05-16T05:54:24Z</time></trkpt>
<trkpt lat="43.373200" lon="13.213646"><ele>582.9139382985086</ele><time>2020-05-16T05:54:33Z</time></trkpt>
<trkpt lat="43.373128" lon="13.213702"><ele>583.9135130867822</ele><time>2020-05-16T05:54:44Z</time></trkpt>
<trkpt lat="43.373054" lon="13.213751"><ele>583.9130613873203</ele><time>2020-05-16T05:54:50Z</time></trkpt>
<trkpt lat="43.372974" lon="13.213795"><ele>582.9125522442966</ele><time>2020-05-16T05:54:57Z</time></trkpt>
<trkpt lat="43.372900" lon="13.213860"><ele>576.9121361226405</ele><time>2020-05-16T05:55:06Z</time></trkpt>
<trkpt lat="43.372835" lon="13.213905"><ele>574.911737687336</ele><time>2020-05-16T05:55:11Z</time></trkpt>
<trkpt lat="43.372755" lon="13.213963"><ele>574.9112608661453</ele><time>2020-05-16T05:55:18Z</time></trkpt>
<trkpt lat="43.372688" lon="13.214016"><ele>573.9108688976715</ele><time>2020-05-16T05:55:24Z</time></trkpt>
<trkpt lat="43.372611" lon="13.214077"><ele>575.9104166787844</ele><time>2020-05-16T05:55:30Z</time></trkpt>
<trkpt lat="43.372535" lon="13.214128"><ele>574.9099534478612</ele><time>2020-05-16T05:55:35Z</time></trkpt>
<trkpt lat="43.372450" lon="13.214142"><ele>575.9093463029568</ele><time>2020-05-16T05:55:41Z</time></trkpt>
<trkpt lat="43.372370" lon="13.214129"><ele>576.908728703346</ele><time>2020-05-16T05:55:48Z</time></trkpt>
<trkpt lat="43.372291" lon="13.214121"><ele>574.9081248619051</ele><time>2020-05-16T05:55:54Z</time></trkpt>
<trkpt lat="43.372214" lon="13.214104"><ele>574.9075161954364</ele><time>2020-05-16T05:55:59Z</time></trkpt>
<trkpt lat="43.372139" lon="13.214097"><ele>571.906947866044</ele><time>2020-05-16T05:56:05Z</time></trkpt>
<trkpt lat="43.372053" lon="13.214096"><ele>569.906308355695</ele><time>2020-05-16T05:56:11Z</time></trkpt>
<trkpt lat="43.371965" lon="13.214078"><ele>569.905619429378</ele><time>2020-05-16T05:56:18Z</time></trkpt>
<trkpt lat="43.371878" lon="13.214064"><ele>567.9049469385686</ele><time>2020-05-16T05:56:24Z</time></trkpt>
<trkpt lat="43.371804" lon="13.214069"><ele>566.9044106299882</ele><time>2020-05-16T05:56:30Z</time></trkpt>
<trkpt lat="43.371729" lon="13.214067"><ele>563.9038467477592</ele><time>2020-05-16T05:56:37Z</time></trkpt>
<trkpt lat="43.371645" lon="13.214060"><ele>559.9032101509041</ele><time>2020-05-16T05:56:44Z</time></trkpt>
<trkpt lat="43.371575" lon="13.214055"><ele>556.9026789761344</ele><time>2020-05-16T05:56:49Z</time></trkpt>
<trkpt lat="43.371500" lon="13.214051"><ele>556.9021148113883</ele><time>2020-05-16T05:56:54Z</time></trkpt>
<trkpt lat="43.371424" lon="13.214045"><ele>556.9015361627169</ele><time>2020-05-16T05:57:00Z</time></trkpt>
<trkpt lat="43.371339" lon="13.214061"><ele>560.9009375794465</ele><time>2020-05-16T05:57:06Z</time></trkpt>
<trkpt lat="43.371250" lon="13.214060"><ele>557.9002767525503</ele><time>2020-05-16T05:57:13Z</time></trkpt>
<trkpt lat="43.371161" lon="13.214045"><ele>555.8995896504819</ele><time>2020-05-16T05:57:20Z</time></trkpt>
<trkpt lat="43.371085" lon="13.214041"><ele>558.8990117923886</ele><time>2020-05-16T05:57:27Z</time></trkpt>
<trkpt lat="43.371004" lon="13.214016"><ele>557.8983610450621</ele><time>2020-05-16T05:57:33Z</time></trkpt>
<trkpt lat="43.370923" lon="13.213994"><ele>558.8977193000194</ele><time>2020-05-16T05:57:39Z</time></trkpt>
<trkpt lat="43.370838" lon="13.213960"><ele>555.8970258176744</ele><time>2020-05-16T05:57:46Z</time></trkpt>
<trkpt lat="43.370758" lon="13.213988"><ele>553.8964857949647</ele><time>2020-05-16T05:57:52Z</time></trkpt>
<trkpt lat="43.370679" lon="13.214035"><ele>553.895985745708</ele><time>2020-05-16T05:57:59Z</time></trkpt>
<trkpt lat="43.370610" lon="13.214077"><ele>552.8955554658239</ele><time>2020-05-16T05:58:05Z</time></trkpt>
<trkpt lat="43.370530" lon="13.214109"><ele>551.8950276246295</ele><time>2020-05-16T05:58:11Z</time></trkpt>
<trkpt lat="43.370443" lon="13.214130"><ele>551.8944222298501</ele><time>2020-05-16T05:58:17Z</time></trkpt>
<trkpt lat="43.370362" lon="13.214097"><ele>551.8937561245293</ele><time>2020-05-16T05:58:25Z</time></trkpt>
<trkpt lat="43.370303" lon="13.214005"><ele>549.8931432565037</ele><time>2020-05-16T05:58:33Z</time></trkpt>
<trkpt lat="43.370237" lon="13.213937"><ele>546.8925157596564</ele><time>2020-05-16T05:58:42Z</time></trkpt>
<trkpt lat="43.370171" lon="13.214011"><ele>546.8921747421772</ele><time>2020-05-16T05:58:49Z</time></trkpt>
<trkpt lat="43.370159" lon="13.214124"><ele>544.8922964611158</ele><time>2020-05-16T05:58:57Z</time></trkpt>
<trkpt lat="43.370158" lon="13.214238"><ele>543.8925107127122</ele><time>2020-05-16T05:59:05Z</time></trkpt>
<trkpt lat="43.370158" lon="13.214357"><ele>540.8927378932099</ele><time>2020-05-16T05:59:14Z</time></trkpt>
<trkpt lat="43.370177" lon="13.214460"><ele>539.8930814229504</ele><time>2020-05-16T05:59:20Z</time></trkpt>
<trkpt lat="43.370210" lon="13.214572"><ele>540.8935401557916</ele><time>2020-05-16T05:59:26Z</time></trkpt>
<trkpt lat="43.370265" lon="13.214657"><ele>539.8941119775185</ele><time>2020-05-16T05:59:32Z</time></trkpt>
<trkpt lat="43.370340" lon="13.214704"><ele>537.8947619826872</ele><time>2020-05-16T05:59:41Z</time></trkpt>
<trkpt lat="43.370429" lon="13.214724"><ele>539.8954560681586</ele><time>2020-05-16T05:59:48Z</time></trkpt>
<trkpt lat="43.370509" lon="13.214756"><ele>539.8961158924468</ele><time>2020-05-16T05:59:54Z</time></trkpt>
<trkpt lat="43.370589" lon="13.214805"><ele>540.8968032366193</ele><time>2020-05-16T06:00:01Z</time></trkpt>
<trkpt lat="43.370628" lon="13.214915"><ele>536.8973105530071</ele><time>2020-05-16T06:00:10Z</time></trkpt>
<trkpt lat="43.370588" lon="13.215010"><ele>533.8971977948175</ele><time>2020-05-16T06:00:17Z</time></trkpt>
<trkpt lat="43.370557" lon="13.215111"><ele>529.8971592366756</ele><time>2020-05-16T06:00:23Z</time></trkpt>
<trkpt lat="43.370532" lon="13.215218"><ele>530.8971756423948</ele><time>2020-05-16T06:00:28Z</time></trkpt>
<trkpt lat="43.370502" lon="13.215315"><ele>531.897145738631</ele><time>2020-05-16T06:00:34Z</time></trkpt>
<trkpt lat="43.370472" lon="13.215411"><ele>527.8971048019126</ele><time>2020-05-16T06:00:40Z</time></trkpt>
<trkpt lat="43.370444" lon="13.215529"><ele>526.8971224933529</ele><time>2020-05-16T06:00:47Z</time></trkpt>
<trkpt lat="43.370398" lon="13.215615"><ele>525.8969441934285</ele><time>2020-05-16T06:00:53Z</time></trkpt>
<trkpt lat="43.370338" lon="13.215693"><ele>523.8966466333748</ele><time>2020-05-16T06:00:59Z</time></trkpt>
<trkpt lat="43.370266" lon="13.215767"><ele>523.8962543572848</ele><time>2020-05-16T06:01:07Z</time></trkpt>
<trkpt lat="43.370186" lon="13.215818"><ele>521.8957597770207</ele><time>2020-05-16T06:01:13Z</time></trkpt>
<trkpt lat="43.370113" lon="13.215878"><ele>521.8953307747636</ele><time>2020-05-16T06:01:20Z</time></trkpt>
<trkpt lat="43.370044" lon="13.215946"><ele>521.8949456361256</ele><time>2020-05-16T06:01:26Z</time></trkpt>
<trkpt lat="43.369975" lon="13.216012"><ele>517.8945545060507</ele><time>2020-05-16T06:01:32Z</time></trkpt>
<trkpt lat="43.369901" lon="13.216078"><ele>515.8941309509631</ele><time>2020-05-16T06:01:39Z</time></trkpt>
<trkpt lat="43.369823" lon="13.216136"><ele>515.8936652758891</ele><time>2020-05-16T06:01:45Z</time></trkpt>
<trkpt lat="43.369726" lon="13.216222"><ele>511.89309953341706</ele><time>2020-05-16T06:01:50Z</time></trkpt>
<trkpt lat="43.369644" lon="13.216270"><ele>512.8925811798298</ele><time>2020-05-16T06:01:55Z</time></trkpt>
<trkpt lat="43.369578" lon="13.216344"><ele>510.8922342813737</ele><time>2020-05-16T06:02:04Z</time></trkpt>
<trkpt lat="43.369507" lon="13.216411"><ele>511.8918282057103</ele><time>2020-05-16T06:02:11Z</time></trkpt>
<trkpt lat="43.369462" lon="13.216497"><ele>509.89165885497374</ele><time>2020-05-16T06:02:18Z</time></trkpt>
<trkpt lat="43.369435" lon="13.216615"><ele>509.891681240999</ele><time>2020-05-16T06:02:26Z</time></trkpt>
<trkpt lat="43.369407" lon="13.216724"><ele>507.8916834751301</ele><time>2020-05-16T06:02:33Z</time></trkpt>
<trkpt lat="43.369360" lon="13.216820"><ele>504.8915128255546</ele><time>2020-05-16T06:02:40Z</time></trkpt>
<trkpt lat="43.369300" lon="13.216911"><ele>503.89123702672754</ele><time>2020-05-16T06:02:50Z</time></trkpt>
<trkpt lat="43.369227" lon="13.216982"><ele>500.8908283647463</ele><time>2020-05-16T06:02:57Z</time></trkpt>
<trkpt lat="43.369178" lon="13.217077"><ele>500.8906435048504</ele><time>2020-05-16T06:03:04Z</time></trkpt>
<trkpt lat="43.369139" lon="13.217172"><ele>500.8905342883612</ele><time>2020-05-16T06:03:10Z</time></trkpt>
<trkpt lat="43.369112" lon="13.217284"><ele>497.8905464783563</ele><time>2020-05-16T06:03:17Z</time></trkpt>
<trkpt lat="43.369105" lon="13.217391"><ele>499.89070015909203</ele><time>2020-05-16T06:03:23Z</time></trkpt>
<trkpt lat="43.369085" lon="13.217488"><ele>500.8907318066275</ele><time>2020-05-16T06:03:28Z</time></trkpt>
<trkpt lat="43.369058" lon="13.217598"><ele>500.8907407418651</ele><time>2020-05-16T06:03:34Z</time></trkpt>
<trkpt lat="43.369040" lon="13.217702"><ele>498.890806923805</ele><time>2020-05-16T06:03:41Z</time></trkpt>
<trkpt lat="43.369001" lon="13.217802"><ele>499.8907041716592</ele><time>2020-05-16T06:03:48Z</time></trkpt>
<trkpt lat="43.368963" lon="13.217900"><ele>499.89060409309684</ele><time>2020-05-16T06:03:53Z</time></trkpt>
<trkpt lat="43.368912" lon="13.217994"><ele>495.8904053144207</ele><time>2020-05-16T06:03:59Z</time></trkpt>
<trkpt lat="43.368879" lon="13.218108"><ele>491.89037076026875</ele><time>2020-05-16T06:04:06Z</time></trkpt>
<trkpt lat="43.368867" lon="13.218223"><ele>493.8905011078069</ele><time>2020-05-16T06:04:11Z</time></trkpt>
<trkpt lat="43.368865" lon="13.218345"><ele>493.89072025562393</ele><time>2020-05-16T06:04:18Z</time></trkpt>
<trkpt lat="43.368866" lon="13.218463"><ele>493.8909481090325</ele><time>2020-05-16T06:04:26Z</time></trkpt>
<trkpt lat="43.368851" lon="13.218579"><ele>493.8910572720754</ele><time>2020-05-16T06:04:33Z</time></trkpt>
<trkpt lat="43.368844" lon="13.218691"><ele>492.89122148794127</ele><time>2020-05-16T06:04:39Z</time></trkpt>
<trkpt lat="43.368765" lon="13.218664"><ele>481.89057275884187</ele><time>2020-05-16T06:04:52Z</time></trkpt>
<trkpt lat="43.368754" lon="13.218532"><ele>479.89024256932294</ele><time>2020-05-16T06:04:57Z</time></trkpt>
<trkpt lat="43.368733" lon="13.218419"><ele>476.88987103030297</ele><time>2020-05-16T06:05:06Z</time></trkpt>
<trkpt lat="43.368680" lon="13.218513"><ele>472.88965263515183</ele><time>2020-05-16T06:05:21Z</time></trkpt>
<trkpt lat="43.368646" lon="13.218612"><ele>470.8895825132589</ele><time>2020-05-16T06:05:27Z</time></trkpt>
<trkpt lat="43.368608" lon="13.218718"><ele>468.88950174662057</ele><time>2020-05-16T06:05:35Z</time></trkpt>
<trkpt lat="43.368581" lon="13.218819"><ele>465.8894888705365</ele><time>2020-05-16T06:05:44Z</time></trkpt>
<trkpt lat="43.368539" lon="13.218916"><ele>464.88935442916164</ele><time>2020-05-16T06:05:50Z</time></trkpt>
<trkpt lat="43.368501" lon="13.219013"><ele>458.88925942093186</ele><time>2020-05-16T06:05:56Z</time></trkpt>
<trkpt lat="43.368479" lon="13.219119"><ele>453.8892940645235</ele><time>2020-05-16T06:06:04Z</time></trkpt>
<trkpt lat="43.368456" lon="13.219237"><ele>449.8893437621331</ele><time>2020-05-16T06:06:12Z</time></trkpt>
<trkpt lat="43.368434" lon="13.219352"><ele>453.88939912439116</ele><time>2020-05-16T06:06:18Z</time></trkpt>
<trkpt lat="43.368410" lon="13.219467"><ele>454.8894344524616</ele><time>2020-05-16T06:06:24Z</time></trkpt>
<trkpt lat="43.368376" lon="13.219563"><ele>456.8893603994295</ele><time>2020-05-16T06:06:30Z</time></trkpt>
<trkpt lat="43.368360" lon="13.219665"><ele>456.8894352494808</ele><time>2020-05-16T06:06:36Z</time></trkpt>
<trkpt lat="43.368353" lon="13.219752"><ele>451.8895460283418</ele><time>2020-05-16T06:06:41Z</time></trkpt>
<trkpt lat="43.368338" lon="13.219873"><ele>452.88965873551</ele><time>2020-05-16T06:06:47Z</time></trkpt>
<trkpt lat="43.368314" lon="13.219985"><ele>452.88969474250837</ele><time>2020-05-16T06:06:53Z</time></trkpt>
<trkpt lat="43.368305" lon="13.220105"><ele>454.8898527668401</ele><time>2020-05-16T06:07:00Z</time></trkpt>
<trkpt lat="43.368311" lon="13.220208"><ele>457.89009118392704</ele><time>2020-05-16T06:07:07Z</time></trkpt>
<trkpt lat="43.368303" lon="13.220325"><ele>455.8902523210457</ele><time>2020-05-16T06:07:14Z</time></trkpt>
<trkpt lat="43.368276" lon="13.220440"><ele>456.8902693529284</ele><time>2020-05-16T06:07:23Z</time></trkpt>
<trkpt lat="43.368252" lon="13.220557"><ele>455.8903088111434</ele><time>2020-05-16T06:07:30Z</time></trkpt>
<trkpt lat="43.368201" lon="13.220634"><ele>451.8900685573643</ele><time>2020-05-16T06:07:36Z</time></trkpt>
<trkpt lat="43.368129" lon="13.220701"><ele>450.88965130450714</ele><time>2020-05-16T06:07:43Z</time></trkpt>
<trkpt lat="43.368057" lon="13.220715"><ele>449.88913704951153</ele><time>2020-05-16T06:07:48Z</time></trkpt>
<trkpt lat="43.367979" lon="13.220712"><ele>447.8885460405233</ele><time>2020-05-16T06:07:54Z</time></trkpt>
<trkpt lat="43.367897" lon="13.220684"><ele>446.8878761746199</ele><time>2020-05-16T06:08:00Z</time></trkpt>
<trkpt lat="43.367813" lon="13.220649"><ele>445.8871782211796</ele><time>2020-05-16T06:08:06Z</time></trkpt>
<trkpt lat="43.367738" lon="13.220614"><ele>444.88654318007235</ele><time>2020-05-16T06:08:11Z</time></trkpt>
<trkpt lat="43.367656" lon="13.220593"><ele>443.88588959077174</ele><time>2020-05-16T06:08:17Z</time></trkpt>
<trkpt lat="43.367570" lon="13.220593"><ele>441.88523981526663</ele><time>2020-05-16T06:08:23Z</time></trkpt>
<trkpt lat="43.367486" lon="13.220614"><ele>442.884650878909</ele><time>2020-05-16T06:08:31Z</time></trkpt>
<trkpt lat="43.367416" lon="13.220666"><ele>446.88422072810687</ele><time>2020-05-16T06:08:36Z</time></trkpt>
<trkpt lat="43.367353" lon="13.220732"><ele>447.88386611624014</ele><time>2020-05-16T06:08:42Z</time></trkpt>
<trkpt lat="43.367278" lon="13.220796"><ele>448.88342268864403</ele><time>2020-05-16T06:08:50Z</time></trkpt>
<trkpt lat="43.367268" lon="13.220917"><ele>450.88357878280993</ele><time>2020-05-16T06:09:18Z</time></trkpt>
<trkpt lat="43.367190" lon="13.220964"><ele>449.88307259206874</ele><time>2020-05-16T06:09:25Z</time></trkpt>
<trkpt lat="43.367108" lon="13.221009"><ele>447.8825447484241</ele><time>2020-05-16T06:09:32Z</time></trkpt>
<trkpt lat="43.367031" lon="13.221066"><ele>447.8820668628358</ele><time>2020-05-16T06:09:38Z</time></trkpt>
<trkpt lat="43.366943" lon="13.221091"><ele>445.8814508861204</ele><time>2020-05-16T06:09:45Z</time></trkpt>
<trkpt lat="43.366861" lon="13.221115"><ele>443.8808813141468</ele><time>2020-05-16T06:09:51Z</time></trkpt>
<trkpt lat="43.366776" lon="13.221151"><ele>442.8803054753028</ele><time>2020-05-16T06:09:56Z</time></trkpt>
<trkpt lat="43.366697" lon="13.221203"><ele>442.8798055329512</ele><time>2020-05-16T06:10:02Z</time></trkpt>
<trkpt lat="43.366616" lon="13.221251"><ele>440.879290028708</ele><time>2020-05-16T06:10:09Z</time></trkpt>
<trkpt lat="43.366547" lon="13.221298"><ele>438.87885072833376</ele><time>2020-05-16T06:10:15Z</time></trkpt>
<trkpt lat="43.366476" lon="13.221349"><ele>437.8784104238125</ele><time>2020-05-16T06:10:21Z</time></trkpt>
<trkpt lat="43.366398" lon="13.221409"><ele>439.8779339729326</ele><time>2020-05-16T06:10:27Z</time></trkpt>
<trkpt lat="43.366325" lon="13.221459"><ele>439.8774819830591</ele><time>2020-05-16T06:10:33Z</time></trkpt>
<trkpt lat="43.366255" lon="13.221504"><ele>440.8770379330228</ele><time>2020-05-16T06:10:39Z</time></trkpt>
<trkpt lat="43.366174" lon="13.221542"><ele>441.8764988985324</ele><time>2020-05-16T06:10:46Z</time></trkpt>
<trkpt lat="43.366098" lon="13.221586"><ele>443.87600188007576</ele><time>2020-05-16T06:10:52Z</time></trkpt>
<trkpt lat="43.366020" lon="13.221634"><ele>442.87550174276157</ele><time>2020-05-16T06:10:58Z</time></trkpt>
<trkpt lat="43.365948" lon="13.221673"><ele>444.8750343673247</ele><time>2020-05-16T06:11:04Z</time></trkpt>
<trkpt lat="43.365869" lon="13.221698"><ele>444.8744854636531</ele><time>2020-05-16T06:11:10Z</time></trkpt>
<trkpt lat="43.365788" lon="13.221729"><ele>443.8739282920898</ele><time>2020-05-16T06:11:17Z</time></trkpt>
<trkpt lat="43.365702" lon="13.221742"><ele>443.87330375934556</ele><time>2020-05-16T06:11:24Z</time></trkpt>
<trkpt lat="43.365621" lon="13.221762"><ele>444.8727266559336</ele><time>2020-05-16T06:11:30Z</time></trkpt>
<trkpt lat="43.365547" lon="13.221780"><ele>445.87220193559614</ele><time>2020-05-16T06:11:35Z</time></trkpt>
<trkpt lat="43.365462" lon="13.221803"><ele>446.8716073613485</ele><time>2020-05-16T06:11:40Z</time></trkpt>
<trkpt lat="43.365385" lon="13.221814"><ele>446.87104324150806</ele><time>2020-05-16T06:11:45Z</time></trkpt>
<trkpt lat="43.365307" lon="13.221862"><ele>447.87054133781453</ele><time>2020-05-16T06:11:52Z</time></trkpt>
<trkpt lat="43.365230" lon="13.221886"><ele>448.87000273059607</ele><time>2020-05-16T06:11:58Z</time></trkpt>
<trkpt lat="43.365160" lon="13.221919"><ele>449.8695375224155</ele><time>2020-05-16T06:12:03Z</time></trkpt>
<trkpt lat="43.365088" lon="13.221946"><ele>451.86904752678817</ele><time>2020-05-16T06:12:08Z</time></trkpt>
<trkpt lat="43.365008" lon="13.221984"><ele>451.86851384480684</ele><time>2020-05-16T06:12:13Z</time></trkpt>
<trkpt lat="43.364936" lon="13.222015"><ele>451.86802707917406</ele><time>2020-05-16T06:12:19Z</time></trkpt>
<trkpt lat="43.364855" lon="13.222042"><ele>447.86746540273083</ele><time>2020-05-16T06:12:27Z</time></trkpt>
<trkpt lat="43.364776" lon="13.222075"><ele>445.8669302167093</ele><time>2020-05-16T06:12:34Z</time></trkpt>
<trkpt lat="43.364691" lon="13.222111"><ele>444.86635361416836</ele><time>2020-05-16T06:12:42Z</time></trkpt>
<trkpt lat="43.364616" lon="13.222160"><ele>443.86587667689105</ele><time>2020-05-16T06:12:51Z</time></trkpt>
<trkpt lat="43.364555" lon="13.222201"><ele>445.86548935143526</ele><time>2020-05-16T06:12:58Z</time></trkpt>
<trkpt lat="43.364478" lon="13.222261"><ele>450.8650170770538</ele><time>2020-05-16T06:13:04Z</time></trkpt>
<trkpt lat="43.364418" lon="13.222347"><ele>457.86472256321935</ele><time>2020-05-16T06:13:13Z</time></trkpt>
<trkpt lat="43.364397" lon="13.222460"><ele>457.86476965988885</ele><time>2020-05-16T06:13:20Z</time></trkpt>
<trkpt lat="43.364337" lon="13.222530"><ele>457.86444082497246</ele><time>2020-05-16T06:13:28Z</time></trkpt>
<trkpt lat="43.364251" lon="13.222564"><ele>457.8638504741999</ele><time>2020-05-16T06:13:34Z</time></trkpt>
<trkpt lat="43.364173" lon="13.222607"><ele>456.8633449143113</ele><time>2020-05-16T06:13:40Z</time></trkpt>
<trkpt lat="43.364087" lon="13.222640"><ele>458.8627533035531</ele><time>2020-05-16T06:13:47Z</time></trkpt>
<trkpt lat="43.364028" lon="13.222731"><ele>458.86246934563997</ele><time>2020-05-16T06:13:58Z</time></trkpt>
<trkpt lat="43.363948" lon="13.222786"><ele>460.8619674494721</ele><time>2020-05-16T06:14:05Z</time></trkpt>
<trkpt lat="43.363872" lon="13.222842"><ele>461.86149216576064</ele><time>2020-05-16T06:14:13Z</time></trkpt>
<trkpt lat="43.363800" lon="13.222862"><ele>458.8609858923872</ele><time>2020-05-16T06:14:22Z</time></trkpt>
<trkpt lat="43.363734" lon="13.222910"><ele>461.8605766148327</ele><time>2020-05-16T06:14:29Z</time></trkpt>
<trkpt lat="43.363663" lon="13.222972"><ele>464.86014928556193</ele><time>2020-05-16T06:14:34Z</time></trkpt>
<trkpt lat="43.363601" lon="13.223015"><ele>465.85976089204144</ele><time>2020-05-16T06:14:40Z</time></trkpt>
<trkpt lat="43.363516" lon="13.223029"><ele>462.8591395040127</ele><time>2020-05-16T06:14:45Z</time></trkpt>
<trkpt lat="43.363434" lon="13.223037"><ele>461.85853932488754</ele><time>2020-05-16T06:14:54Z</time></trkpt>
<trkpt lat="43.363350" lon="13.223057"><ele>462.85793476226826</ele><time>2020-05-16T06:15:01Z</time></trkpt>
<trkpt lat="43.363263" lon="13.223055"><ele>459.8572771693229</ele><time>2020-05-16T06:15:07Z</time></trkpt>
<trkpt lat="43.363186" lon="13.223070"><ele>456.85671673019476</ele><time>2020-05-16T06:15:13Z</time></trkpt>
<trkpt lat="43.363109" lon="13.223098"><ele>456.8561847117584</ele><time>2020-05-16T06:15:20Z</time></trkpt>
<trkpt lat="43.363030" lon="13.223100"><ele>457.85559151753426</ele><time>2020-05-16T06:15:26Z</time></trkpt>
<trkpt lat="43.362940" lon="13.223101"><ele>456.8549130390257</ele><time>2020-05-16T06:15:32Z</time></trkpt>
<trkpt lat="43.362854" lon="13.223107"><ele>458.85427011406773</ele><time>2020-05-16T06:15:39Z</time></trkpt>
<trkpt lat="43.362774" lon="13.223114"><ele>459.85367722941146</ele><time>2020-05-16T06:15:46Z</time></trkpt>
<trkpt lat="43.362686" lon="13.223126"><ele>458.8530315715731</ele><time>2020-05-16T06:15:53Z</time></trkpt>
<trkpt lat="43.362603" lon="13.223152"><ele>458.8524566816737</ele><time>2020-05-16T06:16:00Z</time></trkpt>
<trkpt lat="43.362558" lon="13.223252"><ele>459.85229426033266</ele><time>2020-05-16T06:16:10Z</time></trkpt>
<trkpt lat="43.362556" lon="13.223374"><ele>464.85249954965036</ele><time>2020-05-16T06:16:18Z</time></trkpt>
<trkpt lat="43.362513" lon="13.223472"><ele>470.8523464508238</ele><time>2020-05-16T06:16:25Z</time></trkpt>
<trkpt lat="43.362438" lon="13.223528"><ele>472.8518806989775</ele><time>2020-05-16T06:16:31Z</time></trkpt>
<trkpt lat="43.362369" lon="13.223593"><ele>473.8514758471083</ele><time>2020-05-16T06:16:39Z</time></trkpt>
<trkpt lat="43.362303" lon="13.223672"><ele>477.85111678973686</ele><time>2020-05-16T06:16:54Z</time></trkpt>
<trkpt lat="43.362236" lon="13.223739"><ele>482.8507260009861</ele><time>2020-05-16T06:17:05Z</time></trkpt>
<trkpt lat="43.362153" lon="13.223759"><ele>482.8501353891137</ele><time>2020-05-16T06:17:12Z</time></trkpt>
<trkpt lat="43.362072" lon="13.223762"><ele>481.849526929781</ele><time>2020-05-16T06:17:19Z</time></trkpt>
<trkpt lat="43.361986" lon="13.223757"><ele>480.84886606826853</ele><time>2020-05-16T06:17:28Z</time></trkpt>
<trkpt lat="43.361899" lon="13.223745"><ele>478.8481859240438</ele><time>2020-05-16T06:17:35Z</time></trkpt>
<trkpt lat="43.361820" lon="13.223756"><ele>477.8476080221262</ele><time>2020-05-16T06:17:41Z</time></trkpt>
<trkpt lat="43.361741" lon="13.223745"><ele>480.8469904057779</ele><time>2020-05-16T06:17:47Z</time></trkpt>
<trkpt lat="43.361678" lon="13.223724"><ele>478.8464696705799</ele><time>2020-05-16T06:17:52Z</time></trkpt>
<trkpt lat="43.361606" lon="13.223685"><ele>478.845854208331</ele><time>2020-05-16T06:17:57Z</time></trkpt>
<trkpt lat="43.361521" lon="13.223653"><ele>476.84515354999564</ele><time>2020-05-16T06:18:03Z</time></trkpt>
<trkpt lat="43.361459" lon="13.223585"><ele>474.84456217793695</ele><time>2020-05-16T06:18:08Z</time></trkpt>
<trkpt lat="43.361407" lon="13.223466"><ele>479.84395971337653</ele><time>2020-05-16T06:18:13Z</time></trkpt>
<trkpt lat="43.361344" lon="13.223427"><ele>482.84341179528894</ele><time>2020-05-16T06:18:26Z</time></trkpt>
<trkpt lat="43.361291" lon="13.223329"><ele>479.8428374160036</ele><time>2020-05-16T06:18:35Z</time></trkpt>
<trkpt lat="43.361238" lon="13.223232"><ele>476.84225861284966</ele><time>2020-05-16T06:18:43Z</time></trkpt>
<trkpt lat="43.361184" lon="13.223145"><ele>474.8417005483184</ele><time>2020-05-16T06:18:49Z</time></trkpt>
<trkpt lat="43.361113" lon="13.223080"><ele>476.84104171398</ele><time>2020-05-16T06:18:55Z</time></trkpt>
<trkpt lat="43.361047" lon="13.223020"><ele>478.84044047887494</ele><time>2020-05-16T06:19:02Z</time></trkpt>
<trkpt lat="43.360994" lon="13.222926"><ele>479.8398707403919</ele><time>2020-05-16T06:19:10Z</time></trkpt>
<trkpt lat="43.360961" lon="13.222812"><ele>476.83942070531737</ele><time>2020-05-16T06:19:17Z</time></trkpt>
<trkpt lat="43.360929" lon="13.222714"><ele>476.83900517320575</ele><time>2020-05-16T06:19:23Z</time></trkpt>
<trkpt lat="43.360879" lon="13.222643"><ele>481.838498723825</ele><time>2020-05-16T06:19:28Z</time></trkpt>
<trkpt lat="43.360836" lon="13.222549"><ele>485.83800519422323</ele><time>2020-05-16T06:19:33Z</time></trkpt>
<trkpt lat="43.360787" lon="13.222453"><ele>492.8374676390414</ele><time>2020-05-16T06:19:48Z</time></trkpt>
<trkpt lat="43.360711" lon="13.222413"><ele>486.8368209369638</ele><time>2020-05-16T06:19:55Z</time></trkpt>
<trkpt lat="43.360665" lon="13.222332"><ele>483.8363310945611</ele><time>2020-05-16T06:20:00Z</time></trkpt>
<trkpt lat="43.360627" lon="13.222243"><ele>484.8358882203443</ele><time>2020-05-16T06:20:05Z</time></trkpt>
<trkpt lat="43.360580" lon="13.222146"><ele>487.83535662366046</ele><time>2020-05-16T06:20:13Z</time></trkpt>
<trkpt lat="43.360543" lon="13.222036"><ele>488.83488147139315</ele><time>2020-05-16T06:20:23Z</time></trkpt>
<trkpt lat="43.360512" lon="13.221934"><ele>486.8344724247026</ele><time>2020-05-16T06:20:33Z</time></trkpt>
<trkpt lat="43.360449" lon="13.221860"><ele>481.8338645345501</ele><time>2020-05-16T06:20:41Z</time></trkpt>
<trkpt lat="43.360399" lon="13.221758"><ele>485.83330345753427</ele><time>2020-05-16T06:20:53Z</time></trkpt>
<trkpt lat="43.360319" lon="13.221720"><ele>485.832637677648</ele><time>2020-05-16T06:21:00Z</time></trkpt>
<trkpt lat="43.360249" lon="13.221646"><ele>483.8319726332153</ele><time>2020-05-16T06:21:11Z</time></trkpt>
<trkpt lat="43.360177" lon="13.221594"><ele>480.83133719047925</ele><time>2020-05-16T06:21:17Z</time></trkpt>
<trkpt lat="43.360106" lon="13.221567"><ele>480.8307572445739</ele><time>2020-05-16T06:21:24Z</time></trkpt>
<trkpt lat="43.360031" lon="13.221515"><ele>482.8301012873482</ele><time>2020-05-16T06:21:29Z</time></trkpt>
<trkpt lat="43.359956" lon="13.221453"><ele>486.8294224103971</ele><time>2020-05-16T06:21:33Z</time></trkpt>
<trkpt lat="43.359890" lon="13.221386"><ele>490.8288061059702</ele><time>2020-05-16T06:21:39Z</time></trkpt>
<trkpt lat="43.359810" lon="13.221375"><ele>491.8281835279686</ele><time>2020-05-16T06:21:46Z</time></trkpt>
<trkpt lat="43.359745" lon="13.221317"><ele>493.8275967627685</ele><time>2020-05-16T06:21:51Z</time></trkpt>
<trkpt lat="43.359662" lon="13.221275"><ele>496.8268953144931</ele><time>2020-05-16T06:21:56Z</time></trkpt>
<trkpt lat="43.359579" lon="13.221231"><ele>497.82619511134055</ele><time>2020-05-16T06:22:01Z</time></trkpt>
<trkpt lat="43.359501" lon="13.221196"><ele>500.8255414636599</ele><time>2020-05-16T06:22:08Z</time></trkpt>
<trkpt lat="43.359433" lon="13.221121"><ele>506.8248960950753</ele><time>2020-05-16T06:22:13Z</time></trkpt>
<trkpt lat="43.359355" lon="13.221064"><ele>506.8242141760797</ele><time>2020-05-16T06:22:21Z</time></trkpt>
<trkpt lat="43.359291" lon="13.221014"><ele>507.8236405245184</ele><time>2020-05-16T06:22:26Z</time></trkpt>
<trkpt lat="43.359215" lon="13.220948"><ele>505.82295425007</ele><time>2020-05-16T06:22:33Z</time></trkpt>
<trkpt lat="43.359148" lon="13.220891"><ele>504.8223471402251</ele><time>2020-05-16T06:22:38Z</time></trkpt>
<trkpt lat="43.359084" lon="13.220812"><ele>507.82172969584997</ele><time>2020-05-16T06:22:45Z</time></trkpt>
<trkpt lat="43.359058" lon="13.220712"><ele>509.8213559366132</ele><time>2020-05-16T06:22:55Z</time></trkpt>
<trkpt lat="43.359027" lon="13.220614"><ele>503.8209557272398</ele><time>2020-05-16T06:23:01Z</time></trkpt>
<trkpt lat="43.358993" lon="13.220513"><ele>500.8205242632176</ele><time>2020-05-16T06:23:07Z</time></trkpt>
<trkpt lat="43.358955" lon="13.220410"><ele>505.82005577283564</ele><time>2020-05-16T06:23:14Z</time></trkpt>
<trkpt lat="43.358980" lon="13.220303"><ele>508.82005539132297</ele><time>2020-05-16T06:23:20Z</time></trkpt>
<trkpt lat="43.359010" lon="13.220201"><ele>512.8201046770948</ele><time>2020-05-16T06:23:28Z</time></trkpt>
<trkpt lat="43.358991" lon="13.220092"><ele>514.8197695663175</ele><time>2020-05-16T06:23:35Z</time></trkpt>
<trkpt lat="43.358973" lon="13.219977"><ele>513.8194383759949</ele><time>2020-05-16T06:23:42Z</time></trkpt>
<trkpt lat="43.358930" lon="13.219886"><ele>507.81895328707213</ele><time>2020-05-16T06:23:50Z</time></trkpt>
<trkpt lat="43.358889" lon="13.219797"><ele>508.8184922447126</ele><time>2020-05-16T06:23:57Z</time></trkpt>
<trkpt lat="43.358827" lon="13.219720"><ele>510.817891356636</ele><time>2020-05-16T06:24:04Z</time></trkpt>
<trkpt lat="43.358748" lon="13.219672"><ele>511.8172146358239</ele><time>2020-05-16T06:24:12Z</time></trkpt>
<trkpt lat="43.358673" lon="13.219616"><ele>516.8165555905832</ele><time>2020-05-16T06:24:24Z</time></trkpt>
<trkpt lat="43.358607" lon="13.219549"><ele>521.8159394237117</ele><time>2020-05-16T06:24:32Z</time></trkpt>
<trkpt lat="43.358544" lon="13.219466"><ele>521.8153205788293</ele><time>2020-05-16T06:24:41Z</time></trkpt>
<trkpt lat="43.358492" lon="13.219377"><ele>523.8147812576128</ele><time>2020-05-16T06:24:52Z</time></trkpt>
<trkpt lat="43.358425" lon="13.219300"><ele>526.8141424838362</ele><time>2020-05-16T06:24:59Z</time></trkpt>
<trkpt lat="43.358371" lon="13.219228"><ele>526.8136074923262</ele><time>2020-05-16T06:25:07Z</time></trkpt>
<trkpt lat="43.358322" lon="13.219125"><ele>526.8130669872886</ele><time>2020-05-16T06:25:19Z</time></trkpt>
<trkpt lat="43.358266" lon="13.219046"><ele>525.8125099356114</ele><time>2020-05-16T06:25:28Z</time></trkpt>
<trkpt lat="43.358208" lon="13.218980"><ele>525.8119564334377</ele><time>2020-05-16T06:25:35Z</time></trkpt>
<trkpt lat="43.358139" lon="13.218906"><ele>527.8113084505471</ele><time>2020-05-16T06:25:43Z</time></trkpt>
<trkpt lat="43.358078" lon="13.218856"><ele>529.8107657665048</ele><time>2020-05-16T06:25:49Z</time></trkpt>
<trkpt lat="43.358003" lon="13.218795"><ele>530.8101010515522</ele><time>2020-05-16T06:25:55Z</time></trkpt>
<trkpt lat="43.357931" lon="13.218735"><ele>534.8094529799035</ele><time>2020-05-16T06:26:03Z</time></trkpt>
<trkpt lat="43.357873" lon="13.218656"><ele>533.8088830558713</ele><time>2020-05-16T06:26:10Z</time></trkpt>
<trkpt lat="43.357807" lon="13.218580"><ele>539.8082628464052</ele><time>2020-05-16T06:26:20Z</time></trkpt>
<trkpt lat="43.357736" lon="13.218518"><ele>540.8076223184388</ele><time>2020-05-16T06:26:29Z</time></trkpt>
<trkpt lat="43.357655" lon="13.218470"><ele>542.8069289220797</ele><time>2020-05-16T06:26:40Z</time></trkpt>
<trkpt lat="43.357575" lon="13.218421"><ele>542.8062486095591</ele><time>2020-05-16T06:26:50Z</time></trkpt>
<trkpt lat="43.357492" lon="13.218414"><ele>546.8056108366189</ele><time>2020-05-16T06:26:59Z</time></trkpt>
<trkpt lat="43.357406" lon="13.218417"><ele>550.8049754856972</ele><time>2020-05-16T06:27:09Z</time></trkpt>
<trkpt lat="43.357321" lon="13.218444"><ele>551.8043809116954</ele><time>2020-05-16T06:27:16Z</time></trkpt>
<trkpt lat="43.357237" lon="13.218432"><ele>558.8037318943673</ele><time>2020-05-16T06:27:25Z</time></trkpt>
<trkpt lat="43.357163" lon="13.218383"><ele>557.8030962218777</ele><time>2020-05-16T06:27:35Z</time></trkpt>
<trkpt lat="43.357162" lon="13.218261"><ele>561.802877256687</ele><time>2020-05-16T06:27:48Z</time></trkpt>
<trkpt lat="43.357142" lon="13.218167"><ele>556.8025671752005</ele><time>2020-05-16T06:27:54Z</time></trkpt>
<trkpt lat="43.357124" lon="13.218063"><ele>557.8022548272455</ele><time>2020-05-16T06:28:02Z</time></trkpt>
<trkpt lat="43.357085" lon="13.217954"><ele>558.8017712631771</ele><time>2020-05-16T06:28:11Z</time></trkpt>
<trkpt lat="43.357045" lon="13.217857"><ele>559.8013110917343</ele><time>2020-05-16T06:28:20Z</time></trkpt>
<trkpt lat="43.357002" lon="13.217755"><ele>561.8008146504383</ele><time>2020-05-16T06:28:33Z</time></trkpt>
<trkpt lat="43.356966" lon="13.217658"><ele>560.8003766647605</ele><time>2020-05-16T06:28:40Z</time></trkpt>
<trkpt lat="43.356938" lon="13.217540"><ele>559.7999649222506</ele><time>2020-05-16T06:28:47Z</time></trkpt>
<trkpt lat="43.356937" lon="13.217428"><ele>566.7997636475344</ele><time>2020-05-16T06:29:10Z</time></trkpt>
<trkpt lat="43.356923" lon="13.217319"><ele>563.7994768058021</ele><time>2020-05-16T06:29:16Z</time></trkpt>
<trkpt lat="43.356887" lon="13.217207"><ele>562.7990121386729</ele><time>2020-05-16T06:29:22Z</time></trkpt>
<trkpt lat="43.356863" lon="13.217101"><ele>564.7986507864572</ele><time>2020-05-16T06:29:28Z</time></trkpt>
<trkpt lat="43.356853" lon="13.216986"><ele>563.7983783616858</ele><time>2020-05-16T06:29:35Z</time></trkpt>
<trkpt lat="43.356840" lon="13.216868"><ele>564.7980797831976</ele><time>2020-05-16T06:29:42Z</time></trkpt>
<trkpt lat="43.356820" lon="13.216755"><ele>572.7977419467212</ele><time>2020-05-16T06:29:57Z</time></trkpt>
<trkpt lat="43.356783" lon="13.216665"><ele>573.7973143390783</ele><time>2020-05-16T06:30:03Z</time></trkpt>
<trkpt lat="43.356722" lon="13.216578"><ele>574.7967077481067</ele><time>2020-05-16T06:30:09Z</time></trkpt>
<trkpt lat="43.356676" lon="13.216482"><ele>576.7961985189472</ele><time>2020-05-16T06:30:18Z</time></trkpt>
<trkpt lat="43.356613" lon="13.216402"><ele>580.7955897596685</ele><time>2020-05-16T06:30:33Z</time></trkpt>
<trkpt lat="43.356552" lon="13.216312"><ele>582.7949830206912</ele><time>2020-05-16T06:30:43Z</time></trkpt>
<trkpt lat="43.356498" lon="13.216234"><ele>578.794448261429</ele><time>2020-05-16T06:30:51Z</time></trkpt>
<trkpt lat="43.356450" lon="13.216137"><ele>582.7939238883187</ele><time>2020-05-16T06:31:00Z</time></trkpt>
<trkpt lat="43.356399" lon="13.216040"><ele>586.793379590594</ele><time>2020-05-16T06:31:20Z</time></trkpt>
<trkpt lat="43.356404" lon="13.215918"><ele>587.7932129046637</ele><time>2020-05-16T06:31:31Z</time></trkpt>
<trkpt lat="43.356395" lon="13.215797"><ele>586.792933004516</ele><time>2020-05-16T06:31:39Z</time></trkpt>
<trkpt lat="43.356357" lon="13.215688"><ele>588.7924647656147</ele><time>2020-05-16T06:31:47Z</time></trkpt>
<trkpt lat="43.356300" lon="13.215601"><ele>590.791893469164</ele><time>2020-05-16T06:31:57Z</time></trkpt>
<trkpt lat="43.356251" lon="13.215498"><ele>592.791353724965</ele><time>2020-05-16T06:32:07Z</time></trkpt>
<trkpt lat="43.356189" lon="13.215416"><ele>596.7907535461156</ele><time>2020-05-16T06:32:16Z</time></trkpt>
<trkpt lat="43.356129" lon="13.215329"><ele>601.7901561973168</ele><time>2020-05-16T06:32:30Z</time></trkpt>
<trkpt lat="43.356060" lon="13.215261"><ele>602.7895258077973</ele><time>2020-05-16T06:32:42Z</time></trkpt>
<trkpt lat="43.355989" lon="13.215193"><ele>603.7888822704623</ele><time>2020-05-16T06:32:50Z</time></trkpt>
<trkpt lat="43.355907" lon="13.215146"><ele>610.7881927154601</ele><time>2020-05-16T06:33:00Z</time></trkpt>
<trkpt lat="43.355840" lon="13.215084"><ele>616.787589411227</ele><time>2020-05-16T06:33:14Z</time></trkpt>
<trkpt lat="43.355819" lon="13.215201"><ele>624.7876317824314</ele><time>2020-05-16T06:33:53Z</time></trkpt>
<trkpt lat="43.355804" lon="13.215308"><ele>627.7877038931355</ele><time>2020-05-16T06:33:59Z</time></trkpt>
<trkpt lat="43.355794" lon="13.215421"><ele>627.7878226625678</ele><time>2020-05-16T06:34:05Z</time></trkpt>
<trkpt lat="43.355827" lon="13.215530"><ele>631.7882534652749</ele><time>2020-05-16T06:34:11Z</time></trkpt>
<trkpt lat="43.355804" lon="13.215648"><ele>630.7882824711091</ele><time>2020-05-16T06:34:22Z</time></trkpt>
<trkpt lat="43.355785" lon="13.215752"><ele>632.7883113425899</ele><time>2020-05-16T06:34:31Z</time></trkpt>
<trkpt lat="43.355748" lon="13.215858"><ele>633.7882186275001</ele><time>2020-05-16T06:34:40Z</time></trkpt>
<trkpt lat="43.355729" lon="13.215965"><ele>633.7882557865618</ele><time>2020-05-16T06:34:53Z</time></trkpt>
<trkpt lat="43.355722" lon="13.216076"><ele>633.7883883165174</ele><time>2020-05-16T06:35:00Z</time></trkpt>
<trkpt lat="43.355718" lon="13.216188"><ele>634.7885514784573</ele><time>2020-05-16T06:35:08Z</time></trkpt>
<trkpt lat="43.355709" lon="13.216298"><ele>636.7886732462357</ele><time>2020-05-16T06:35:15Z</time></trkpt>
<trkpt lat="43.355657" lon="13.216386"><ele>636.7884336930672</ele><time>2020-05-16T06:35:26Z</time></trkpt>
<trkpt lat="43.355573" lon="13.216406"><ele>635.7878368931911</ele><time>2020-05-16T06:35:35Z</time></trkpt>
<trkpt lat="43.355488" lon="13.216422"><ele>635.7872342797174</ele><time>2020-05-16T06:35:45Z</time></trkpt>
<trkpt lat="43.355399" lon="13.216412"><ele>634.7865535042786</ele><time>2020-05-16T06:35:55Z</time></trkpt>
<trkpt lat="43.355342" lon="13.216332"><ele>640.7859896442208</ele><time>2020-05-16T06:36:12Z</time></trkpt>
<trkpt lat="43.355281" lon="13.216242"><ele>641.7853844300218</ele><time>2020-05-16T06:36:24Z</time></trkpt>
<trkpt lat="43.355241" lon="13.216147"><ele>642.7849229312516</ele><time>2020-05-16T06:36:33Z</time></trkpt>
<trkpt lat="43.355174" lon="13.216070"><ele>646.7842938253019</ele><time>2020-05-16T06:36:47Z</time></trkpt>
<trkpt lat="43.355087" lon="13.216040"><ele>653.7835996837792</ele><time>2020-05-16T06:36:59Z</time></trkpt>
<trkpt lat="43.355006" lon="13.216009"><ele>654.7829426733977</ele><time>2020-05-16T06:37:12Z</time></trkpt>
<trkpt lat="43.354988" lon="13.215896"><ele>658.7826142058431</ele><time>2020-05-16T06:37:25Z</time></trkpt>
<trkpt lat="43.354902" lon="13.215862"><ele>663.781921225235</ele><time>2020-05-16T06:37:43Z</time></trkpt>
<trkpt lat="43.354816" lon="13.215875"><ele>665.7813007952215</ele><time>2020-05-16T06:38:01Z</time></trkpt>
<trkpt lat="43.354728" lon="13.215862"><ele>671.7806196492166</ele><time>2020-05-16T06:38:12Z</time></trkpt>
<trkpt lat="43.354681" lon="13.215767"><ele>667.7801106790812</ele><time>2020-05-16T06:38:39Z</time></trkpt>
<trkpt lat="43.354596" lon="13.215733"><ele>671.7794205446475</ele><time>2020-05-16T06:38:47Z</time></trkpt>
<trkpt lat="43.354515" lon="13.215698"><ele>670.7787607910822</ele><time>2020-05-16T06:38:56Z</time></trkpt>
<trkpt lat="43.354432" lon="13.215663"><ele>672.7780800188557</ele><time>2020-05-16T06:39:07Z</time></trkpt>
<trkpt lat="43.354346" lon="13.215640"><ele>677.7774051989135</ele><time>2020-05-16T06:39:17Z</time></trkpt>
<trkpt lat="43.354264" lon="13.215664"><ele>679.7768319151767</ele><time>2020-05-16T06:39:28Z</time></trkpt>
<trkpt lat="43.354177" lon="13.215650"><ele>678.7761619235295</ele><time>2020-05-16T06:39:38Z</time></trkpt>
<trkpt lat="43.354089" lon="13.215645"><ele>678.7754951533003</ele><time>2020-05-16T06:39:51Z</time></trkpt>
<trkpt lat="43.354039" lon="13.215547"><ele>682.7749610676427</ele><time>2020-05-16T06:40:04Z</time></trkpt>
<trkpt lat="43.353986" lon="13.215457"><ele>686.7744160113323</ele><time>2020-05-16T06:40:12Z</time></trkpt>
<trkpt lat="43.353922" lon="13.215373"><ele>690.7737973505554</ele><time>2020-05-16T06:40:34Z</time></trkpt>
<trkpt lat="43.353884" lon="13.215272"><ele>692.7733504408202</ele><time>2020-05-16T06:40:48Z</time></trkpt>
<trkpt lat="43.353878" lon="13.215150"><ele>693.7731021597915</ele><time>2020-05-16T06:41:01Z</time></trkpt>
<trkpt lat="43.353896" lon="13.215034"><ele>696.7730425140699</ele><time>2020-05-16T06:41:08Z</time></trkpt>
<trkpt lat="43.353877" lon="13.214918"><ele>698.7727074127093</ele><time>2020-05-16T06:41:17Z</time></trkpt>
<trkpt lat="43.353864" lon="13.214798"><ele>702.7724116331368</ele><time>2020-05-16T06:41:28Z</time></trkpt>
<trkpt lat="43.353805" lon="13.214709"><ele>704.7718262027707</ele><time>2020-05-16T06:41:37Z</time></trkpt>
<trkpt lat="43.353746" lon="13.214631"><ele>704.7712562577788</ele><time>2020-05-16T06:41:43Z</time></trkpt>
<trkpt lat="43.353671" lon="13.214567"><ele>707.7705956623001</ele><time>2020-05-16T06:41:52Z</time></trkpt>
<trkpt lat="43.353593" lon="13.214596"><ele>707.7700637323339</ele><time>2020-05-16T06:42:02Z</time></trkpt>
<trkpt lat="43.353510" lon="13.214632"><ele>707.7695020927105</ele><time>2020-05-16T06:42:13Z</time></trkpt>
<trkpt lat="43.353430" lon="13.214615"><ele>712.768883276375</ele><time>2020-05-16T06:42:23Z</time></trkpt>
<trkpt lat="43.353359" lon="13.214539"><ele>716.7682314996468</ele><time>2020-05-16T06:42:32Z</time></trkpt>
<trkpt lat="43.353296" lon="13.214461"><ele>720.7676274099671</ele><time>2020-05-16T06:42:42Z</time></trkpt>
<trkpt lat="43.353219" lon="13.214419"><ele>722.7669901167817</ele><time>2020-05-16T06:42:52Z</time></trkpt>
<trkpt lat="43.353136" lon="13.214380"><ele>724.7663105144404</ele><time>2020-05-16T06:43:02Z</time></trkpt>
<trkpt lat="43.353067" lon="13.214440"><ele>723.7658965677293</ele><time>2020-05-16T06:43:10Z</time></trkpt>
<trkpt lat="43.352997" lon="13.214496"><ele>724.7654648231531</ele><time>2020-05-16T06:43:17Z</time></trkpt>
<trkpt lat="43.352929" lon="13.214566"><ele>725.7650767308273</ele><time>2020-05-16T06:43:24Z</time></trkpt>
<trkpt lat="43.352862" lon="13.214627"><ele>725.7646818788985</ele><time>2020-05-16T06:43:31Z</time></trkpt>
<trkpt lat="43.352797" lon="13.214699"><ele>724.7643159637529</ele><time>2020-05-16T06:43:38Z</time></trkpt>
<trkpt lat="43.352729" lon="13.214763"><ele>724.7639180674637</ele><time>2020-05-16T06:43:45Z</time></trkpt>
<trkpt lat="43.352668" lon="13.214829"><ele>724.7635666194809</ele><time>2020-05-16T06:43:51Z</time></trkpt>
<trkpt lat="43.352599" lon="13.214899"><ele>726.7631686182749</ele><time>2020-05-16T06:43:57Z</time></trkpt>
<trkpt lat="43.352531" lon="13.214964"><ele>726.7627724210848</ele><time>2020-05-16T06:44:04Z</time></trkpt>
<trkpt lat="43.352455" lon="13.214996"><ele>726.7622614423213</ele><time>2020-05-16T06:44:10Z</time></trkpt>
<trkpt lat="43.352371" lon="13.215031"><ele>726.7616946085355</ele><time>2020-05-16T06:44:17Z</time></trkpt>
<trkpt lat="43.352290" lon="13.215055"><ele>727.7611247773809</ele><time>2020-05-16T06:44:24Z</time></trkpt>
<trkpt lat="43.352208" lon="13.215075"><ele>727.7605500575477</ele><time>2020-05-16T06:44:31Z</time></trkpt>
<trkpt lat="43.352133" lon="13.215105"><ele>728.7600399434508</ele><time>2020-05-16T06:44:37Z</time></trkpt>
<trkpt lat="43.352058" lon="13.215145"><ele>727.7595445445087</ele><time>2020-05-16T06:44:44Z</time></trkpt>
<trkpt lat="43.351983" lon="13.215177"><ele>727.7590422788992</ele><time>2020-05-16T06:44:50Z</time></trkpt>
<trkpt lat="43.351900" lon="13.215201"><ele>727.758463238989</ele><time>2020-05-16T06:44:56Z</time></trkpt>
<trkpt lat="43.351816" lon="13.215220"><ele>727.7578710791672</ele><time>2020-05-16T06:45:02Z</time></trkpt>
<trkpt lat="43.351734" lon="13.215230"><ele>727.7572726570029</ele><time>2020-05-16T06:45:08Z</time></trkpt>
<trkpt lat="43.351645" lon="13.215240"><ele>727.7566308976602</ele><time>2020-05-16T06:45:15Z</time></trkpt>
<trkpt lat="43.351564" lon="13.215253"><ele>727.7560501428716</ele><time>2020-05-16T06:45:21Z</time></trkpt>
<trkpt lat="43.351481" lon="13.215267"><ele>727.7554521490783</ele><time>2020-05-16T06:45:27Z</time></trkpt>
<trkpt lat="43.351402" lon="13.215278"><ele>727.7548822129366</ele><time>2020-05-16T06:45:33Z</time></trkpt>
<trkpt lat="43.351326" lon="13.215268"><ele>727.7543025882856</ele><time>2020-05-16T06:45:39Z</time></trkpt>
<trkpt lat="43.351238" lon="13.215251"><ele>726.7536185738443</ele><time>2020-05-16T06:45:45Z</time></trkpt>
<trkpt lat="43.351160" lon="13.215231"><ele>725.7530069443279</ele><time>2020-05-16T06:45:51Z</time></trkpt>
<trkpt lat="43.351075" lon="13.215216"><ele>725.752346914221</ele><time>2020-05-16T06:45:58Z</time></trkpt>
<trkpt lat="43.350997" lon="13.215173"><ele>725.7516978542272</ele><time>2020-05-16T06:46:05Z</time></trkpt>
<trkpt lat="43.350917" lon="13.215150"><ele>724.7510677440596</ele><time>2020-05-16T06:46:11Z</time></trkpt>
<trkpt lat="43.350862" lon="13.215056"><ele>723.7505065794251</ele><time>2020-05-16T06:46:18Z</time></trkpt>
<trkpt lat="43.350812" lon="13.214974"><ele>723.7499977199899</ele><time>2020-05-16T06:46:26Z</time></trkpt>
<trkpt lat="43.350730" lon="13.214927"><ele>720.749315393422</ele><time>2020-05-16T06:46:33Z</time></trkpt>
<trkpt lat="43.350655" lon="13.214868"><ele>719.7486585249159</ele><time>2020-05-16T06:46:40Z</time></trkpt>
<trkpt lat="43.350593" lon="13.214790"><ele>719.7480732093585</ele><time>2020-05-16T06:46:47Z</time></trkpt>
<trkpt lat="43.350529" lon="13.214706"><ele>718.7474621945187</ele><time>2020-05-16T06:46:53Z</time></trkpt>
<trkpt lat="43.350479" lon="13.214609"><ele>719.7469382796406</ele><time>2020-05-16T06:47:00Z</time></trkpt>
<trkpt lat="43.350428" lon="13.214533"><ele>716.7464343256787</ele><time>2020-05-16T06:47:08Z</time></trkpt>
<trkpt lat="43.350361" lon="13.214454"><ele>716.7458086042071</ele><time>2020-05-16T06:47:14Z</time></trkpt>
<trkpt lat="43.350315" lon="13.214369"><ele>714.7453316471468</ele><time>2020-05-16T06:47:21Z</time></trkpt>
<trkpt lat="43.350254" lon="13.214286"><ele>715.7447424957193</ele><time>2020-05-16T06:47:27Z</time></trkpt>
<trkpt lat="43.350197" lon="13.214230"><ele>712.7442329554455</ele><time>2020-05-16T06:47:33Z</time></trkpt>
<trkpt lat="43.350128" lon="13.214161"><ele>715.7436100320439</ele><time>2020-05-16T06:47:38Z</time></trkpt>
<trkpt lat="43.350068" lon="13.214075"><ele>715.7430232234292</ele><time>2020-05-16T06:47:44Z</time></trkpt>
<trkpt lat="43.349995" lon="13.214022"><ele>715.7423941293147</ele><time>2020-05-16T06:47:51Z</time></trkpt>
<trkpt lat="43.349914" lon="13.213978"><ele>711.7417291279093</ele><time>2020-05-16T06:47:59Z</time></trkpt>
<trkpt lat="43.349830" lon="13.213969"><ele>708.7410911660744</ele><time>2020-05-16T06:48:06Z</time></trkpt>
<trkpt lat="43.349746" lon="13.213936"><ele>705.7404110747764</ele><time>2020-05-16T06:48:14Z</time></trkpt>
<trkpt lat="43.349650" lon="13.213879"><ele>708.7396063410329</ele><time>2020-05-16T06:48:19Z</time></trkpt>
<trkpt lat="43.349569" lon="13.213856"><ele>709.7389745027399</ele><time>2020-05-16T06:48:33Z</time></trkpt>
<trkpt lat="43.349492" lon="13.213815"><ele>707.7383357080125</ele><time>2020-05-16T06:48:39Z</time></trkpt>
<trkpt lat="43.349408" lon="13.213769"><ele>712.7376369919241</ele><time>2020-05-16T06:48:44Z</time></trkpt>
<trkpt lat="43.349333" lon="13.213735"><ele>711.7370292938601</ele><time>2020-05-16T06:48:50Z</time></trkpt>
<trkpt lat="43.349264" lon="13.213693"><ele>712.736446915061</ele><time>2020-05-16T06:48:56Z</time></trkpt>
<trkpt lat="43.349185" lon="13.213664"><ele>717.7358163594889</ele><time>2020-05-16T06:49:01Z</time></trkpt>
<trkpt lat="43.349119" lon="13.213602"><ele>714.7352262353382</ele><time>2020-05-16T06:49:09Z</time></trkpt>
<trkpt lat="43.349043" lon="13.213549"><ele>715.7345779526181</ele><time>2020-05-16T06:49:16Z</time></trkpt>
<trkpt lat="43.348981" lon="13.213483"><ele>717.7340142674527</ele><time>2020-05-16T06:49:21Z</time></trkpt>
<trkpt lat="43.348903" lon="13.213451"><ele>717.7333899168017</ele><time>2020-05-16T06:49:28Z</time></trkpt>
<trkpt lat="43.348834" lon="13.213399"><ele>717.7327905443085</ele><time>2020-05-16T06:49:34Z</time></trkpt>
<trkpt lat="43.348759" lon="13.213343"><ele>720.7321512172696</ele><time>2020-05-16T06:49:41Z</time></trkpt>
<trkpt lat="43.348685" lon="13.213301"><ele>718.7315365993965</ele><time>2020-05-16T06:49:47Z</time></trkpt>
<trkpt lat="43.348632" lon="13.213278"><ele>717.731106572497</ele><time>2020-05-16T06:49:51Z</time></trkpt>
<trkpt lat="43.348546" lon="13.213260"><ele>717.730439298187</ele><time>2020-05-16T06:49:56Z</time></trkpt>
<trkpt lat="43.348466" lon="13.213205"><ele>715.7297566915861</ele><time>2020-05-16T06:50:04Z</time></trkpt>
<trkpt lat="43.348401" lon="13.213130"><ele>715.7291620238095</ele><time>2020-05-16T06:50:10Z</time></trkpt>
<trkpt lat="43.348317" lon="13.213092"><ele>713.7284766293357</ele><time>2020-05-16T06:50:17Z</time></trkpt>
<trkpt lat="43.348248" lon="13.213014"><ele>715.7278463301047</ele><time>2020-05-16T06:50:23Z</time></trkpt>
<trkpt lat="43.348172" lon="13.212941"><ele>718.7271665586491</ele><time>2020-05-16T06:50:28Z</time></trkpt>
<trkpt lat="43.348114" lon="13.212870"><ele>721.7266239836905</ele><time>2020-05-16T06:50:32Z</time></trkpt>
<trkpt lat="43.348067" lon="13.212780"><ele>723.7261308328588</ele><time>2020-05-16T06:50:38Z</time></trkpt>
<trkpt lat="43.347995" lon="13.212734"><ele>725.7255304419924</ele><time>2020-05-16T06:50:44Z</time></trkpt>
<trkpt lat="43.347927" lon="13.212673"><ele>722.7249340564804</ele><time>2020-05-16T06:50:50Z</time></trkpt>
<trkpt lat="43.347857" lon="13.212606"><ele>723.7243059520471</ele><time>2020-05-16T06:50:57Z</time></trkpt>
<trkpt lat="43.347796" lon="13.212573"><ele>720.7238053328314</ele><time>2020-05-16T06:51:02Z</time></trkpt>
<trkpt lat="43.347716" lon="13.212560"><ele>717.7231888935793</ele><time>2020-05-16T06:51:08Z</time></trkpt>
<trkpt lat="43.347639" lon="13.212521"><ele>720.7225611271217</ele><time>2020-05-16T06:51:14Z</time></trkpt>
<trkpt lat="43.347552" lon="13.212526"><ele>721.7219222799102</ele><time>2020-05-16T06:51:23Z</time></trkpt>
<trkpt lat="43.347465" lon="13.212504"><ele>723.7212487716236</ele><time>2020-05-16T06:51:30Z</time></trkpt>
<trkpt lat="43.347379" lon="13.212521"><ele>720.720640645595</ele><time>2020-05-16T06:51:38Z</time></trkpt>
<trkpt lat="43.347290" lon="13.212528"><ele>720.719988272976</ele><time>2020-05-16T06:51:43Z</time></trkpt>
<trkpt lat="43.347210" lon="13.212506"><ele>720.7193609480892</ele><time>2020-05-16T06:51:49Z</time></trkpt>
<trkpt lat="43.347131" lon="13.212489"><ele>720.7187559841813</ele><time>2020-05-16T06:51:54Z</time></trkpt>
<trkpt lat="43.347046" lon="13.212498"><ele>717.7181340375618</ele><time>2020-05-16T06:52:01Z</time></trkpt>
<trkpt lat="43.346963" lon="13.212489"><ele>719.7175096286159</ele><time>2020-05-16T06:52:07Z</time></trkpt>
<trkpt lat="43.346888" lon="13.212484"><ele>719.7169432691545</ele><time>2020-05-16T06:52:11Z</time></trkpt>
<trkpt lat="43.346812" lon="13.212490"><ele>718.7163950258487</ele><time>2020-05-16T06:52:17Z</time></trkpt>
<trkpt lat="43.346732" lon="13.212516"><ele>717.715839326401</ele><time>2020-05-16T06:52:24Z</time></trkpt>
<trkpt lat="43.346660" lon="13.212539"><ele>717.7153467845104</ele><time>2020-05-16T06:52:29Z</time></trkpt>
<trkpt lat="43.346569" lon="13.212563"><ele>720.7147103041596</ele><time>2020-05-16T06:52:34Z</time></trkpt>
<trkpt lat="43.346486" lon="13.212609"><ele>718.7141649985293</ele><time>2020-05-16T06:52:41Z</time></trkpt>
<trkpt lat="43.346428" lon="13.212685"><ele>717.7138523463252</ele><time>2020-05-16T06:52:46Z</time></trkpt>
<trkpt lat="43.346369" lon="13.212746"><ele>717.7135058024676</ele><time>2020-05-16T06:52:51Z</time></trkpt>
<trkpt lat="43.346300" lon="13.212825"><ele>715.7131246440423</ele><time>2020-05-16T06:52:57Z</time></trkpt>
<trkpt lat="43.346258" lon="13.212899"><ele>712.7129244297356</ele><time>2020-05-16T06:53:02Z</time></trkpt>
<trkpt lat="43.346227" lon="13.212996"><ele>714.7128411494037</ele><time>2020-05-16T06:53:08Z</time></trkpt>
<trkpt lat="43.346203" lon="13.213102"><ele>714.7128316093047</ele><time>2020-05-16T06:53:14Z</time></trkpt>
<trkpt lat="43.346174" lon="13.213198"><ele>716.7127583264729</ele><time>2020-05-16T06:53:19Z</time></trkpt>
<trkpt lat="43.346146" lon="13.213310"><ele>717.7127302550699</ele><time>2020-05-16T06:53:25Z</time></trkpt>
<trkpt lat="43.346126" lon="13.213426"><ele>719.712759332533</ele><time>2020-05-16T06:53:31Z</time></trkpt>
<trkpt lat="43.346102" lon="13.213533"><ele>716.7127399087871</ele><time>2020-05-16T06:53:41Z</time></trkpt>
<trkpt lat="43.346073" lon="13.213650"><ele>719.7127092397449</ele><time>2020-05-16T06:53:46Z</time></trkpt>
<trkpt lat="43.346071" lon="13.213764"><ele>714.7128700587148</ele><time>2020-05-16T06:53:52Z</time></trkpt>
<trkpt lat="43.346060" lon="13.213872"><ele>711.7129523147674</ele><time>2020-05-16T06:53:58Z</time></trkpt>
<trkpt lat="43.346036" lon="13.213964"><ele>716.7129154274228</ele><time>2020-05-16T06:54:03Z</time></trkpt>
<trkpt lat="43.346015" lon="13.214071"><ele>717.7129253291778</ele><time>2020-05-16T06:54:07Z</time></trkpt>
<trkpt lat="43.346004" lon="13.214179"><ele>716.7130098961275</ele><time>2020-05-16T06:54:12Z</time></trkpt>
<trkpt lat="43.346001" lon="13.214287"><ele>716.7131550985478</ele><time>2020-05-16T06:54:18Z</time></trkpt>
<trkpt lat="43.345992" lon="13.214398"><ele>718.7132580734881</ele><time>2020-05-16T06:54:24Z</time></trkpt>
<trkpt lat="43.345993" lon="13.214516"><ele>717.7134442315585</ele><time>2020-05-16T06:54:31Z</time></trkpt>
<trkpt lat="43.345990" lon="13.214636"><ele>717.7136068295539</ele><time>2020-05-16T06:54:37Z</time></trkpt>
<trkpt lat="43.345986" lon="13.214756"><ele>717.7137630545426</ele><time>2020-05-16T06:54:43Z</time></trkpt>
<trkpt lat="43.345978" lon="13.214863"><ele>716.713870033304</ele><time>2020-05-16T06:54:49Z</time></trkpt>
<trkpt lat="43.345987" lon="13.214984"><ele>715.7141217494425</ele><time>2020-05-16T06:54:56Z</time></trkpt>
<trkpt lat="43.345974" lon="13.215102"><ele>717.7142043554211</ele><time>2020-05-16T06:55:01Z</time></trkpt>
<trkpt lat="43.345996" lon="13.215212"><ele>715.7145359954839</ele><time>2020-05-16T06:55:07Z</time></trkpt>
<trkpt lat="43.346008" lon="13.215319"><ele>717.7147898379253</ele><time>2020-05-16T06:55:12Z</time></trkpt>
<trkpt lat="43.346033" lon="13.215429"><ele>712.7151468643269</ele><time>2020-05-16T06:55:19Z</time></trkpt>
<trkpt lat="43.346039" lon="13.215543"><ele>712.7153678302423</ele><time>2020-05-16T06:55:26Z</time></trkpt>
<trkpt lat="43.346047" lon="13.215659"><ele>712.7156021443589</ele><time>2020-05-16T06:55:32Z</time></trkpt>
<trkpt lat="43.346031" lon="13.215779"><ele>714.7156649519901</ele><time>2020-05-16T06:55:37Z</time></trkpt>
<trkpt lat="43.346026" lon="13.215879"><ele>713.7157815905318</ele><time>2020-05-16T06:55:42Z</time></trkpt>
<trkpt lat="43.346046" lon="13.215982"><ele>712.716087700717</ele><time>2020-05-16T06:55:47Z</time></trkpt>
<trkpt lat="43.346045" lon="13.216089"><ele>715.716247797259</ele><time>2020-05-16T06:55:52Z</time></trkpt>
<trkpt lat="43.346062" lon="13.216182"><ele>713.7165165959395</ele><time>2020-05-16T06:55:57Z</time></trkpt>
<trkpt lat="43.346065" lon="13.216304"><ele>716.7167267089967</ele><time>2020-05-16T06:56:03Z</time></trkpt>
<trkpt lat="43.346067" lon="13.216410"><ele>715.7169040420379</ele><time>2020-05-16T06:56:08Z</time></trkpt>
<trkpt lat="43.346063" lon="13.216530"><ele>716.7170577142343</ele><time>2020-05-16T06:56:14Z</time></trkpt>
<trkpt lat="43.346076" lon="13.216644"><ele>720.7173335607939</ele><time>2020-05-16T06:56:20Z</time></trkpt>
<trkpt lat="43.346076" lon="13.216751"><ele>722.717499125942</ele><time>2020-05-16T06:56:26Z</time></trkpt>
<trkpt lat="43.346092" lon="13.216868"><ele>722.7177969985642</ele><time>2020-05-16T06:56:33Z</time></trkpt>
<trkpt lat="43.346091" lon="13.216975"><ele>724.7179543725389</ele><time>2020-05-16T06:56:39Z</time></trkpt>
<trkpt lat="43.346088" lon="13.217093"><ele>727.7181090886705</ele><time>2020-05-16T06:56:46Z</time></trkpt>
<trkpt lat="43.346103" lon="13.217209"><ele>726.7184026700418</ele><time>2020-05-16T06:56:52Z</time></trkpt>
<trkpt lat="43.346106" lon="13.217325"><ele>726.7186069655288</ele><time>2020-05-16T06:56:58Z</time></trkpt>
<trkpt lat="43.346109" lon="13.217439"><ele>728.7187995583921</ele><time>2020-05-16T06:57:04Z</time></trkpt>
<trkpt lat="43.346121" lon="13.217550"><ele>727.7190599877426</ele><time>2020-05-16T06:57:11Z</time></trkpt>
<trkpt lat="43.346114" lon="13.217653"><ele>728.7191647854866</ele><time>2020-05-16T06:57:17Z</time></trkpt>
<trkpt lat="43.346117" lon="13.217773"><ele>726.7193747294087</ele><time>2020-05-16T06:57:23Z</time></trkpt>
<trkpt lat="43.346120" lon="13.217885"><ele>726.7195720323556</ele><time>2020-05-16T06:57:29Z</time></trkpt>
<trkpt lat="43.346104" lon="13.218000"><ele>729.7196260466778</ele><time>2020-05-16T06:57:35Z</time></trkpt>
<trkpt lat="43.346092" lon="13.218122"><ele>726.719727273144</ele><time>2020-05-16T06:57:41Z</time></trkpt>
<trkpt lat="43.346109" lon="13.218242"><ele>725.7200334830729</ele><time>2020-05-16T06:57:48Z</time></trkpt>
<trkpt lat="43.346119" lon="13.218359"><ele>726.7202898077344</ele><time>2020-05-16T06:57:54Z</time></trkpt>
<trkpt lat="43.346150" lon="13.218472"><ele>727.7206968292459</ele><time>2020-05-16T06:58:01Z</time></trkpt>
<trkpt lat="43.346200" lon="13.218538"><ele>726.7211741756025</ele><time>2020-05-16T06:58:06Z</time></trkpt>
<trkpt lat="43.346249" lon="13.218651"><ele>724.7217158282706</ele><time>2020-05-16T06:58:11Z</time></trkpt>
<trkpt lat="43.346310" lon="13.218729"><ele>721.7222898300431</ele><time>2020-05-16T06:58:18Z</time></trkpt>
<trkpt lat="43.346337" lon="13.218822"><ele>722.7226376797511</ele><time>2020-05-16T06:58:24Z</time></trkpt>
<trkpt lat="43.346365" lon="13.218908"><ele>720.7229853019696</ele><time>2020-05-16T06:58:28Z</time></trkpt>
<trkpt lat="43.346428" lon="13.218985"><ele>720.7235734711413</ele><time>2020-05-16T06:58:33Z</time></trkpt>
<trkpt lat="43.346478" lon="13.219078"><ele>718.7240891240567</ele><time>2020-05-16T06:58:40Z</time></trkpt>
<trkpt lat="43.346506" lon="13.219192"><ele>716.7244759640332</ele><time>2020-05-16T06:58:47Z</time></trkpt>
<trkpt lat="43.346530" lon="13.219305"><ele>713.7248352405576</ele><time>2020-05-16T06:58:55Z</time></trkpt>
<trkpt lat="43.346553" lon="13.219399"><ele>711.7251474292341</ele><time>2020-05-16T06:59:01Z</time></trkpt>
<trkpt lat="43.346584" lon="13.219510"><ele>711.7255552233842</ele><time>2020-05-16T06:59:06Z</time></trkpt>
<trkpt lat="43.346598" lon="13.219606"><ele>710.7258108880404</ele><time>2020-05-16T06:59:10Z</time></trkpt>
<trkpt lat="43.346641" lon="13.219733"><ele>717.7263248366119</ele><time>2020-05-16T06:59:14Z</time></trkpt>
<trkpt lat="43.346653" lon="13.219854"><ele>719.7266087427555</ele><time>2020-05-16T06:59:19Z</time></trkpt>
<trkpt lat="43.346621" lon="13.219966"><ele>717.7265390454776</ele><time>2020-05-16T06:59:24Z</time></trkpt>
<trkpt lat="43.346610" lon="13.220071"><ele>719.7266149060254</ele><time>2020-05-16T06:59:29Z</time></trkpt>
<trkpt lat="43.346564" lon="13.220166"><ele>716.7264211379035</ele><time>2020-05-16T06:59:34Z</time></trkpt>
<trkpt lat="43.346543" lon="13.220280"><ele>715.7264383003713</ele><time>2020-05-16T06:59:41Z</time></trkpt>
<trkpt lat="43.346521" lon="13.220385"><ele>712.7264298763158</ele><time>2020-05-16T06:59:47Z</time></trkpt>
<trkpt lat="43.346496" lon="13.220488"><ele>709.7264017317821</ele><time>2020-05-16T06:59:52Z</time></trkpt>
<trkpt lat="43.346448" lon="13.220590"><ele>712.7262015059813</ele><time>2020-05-16T06:59:58Z</time></trkpt>
<trkpt lat="43.346434" lon="13.220699"><ele>707.7262658591129</ele><time>2020-05-16T07:00:06Z</time></trkpt>
<trkpt lat="43.346400" lon="13.220808"><ele>709.7261778757006</ele><time>2020-05-16T07:00:11Z</time></trkpt>
<trkpt lat="43.346361" lon="13.220911"><ele>709.7260419217387</ele><time>2020-05-16T07:00:17Z</time></trkpt>
<trkpt lat="43.346347" lon="13.221027"><ele>706.7261139156477</ele><time>2020-05-16T07:00:25Z</time></trkpt>
<trkpt lat="43.346322" lon="13.221121"><ele>707.7260664090031</ele><time>2020-05-16T07:00:31Z</time></trkpt>
<trkpt lat="43.346292" lon="13.221230"><ele>705.726009567771</ele><time>2020-05-16T07:00:37Z</time></trkpt>
<trkpt lat="43.346260" lon="13.221332"><ele>706.7259283872478</ele><time>2020-05-16T07:00:41Z</time></trkpt>
<trkpt lat="43.346235" lon="13.221446"><ele>706.725915866457</ele><time>2020-05-16T07:00:47Z</time></trkpt>
<trkpt lat="43.346206" lon="13.221546"><ele>706.7258490363862</ele><time>2020-05-16T07:00:53Z</time></trkpt>
<trkpt lat="43.346179" lon="13.221651"><ele>708.725806815491</ele><time>2020-05-16T07:00:58Z</time></trkpt>
<trkpt lat="43.346150" lon="13.221747"><ele>712.7257368958386</ele><time>2020-05-16T07:01:03Z</time></trkpt>
<trkpt lat="43.346119" lon="13.221848"><ele>713.7256577360832</ele><time>2020-05-16T07:01:08Z</time></trkpt>
<trkpt lat="43.346097" lon="13.221950"><ele>711.7256473417941</ele><time>2020-05-16T07:01:15Z</time></trkpt>
<trkpt lat="43.346059" lon="13.222050"><ele>713.7255124742966</ele><time>2020-05-16T07:01:21Z</time></trkpt>
<trkpt lat="43.346052" lon="13.222153"><ele>709.7256213257359</ele><time>2020-05-16T07:01:28Z</time></trkpt>
<trkpt lat="43.346048" lon="13.222260"><ele>705.7257524048138</ele><time>2020-05-16T07:01:35Z</time></trkpt>
<trkpt lat="43.346025" lon="13.222368"><ele>703.7257498561974</ele><time>2020-05-16T07:01:41Z</time></trkpt>
<trkpt lat="43.346027" lon="13.222484"><ele>702.7259424639012</ele><time>2020-05-16T07:01:49Z</time></trkpt>
<trkpt lat="43.346014" lon="13.222616"><ele>701.7260432197197</ele><time>2020-05-16T07:01:54Z</time></trkpt>
<trkpt lat="43.345987" lon="13.222732"><ele>703.7260196915912</ele><time>2020-05-16T07:02:01Z</time></trkpt>
<trkpt lat="43.345990" lon="13.222843"><ele>701.7262139969001</ele><time>2020-05-16T07:02:09Z</time></trkpt>
<trkpt lat="43.345984" lon="13.222946"><ele>699.7263263834856</ele><time>2020-05-16T07:02:14Z</time></trkpt>
<trkpt lat="43.345951" lon="13.223092"><ele>701.7263017734097</ele><time>2020-05-16T07:02:19Z</time></trkpt>
<trkpt lat="43.345952" lon="13.223203"><ele>697.7264796828326</ele><time>2020-05-16T07:02:26Z</time></trkpt>
<trkpt lat="43.345934" lon="13.223322"><ele>692.7265220096996</ele><time>2020-05-16T07:02:34Z</time></trkpt>
<trkpt lat="43.345922" lon="13.223435"><ele>692.726602488123</ele><time>2020-05-16T07:02:40Z</time></trkpt>
<trkpt lat="43.345934" lon="13.223550"><ele>693.7268717269501</ele><time>2020-05-16T07:02:47Z</time></trkpt>
<trkpt lat="43.345902" lon="13.223674"><ele>694.7268239438808</ele><time>2020-05-16T07:02:52Z</time></trkpt>
<trkpt lat="43.345894" lon="13.223787"><ele>694.726933004095</ele><time>2020-05-16T07:02:59Z</time></trkpt>
<trkpt lat="43.345871" lon="13.223876"><ele>691.7268944470451</ele><time>2020-05-16T07:03:04Z</time></trkpt>
<trkpt lat="43.345863" lon="13.223983"><ele>693.7269972088</ele><time>2020-05-16T07:03:09Z</time></trkpt>
<trkpt lat="43.345875" lon="13.224105"><ele>692.727279325303</ele><time>2020-05-16T07:03:18Z</time></trkpt>
<trkpt lat="43.345881" lon="13.224219"><ele>691.7274992808335</ele><time>2020-05-16T07:03:27Z</time></trkpt>
<trkpt lat="43.345870" lon="13.224318"><ele>689.7275682845609</ele><time>2020-05-16T07:03:33Z</time></trkpt>
<trkpt lat="43.345855" lon="13.224419"><ele>684.7276026749132</ele><time>2020-05-16T07:03:37Z</time></trkpt>
<trkpt lat="43.345818" lon="13.224505"><ele>682.7274604742869</ele><time>2020-05-16T07:03:42Z</time></trkpt>
<trkpt lat="43.345825" lon="13.224618"><ele>685.7276878026705</ele><time>2020-05-16T07:03:47Z</time></trkpt>
<trkpt lat="43.345821" lon="13.224736"><ele>683.7278349615125</ele><time>2020-05-16T07:03:53Z</time></trkpt>
<trkpt lat="43.345807" lon="13.224852"><ele>686.727903973089</ele><time>2020-05-16T07:03:57Z</time></trkpt>
<trkpt lat="43.345810" lon="13.224945"><ele>685.7280706027396</ele><time>2020-05-16T07:04:01Z</time></trkpt>
<trkpt lat="43.345799" lon="13.225060"><ele>685.72816743493</ele><time>2020-05-16T07:04:05Z</time></trkpt>
<trkpt lat="43.345801" lon="13.225177"><ele>684.7283596270182</ele><time>2020-05-16T07:04:11Z</time></trkpt>
<trkpt lat="43.345790" lon="13.225278"><ele>683.7284333709581</ele><time>2020-05-16T07:04:16Z</time></trkpt>
<trkpt lat="43.345775" lon="13.225388"><ele>684.7284835113505</ele><time>2020-05-16T07:04:22Z</time></trkpt>
<trkpt lat="43.345765" lon="13.225507"><ele>690.7285891829716</ele><time>2020-05-16T07:04:27Z</time></trkpt>
<trkpt lat="43.345745" lon="13.225618"><ele>689.7286084399689</ele><time>2020-05-16T07:04:32Z</time></trkpt>
<trkpt lat="43.345750" lon="13.225735"><ele>687.7288259438824</ele><time>2020-05-16T07:04:38Z</time></trkpt>
<trkpt lat="43.345761" lon="13.225856"><ele>684.7290976207547</ele><time>2020-05-16T07:04:45Z</time></trkpt>
<trkpt lat="43.345760" lon="13.225969"><ele>683.7292626543135</ele><time>2020-05-16T07:04:51Z</time></trkpt>
<trkpt lat="43.345771" lon="13.226075"><ele>683.7295051543248</ele><time>2020-05-16T07:04:57Z</time></trkpt>
<trkpt lat="43.345765" lon="13.226175"><ele>682.7296134813706</ele><time>2020-05-16T07:05:04Z</time></trkpt>
<trkpt lat="43.345767" lon="13.226284"><ele>682.7297993689965</ele><time>2020-05-16T07:05:08Z</time></trkpt>
<trkpt lat="43.345765" lon="13.226390"><ele>680.7299445593325</ele><time>2020-05-16T07:05:14Z</time></trkpt>
<trkpt lat="43.345759" lon="13.226508"><ele>677.7300778353194</ele><time>2020-05-16T07:05:21Z</time></trkpt>
<trkpt lat="43.345748" lon="13.226625"><ele>676.730172770788</ele><time>2020-05-16T07:05:26Z</time></trkpt>
<trkpt lat="43.345750" lon="13.226724"><ele>676.7303399342105</ele><time>2020-05-16T07:05:32Z</time></trkpt>
<trkpt lat="43.345736" lon="13.226845"><ele>676.73041906835</ele><time>2020-05-16T07:05:36Z</time></trkpt>
<trkpt lat="43.345746" lon="13.226966"><ele>676.7306818908683</ele><time>2020-05-16T07:05:43Z</time></trkpt>
<trkpt lat="43.345752" lon="13.227076"><ele>676.7308980324698</ele><time>2020-05-16T07:05:50Z</time></trkpt>
<trkpt lat="43.345748" lon="13.227187"><ele>676.7310355503035</ele><time>2020-05-16T07:05:56Z</time></trkpt>
<trkpt lat="43.345746" lon="13.227295"><ele>675.7311837125827</ele><time>2020-05-16T07:06:02Z</time></trkpt>
<trkpt lat="43.345736" lon="13.227410"><ele>675.7312852706439</ele><time>2020-05-16T07:06:09Z</time></trkpt>
<trkpt lat="43.345737" lon="13.227528"><ele>672.7314766274676</ele><time>2020-05-16T07:06:15Z</time></trkpt>
<trkpt lat="43.345736" lon="13.227643"><ele>673.731639164912</ele><time>2020-05-16T07:06:21Z</time></trkpt>
<trkpt lat="43.345724" lon="13.227757"><ele>673.7317238009427</ele><time>2020-05-16T07:06:26Z</time></trkpt>
<trkpt lat="43.345719" lon="13.227870"><ele>673.7318625222515</ele><time>2020-05-16T07:06:31Z</time></trkpt>
<trkpt lat="43.345729" lon="13.227987"><ele>672.732114104291</ele><time>2020-05-16T07:06:39Z</time></trkpt>
<trkpt lat="43.345727" lon="13.228100"><ele>670.732273321235</ele><time>2020-05-16T07:06:45Z</time></trkpt>
<trkpt lat="43.345729" lon="13.228214"><ele>669.7324620657121</ele><time>2020-05-16T07:06:51Z</time></trkpt>
<trkpt lat="43.345726" lon="13.228336"><ele>668.7326298876926</ele><time>2020-05-16T07:06:57Z</time></trkpt>
<trkpt lat="43.345726" lon="13.228449"><ele>668.7327993780078</ele><time>2020-05-16T07:07:03Z</time></trkpt>
<trkpt lat="43.345731" lon="13.228550"><ele>668.7329954792607</ele><time>2020-05-16T07:07:08Z</time></trkpt>
<trkpt lat="43.345723" lon="13.228669"><ele>667.7331114118851</ele><time>2020-05-16T07:07:14Z</time></trkpt>
<trkpt lat="43.345725" lon="13.228791"><ele>667.7333138133163</ele><time>2020-05-16T07:07:21Z</time></trkpt>
<trkpt lat="43.345720" lon="13.228902"><ele>667.7334448343222</ele><time>2020-05-16T07:07:27Z</time></trkpt>
<trkpt lat="43.345713" lon="13.229011"><ele>666.7335646346243</ele><time>2020-05-16T07:07:34Z</time></trkpt>
<trkpt lat="43.345716" lon="13.229123"><ele>666.7337546424963</ele><time>2020-05-16T07:07:41Z</time></trkpt>
<trkpt lat="43.345722" lon="13.229231"><ele>665.7339635168154</ele><time>2020-05-16T07:07:48Z</time></trkpt>
<trkpt lat="43.345734" lon="13.229342"><ele>663.7342326679641</ele><time>2020-05-16T07:07:56Z</time></trkpt>
<trkpt lat="43.345732" lon="13.229446"><ele>661.7343762454416</ele><time>2020-05-16T07:08:01Z</time></trkpt>
<trkpt lat="43.345718" lon="13.229534"><ele>660.7343978816555</ele><time>2020-05-16T07:08:05Z</time></trkpt>
<trkpt lat="43.345732" lon="13.229648"><ele>658.7346845165994</ele><time>2020-05-16T07:08:12Z</time></trkpt>
<trkpt lat="43.345769" lon="13.229741"><ele>654.7351088994601</ele><time>2020-05-16T07:08:19Z</time></trkpt>
<trkpt lat="43.345780" lon="13.229849"><ele>653.7353602997988</ele><time>2020-05-16T07:08:27Z</time></trkpt>
<trkpt lat="43.345806" lon="13.229950"><ele>654.735710272284</ele><time>2020-05-16T07:08:33Z</time></trkpt>
<trkpt lat="43.345817" lon="13.230062"><ele>654.7359697808206</ele><time>2020-05-16T07:08:40Z</time></trkpt>
<trkpt lat="43.345830" lon="13.230180"><ele>650.7362495442936</ele><time>2020-05-16T07:08:53Z</time></trkpt>
<trkpt lat="43.345853" lon="13.230273"><ele>648.736570894218</ele><time>2020-05-16T07:08:59Z</time></trkpt>
<trkpt lat="43.345878" lon="13.230368"><ele>648.7369107349689</ele><time>2020-05-16T07:09:04Z</time></trkpt>
<trkpt lat="43.345900" lon="13.230504"><ele>647.7372835682191</ele><time>2020-05-16T07:09:09Z</time></trkpt>
<trkpt lat="43.345922" lon="13.230620"><ele>650.7376356898023</ele><time>2020-05-16T07:09:14Z</time></trkpt>
<trkpt lat="43.345918" lon="13.230733"><ele>651.7377732132275</ele><time>2020-05-16T07:09:18Z</time></trkpt>
<trkpt lat="43.345960" lon="13.230834"><ele>648.73824987413</ele><time>2020-05-16T07:09:25Z</time></trkpt>
<trkpt lat="43.345996" lon="13.230942"><ele>646.7386967626771</ele><time>2020-05-16T07:09:33Z</time></trkpt>
<trkpt lat="43.346026" lon="13.231047"><ele>646.7390916772943</ele><time>2020-05-16T07:09:39Z</time></trkpt>
<trkpt lat="43.346041" lon="13.231139"><ele>648.7393456854262</ele><time>2020-05-16T07:09:44Z</time></trkpt>
<trkpt lat="43.346079" lon="13.231268"><ele>649.7398343854153</ele><time>2020-05-16T07:09:49Z</time></trkpt>
<trkpt lat="43.346092" lon="13.231386"><ele>647.7401207152876</ele><time>2020-05-16T07:09:55Z</time></trkpt>
<trkpt lat="43.346107" lon="13.231492"><ele>643.7403926688884</ele><time>2020-05-16T07:10:03Z</time></trkpt>
<trkpt lat="43.346160" lon="13.231584"><ele>642.7409421345699</ele><time>2020-05-16T07:10:11Z</time></trkpt>
<trkpt lat="43.346164" lon="13.231696"><ele>637.7411483179765</ele><time>2020-05-16T07:10:16Z</time></trkpt>
<trkpt lat="43.346197" lon="13.231806"><ele>635.7415696307328</ele><time>2020-05-16T07:10:22Z</time></trkpt>
<trkpt lat="43.346209" lon="13.231884"><ele>632.7417858761668</ele><time>2020-05-16T07:10:27Z</time></trkpt>
<trkpt lat="43.346224" lon="13.232008"><ele>641.7420943183151</ele><time>2020-05-16T07:10:31Z</time></trkpt>
<trkpt lat="43.346269" lon="13.232110"><ele>614.742594372969</ele><time>2020-05-16T07:10:37Z</time></trkpt>
<trkpt lat="43.346295" lon="13.232208"><ele>634.7429505948379</ele><time>2020-05-16T07:10:44Z</time></trkpt>
<trkpt lat="43.346301" lon="13.232318"><ele>634.7431622880061</ele><time>2020-05-16T07:10:50Z</time></trkpt>
<trkpt lat="43.346300" lon="13.232431"><ele>636.7433272138577</ele><time>2020-05-16T07:10:55Z</time></trkpt>
<trkpt lat="43.346317" lon="13.232551"><ele>633.7436478109539</ele><time>2020-05-16T07:11:03Z</time></trkpt>
<trkpt lat="43.346325" lon="13.232668"><ele>634.7438922912095</ele><time>2020-05-16T07:11:09Z</time></trkpt>
<trkpt lat="43.346324" lon="13.232785"><ele>635.7440627421505</ele><time>2020-05-16T07:11:16Z</time></trkpt>
<trkpt lat="43.346315" lon="13.232903"><ele>635.7441704150143</ele><time>2020-05-16T07:11:23Z</time></trkpt>
<trkpt lat="43.346300" lon="13.233020"><ele>629.7442337243092</ele><time>2020-05-16T07:11:30Z</time></trkpt>
<trkpt lat="43.346300" lon="13.233137"><ele>626.7444205652222</ele><time>2020-05-16T07:11:37Z</time></trkpt>
<trkpt lat="43.346276" lon="13.233239"><ele>626.744387493061</ele><time>2020-05-16T07:11:43Z</time></trkpt>
<trkpt lat="43.346236" lon="13.233350"><ele>623.7442464946458</ele><time>2020-05-16T07:11:50Z</time></trkpt>
<trkpt lat="43.346181" lon="13.233444"><ele>622.743966265045</ele><time>2020-05-16T07:11:57Z</time></trkpt>
<trkpt lat="43.346155" lon="13.233547"><ele>619.7439284378314</ele><time>2020-05-16T07:12:04Z</time></trkpt>
<trkpt lat="43.346122" lon="13.233661"><ele>618.7438459627016</ele><time>2020-05-16T07:12:10Z</time></trkpt>
<trkpt lat="43.346080" lon="13.233750"><ele>617.7436599114369</ele><time>2020-05-16T07:12:15Z</time></trkpt>
<trkpt lat="43.346071" lon="13.233870"><ele>614.7437726455129</ele><time>2020-05-16T07:12:21Z</time></trkpt>
<trkpt lat="43.346047" lon="13.233985"><ele>615.7437656467931</ele><time>2020-05-16T07:12:26Z</time></trkpt>
<trkpt lat="43.346017" lon="13.234105"><ele>617.7437174110828</ele><time>2020-05-16T07:12:31Z</time></trkpt>
<trkpt lat="43.345990" lon="13.234210"><ele>616.743672691492</ele><time>2020-05-16T07:12:37Z</time></trkpt>
<trkpt lat="43.345954" lon="13.234340"><ele>621.7435878210852</ele><time>2020-05-16T07:12:41Z</time></trkpt>
<trkpt lat="43.345910" lon="13.234436"><ele>620.7433981902668</ele><time>2020-05-16T07:12:48Z</time></trkpt>
<trkpt lat="43.345863" lon="13.234524"><ele>618.7431696889497</ele><time>2020-05-16T07:12:55Z</time></trkpt>
<trkpt lat="43.345835" lon="13.234637"><ele>617.7431240272846</ele><time>2020-05-16T07:13:03Z</time></trkpt>
<trkpt lat="43.345802" lon="13.234738"><ele>618.7430248201541</ele><time>2020-05-16T07:13:09Z</time></trkpt>
<trkpt lat="43.345750" lon="13.234873"><ele>618.7428295724874</ele><time>2020-05-16T07:13:14Z</time></trkpt>
<trkpt lat="43.345720" lon="13.234989"><ele>615.7427693986067</ele><time>2020-05-16T07:13:21Z</time></trkpt>
<trkpt lat="43.345672" lon="13.235085"><ele>611.7425483297588</ele><time>2020-05-16T07:13:26Z</time></trkpt>
<trkpt lat="43.345622" lon="13.235166"><ele>611.7422812320311</ele><time>2020-05-16T07:13:32Z</time></trkpt>
<trkpt lat="43.345574" lon="13.235239"><ele>610.7420203595915</ele><time>2020-05-16T07:13:37Z</time></trkpt>
<trkpt lat="43.345521" lon="13.235344"><ele>613.7417706196312</ele><time>2020-05-16T07:13:42Z</time></trkpt>
<trkpt lat="43.345463" lon="13.235434"><ele>613.741457738264</ele><time>2020-05-16T07:13:49Z</time></trkpt>
<trkpt lat="43.345411" lon="13.235528"><ele>613.7411916480073</ele><time>2020-05-16T07:13:56Z</time></trkpt>
<trkpt lat="43.345356" lon="13.235610"><ele>608.7408900283361</ele><time>2020-05-16T07:14:02Z</time></trkpt>
<trkpt lat="43.345308" lon="13.235689"><ele>608.7406397466228</ele><time>2020-05-16T07:14:08Z</time></trkpt>
<trkpt lat="43.345261" lon="13.235783"><ele>611.7404174731033</ele><time>2020-05-16T07:14:13Z</time></trkpt>
<trkpt lat="43.345211" lon="13.235875"><ele>610.7401719270692</ele><time>2020-05-16T07:14:19Z</time></trkpt>
<trkpt lat="43.345164" lon="13.235973"><ele>611.7399543494687</ele><time>2020-05-16T07:14:24Z</time></trkpt>
<trkpt lat="43.345109" lon="13.236062"><ele>612.7396596717514</ele><time>2020-05-16T07:14:30Z</time></trkpt>
<trkpt lat="43.345055" lon="13.236136"><ele>613.7393517521251</ele><time>2020-05-16T07:14:35Z</time></trkpt>
<trkpt lat="43.344979" lon="13.236232"><ele>614.738908796766</ele><time>2020-05-16T07:14:40Z</time></trkpt>
<trkpt lat="43.344941" lon="13.236326"><ele>612.738759679317</ele><time>2020-05-16T07:14:47Z</time></trkpt>
<trkpt lat="43.344875" lon="13.236423"><ele>615.7383902258014</ele><time>2020-05-16T07:14:52Z</time></trkpt>
<trkpt lat="43.344811" lon="13.236503"><ele>619.7380118181184</ele><time>2020-05-16T07:14:57Z</time></trkpt>
<trkpt lat="43.344746" lon="13.236585"><ele>619.7376327072706</ele><time>2020-05-16T07:15:05Z</time></trkpt>
<trkpt lat="43.344684" lon="13.236670"><ele>614.7372749369038</ele><time>2020-05-16T07:15:12Z</time></trkpt>
<trkpt lat="43.344625" lon="13.236740"><ele>612.7369251345353</ele><time>2020-05-16T07:15:19Z</time></trkpt>
<trkpt lat="43.344570" lon="13.236833"><ele>611.736633740852</ele><time>2020-05-16T07:15:24Z</time></trkpt>
<trkpt lat="43.344512" lon="13.236903"><ele>611.7362902050249</ele><time>2020-05-16T07:15:29Z</time></trkpt>
<trkpt lat="43.344440" lon="13.236958"><ele>607.7358085162432</ele><time>2020-05-16T07:15:35Z</time></trkpt>
<trkpt lat="43.344378" lon="13.237019"><ele>603.7354245863872</ele><time>2020-05-16T07:15:40Z</time></trkpt>
<trkpt lat="43.344307" lon="13.237081"><ele>603.7349592183755</ele><time>2020-05-16T07:15:46Z</time></trkpt>
<trkpt lat="43.344237" lon="13.237147"><ele>600.7345179256813</ele><time>2020-05-16T07:15:53Z</time></trkpt>
<trkpt lat="43.344179" lon="13.237206"><ele>598.7341572375597</ele><time>2020-05-16T07:15:59Z</time></trkpt>
<trkpt lat="43.344108" lon="13.237263"><ele>597.73368709567</ele><time>2020-05-16T07:16:05Z</time></trkpt>
<trkpt lat="43.344037" lon="13.237315"><ele>597.7332091068748</ele><time>2020-05-16T07:16:22Z</time></trkpt>
<trkpt lat="43.343965" lon="13.237377"><ele>596.7327415526613</ele><time>2020-05-16T07:16:29Z</time></trkpt>
<trkpt lat="43.343902" lon="13.237445"><ele>594.7323525948539</ele><time>2020-05-16T07:16:36Z</time></trkpt>
<trkpt lat="43.343835" lon="13.237508"><ele>594.7319215876245</ele><time>2020-05-16T07:16:41Z</time></trkpt>
<trkpt lat="43.343770" lon="13.237574"><ele>593.7315142572214</ele><time>2020-05-16T07:16:48Z</time></trkpt>
<trkpt lat="43.343706" lon="13.237642"><ele>592.7311175906581</ele><time>2020-05-16T07:16:57Z</time></trkpt>
<trkpt lat="43.343641" lon="13.237705"><ele>590.7307041245572</ele><time>2020-05-16T07:17:03Z</time></trkpt>
<trkpt lat="43.343575" lon="13.237786"><ele>590.7303171059488</ele><time>2020-05-16T07:17:19Z</time></trkpt>
<trkpt lat="43.343503" lon="13.237849"><ele>587.7298464496088</ele><time>2020-05-16T07:18:00Z</time></trkpt>
<trkpt lat="43.343428" lon="13.237891"><ele>586.7293260114083</ele><time>2020-05-16T07:18:06Z</time></trkpt>
<trkpt lat="43.343342" lon="13.237926"><ele>586.7287039426252</ele><time>2020-05-16T07:18:14Z</time></trkpt>
<trkpt lat="43.343254" lon="13.237934"><ele>586.7280285652739</ele><time>2020-05-16T07:18:28Z</time></trkpt>
<trkpt lat="43.343179" lon="13.237872"><ele>586.7273530642896</ele><time>2020-05-16T07:18:44Z</time></trkpt>
<trkpt lat="43.343100" lon="13.237822"><ele>588.7266616132019</ele><time>2020-05-16T07:18:51Z</time></trkpt>
<trkpt lat="43.343046" lon="13.237732"><ele>589.7261025597445</ele><time>2020-05-16T07:18:59Z</time></trkpt>
<trkpt lat="43.342962" lon="13.237748"><ele>588.725468619524</ele><time>2020-05-16T07:19:07Z</time></trkpt>
<trkpt lat="43.342878" lon="13.237769"><ele>587.7248479870852</ele><time>2020-05-16T07:19:16Z</time></trkpt>
<trkpt lat="43.342957" lon="13.237715"><ele>589.7253805926205</ele><time>2020-05-16T07:24:57Z</time></trkpt>
<trkpt lat="43.343016" lon="13.237623"><ele>589.725705760686</ele><time>2020-05-16T07:25:04Z</time></trkpt>
<trkpt lat="43.342978" lon="13.237522"><ele>590.7252616513772</ele><time>2020-05-16T07:25:12Z</time></trkpt>
<trkpt lat="43.342930" lon="13.237427"><ele>590.7247486732075</ele><time>2020-05-16T07:25:19Z</time></trkpt>
<trkpt lat="43.342872" lon="13.237352"><ele>590.7241794327937</ele><time>2020-05-16T07:25:25Z</time></trkpt>
<trkpt lat="43.342816" lon="13.237262"><ele>590.7236110225555</ele><time>2020-05-16T07:25:32Z</time></trkpt>
<trkpt lat="43.342767" lon="13.237172"><ele>590.7230927150964</ele><time>2020-05-16T07:25:38Z</time></trkpt>
<trkpt lat="43.342716" lon="13.237075"><ele>591.7225520114271</ele><time>2020-05-16T07:25:44Z</time></trkpt>
<trkpt lat="43.342674" lon="13.236969"><ele>590.7220668963054</ele><time>2020-05-16T07:25:51Z</time></trkpt>
<trkpt lat="43.342642" lon="13.236871"><ele>590.7216712562935</ele><time>2020-05-16T07:25:57Z</time></trkpt>
<trkpt lat="43.342602" lon="13.236764"><ele>591.7212061974116</ele><time>2020-05-16T07:26:04Z</time></trkpt>
<trkpt lat="43.342559" lon="13.236659"><ele>592.7207143663876</ele><time>2020-05-16T07:26:12Z</time></trkpt>
<trkpt lat="43.342525" lon="13.236563"><ele>592.7203053915965</ele><time>2020-05-16T07:26:17Z</time></trkpt>
<trkpt lat="43.342489" lon="13.236472"><ele>591.7198927364386</ele><time>2020-05-16T07:26:22Z</time></trkpt>
<trkpt lat="43.342447" lon="13.236371"><ele>592.7194179384612</ele><time>2020-05-16T07:26:28Z</time></trkpt>
<trkpt lat="43.342412" lon="13.236261"><ele>592.7189789806594</ele><time>2020-05-16T07:26:34Z</time></trkpt>
<trkpt lat="43.342361" lon="13.236165"><ele>592.7184422441173</ele><time>2020-05-16T07:26:40Z</time></trkpt>
<trkpt lat="43.342323" lon="13.236055"><ele>591.7179857889711</ele><time>2020-05-16T07:26:46Z</time></trkpt>
<trkpt lat="43.342298" lon="13.235955"><ele>591.717638717736</ele><time>2020-05-16T07:26:52Z</time></trkpt>
<trkpt lat="43.342273" lon="13.235854"><ele>591.7172969357351</ele><time>2020-05-16T07:26:57Z</time></trkpt>
<trkpt lat="43.342250" lon="13.235743"><ele>590.7169538671178</ele><time>2020-05-16T07:27:02Z</time></trkpt>
<trkpt lat="43.342214" lon="13.235631"><ele>590.716512153837</ele><time>2020-05-16T07:27:08Z</time></trkpt>
<trkpt lat="43.342175" lon="13.235536"><ele>590.7160654944241</ele><time>2020-05-16T07:27:13Z</time></trkpt>
<trkpt lat="43.342137" lon="13.235437"><ele>590.7156252714396</ele><time>2020-05-16T07:27:19Z</time></trkpt>
<trkpt lat="43.342102" lon="13.235325"><ele>590.7151879927153</ele><time>2020-05-16T07:27:25Z</time></trkpt>
<trkpt lat="43.342070" lon="13.235213"><ele>590.714776711014</ele><time>2020-05-16T07:27:31Z</time></trkpt>
<trkpt lat="43.342033" lon="13.235124"><ele>591.7143545179448</ele><time>2020-05-16T07:27:36Z</time></trkpt>
<trkpt lat="43.341998" lon="13.235034"><ele>591.713950851327</ele><time>2020-05-16T07:27:41Z</time></trkpt>
<trkpt lat="43.341961" lon="13.234943"><ele>589.7135330568249</ele><time>2020-05-16T07:27:47Z</time></trkpt>
<trkpt lat="43.341921" lon="13.234849"><ele>589.7130811258091</ele><time>2020-05-16T07:27:53Z</time></trkpt>
<trkpt lat="43.341886" lon="13.234742"><ele>588.7126569441857</ele><time>2020-05-16T07:27:59Z</time></trkpt>
<trkpt lat="43.341841" lon="13.234636"><ele>587.7121513971537</ele><time>2020-05-16T07:28:05Z</time></trkpt>
<trkpt lat="43.341812" lon="13.234541"><ele>587.7117896167081</ele><time>2020-05-16T07:28:10Z</time></trkpt>
<trkpt lat="43.341782" lon="13.234437"><ele>585.711402487683</ele><time>2020-05-16T07:28:16Z</time></trkpt>
<trkpt lat="43.341738" lon="13.234333"><ele>584.7109067501108</ele><time>2020-05-16T07:28:23Z</time></trkpt>
<trkpt lat="43.341703" lon="13.234243"><ele>585.7105054332335</ele><time>2020-05-16T07:28:28Z</time></trkpt>
<trkpt lat="43.341659" lon="13.234151"><ele>586.7100277811062</ele><time>2020-05-16T07:28:33Z</time></trkpt>
<trkpt lat="43.341612" lon="13.234051"><ele>584.7095209909726</ele><time>2020-05-16T07:28:39Z</time></trkpt>
<trkpt lat="43.341580" lon="13.233943"><ele>583.7091108750792</ele><time>2020-05-16T07:28:45Z</time></trkpt>
<trkpt lat="43.341547" lon="13.233829"><ele>584.708692884793</ele><time>2020-05-16T07:28:52Z</time></trkpt>
<trkpt lat="43.341508" lon="13.233727"><ele>587.7082369397212</ele><time>2020-05-16T07:28:58Z</time></trkpt>
<trkpt lat="43.341483" lon="13.233628"><ele>588.707899792884</ele><time>2020-05-16T07:29:04Z</time></trkpt>
<trkpt lat="43.341441" lon="13.233532"><ele>588.7074312384451</ele><time>2020-05-16T07:29:09Z</time></trkpt>
<trkpt lat="43.341401" lon="13.233442"><ele>588.7069932096338</ele><time>2020-05-16T07:29:14Z</time></trkpt>
<trkpt lat="43.341371" lon="13.233348"><ele>588.7066210006318</ele><time>2020-05-16T07:29:19Z</time></trkpt>
<trkpt lat="43.341323" lon="13.233259"><ele>587.7061217743437</ele><time>2020-05-16T07:29:24Z</time></trkpt>
<trkpt lat="43.341285" lon="13.233154"><ele>587.7056755170324</ele><time>2020-05-16T07:29:30Z</time></trkpt>
<trkpt lat="43.341240" lon="13.233051"><ele>588.7051798528605</ele><time>2020-05-16T07:29:37Z</time></trkpt>
<trkpt lat="43.341195" lon="13.232957"><ele>589.7046901898303</ele><time>2020-05-16T07:29:43Z</time></trkpt>
<trkpt lat="43.341151" lon="13.232854"><ele>586.7042010808561</ele><time>2020-05-16T07:29:49Z</time></trkpt>
<trkpt lat="43.341102" lon="13.232752"><ele>588.703675698865</ele><time>2020-05-16T07:29:56Z</time></trkpt>
<trkpt lat="43.341057" lon="13.232648"><ele>587.7031769043681</ele><time>2020-05-16T07:30:03Z</time></trkpt>
<trkpt lat="43.341008" lon="13.232559"><ele>589.702667882517</ele><time>2020-05-16T07:30:08Z</time></trkpt>
<trkpt lat="43.340962" lon="13.232470"><ele>589.7021868171519</ele><time>2020-05-16T07:30:13Z</time></trkpt>
<trkpt lat="43.340918" lon="13.232391"><ele>588.7017318463734</ele><time>2020-05-16T07:30:18Z</time></trkpt>
<trkpt lat="43.340869" lon="13.232308"><ele>589.7012305436978</ele><time>2020-05-16T07:30:23Z</time></trkpt>
<trkpt lat="43.340826" lon="13.232203"><ele>588.7007457376167</ele><time>2020-05-16T07:30:29Z</time></trkpt>
<trkpt lat="43.340786" lon="13.232113"><ele>587.7003028528538</ele><time>2020-05-16T07:30:35Z</time></trkpt>
<trkpt lat="43.340736" lon="13.232018"><ele>586.6997804282457</ele><time>2020-05-16T07:30:41Z</time></trkpt>
<trkpt lat="43.340686" lon="13.231923"><ele>586.6992568272442</ele><time>2020-05-16T07:30:47Z</time></trkpt>
<trkpt lat="43.340638" lon="13.231833"><ele>587.6987582865344</ele><time>2020-05-16T07:30:53Z</time></trkpt>
<trkpt lat="43.340594" lon="13.231740"><ele>587.6982821675118</ele><time>2020-05-16T07:30:58Z</time></trkpt>
<trkpt lat="43.340546" lon="13.231656"><ele>586.6977950631624</ele><time>2020-05-16T07:31:03Z</time></trkpt>
<trkpt lat="43.340491" lon="13.231565"><ele>587.697240126079</ele><time>2020-05-16T07:31:09Z</time></trkpt>
<trkpt lat="43.340441" lon="13.231486"><ele>587.6967365467481</ele><time>2020-05-16T07:31:15Z</time></trkpt>
<trkpt lat="43.340387" lon="13.231392"><ele>587.6961833874736</ele><time>2020-05-16T07:31:21Z</time></trkpt>
<trkpt lat="43.340342" lon="13.231301"><ele>586.6957042216712</ele><time>2020-05-16T07:31:27Z</time></trkpt>
<trkpt lat="43.340295" lon="13.231207"><ele>586.6952100222311</ele><time>2020-05-16T07:31:33Z</time></trkpt>
<trkpt lat="43.340249" lon="13.231109"><ele>587.6947098972738</ele><time>2020-05-16T07:31:39Z</time></trkpt>
<trkpt lat="43.340207" lon="13.231003"><ele>585.6942355548366</ele><time>2020-05-16T07:31:45Z</time></trkpt>
<trkpt lat="43.340160" lon="13.230911"><ele>586.6937461413884</ele><time>2020-05-16T07:31:50Z</time></trkpt>
<trkpt lat="43.340116" lon="13.230815"><ele>585.693262833846</ele><time>2020-05-16T07:31:56Z</time></trkpt>
<trkpt lat="43.340070" lon="13.230714"><ele>585.6927634015021</ele><time>2020-05-16T07:32:02Z</time></trkpt>
<trkpt lat="43.340018" lon="13.230624"><ele>585.6922359277953</ele><time>2020-05-16T07:32:08Z</time></trkpt>
<trkpt lat="43.339976" lon="13.230533"><ele>586.6917801937609</ele><time>2020-05-16T07:32:14Z</time></trkpt>
<trkpt lat="43.339931" lon="13.230439"><ele>587.6913006734592</ele><time>2020-05-16T07:32:20Z</time></trkpt>
<trkpt lat="43.339894" lon="13.230338"><ele>585.6908730263443</ele><time>2020-05-16T07:32:27Z</time></trkpt>
<trkpt lat="43.339856" lon="13.230234"><ele>586.690431278182</ele><time>2020-05-16T07:32:34Z</time></trkpt>
<trkpt lat="43.339816" lon="13.230136"><ele>585.6899834078827</ele><time>2020-05-16T07:32:40Z</time></trkpt>
<trkpt lat="43.339768" lon="13.230036"><ele>583.6894680468017</ele><time>2020-05-16T07:32:47Z</time></trkpt>
<trkpt lat="43.339723" lon="13.229946"><ele>583.6889944676265</ele><time>2020-05-16T07:32:54Z</time></trkpt>
<trkpt lat="43.339669" lon="13.229852"><ele>582.688445495013</ele><time>2020-05-16T07:33:01Z</time></trkpt>
<trkpt lat="43.339619" lon="13.229759"><ele>580.6879307084765</ele><time>2020-05-16T07:33:07Z</time></trkpt>
<trkpt lat="43.339561" lon="13.229673"><ele>580.6873567237286</ele><time>2020-05-16T07:33:14Z</time></trkpt>
<trkpt lat="43.339512" lon="13.229581"><ele>578.6868533852111</ele><time>2020-05-16T07:33:20Z</time></trkpt>
<trkpt lat="43.339459" lon="13.229499"><ele>577.6863313951943</ele><time>2020-05-16T07:33:26Z</time></trkpt>
<trkpt lat="43.339414" lon="13.229411"><ele>577.6858567187033</ele><time>2020-05-16T07:33:32Z</time></trkpt>
<trkpt lat="43.339364" lon="13.229309"><ele>576.6853317880405</ele><time>2020-05-16T07:33:39Z</time></trkpt>
<trkpt lat="43.339323" lon="13.229210"><ele>573.6848692723495</ele><time>2020-05-16T07:33:46Z</time></trkpt>
<trkpt lat="43.339270" lon="13.229113"><ele>571.6843306973047</ele><time>2020-05-16T07:33:52Z</time></trkpt>
<trkpt lat="43.339225" lon="13.229010"><ele>571.683836917406</ele><time>2020-05-16T07:33:59Z</time></trkpt>
<trkpt lat="43.339171" lon="13.228934"><ele>571.6833134204807</ele><time>2020-05-16T07:34:04Z</time></trkpt>
<trkpt lat="43.339097" lon="13.228865"><ele>570.682647013735</ele><time>2020-05-16T07:34:10Z</time></trkpt>
<trkpt lat="43.339029" lon="13.228799"><ele>571.6820320334067</ele><time>2020-05-16T07:34:16Z</time></trkpt>
<trkpt lat="43.338981" lon="13.228718"><ele>569.6815482624885</ele><time>2020-05-16T07:34:23Z</time></trkpt>
<trkpt lat="43.338934" lon="13.228621"><ele>568.6810502228335</ele><time>2020-05-16T07:34:29Z</time></trkpt>
<trkpt lat="43.338910" lon="13.228508"><ele>567.680707106881</ele><time>2020-05-16T07:34:36Z</time></trkpt>
<trkpt lat="43.338868" lon="13.228412"><ele>566.6802457461154</ele><time>2020-05-16T07:34:42Z</time></trkpt>
<trkpt lat="43.338821" lon="13.228315"><ele>567.6797478265307</ele><time>2020-05-16T07:34:48Z</time></trkpt>
<trkpt lat="43.338775" lon="13.228219"><ele>566.679262162677</ele><time>2020-05-16T07:34:54Z</time></trkpt>
<trkpt lat="43.338729" lon="13.228124"><ele>565.6787741613949</ele><time>2020-05-16T07:35:00Z</time></trkpt>
<trkpt lat="43.338677" lon="13.228050"><ele>564.6782754133524</ele><time>2020-05-16T07:35:06Z</time></trkpt>
<trkpt lat="43.338611" lon="13.227979"><ele>566.6776697213841</ele><time>2020-05-16T07:35:12Z</time></trkpt>
<trkpt lat="43.338549" lon="13.227919"><ele>565.6771106690402</ele><time>2020-05-16T07:35:17Z</time></trkpt>
<trkpt lat="43.338494" lon="13.227845"><ele>564.6765813924574</ele><time>2020-05-16T07:35:23Z</time></trkpt>
<trkpt lat="43.338411" lon="13.227809"><ele>565.6758990582355</ele><time>2020-05-16T07:35:30Z</time></trkpt>
<trkpt lat="43.338338" lon="13.227860"><ele>564.6754073413626</ele><time>2020-05-16T07:35:37Z</time></trkpt>
<trkpt lat="43.338276" lon="13.227944"><ele>564.6750523924102</ele><time>2020-05-16T07:35:43Z</time></trkpt>
<trkpt lat="43.338245" lon="13.228043"><ele>560.6749593715142</ele><time>2020-05-16T07:35:51Z</time></trkpt>
<trkpt lat="43.338232" lon="13.228160"><ele>558.6750273689643</ele><time>2020-05-16T07:35:57Z</time></trkpt>
<trkpt lat="43.338203" lon="13.228256"><ele>557.6749380395656</ele><time>2020-05-16T07:36:03Z</time></trkpt>
<trkpt lat="43.338165" lon="13.228350"><ele>556.6747760507147</ele><time>2020-05-16T07:36:09Z</time></trkpt>
<trkpt lat="43.338128" lon="13.228452"><ele>556.674644355023</ele><time>2020-05-16T07:36:15Z</time></trkpt>
<trkpt lat="43.338083" lon="13.228548"><ele>552.6744333923467</ele><time>2020-05-16T07:36:22Z</time></trkpt>
<trkpt lat="43.338033" lon="13.228638"><ele>552.674173833877</ele><time>2020-05-16T07:36:28Z</time></trkpt>
<trkpt lat="43.337970" lon="13.228712"><ele>549.6737959918264</ele><time>2020-05-16T07:36:35Z</time></trkpt>
<trkpt lat="43.337907" lon="13.228775"><ele>547.6734027247858</ele><time>2020-05-16T07:36:43Z</time></trkpt>
<trkpt lat="43.337836" lon="13.228851"><ele>547.6729652877104</ele><time>2020-05-16T07:36:49Z</time></trkpt>
<trkpt lat="43.337763" lon="13.228916"><ele>544.6724960922472</ele><time>2020-05-16T07:36:58Z</time></trkpt>
<trkpt lat="43.337692" lon="13.228978"><ele>544.6720437355158</ele><time>2020-05-16T07:37:04Z</time></trkpt>
<trkpt lat="43.337621" lon="13.229039"><ele>542.6715781582338</ele><time>2020-05-16T07:37:11Z</time></trkpt>
<trkpt lat="43.337547" lon="13.229058"><ele>540.6710432013264</ele><time>2020-05-16T07:37:19Z</time></trkpt>
<trkpt lat="43.337479" lon="13.229108"><ele>538.670592581442</ele><time>2020-05-16T07:37:25Z</time></trkpt>
<trkpt lat="43.337402" lon="13.229131"><ele>533.6700352609769</ele><time>2020-05-16T07:37:33Z</time></trkpt>
<trkpt lat="43.337339" lon="13.229184"><ele>533.6696213664653</ele><time>2020-05-16T07:37:39Z</time></trkpt>
<trkpt lat="43.337264" lon="13.229246"><ele>532.669132035472</ele><time>2020-05-16T07:37:47Z</time></trkpt>
<trkpt lat="43.337194" lon="13.229289"><ele>531.668656794603</ele><time>2020-05-16T07:37:53Z</time></trkpt>
<trkpt lat="43.337126" lon="13.229358"><ele>531.6682339629295</ele><time>2020-05-16T07:38:02Z</time></trkpt>
<trkpt lat="43.337050" lon="13.229403"><ele>523.6677126372779</ele><time>2020-05-16T07:38:15Z</time></trkpt>
<trkpt lat="43.336980" lon="13.229458"><ele>520.6672537421474</ele><time>2020-05-16T07:38:25Z</time></trkpt>
<trkpt lat="43.336901" lon="13.229499"><ele>518.6667010359783</ele><time>2020-05-16T07:38:34Z</time></trkpt>
<trkpt lat="43.336827" lon="13.229558"><ele>516.6662151015747</ele><time>2020-05-16T07:38:43Z</time></trkpt>
<trkpt lat="43.336739" lon="13.229572"><ele>512.665562937043</ele><time>2020-05-16T07:38:51Z</time></trkpt>
<trkpt lat="43.336657" lon="13.229548"><ele>510.6649016903372</ele><time>2020-05-16T07:39:02Z</time></trkpt>
<trkpt lat="43.336580" lon="13.229508"><ele>510.6642564929115</ele><time>2020-05-16T07:39:09Z</time></trkpt>
<trkpt lat="43.336498" lon="13.229467"><ele>510.6635656931945</ele><time>2020-05-16T07:39:18Z</time></trkpt>
<trkpt lat="43.336432" lon="13.229391"><ele>507.66295776459214</ele><time>2020-05-16T07:39:26Z</time></trkpt>
<trkpt lat="43.336353" lon="13.229345"><ele>507.66228718674085</ele><time>2020-05-16T07:39:33Z</time></trkpt>
<trkpt lat="43.336272" lon="13.229322"><ele>504.66163610759406</ele><time>2020-05-16T07:39:43Z</time></trkpt>
<trkpt lat="43.336185" lon="13.229334"><ele>501.6609809839824</ele><time>2020-05-16T07:39:50Z</time></trkpt>
<trkpt lat="43.336100" lon="13.229332"><ele>496.6603269347899</ele><time>2020-05-16T07:39:58Z</time></trkpt>
<trkpt lat="43.336018" lon="13.229368"><ele>497.6597494310923</ele><time>2020-05-16T07:40:03Z</time></trkpt>
<trkpt lat="43.335938" lon="13.229401"><ele>495.6591816828192</ele><time>2020-05-16T07:40:10Z</time></trkpt>
<trkpt lat="43.335873" lon="13.229465"><ele>495.65877256013204</ele><time>2020-05-16T07:40:15Z</time></trkpt>
<trkpt lat="43.335807" lon="13.229531"><ele>496.6583571585875</ele><time>2020-05-16T07:40:21Z</time></trkpt>
<trkpt lat="43.335737" lon="13.229579"><ele>493.65788314826744</ele><time>2020-05-16T07:40:27Z</time></trkpt>
<trkpt lat="43.335652" lon="13.229603"><ele>485.65726499214855</ele><time>2020-05-16T07:40:35Z</time></trkpt>
<trkpt lat="43.335577" lon="13.229653"><ele>480.6567568256033</ele><time>2020-05-16T07:40:42Z</time></trkpt>
<trkpt lat="43.335520" lon="13.229712"><ele>479.6563997707775</ele><time>2020-05-16T07:40:47Z</time></trkpt>
<trkpt lat="43.335442" lon="13.229742"><ele>478.65583865575877</ele><time>2020-05-16T07:40:52Z</time></trkpt>
<trkpt lat="43.335371" lon="13.229775"><ele>474.6553437613349</ele><time>2020-05-16T07:40:58Z</time></trkpt>
<trkpt lat="43.335285" lon="13.229802"><ele>468.6547205397626</ele><time>2020-05-16T07:41:06Z</time></trkpt>
<trkpt lat="43.335217" lon="13.229859"><ele>470.65427280282654</ele><time>2020-05-16T07:41:12Z</time></trkpt>
<trkpt lat="43.335136" lon="13.229899"><ele>472.6537097944939</ele><time>2020-05-16T07:41:19Z</time></trkpt>
<trkpt lat="43.335071" lon="13.229944"><ele>470.6532680940575</ele><time>2020-05-16T07:41:24Z</time></trkpt>
<trkpt lat="43.334995" lon="13.230010"><ele>474.6527734151516</ele><time>2020-05-16T07:41:29Z</time></trkpt>
<trkpt lat="43.334915" lon="13.230056"><ele>470.6522212862657</ele><time>2020-05-16T07:41:37Z</time></trkpt>
<trkpt lat="43.334852" lon="13.230115"><ele>472.65181659641536</ele><time>2020-05-16T07:41:42Z</time></trkpt>
<trkpt lat="43.334774" lon="13.230153"><ele>469.65127400205785</ele><time>2020-05-16T07:41:49Z</time></trkpt>
<trkpt lat="43.334692" lon="13.230193"><ele>469.65069560528264</ele><time>2020-05-16T07:41:55Z</time></trkpt>
<trkpt lat="43.334614" lon="13.230248"><ele>469.650168185986</ele><time>2020-05-16T07:42:01Z</time></trkpt>
<trkpt lat="43.334537" lon="13.230290"><ele>470.64963667537506</ele><time>2020-05-16T07:42:07Z</time></trkpt>
<trkpt lat="43.334466" lon="13.230300"><ele>468.6491077969542</ele><time>2020-05-16T07:42:14Z</time></trkpt>
<trkpt lat="43.334382" lon="13.230304"><ele>463.64846547973565</ele><time>2020-05-16T07:42:22Z</time></trkpt>
<trkpt lat="43.334298" lon="13.230331"><ele>462.647859131246</ele><time>2020-05-16T07:42:28Z</time></trkpt>
<trkpt lat="43.334216" lon="13.230325"><ele>459.64721308735506</ele><time>2020-05-16T07:42:34Z</time></trkpt>
<trkpt lat="43.334145" lon="13.230368"><ele>457.6467271203679</ele><time>2020-05-16T07:42:39Z</time></trkpt>
<trkpt lat="43.334072" lon="13.230417"><ele>457.64623364625663</ele><time>2020-05-16T07:42:45Z</time></trkpt>
<trkpt lat="43.334002" lon="13.230461"><ele>460.6457552893595</ele><time>2020-05-16T07:42:50Z</time></trkpt>
<trkpt lat="43.333914" lon="13.230510"><ele>460.64514101691043</ele><time>2020-05-16T07:42:55Z</time></trkpt>
<trkpt lat="43.333840" lon="13.230510"><ele>462.64457375132355</ele><time>2020-05-16T07:43:01Z</time></trkpt>
<trkpt lat="43.333751" lon="13.230522"><ele>466.643909721084</ele><time>2020-05-16T07:43:07Z</time></trkpt>
<trkpt lat="43.333681" lon="13.230476"><ele>463.6433096342782</ele><time>2020-05-16T07:43:14Z</time></trkpt>
<trkpt lat="43.333605" lon="13.230432"><ele>462.6426634519803</ele><time>2020-05-16T07:43:21Z</time></trkpt>
<trkpt lat="43.333524" lon="13.230392"><ele>461.64198682580974</ele><time>2020-05-16T07:43:29Z</time></trkpt>
<trkpt lat="43.333439" lon="13.230371"><ele>465.6413088183507</ele><time>2020-05-16T07:43:38Z</time></trkpt>
<trkpt lat="43.333365" lon="13.230375"><ele>466.6407427529273</ele><time>2020-05-16T07:44:49Z</time></trkpt>
<trkpt lat="43.333277" lon="13.230355"><ele>465.6400371330194</ele><time>2020-05-16T07:44:58Z</time></trkpt>
<trkpt lat="43.333196" lon="13.230305"><ele>469.63935389112595</ele><time>2020-05-16T07:45:07Z</time></trkpt>
<trkpt lat="43.333280" lon="13.230333"><ele>466.6400378918796</ele><time>2020-05-16T07:46:13Z</time></trkpt>
<trkpt lat="43.333355" lon="13.230396"><ele>465.6406927841747</ele><time>2020-05-16T07:46:23Z</time></trkpt>
<trkpt lat="43.333434" lon="13.230441"><ele>469.6413658469322</ele><time>2020-05-16T07:46:37Z</time></trkpt>
<trkpt lat="43.333518" lon="13.230405"><ele>464.64195814352786</ele><time>2020-05-16T07:46:43Z</time></trkpt>
<trkpt lat="43.333603" lon="13.230439"><ele>464.64265671990177</ele><time>2020-05-16T07:46:49Z</time></trkpt>
<trkpt lat="43.333687" lon="13.230481"><ele>465.6433603797536</ele><time>2020-05-16T07:46:55Z</time></trkpt>
<trkpt lat="43.333772" lon="13.230497"><ele>460.64403303211424</ele><time>2020-05-16T07:47:03Z</time></trkpt>
<trkpt lat="43.333854" lon="13.230499"><ele>457.64466602469014</ele><time>2020-05-16T07:47:11Z</time></trkpt>
<trkpt lat="43.333939" lon="13.230504"><ele>454.64532914836934</ele><time>2020-05-16T07:47:19Z</time></trkpt>
<trkpt lat="43.334008" lon="13.230572"><ele>458.6459519894385</ele><time>2020-05-16T07:47:24Z</time></trkpt>
<trkpt lat="43.334092" lon="13.230582"><ele>457.64660812909085</ele><time>2020-05-16T07:47:31Z</time></trkpt>
<trkpt lat="43.334181" lon="13.230588"><ele>456.647302770413</ele><time>2020-05-16T07:47:37Z</time></trkpt>
<trkpt lat="43.334269" lon="13.230597"><ele>453.6479886589102</ele><time>2020-05-16T07:47:45Z</time></trkpt>
<trkpt lat="43.334355" lon="13.230613"><ele>452.64867226861617</ele><time>2020-05-16T07:47:51Z</time></trkpt>
<trkpt lat="43.334438" lon="13.230576"><ele>444.6492599341717</ele><time>2020-05-16T07:48:00Z</time></trkpt>
<trkpt lat="43.334522" lon="13.230558"><ele>439.6498841631991</ele><time>2020-05-16T07:48:09Z</time></trkpt>
<trkpt lat="43.334609" lon="13.230543"><ele>436.65053321119717</ele><time>2020-05-16T07:48:17Z</time></trkpt>
<trkpt lat="43.334680" lon="13.230572"><ele>435.6511171874379</ele><time>2020-05-16T07:48:26Z</time></trkpt>
<trkpt lat="43.334753" lon="13.230606"><ele>436.6517233164344</ele><time>2020-05-16T07:48:31Z</time></trkpt>
<trkpt lat="43.334840" lon="13.230601"><ele>433.6523880435348</ele><time>2020-05-16T07:48:37Z</time></trkpt>
<trkpt lat="43.334922" lon="13.230584"><ele>428.6529975373326</ele><time>2020-05-16T07:48:46Z</time></trkpt>
<trkpt lat="43.335004" lon="13.230602"><ele>429.6536515824526</ele><time>2020-05-16T07:48:52Z</time></trkpt>
<trkpt lat="43.335085" lon="13.230626"><ele>427.6543027370932</ele><time>2020-05-16T07:48:59Z</time></trkpt>
<trkpt lat="43.335169" lon="13.230649"><ele>426.65498550492515</ele><time>2020-05-16T07:49:05Z</time></trkpt>
<trkpt lat="43.335236" lon="13.230709"><ele>427.6555801090576</ele><time>2020-05-16T07:49:11Z</time></trkpt>
<trkpt lat="43.335309" lon="13.230742"><ele>429.65618464803947</ele><time>2020-05-16T07:49:16Z</time></trkpt>
<trkpt lat="43.335392" lon="13.230768"><ele>428.65685677137117</ele><time>2020-05-16T07:49:22Z</time></trkpt>
<trkpt lat="43.335464" lon="13.230784"><ele>426.65743309138793</ele><time>2020-05-16T07:49:29Z</time></trkpt>
<trkpt lat="43.335543" lon="13.230801"><ele>424.6580681132311</ele><time>2020-05-16T07:49:35Z</time></trkpt>
<trkpt lat="43.335614" lon="13.230867"><ele>424.65870660070095</ele><time>2020-05-16T07:49:42Z</time></trkpt>
<trkpt lat="43.335691" lon="13.230919"><ele>425.65936932822035</ele><time>2020-05-16T07:49:49Z</time></trkpt>
<trkpt lat="43.335750" lon="13.230984"><ele>427.6599099847625</ele><time>2020-05-16T07:49:54Z</time></trkpt>
<trkpt lat="43.335839" lon="13.230993"><ele>426.6606053594111</ele><time>2020-05-16T07:50:00Z</time></trkpt>
<trkpt lat="43.335926" lon="13.231009"><ele>423.6612982700939</ele><time>2020-05-16T07:50:06Z</time></trkpt>
<trkpt lat="43.335978" lon="13.231093"><ele>421.66181856011184</ele><time>2020-05-16T07:50:13Z</time></trkpt>
<trkpt lat="43.336040" lon="13.231174"><ele>422.6624058996475</ele><time>2020-05-16T07:50:18Z</time></trkpt>
<trkpt lat="43.336085" lon="13.231254"><ele>425.66286398658565</ele><time>2020-05-16T07:50:23Z</time></trkpt>
<trkpt lat="43.336157" lon="13.231307"><ele>420.663488813352</ele><time>2020-05-16T07:50:30Z</time></trkpt>
<trkpt lat="43.336221" lon="13.231369"><ele>419.66406640280303</ele><time>2020-05-16T07:50:36Z</time></trkpt>
<trkpt lat="43.336216" lon="13.231471"><ele>420.6641661430244</ele><time>2020-05-16T07:50:41Z</time></trkpt>
<trkpt lat="43.336162" lon="13.231559"><ele>419.6638730727591</ele><time>2020-05-16T07:50:49Z</time></trkpt>
<trkpt lat="43.336081" lon="13.231587"><ele>419.6632862272688</ele><time>2020-05-16T07:50:57Z</time></trkpt>
<trkpt lat="43.336008" lon="13.231636"><ele>416.66279220469835</ele><time>2020-05-16T07:51:04Z</time></trkpt>
<trkpt lat="43.336012" lon="13.231752"><ele>413.66297951558386</ele><time>2020-05-16T07:51:12Z</time></trkpt>
<trkpt lat="43.336079" lon="13.231817"><ele>411.6635909926838</ele><time>2020-05-16T07:51:20Z</time></trkpt>
<trkpt lat="43.336160" lon="13.231816"><ele>409.66421269993214</ele><time>2020-05-16T07:51:28Z</time></trkpt>
<trkpt lat="43.336249" lon="13.231802"><ele>409.6648777406666</ele><time>2020-05-16T07:51:37Z</time></trkpt>
<trkpt lat="43.336335" lon="13.231831"><ele>409.66558022663884</ele><time>2020-05-16T07:51:43Z</time></trkpt>
<trkpt lat="43.336413" lon="13.231879"><ele>401.6662533757072</ele><time>2020-05-16T07:51:53Z</time></trkpt>
<trkpt lat="43.336460" lon="13.231972"><ele>402.66674231027446</ele><time>2020-05-16T07:51:58Z</time></trkpt>
<trkpt lat="43.336509" lon="13.232075"><ele>404.66726207908545</ele><time>2020-05-16T07:52:05Z</time></trkpt>
<trkpt lat="43.336548" lon="13.232183"><ele>403.66770798428666</ele><time>2020-05-16T07:52:11Z</time></trkpt>
<trkpt lat="43.336582" lon="13.232272"><ele>401.66809673973603</ele><time>2020-05-16T07:52:17Z</time></trkpt>
<trkpt lat="43.336599" lon="13.232380"><ele>401.66837456839176</ele><time>2020-05-16T07:52:22Z</time></trkpt>
<trkpt lat="43.336626" lon="13.232490"><ele>396.66873913913525</ele><time>2020-05-16T07:52:30Z</time></trkpt>
<trkpt lat="43.336621" lon="13.232582"><ele>396.6688283389324</ele><time>2020-05-16T07:52:35Z</time></trkpt>
<trkpt lat="43.336626" lon="13.232701"><ele>397.66903191121065</ele><time>2020-05-16T07:52:40Z</time></trkpt>
<trkpt lat="43.336620" lon="13.232819"><ele>397.669151636245</ele><time>2020-05-16T07:52:45Z</time></trkpt>
<trkpt lat="43.336643" lon="13.232922"><ele>392.66946792746967</ele><time>2020-05-16T07:52:53Z</time></trkpt>
<trkpt lat="43.336697" lon="13.233005"><ele>388.6700039793072</ele><time>2020-05-16T07:53:00Z</time></trkpt>
<trkpt lat="43.336777" lon="13.233040"><ele>386.6706658649771</ele><time>2020-05-16T07:53:08Z</time></trkpt>
<trkpt lat="43.336850" lon="13.233101"><ele>386.67131606832334</ele><time>2020-05-16T07:53:16Z</time></trkpt>
<trkpt lat="43.336882" lon="13.233204"><ele>383.67171092084186</ele><time>2020-05-16T07:53:27Z</time></trkpt>
<trkpt lat="43.336918" lon="13.233315"><ele>381.6721415846187</ele><time>2020-05-16T07:53:36Z</time></trkpt>
<trkpt lat="43.336946" lon="13.233423"><ele>380.6725030485635</ele><time>2020-05-16T07:53:41Z</time></trkpt>
<trkpt lat="43.336989" lon="13.233515"><ele>378.67296444573304</ele><time>2020-05-16T07:53:49Z</time></trkpt>
<trkpt lat="43.337037" lon="13.233604"><ele>378.67346624941274</ele><time>2020-05-16T07:53:54Z</time></trkpt>
<trkpt lat="43.337100" lon="13.233670"><ele>375.67404359985494</ele><time>2020-05-16T07:54:00Z</time></trkpt>
<trkpt lat="43.337162" lon="13.233731"><ele>375.6746091970528</ele><time>2020-05-16T07:54:05Z</time></trkpt>
<trkpt lat="43.337226" lon="13.233808"><ele>376.6752084853261</ele><time>2020-05-16T07:54:09Z</time></trkpt>
<trkpt lat="43.337287" lon="13.233878"><ele>373.6757800120028</ele><time>2020-05-16T07:54:16Z</time></trkpt>
<trkpt lat="43.337343" lon="13.233958"><ele>371.67632747297574</ele><time>2020-05-16T07:54:23Z</time></trkpt>
<trkpt lat="43.337415" lon="13.234023"><ele>369.67697353839014</ele><time>2020-05-16T07:54:43Z</time></trkpt>
<trkpt lat="43.337457" lon="13.234119"><ele>367.6774332397659</ele><time>2020-05-16T07:54:51Z</time></trkpt>
<trkpt lat="43.337522" lon="13.234194"><ele>362.6780420792019</ele><time>2020-05-16T07:54:57Z</time></trkpt>
<trkpt lat="43.337548" lon="13.234298"><ele>362.6783863149511</ele><time>2020-05-16T07:55:05Z</time></trkpt>
<trkpt lat="43.337587" lon="13.234395"><ele>361.6788299672992</ele><time>2020-05-16T07:55:12Z</time></trkpt>
<trkpt lat="43.337630" lon="13.234497"><ele>357.67930102203553</ele><time>2020-05-16T07:55:19Z</time></trkpt>
<trkpt lat="43.337634" lon="13.234629"><ele>359.6795221439512</ele><time>2020-05-16T07:55:24Z</time></trkpt>
<trkpt lat="43.337639" lon="13.234726"><ele>361.6796951177138</ele><time>2020-05-16T07:55:29Z</time></trkpt>
<trkpt lat="43.337638" lon="13.234833"><ele>361.67983884509897</ele><time>2020-05-16T07:55:35Z</time></trkpt>
<trkpt lat="43.337625" lon="13.234949"><ele>361.6798994477232</ele><time>2020-05-16T07:55:41Z</time></trkpt>
<trkpt lat="43.337634" lon="13.235069"><ele>355.6801341529642</ele><time>2020-05-16T07:55:50Z</time></trkpt>
<trkpt lat="43.337663" lon="13.235182"><ele>350.6805213817247</ele><time>2020-05-16T07:55:58Z</time></trkpt>
<trkpt lat="43.337668" lon="13.235301"><ele>351.6807222180835</ele><time>2020-05-16T07:56:03Z</time></trkpt>
<trkpt lat="43.337677" lon="13.235406"><ele>351.680941223936</ele><time>2020-05-16T07:56:08Z</time></trkpt>
<trkpt lat="43.337709" lon="13.235516"><ele>354.6813479216015</ele><time>2020-05-16T07:56:15Z</time></trkpt>
<trkpt lat="43.337734" lon="13.235618"><ele>354.6816833929462</ele><time>2020-05-16T07:56:20Z</time></trkpt>
<trkpt lat="43.337749" lon="13.235723"><ele>352.68194981938836</ele><time>2020-05-16T07:56:25Z</time></trkpt>
<trkpt lat="43.337779" lon="13.235832"><ele>350.6823376288461</ele><time>2020-05-16T07:56:31Z</time></trkpt>
<trkpt lat="43.337791" lon="13.235937"><ele>350.68257649314</ele><time>2020-05-16T07:56:37Z</time></trkpt>
<trkpt lat="43.337782" lon="13.236055"><ele>350.6826691404326</ele><time>2020-05-16T07:56:44Z</time></trkpt>
<trkpt lat="43.337763" lon="13.236163"><ele>349.68267240081116</ele><time>2020-05-16T07:56:50Z</time></trkpt>
<trkpt lat="43.337749" lon="13.236265"><ele>350.6827116164945</ele><time>2020-05-16T07:56:55Z</time></trkpt>
<trkpt lat="43.337724" lon="13.236372"><ele>350.6826633233162</ele><time>2020-05-16T07:57:01Z</time></trkpt>
<trkpt lat="43.337748" lon="13.236482"><ele>346.6830069508298</ele><time>2020-05-16T07:57:09Z</time></trkpt>
<trkpt lat="43.337742" lon="13.236566"><ele>347.6830749579949</ele><time>2020-05-16T07:57:13Z</time></trkpt>
<trkpt lat="43.337734" lon="13.236671"><ele>351.68316505879625</ele><time>2020-05-16T07:57:17Z</time></trkpt>
<trkpt lat="43.337720" lon="13.236780"><ele>352.6832032251244</ele><time>2020-05-16T07:57:23Z</time></trkpt>
<trkpt lat="43.337683" lon="13.236871"><ele>354.6830429701933</ele><time>2020-05-16T07:57:28Z</time></trkpt>
<trkpt lat="43.337645" lon="13.236972"><ele>356.68289259454144</ele><time>2020-05-16T07:57:33Z</time></trkpt>
<trkpt lat="43.337586" lon="13.237054"><ele>357.6825496776206</ele><time>2020-05-16T07:57:38Z</time></trkpt>
<trkpt lat="43.337570" lon="13.237150"><ele>356.68255835005124</ele><time>2020-05-16T07:57:43Z</time></trkpt>
<trkpt lat="43.337532" lon="13.237253"><ele>357.68240719203493</ele><time>2020-05-16T07:57:48Z</time></trkpt>
<trkpt lat="43.337486" lon="13.237348"><ele>357.682179021712</ele><time>2020-05-16T07:57:54Z</time></trkpt>
<trkpt lat="43.337426" lon="13.237430"><ele>357.68182713899574</ele><time>2020-05-16T07:58:00Z</time></trkpt>
<trkpt lat="43.337407" lon="13.237524"><ele>358.6818117083385</ele><time>2020-05-16T07:58:05Z</time></trkpt>
<trkpt lat="43.337411" lon="13.237636"><ele>357.68199995307543</ele><time>2020-05-16T07:58:11Z</time></trkpt>
<trkpt lat="43.337427" lon="13.237743"><ele>354.6822684797966</ele><time>2020-05-16T07:58:19Z</time></trkpt>
<trkpt lat="43.337445" lon="13.237860"><ele>352.68257348656584</ele><time>2020-05-16T07:58:27Z</time></trkpt>
<trkpt lat="43.337475" lon="13.237960"><ele>349.68294871735645</ele><time>2020-05-16T07:58:34Z</time></trkpt>
<trkpt lat="43.337507" lon="13.238069"><ele>346.6833473958601</ele><time>2020-05-16T07:58:41Z</time></trkpt>
<trkpt lat="43.337536" lon="13.238178"><ele>344.6837321854029</ele><time>2020-05-16T07:58:51Z</time></trkpt>
<trkpt lat="43.337562" lon="13.238296"><ele>341.68409822494414</ele><time>2020-05-16T07:59:00Z</time></trkpt>
<trkpt lat="43.337537" lon="13.238401"><ele>345.68404796130574</ele><time>2020-05-16T07:59:05Z</time></trkpt>
<trkpt lat="43.337510" lon="13.238514"><ele>340.68399942934377</ele><time>2020-05-16T07:59:13Z</time></trkpt>
<trkpt lat="43.337477" lon="13.238622"><ele>338.6838921853902</ele><time>2020-05-16T07:59:21Z</time></trkpt>
<trkpt lat="43.337450" lon="13.238722"><ele>333.68381973189275</ele><time>2020-05-16T07:59:30Z</time></trkpt>
<trkpt lat="43.337473" lon="13.238834"><ele>333.684157081509</ele><time>2020-05-16T07:59:36Z</time></trkpt>
<trkpt lat="43.337501" lon="13.238944"><ele>331.68453264126606</ele><time>2020-05-16T07:59:44Z</time></trkpt>
<trkpt lat="43.337561" lon="13.239025"><ele>332.6851119849463</ele><time>2020-05-16T07:59:50Z</time></trkpt>
<trkpt lat="43.337633" lon="13.239092"><ele>331.68577087281454</ele><time>2020-05-16T07:59:57Z</time></trkpt>
<trkpt lat="43.337689" lon="13.239186"><ele>330.68634010384307</ele><time>2020-05-16T08:00:03Z</time></trkpt>
<trkpt lat="43.337694" lon="13.239299"><ele>333.68653590985207</ele><time>2020-05-16T08:00:09Z</time></trkpt>
<trkpt lat="43.337692" lon="13.239405"><ele>329.6866730515866</ele><time>2020-05-16T08:00:16Z</time></trkpt>
<trkpt lat="43.337613" lon="13.239459"><ele>334.6861273770221</ele><time>2020-05-16T08:00:23Z</time></trkpt>
<trkpt lat="43.337554" lon="13.239389"><ele>336.68556824135715</ele><time>2020-05-16T08:00:30Z</time></trkpt>
<trkpt lat="43.337485" lon="13.239341"><ele>338.68495627569934</ele><time>2020-05-16T08:00:44Z</time></trkpt>
<trkpt lat="43.337434" lon="13.239240"><ele>342.68442071592625</ele><time>2020-05-16T08:03:24Z</time></trkpt>
<trkpt lat="43.337376" lon="13.239334"><ele>340.6840998315303</ele><time>2020-05-16T08:04:48Z</time></trkpt>
<trkpt lat="43.337295" lon="13.239376"><ele>341.6835219734338</ele><time>2020-05-16T08:04:59Z</time></trkpt>
<trkpt lat="43.337212" lon="13.239412"><ele>343.68292280135574</ele><time>2020-05-16T08:05:10Z</time></trkpt>
<trkpt lat="43.337137" lon="13.239445"><ele>345.6823785998756</ele><time>2020-05-16T08:05:22Z</time></trkpt>
<trkpt lat="43.337062" lon="13.239509"><ele>346.6818825283095</ele><time>2020-05-16T08:05:32Z</time></trkpt>
<trkpt lat="43.337006" lon="13.239566"><ele>351.68152611159485</ele><time>2020-05-16T08:05:41Z</time></trkpt>
<trkpt lat="43.336928" lon="13.239608"><ele>354.6809727301109</ele><time>2020-05-16T08:05:52Z</time></trkpt>
<trkpt lat="43.336896" lon="13.239515"><ele>355.68059132530243</ele><time>2020-05-16T08:06:03Z</time></trkpt>
<trkpt lat="43.336894" lon="13.239393"><ele>356.68040614315566</ele><time>2020-05-16T08:06:11Z</time></trkpt>
<trkpt lat="43.336860" lon="13.239291"><ele>356.6799979806019</ele><time>2020-05-16T08:06:21Z</time></trkpt>
<trkpt lat="43.336803" lon="13.239195"><ele>358.6794211912867</ele><time>2020-05-16T08:06:33Z</time></trkpt>
<trkpt lat="43.336717" lon="13.239168"><ele>358.67870965260033</ele><time>2020-05-16T08:06:44Z</time></trkpt>
<trkpt lat="43.336642" lon="13.239136"><ele>359.67807816030347</ele><time>2020-05-16T08:06:58Z</time></trkpt>
<trkpt lat="43.336592" lon="13.239045"><ele>363.67755891467255</ele><time>2020-05-16T08:07:11Z</time></trkpt>
<trkpt lat="43.336558" lon="13.238940"><ele>364.67715070628094</ele><time>2020-05-16T08:07:26Z</time></trkpt>
<trkpt lat="43.336519" lon="13.238830"><ele>367.67669157725965</ele><time>2020-05-16T08:07:37Z</time></trkpt>
<trkpt lat="43.336493" lon="13.238714"><ele>370.67632920787395</ele><time>2020-05-16T08:07:49Z</time></trkpt>
<trkpt lat="43.336442" lon="13.238618"><ele>372.6757970425568</ele><time>2020-05-16T08:08:04Z</time></trkpt>
<trkpt lat="43.336375" lon="13.238543"><ele>375.6751636854064</ele><time>2020-05-16T08:08:17Z</time></trkpt>
<trkpt lat="43.336320" lon="13.238450"><ele>378.6746049059162</ele><time>2020-05-16T08:08:28Z</time></trkpt>
<trkpt lat="43.336262" lon="13.238362"><ele>380.6740371912142</ele><time>2020-05-16T08:08:47Z</time></trkpt>
<trkpt lat="43.336213" lon="13.238266"><ele>381.6735175718494</ele><time>2020-05-16T08:08:57Z</time></trkpt>
<trkpt lat="43.336192" lon="13.238147"><ele>383.67318872449965</ele><time>2020-05-16T08:09:11Z</time></trkpt>
<trkpt lat="43.336162" lon="13.238045"><ele>385.6728149233833</ele><time>2020-05-16T08:09:19Z</time></trkpt>
<trkpt lat="43.336133" lon="13.237933"><ele>386.67243223274363</ele><time>2020-05-16T08:09:26Z</time></trkpt>
<trkpt lat="43.336097" lon="13.237842"><ele>385.6720290130062</ele><time>2020-05-16T08:09:32Z</time></trkpt>
<trkpt lat="43.336094" lon="13.237724"><ele>389.6718428487832</ele><time>2020-05-16T08:09:38Z</time></trkpt>
<trkpt lat="43.336052" lon="13.237624"><ele>387.67137718079823</ele><time>2020-05-16T08:09:45Z</time></trkpt>
<trkpt lat="43.336023" lon="13.237509"><ele>388.670990149304</ele><time>2020-05-16T08:09:54Z</time></trkpt>
<trkpt lat="43.336012" lon="13.237387"><ele>392.67073457192737</ele><time>2020-05-16T08:10:02Z</time></trkpt>
<trkpt lat="43.335978" lon="13.237287"><ele>391.67033474034633</ele><time>2020-05-16T08:10:08Z</time></trkpt>
<trkpt lat="43.335936" lon="13.237187"><ele>392.66987344505924</ele><time>2020-05-16T08:10:16Z</time></trkpt>
<trkpt lat="43.335910" lon="13.237077"><ele>393.66951424131423</ele><time>2020-05-16T08:10:25Z</time></trkpt>
<trkpt lat="43.335887" lon="13.236965"><ele>399.6691816515434</ele><time>2020-05-16T08:10:35Z</time></trkpt>
<trkpt lat="43.335843" lon="13.236878"><ele>399.6687211089161</ele><time>2020-05-16T08:10:45Z</time></trkpt>
<trkpt lat="43.335778" lon="13.236805"><ele>398.6681138201918</ele><time>2020-05-16T08:10:55Z</time></trkpt>
<trkpt lat="43.335719" lon="13.236724"><ele>402.66754628937406</ele><time>2020-05-16T08:11:11Z</time></trkpt>
<trkpt lat="43.335674" lon="13.236633"><ele>404.6670711379359</ele><time>2020-05-16T08:11:22Z</time></trkpt>
<trkpt lat="43.335640" lon="13.236526"><ele>407.66665659905806</ele><time>2020-05-16T08:11:34Z</time></trkpt>
<trkpt lat="43.335593" lon="13.236424"><ele>408.6661514504555</ele><time>2020-05-16T08:11:44Z</time></trkpt>
<trkpt lat="43.335575" lon="13.236306"><ele>413.66585392306047</ele><time>2020-05-16T08:11:56Z</time></trkpt>
<trkpt lat="43.335556" lon="13.236193"><ele>415.6655484091217</ele><time>2020-05-16T08:12:07Z</time></trkpt>
<trkpt lat="43.335518" lon="13.236091"><ele>416.6651126010312</ele><time>2020-05-16T08:12:13Z</time></trkpt>
<trkpt lat="43.335482" lon="13.235981"><ele>419.6646815566417</ele><time>2020-05-16T08:12:21Z</time></trkpt>
<trkpt lat="43.335450" lon="13.235868"><ele>422.6642753184685</ele><time>2020-05-16T08:12:37Z</time></trkpt>
<trkpt lat="43.335390" lon="13.235781"><ele>424.6636917611433</ele><time>2020-05-16T08:12:51Z</time></trkpt>
<trkpt lat="43.335339" lon="13.235685"><ele>425.6631654325514</ele><time>2020-05-16T08:13:08Z</time></trkpt>
<trkpt lat="43.335289" lon="13.235587"><ele>426.66264616686664</ele><time>2020-05-16T08:13:18Z</time></trkpt>
<trkpt lat="43.335221" lon="13.235508"><ele>428.6620095208891</ele><time>2020-05-16T08:13:33Z</time></trkpt>
<trkpt lat="43.335162" lon="13.235415"><ele>431.6614219130384</ele><time>2020-05-16T08:13:48Z</time></trkpt>
<trkpt lat="43.335103" lon="13.235334"><ele>437.6608520035861</ele><time>2020-05-16T08:14:02Z</time></trkpt>
<trkpt lat="43.335042" lon="13.235256"><ele>437.6602703971973</ele><time>2020-05-16T08:14:18Z</time></trkpt>
<trkpt lat="43.334978" lon="13.235171"><ele>438.6596655976156</ele><time>2020-05-16T08:14:30Z</time></trkpt>
<trkpt lat="43.334904" lon="13.235107"><ele>435.6590025145206</ele><time>2020-05-16T08:14:41Z</time></trkpt>
<trkpt lat="43.334822" lon="13.235061"><ele>434.6583033260787</ele><time>2020-05-16T08:14:46Z</time></trkpt>
<trkpt lat="43.334752" lon="13.234997"><ele>436.6576714639749</ele><time>2020-05-16T08:14:55Z</time></trkpt>
<trkpt lat="43.334667" lon="13.234976"><ele>441.6569839460567</ele><time>2020-05-16T08:15:07Z</time></trkpt>
<trkpt lat="43.334633" lon="13.235084"><ele>444.65686379988983</ele><time>2020-05-16T08:15:25Z</time></trkpt>
<trkpt lat="43.334665" lon="13.235198"><ele>447.6572683441452</ele><time>2020-05-16T08:15:32Z</time></trkpt>
<trkpt lat="43.334680" lon="13.235318"><ele>449.65754804533987</ele><time>2020-05-16T08:15:45Z</time></trkpt>
<trkpt lat="43.334648" lon="13.235422"><ele>450.65744334034275</ele><time>2020-05-16T08:15:53Z</time></trkpt>
<trkpt lat="43.334647" lon="13.235537"><ele>449.65758821017675</ele><time>2020-05-16T08:16:02Z</time></trkpt>
<trkpt lat="43.334643" lon="13.235654"><ele>451.6577190429068</ele><time>2020-05-16T08:16:10Z</time></trkpt>
<trkpt lat="43.334630" lon="13.235770"><ele>447.6577704677539</ele><time>2020-05-16T08:16:19Z</time></trkpt>
<trkpt lat="43.334617" lon="13.235890"><ele>446.657834203886</ele><time>2020-05-16T08:16:29Z</time></trkpt>
<trkpt lat="43.334600" lon="13.235986"><ele>448.65783190439646</ele><time>2020-05-16T08:16:34Z</time></trkpt>
<trkpt lat="43.334616" lon="13.236107"><ele>453.6581209416921</ele><time>2020-05-16T08:16:41Z</time></trkpt>
<trkpt lat="43.334641" lon="13.236217"><ele>455.65846393302184</ele><time>2020-05-16T08:16:49Z</time></trkpt>
<trkpt lat="43.334612" lon="13.236327"><ele>452.65838340299314</ele><time>2020-05-16T08:17:00Z</time></trkpt>
<trkpt lat="43.334569" lon="13.236427"><ele>447.658186793193</ele><time>2020-05-16T08:17:09Z</time></trkpt>
<trkpt lat="43.334547" lon="13.236541"><ele>445.6581680928492</ele><time>2020-05-16T08:17:16Z</time></trkpt>
<trkpt lat="43.334525" lon="13.236638"><ele>447.6581287066497</ele><time>2020-05-16T08:17:24Z</time></trkpt>
<trkpt lat="43.334540" lon="13.236759"><ele>449.6584080111171</ele><time>2020-05-16T08:17:32Z</time></trkpt>
<trkpt lat="43.334513" lon="13.236875"><ele>448.6583582895254</ele><time>2020-05-16T08:17:40Z</time></trkpt>
<trkpt lat="43.334531" lon="13.236983"><ele>452.6586454721963</ele><time>2020-05-16T08:17:46Z</time></trkpt>
<trkpt lat="43.334500" lon="13.237092"><ele>450.65854744637727</ele><time>2020-05-16T08:17:53Z</time></trkpt>
<trkpt lat="43.334479" lon="13.237208"><ele>451.65854099954936</ele><time>2020-05-16T08:18:01Z</time></trkpt>
<trkpt lat="43.334471" lon="13.237320"><ele>449.6586298747827</ele><time>2020-05-16T08:18:09Z</time></trkpt>
<trkpt lat="43.334484" lon="13.237433"><ele>452.6588888570365</ele><time>2020-05-16T08:18:17Z</time></trkpt>
<trkpt lat="43.334478" lon="13.237548"><ele>449.658991161685</ele><time>2020-05-16T08:18:26Z</time></trkpt>
<trkpt lat="43.334457" lon="13.237656"><ele>449.65897784871476</ele><time>2020-05-16T08:18:33Z</time></trkpt>
<trkpt lat="43.334449" lon="13.237763"><ele>446.65906150869614</ele><time>2020-05-16T08:18:40Z</time></trkpt>
<trkpt lat="43.334458" lon="13.237881"><ele>449.6592885679097</ele><time>2020-05-16T08:18:50Z</time></trkpt>
<trkpt lat="43.334449" lon="13.237996"><ele>450.6593763347599</ele><time>2020-05-16T08:18:56Z</time></trkpt>
<trkpt lat="43.334440" lon="13.238098"><ele>452.6594367845825</ele><time>2020-05-16T08:19:01Z</time></trkpt>
<trkpt lat="43.334435" lon="13.238203"><ele>456.6595398764609</ele><time>2020-05-16T08:19:05Z</time></trkpt>
<trkpt lat="43.334436" lon="13.238294"><ele>457.6596747760841</ele><time>2020-05-16T08:19:10Z</time></trkpt>
<trkpt lat="43.334455" lon="13.238428"><ele>462.6600002485877</ele><time>2020-05-16T08:19:15Z</time></trkpt>
<trkpt lat="43.334458" lon="13.238551"><ele>464.6601927016482</ele><time>2020-05-16T08:19:23Z</time></trkpt>
<trkpt lat="43.334449" lon="13.238664"><ele>465.6602743835059</ele><time>2020-05-16T08:19:29Z</time></trkpt>
<trkpt lat="43.334443" lon="13.238769"><ele>466.66037010917563</ele><time>2020-05-16T08:19:35Z</time></trkpt>
<trkpt lat="43.334417" lon="13.238886"><ele>466.6603218131747</ele><time>2020-05-16T08:19:42Z</time></trkpt>
<trkpt lat="43.334433" lon="13.239003"><ele>470.66060921201694</ele><time>2020-05-16T08:19:54Z</time></trkpt>
<trkpt lat="43.334409" lon="13.239122"><ele>469.66058184230917</ele><time>2020-05-16T08:20:03Z</time></trkpt>
<trkpt lat="43.334402" lon="13.239241"><ele>470.66068386485426</ele><time>2020-05-16T08:20:09Z</time></trkpt>
<trkpt lat="43.334414" lon="13.239372"><ele>476.66095956613486</ele><time>2020-05-16T08:20:14Z</time></trkpt>
<trkpt lat="43.334407" lon="13.239490"><ele>475.6610593669429</ele><time>2020-05-16T08:20:23Z</time></trkpt>
<trkpt lat="43.334412" lon="13.239603"><ele>475.66125037795535</ele><time>2020-05-16T08:20:30Z</time></trkpt>
<trkpt lat="43.334381" lon="13.239715"><ele>473.6611604874907</ele><time>2020-05-16T08:20:39Z</time></trkpt>
<trkpt lat="43.334351" lon="13.239818"><ele>474.66106397501505</ele><time>2020-05-16T08:20:45Z</time></trkpt>
<trkpt lat="43.334352" lon="13.239931"><ele>478.66122965305055</ele><time>2020-05-16T08:20:51Z</time></trkpt>
<trkpt lat="43.334333" lon="13.240048"><ele>479.66123808212205</ele><time>2020-05-16T08:20:59Z</time></trkpt>
<trkpt lat="43.334351" lon="13.240151"><ele>481.6615148189617</ele><time>2020-05-16T08:21:07Z</time></trkpt>
<trkpt lat="43.334331" lon="13.240255"><ele>484.6614963421892</ele><time>2020-05-16T08:21:13Z</time></trkpt>
<trkpt lat="43.334314" lon="13.240355"><ele>484.6614991153275</ele><time>2020-05-16T08:21:19Z</time></trkpt>
<trkpt lat="43.334270" lon="13.240456"><ele>481.66129215248617</ele><time>2020-05-16T08:21:27Z</time></trkpt>
<trkpt lat="43.334246" lon="13.240573"><ele>484.6612587445486</ele><time>2020-05-16T08:21:36Z</time></trkpt>
<trkpt lat="43.334208" lon="13.240674"><ele>483.6610998256818</ele><time>2020-05-16T08:21:44Z</time></trkpt>
<trkpt lat="43.334226" lon="13.240782"><ele>489.6613850210728</ele><time>2020-05-16T08:21:49Z</time></trkpt>
<trkpt lat="43.334193" lon="13.240884"><ele>488.6612602383601</ele><time>2020-05-16T08:21:57Z</time></trkpt>
<trkpt lat="43.334167" lon="13.241002"><ele>492.6612168250176</ele><time>2020-05-16T08:22:05Z</time></trkpt>
<trkpt lat="43.334136" lon="13.241109"><ele>491.6611200445428</ele><time>2020-05-16T08:22:16Z</time></trkpt>
<trkpt lat="43.334112" lon="13.241199"><ele>491.66105316171615</ele><time>2020-05-16T08:22:20Z</time></trkpt>
<trkpt lat="43.334092" lon="13.241317"><ele>490.6610529018475</ele><time>2020-05-16T08:22:25Z</time></trkpt>
<trkpt lat="43.334091" lon="13.241447"><ele>495.66122077228704</ele><time>2020-05-16T08:22:30Z</time></trkpt>
<trkpt lat="43.334071" lon="13.241566"><ele>500.6612197948071</ele><time>2020-05-16T08:22:40Z</time></trkpt>
<trkpt lat="43.334059" lon="13.241677"><ele>503.6612804845329</ele><time>2020-05-16T08:22:47Z</time></trkpt>
<trkpt lat="43.334056" lon="13.241777"><ele>503.66139045414945</ele><time>2020-05-16T08:22:54Z</time></trkpt>
<trkpt lat="43.334033" lon="13.241892"><ele>504.66136232923577</ele><time>2020-05-16T08:23:02Z</time></trkpt>
<trkpt lat="43.333968" lon="13.241972"><ele>505.66095562149445</ele><time>2020-05-16T08:23:11Z</time></trkpt>
<trkpt lat="43.333895" lon="13.242038"><ele>503.660472872994</ele><time>2020-05-16T08:23:21Z</time></trkpt>
<trkpt lat="43.333816" lon="13.242090"><ele>504.6599195587563</ele><time>2020-05-16T08:23:29Z</time></trkpt>
<trkpt lat="43.333764" lon="13.242187"><ele>505.65963809369555</ele><time>2020-05-16T08:23:38Z</time></trkpt>
<trkpt lat="43.333682" lon="13.242203"><ele>500.6590182104947</ele><time>2020-05-16T08:23:47Z</time></trkpt>
<trkpt lat="43.333634" lon="13.242273"><ele>500.6587316512922</ele><time>2020-05-16T08:23:52Z</time></trkpt>
<trkpt lat="43.333553" lon="13.242293"><ele>498.65812290366966</ele><time>2020-05-16T08:23:57Z</time></trkpt>
<trkpt lat="43.333489" lon="13.242373"><ele>499.6577222629368</ele><time>2020-05-16T08:24:03Z</time></trkpt>
<trkpt lat="43.333408" lon="13.242414"><ele>500.6571407923433</ele><time>2020-05-16T08:24:11Z</time></trkpt>
<trkpt lat="43.333339" lon="13.242493"><ele>503.6566979988487</ele><time>2020-05-16T08:24:17Z</time></trkpt>
<trkpt lat="43.333272" lon="13.242574"><ele>510.65628009033986</ele><time>2020-05-16T08:24:31Z</time></trkpt>
<trkpt lat="43.333201" lon="13.242545"><ele>509.6556807155006</ele><time>2020-05-16T08:25:38Z</time></trkpt>
<trkpt lat="43.333129" lon="13.242507"><ele>510.6550629607221</ele><time>2020-05-16T08:25:45Z</time></trkpt>
<trkpt lat="43.333057" lon="13.242480"><ele>514.6544653860828</ele><time>2020-05-16T08:25:58Z</time></trkpt>
<trkpt lat="43.332996" lon="13.242395"><ele>515.6538696743064</ele><time>2020-05-16T08:26:37Z</time></trkpt>
<trkpt lat="43.332975" lon="13.242286"><ele>515.6535569421817</ele><time>2020-05-16T08:26:45Z</time></trkpt>
<trkpt lat="43.332970" lon="13.242168"><ele>515.6533645523474</ele><time>2020-05-16T08:26:53Z</time></trkpt>
<trkpt lat="43.332972" lon="13.242049"><ele>517.6532213759472</ele><time>2020-05-16T08:26:58Z</time></trkpt>
<trkpt lat="43.332904" lon="13.241986"><ele>522.6526027434454</ele><time>2020-05-16T08:27:33Z</time></trkpt>
<trkpt lat="43.332824" lon="13.241878"><ele>518.6518289507464</ele><time>2020-05-16T08:27:38Z</time></trkpt>
<trkpt lat="43.332761" lon="13.241813"><ele>520.6512454120486</ele><time>2020-05-16T08:27:46Z</time></trkpt>
<trkpt lat="43.332744" lon="13.241695"><ele>523.650957320732</ele><time>2020-05-16T08:28:25Z</time></trkpt>
<trkpt lat="43.332695" lon="13.241599"><ele>526.6504413388013</ele><time>2020-05-16T08:28:37Z</time></trkpt>
<trkpt lat="43.332684" lon="13.241479"><ele>529.6501988627</ele><time>2020-05-16T08:28:49Z</time></trkpt>
<trkpt lat="43.332626" lon="13.241385"><ele>538.6496177370508</ele><time>2020-05-16T08:29:13Z</time></trkpt>
<trkpt lat="43.332571" lon="13.241293"><ele>541.6490664310813</ele><time>2020-05-16T08:29:27Z</time></trkpt>
<trkpt lat="43.332566" lon="13.241179"><ele>549.6488728841111</ele><time>2020-05-16T08:29:37Z</time></trkpt>
<trkpt lat="43.332532" lon="13.241075"><ele>551.6484730833698</ele><time>2020-05-16T08:29:56Z</time></trkpt>
<trkpt lat="43.332471" lon="13.241014"><ele>552.6479068659306</ele><time>2020-05-16T08:30:04Z</time></trkpt>
<trkpt lat="43.332389" lon="13.240979"><ele>550.6472199512796</ele><time>2020-05-16T08:30:14Z</time></trkpt>
<trkpt lat="43.332303" lon="13.240954"><ele>547.6465133772133</ele><time>2020-05-16T08:30:23Z</time></trkpt>
<trkpt lat="43.332215" lon="13.240952"><ele>545.6458197446723</ele><time>2020-05-16T08:30:37Z</time></trkpt>
<trkpt lat="43.332132" lon="13.240961"><ele>541.6451744964008</ele><time>2020-05-16T08:30:44Z</time></trkpt>
<trkpt lat="43.332058" lon="13.241020"><ele>542.6446773377207</ele><time>2020-05-16T08:30:51Z</time></trkpt>
<trkpt lat="43.331980" lon="13.241075"><ele>543.6441356782278</ele><time>2020-05-16T08:30:59Z</time></trkpt>
<trkpt lat="43.331904" lon="13.241103"><ele>538.6435735349322</ele><time>2020-05-16T08:31:10Z</time></trkpt>
<trkpt lat="43.331818" lon="13.241138"><ele>542.6429458877542</ele><time>2020-05-16T08:31:22Z</time></trkpt>
<trkpt lat="43.331731" lon="13.241155"><ele>537.6422810489098</ele><time>2020-05-16T08:31:30Z</time></trkpt>
<trkpt lat="43.331650" lon="13.241177"><ele>535.641676015149</ele><time>2020-05-16T08:31:43Z</time></trkpt>
<trkpt lat="43.331576" lon="13.241161"><ele>527.6410675800113</ele><time>2020-05-16T08:31:54Z</time></trkpt>
<trkpt lat="43.331491" lon="13.241157"><ele>522.640394689195</ele><time>2020-05-16T08:32:01Z</time></trkpt>
<trkpt lat="43.331426" lon="13.241238"><ele>528.6399936794096</ele><time>2020-05-16T08:32:06Z</time></trkpt>
<trkpt lat="43.331349" lon="13.241261"><ele>521.6394200132472</ele><time>2020-05-16T08:32:18Z</time></trkpt>
<trkpt lat="43.331259" lon="13.241354"><ele>528.6388343844593</ele><time>2020-05-16T08:32:23Z</time></trkpt>
<trkpt lat="43.331189" lon="13.241364"><ele>527.6382959763224</ele><time>2020-05-16T08:32:28Z</time></trkpt>
<trkpt lat="43.331109" lon="13.241416"><ele>528.6377351350045</ele><time>2020-05-16T08:32:34Z</time></trkpt>
<trkpt lat="43.331035" lon="13.241467"><ele>528.6372174540448</ele><time>2020-05-16T08:32:51Z</time></trkpt>
<trkpt lat="43.330956" lon="13.241417"><ele>523.6365312718344</ele><time>2020-05-16T08:34:01Z</time></trkpt>
<trkpt lat="43.330933" lon="13.241316"><ele>527.6362163195063</ele><time>2020-05-16T08:35:14Z</time></trkpt>
<trkpt lat="43.330916" lon="13.241200"><ele>530.6359359869006</ele><time>2020-05-16T08:35:40Z</time></trkpt>
<trkpt lat="43.330885" lon="13.241087"><ele>537.635548651693</ele><time>2020-05-16T08:36:29Z</time></trkpt>
<trkpt lat="43.330894" lon="13.240965"><ele>550.6354555736698</ele><time>2020-05-16T08:37:11Z</time></trkpt>
<trkpt lat="43.330869" lon="13.240857"><ele>553.6351237317526</ele><time>2020-05-16T08:37:31Z</time></trkpt>
<trkpt lat="43.330866" lon="13.240753"><ele>562.634963150097</ele><time>2020-05-16T08:38:23Z</time></trkpt>
<trkpt lat="43.330828" lon="13.240646"><ele>565.6345287544856</ele><time>2020-05-16T08:38:42Z</time></trkpt>
<trkpt lat="43.330765" lon="13.240586"><ele>564.6339556308623</ele><time>2020-05-16T08:38:48Z</time></trkpt>
<trkpt lat="43.330701" lon="13.240514"><ele>570.6333586389231</ele><time>2020-05-16T08:40:30Z</time></trkpt>
<trkpt lat="43.330679" lon="13.240395"><ele>574.6330298862238</ele><time>2020-05-16T08:43:03Z</time></trkpt>
<trkpt lat="43.330683" lon="13.240274"><ele>578.6329050711303</ele><time>2020-05-16T08:46:18Z</time></trkpt>
<trkpt lat="43.330745" lon="13.240189"><ele>584.6332818928391</ele><time>2020-05-16T08:47:20Z</time></trkpt>
<trkpt lat="43.330736" lon="13.240068"><ele>586.6330598529578</ele><time>2020-05-16T08:50:42Z</time></trkpt>
<trkpt lat="43.330790" lon="13.239972"><ele>586.6333550404506</ele><time>2020-05-16T08:52:56Z</time></trkpt>
<trkpt lat="43.330838" lon="13.239875"><ele>592.6336117017784</ele><time>2020-05-16T08:53:48Z</time></trkpt>
<trkpt lat="43.330907" lon="13.239813"><ele>594.6340674235832</ele><time>2020-05-16T08:54:34Z</time></trkpt>
<trkpt lat="43.330941" lon="13.239707"><ele>597.6341996910057</ele><time>2020-05-16T08:55:35Z</time></trkpt>
<trkpt lat="43.330950" lon="13.239585"><ele>603.6341090924599</ele><time>2020-05-16T08:56:26Z</time></trkpt>
<trkpt lat="43.330931" lon="13.239469"><ele>603.6338092709733</ele><time>2020-05-16T08:56:43Z</time></trkpt>
<trkpt lat="43.330925" lon="13.239353"><ele>611.6336177699286</ele><time>2020-05-16T08:56:57Z</time></trkpt>
<trkpt lat="43.330982" lon="13.239263"><ele>616.6339466315338</ele><time>2020-05-16T08:57:42Z</time></trkpt>
<trkpt lat="43.330942" lon="13.239157"><ele>616.633493049519</ele><time>2020-05-16T08:58:05Z</time></trkpt>
<trkpt lat="43.330936" lon="13.239052"><ele>622.6333113306875</ele><time>2020-05-16T08:58:34Z</time></trkpt>
<trkpt lat="43.330895" lon="13.238943"><ele>622.6328486030725</ele><time>2020-05-16T08:58:49Z</time></trkpt>
<trkpt lat="43.330878" lon="13.238822"><ele>631.6325576932167</ele><time>2020-05-16T09:00:36Z</time></trkpt>
<trkpt lat="43.330912" lon="13.238712"><ele>633.6326823700107</ele><time>2020-05-16T09:01:04Z</time></trkpt>
<trkpt lat="43.330931" lon="13.238609"><ele>633.6326972818914</ele><time>2020-05-16T09:01:14Z</time></trkpt>
<trkpt lat="43.330901" lon="13.238494"><ele>636.6323122710285</ele><time>2020-05-16T09:01:27Z</time></trkpt>
<trkpt lat="43.330901" lon="13.238396"><ele>631.6321885349346</ele><time>2020-05-16T09:01:37Z</time></trkpt>
<trkpt lat="43.330870" lon="13.238284"><ele>632.6318030204387</ele><time>2020-05-16T09:01:44Z</time></trkpt>
<trkpt lat="43.330849" lon="13.238166"><ele>632.6314862139093</ele><time>2020-05-16T09:01:59Z</time></trkpt>
<trkpt lat="43.330880" lon="13.238050"><ele>633.6315785288434</ele><time>2020-05-16T09:02:10Z</time></trkpt>
<trkpt lat="43.330908" lon="13.237937"><ele>638.6316511389259</ele><time>2020-05-16T09:02:17Z</time></trkpt>
<trkpt lat="43.330858" lon="13.237854"><ele>641.6311535649338</ele><time>2020-05-16T09:02:24Z</time></trkpt>
<trkpt lat="43.330778" lon="13.237806"><ele>643.6304607939833</ele><time>2020-05-16T09:02:32Z</time></trkpt>
<trkpt lat="43.330696" lon="13.237774"><ele>643.6297854875853</ele><time>2020-05-16T09:02:40Z</time></trkpt>
<trkpt lat="43.330608" lon="13.237785"><ele>647.629107698909</ele><time>2020-05-16T09:02:52Z</time></trkpt>
<trkpt lat="43.330519" lon="13.237799"><ele>653.6284345205825</ele><time>2020-05-16T09:03:05Z</time></trkpt>
<trkpt lat="43.330434" lon="13.237805"><ele>656.627776317203</ele><time>2020-05-16T09:03:18Z</time></trkpt>
<trkpt lat="43.330366" lon="13.237860"><ele>658.6273172948737</ele><time>2020-05-16T09:03:34Z</time></trkpt>
<trkpt lat="43.330283" lon="13.237903"><ele>658.6267247495475</ele><time>2020-05-16T09:03:43Z</time></trkpt>
<trkpt lat="43.330210" lon="13.237967"><ele>659.6262375900844</ele><time>2020-05-16T09:03:56Z</time></trkpt>
<trkpt lat="43.330124" lon="13.238002"><ele>661.6256107443094</ele><time>2020-05-16T09:04:07Z</time></trkpt>
<trkpt lat="43.330039" lon="13.238003"><ele>661.6249486699228</ele><time>2020-05-16T09:04:21Z</time></trkpt>
<trkpt lat="43.329955" lon="13.237970"><ele>662.6242539232263</ele><time>2020-05-16T09:04:33Z</time></trkpt>
<trkpt lat="43.329877" lon="13.237925"><ele>664.6235822461258</ele><time>2020-05-16T09:04:42Z</time></trkpt>
<trkpt lat="43.329793" lon="13.237917"><ele>663.6229202941934</ele><time>2020-05-16T09:04:49Z</time></trkpt>
<trkpt lat="43.329713" lon="13.237930"><ele>666.6223071092718</ele><time>2020-05-16T09:05:02Z</time></trkpt>
<trkpt lat="43.329629" lon="13.237914"><ele>670.6216359437875</ele><time>2020-05-16T09:05:14Z</time></trkpt>
<trkpt lat="43.329541" lon="13.237902"><ele>667.620933120924</ele><time>2020-05-16T09:05:24Z</time></trkpt>
<trkpt lat="43.329459" lon="13.237862"><ele>668.6202442025643</ele><time>2020-05-16T09:05:39Z</time></trkpt>
<trkpt lat="43.329380" lon="13.237857"><ele>667.6196133288987</ele><time>2020-05-16T09:05:48Z</time></trkpt>
<trkpt lat="43.329297" lon="13.237832"><ele>668.6189343063713</ele><time>2020-05-16T09:05:58Z</time></trkpt>
<trkpt lat="43.329215" lon="13.237785"><ele>669.618236945643</ele><time>2020-05-16T09:06:12Z</time></trkpt>
<trkpt lat="43.329140" lon="13.237753"><ele>672.6176160943347</ele><time>2020-05-16T09:06:25Z</time></trkpt>
<trkpt lat="43.329053" lon="13.237726"><ele>673.6169016597536</ele><time>2020-05-16T09:06:40Z</time></trkpt>
<trkpt lat="43.328984" lon="13.237684"><ele>678.6163095680992</ele><time>2020-05-16T09:06:57Z</time></trkpt>
<trkpt lat="43.328904" lon="13.237636"><ele>678.6156247436329</ele><time>2020-05-16T09:07:06Z</time></trkpt>
<trkpt lat="43.328829" lon="13.237605"><ele>681.6150008914346</ele><time>2020-05-16T09:07:24Z</time></trkpt>
<trkpt lat="43.328755" lon="13.237543"><ele>686.6143430250241</ele><time>2020-05-16T09:07:33Z</time></trkpt>
<trkpt lat="43.328700" lon="13.237455"><ele>690.6137996045517</ele><time>2020-05-16T09:07:46Z</time></trkpt>
<trkpt lat="43.328626" lon="13.237398"><ele>693.6131516296412</ele><time>2020-05-16T09:07:55Z</time></trkpt>
<trkpt lat="43.328546" lon="13.237355"><ele>694.6124792576366</ele><time>2020-05-16T09:08:04Z</time></trkpt>
<trkpt lat="43.328509" lon="13.237255"><ele>701.612065960334</ele><time>2020-05-16T09:08:19Z</time></trkpt>
<trkpt lat="43.328446" lon="13.237179"><ele>706.6114783864383</ele><time>2020-05-16T09:08:30Z</time></trkpt>
<trkpt lat="43.328378" lon="13.237107"><ele>710.6108525661223</ele><time>2020-05-16T09:08:41Z</time></trkpt>
<trkpt lat="43.328305" lon="13.237036"><ele>714.610195055781</ele><time>2020-05-16T09:08:55Z</time></trkpt>
<trkpt lat="43.328221" lon="13.237017"><ele>715.6095159808258</ele><time>2020-05-16T09:09:07Z</time></trkpt>
<trkpt lat="43.328150" lon="13.236959"><ele>718.6088941982554</ele><time>2020-05-16T09:09:17Z</time></trkpt>
<trkpt lat="43.328188" lon="13.236851"><ele>722.6090581540923</ele><time>2020-05-16T09:09:50Z</time></trkpt>
<trkpt lat="43.328141" lon="13.236752"><ele>725.6085637278655</ele><time>2020-05-16T09:10:22Z</time></trkpt>
<trkpt lat="43.328066" lon="13.236705"><ele>726.6079232455207</ele><time>2020-05-16T09:10:35Z</time></trkpt>
<trkpt lat="43.328078" lon="13.236584"><ele>729.6078632219524</ele><time>2020-05-16T09:10:52Z</time></trkpt>
<trkpt lat="43.328024" lon="13.236497"><ele>731.6073318133356</ele><time>2020-05-16T09:11:06Z</time></trkpt>
<trkpt lat="43.327961" lon="13.236426"><ele>733.6067598110689</ele><time>2020-05-16T09:11:18Z</time></trkpt>
<trkpt lat="43.327899" lon="13.236340"><ele>733.606166326178</ele><time>2020-05-16T09:11:29Z</time></trkpt>
<trkpt lat="43.327831" lon="13.236261"><ele>736.6055371791862</ele><time>2020-05-16T09:11:49Z</time></trkpt>
<trkpt lat="43.327863" lon="13.236251"><ele>731.6057747041682</ele><time>2020-05-16T09:12:25Z</time></trkpt>
<trkpt lat="43.327771" lon="13.236264"><ele>731.6050782560635</ele><time>2020-05-16T09:12:30Z</time></trkpt>
<trkpt lat="43.327836" lon="13.236196"><ele>733.6054983266812</ele><time>2020-05-16T09:12:55Z</time></trkpt>
<trkpt lat="43.327890" lon="13.236098"><ele>731.6057969273152</ele><time>2020-05-16T09:27:21Z</time></trkpt>
<trkpt lat="43.327852" lon="13.235999"><ele>732.6053732006193</ele><time>2020-05-16T09:27:28Z</time></trkpt>
<trkpt lat="43.327780" lon="13.235937"><ele>733.6047390921615</ele><time>2020-05-16T09:27:42Z</time></trkpt>
<trkpt lat="43.327695" lon="13.235942"><ele>733.6040811557963</ele><time>2020-05-16T09:27:55Z</time></trkpt>
<trkpt lat="43.327629" lon="13.235876"><ele>733.603487788106</ele><time>2020-05-16T09:28:10Z</time></trkpt>
<trkpt lat="43.327557" lon="13.235811"><ele>735.6028463742898</ele><time>2020-05-16T09:28:18Z</time></trkpt>
<trkpt lat="43.327487" lon="13.235747"><ele>737.6022233645564</ele><time>2020-05-16T09:28:27Z</time></trkpt>
<trkpt lat="43.327411" lon="13.235693"><ele>739.6015669981628</ele><time>2020-05-16T09:28:37Z</time></trkpt>
<trkpt lat="43.327348" lon="13.235605"><ele>737.6009718771311</ele><time>2020-05-16T09:28:50Z</time></trkpt>
<trkpt lat="43.327275" lon="13.235549"><ele>736.600335181209</ele><time>2020-05-16T09:28:59Z</time></trkpt>
<trkpt lat="43.327226" lon="13.235463"><ele>735.5998424008116</ele><time>2020-05-16T09:29:07Z</time></trkpt>
<trkpt lat="43.327160" lon="13.235392"><ele>734.5992440862854</ele><time>2020-05-16T09:29:14Z</time></trkpt>
<trkpt lat="43.327088" lon="13.235321"><ele>735.598595303754</ele><time>2020-05-16T09:29:21Z</time></trkpt>
<trkpt lat="43.327029" lon="13.235247"><ele>734.5980512578918</ele><time>2020-05-16T09:29:29Z</time></trkpt>
<trkpt lat="43.326954" lon="13.235182"><ele>736.5973837020541</ele><time>2020-05-16T09:29:37Z</time></trkpt>
<trkpt lat="43.326884" lon="13.235114"><ele>736.5967631896378</ele><time>2020-05-16T09:29:45Z</time></trkpt>
<trkpt lat="43.326817" lon="13.235036"><ele>737.5961444408493</ele><time>2020-05-16T09:29:53Z</time></trkpt>
<trkpt lat="43.326753" lon="13.234956"><ele>739.5955462046693</ele><time>2020-05-16T09:30:00Z</time></trkpt>
<trkpt lat="43.326694" lon="13.234868"><ele>739.5949840207206</ele><time>2020-05-16T09:30:09Z</time></trkpt>
<trkpt lat="43.326622" lon="13.234794"><ele>734.5943342681837</ele><time>2020-05-16T09:30:18Z</time></trkpt>
<trkpt lat="43.326576" lon="13.234694"><ele>734.5938515580809</ele><time>2020-05-16T09:30:27Z</time></trkpt>
<trkpt lat="43.326525" lon="13.234592"><ele>734.5933377420275</ele><time>2020-05-16T09:30:34Z</time></trkpt>
<trkpt lat="43.326463" lon="13.234520"><ele>734.5927619352804</ele><time>2020-05-16T09:30:41Z</time></trkpt>
<trkpt lat="43.326389" lon="13.234469"><ele>735.5921308432736</ele><time>2020-05-16T09:30:48Z</time></trkpt>
<trkpt lat="43.326329" lon="13.234396"><ele>736.5915728558443</ele><time>2020-05-16T09:30:53Z</time></trkpt>
<trkpt lat="43.326255" lon="13.234344"><ele>737.5909361887449</ele><time>2020-05-16T09:31:00Z</time></trkpt>
<trkpt lat="43.326179" lon="13.234291"><ele>739.5902858265988</ele><time>2020-05-16T09:31:08Z</time></trkpt>
<trkpt lat="43.326102" lon="13.234240"><ele>740.5896265180821</ele><time>2020-05-16T09:31:15Z</time></trkpt>
<trkpt lat="43.326031" lon="13.234168"><ele>742.5889879891126</ele><time>2020-05-16T09:31:23Z</time></trkpt>
<trkpt lat="43.325981" lon="13.234073"><ele>743.5884882796362</ele><time>2020-05-16T09:31:29Z</time></trkpt>
<trkpt lat="43.325914" lon="13.233999"><ele>744.5878780859172</ele><time>2020-05-16T09:31:36Z</time></trkpt>
<trkpt lat="43.325835" lon="13.233973"><ele>743.5872328094913</ele><time>2020-05-16T09:31:42Z</time></trkpt>
<trkpt lat="43.325754" lon="13.233929"><ele>744.5865507440385</ele><time>2020-05-16T09:31:49Z</time></trkpt>
<trkpt lat="43.325681" lon="13.233884"><ele>747.585933729525</ele><time>2020-05-16T09:31:56Z</time></trkpt>
<trkpt lat="43.325607" lon="13.233823"><ele>747.5852845488548</ele><time>2020-05-16T09:32:03Z</time></trkpt>
<trkpt lat="43.325540" lon="13.233749"><ele>747.5846803914361</ele><time>2020-05-16T09:32:09Z</time></trkpt>
<trkpt lat="43.325469" lon="13.233679"><ele>746.584045860715</ele><time>2020-05-16T09:32:17Z</time></trkpt>
<trkpt lat="43.325411" lon="13.233600"><ele>746.5835030860294</ele><time>2020-05-16T09:32:23Z</time></trkpt>
<trkpt lat="43.325366" lon="13.233509"><ele>744.5830437147074</ele><time>2020-05-16T09:32:30Z</time></trkpt>
<trkpt lat="43.325316" lon="13.233424"><ele>742.5825526170553</ele><time>2020-05-16T09:32:37Z</time></trkpt>
<trkpt lat="43.325270" lon="13.233333"><ele>744.5820852234202</ele><time>2020-05-16T09:32:43Z</time></trkpt>
<trkpt lat="43.325196" lon="13.233290"><ele>746.5814616969898</ele><time>2020-05-16T09:32:49Z</time></trkpt>
<trkpt lat="43.325120" lon="13.233225"><ele>748.5807952334033</ele><time>2020-05-16T09:32:56Z</time></trkpt>
<trkpt lat="43.325059" lon="13.233140"><ele>746.5802252722692</ele><time>2020-05-16T09:33:02Z</time></trkpt>
<trkpt lat="43.325034" lon="13.233041"><ele>747.5799160082079</ele><time>2020-05-16T09:33:08Z</time></trkpt>
<trkpt lat="43.325011" lon="13.232934"><ele>747.5796075466084</ele><time>2020-05-16T09:33:14Z</time></trkpt>
<trkpt lat="43.324983" lon="13.232829"><ele>747.579265101895</ele><time>2020-05-16T09:33:20Z</time></trkpt>
<trkpt lat="43.324955" lon="13.232725"><ele>747.5789226922591</ele><time>2020-05-16T09:33:26Z</time></trkpt>
<trkpt lat="43.324926" lon="13.232617"><ele>748.5785694941458</ele><time>2020-05-16T09:33:33Z</time></trkpt>
<trkpt lat="43.324899" lon="13.232503"><ele>749.578222219379</ele><time>2020-05-16T09:33:41Z</time></trkpt>
<trkpt lat="43.324880" lon="13.232399"><ele>750.5779505710125</ele><time>2020-05-16T09:33:48Z</time></trkpt>
<trkpt lat="43.324864" lon="13.232293"><ele>751.5777001001367</ele><time>2020-05-16T09:33:54Z</time></trkpt>
<trkpt lat="43.324820" lon="13.232206"><ele>751.5772607905767</ele><time>2020-05-16T09:34:00Z</time></trkpt>
<trkpt lat="43.324756" lon="13.232141"><ele>749.5766877192985</ele><time>2020-05-16T09:34:06Z</time></trkpt>
<trkpt lat="43.324686" lon="13.232090"><ele>749.5760850835626</ele><time>2020-05-16T09:34:12Z</time></trkpt>
<trkpt lat="43.324614" lon="13.232039"><ele>751.5754704296031</ele><time>2020-05-16T09:34:18Z</time></trkpt>
<trkpt lat="43.324535" lon="13.231982"><ele>751.5747955847086</ele><time>2020-05-16T09:34:25Z</time></trkpt>
<trkpt lat="43.324469" lon="13.231924"><ele>753.5742130986077</ele><time>2020-05-16T09:34:31Z</time></trkpt>
<trkpt lat="43.324398" lon="13.231878"><ele>754.5736155730106</ele><time>2020-05-16T09:34:37Z</time></trkpt>
<trkpt lat="43.324345" lon="13.231792"><ele>753.573097483992</ele><time>2020-05-16T09:34:43Z</time></trkpt>
<trkpt lat="43.324312" lon="13.231684"><ele>755.57271682126</ele><time>2020-05-16T09:34:49Z</time></trkpt>
<trkpt lat="43.324268" lon="13.231586"><ele>755.5722622544642</ele><time>2020-05-16T09:34:55Z</time></trkpt>
<trkpt lat="43.324238" lon="13.231487"><ele>755.5719140935266</ele><time>2020-05-16T09:35:01Z</time></trkpt>
<trkpt lat="43.324206" lon="13.231392"><ele>755.5715524966183</ele><time>2020-05-16T09:35:06Z</time></trkpt>
<trkpt lat="43.324175" lon="13.231276"><ele>756.5711798077349</ele><time>2020-05-16T09:35:12Z</time></trkpt>
<trkpt lat="43.324137" lon="13.231170"><ele>755.5707625028908</ele><time>2020-05-16T09:35:18Z</time></trkpt>
<trkpt lat="43.324091" lon="13.231073"><ele>754.570288328543</ele><time>2020-05-16T09:35:25Z</time></trkpt>
<trkpt lat="43.324021" lon="13.231029"><ele>754.5696983810504</ele><time>2020-05-16T09:35:32Z</time></trkpt>
<trkpt lat="43.323944" lon="13.231008"><ele>753.5690837499681</ele><time>2020-05-16T09:35:37Z</time></trkpt>
<trkpt lat="43.323869" lon="13.230957"><ele>750.5684429186139</ele><time>2020-05-16T09:35:43Z</time></trkpt>
<trkpt lat="43.323800" lon="13.230899"><ele>748.5678435158126</ele><time>2020-05-16T09:35:49Z</time></trkpt>
<trkpt lat="43.323723" lon="13.230837"><ele>747.5671794762883</ele><time>2020-05-16T09:35:55Z</time></trkpt>
<trkpt lat="43.323654" lon="13.230785"><ele>747.5665854468975</ele><time>2020-05-16T09:36:01Z</time></trkpt>
<trkpt lat="43.323592" lon="13.230711"><ele>746.5660200349622</ele><time>2020-05-16T09:36:07Z</time></trkpt>
<trkpt lat="43.323532" lon="13.230644"><ele>747.5654839947201</ele><time>2020-05-16T09:36:12Z</time></trkpt>
<trkpt lat="43.323451" lon="13.230600"><ele>748.5648095805873</ele><time>2020-05-16T09:36:18Z</time></trkpt>
<trkpt lat="43.323377" lon="13.230550"><ele>750.5641780055377</ele><time>2020-05-16T09:36:24Z</time></trkpt>
<trkpt lat="43.323303" lon="13.230492"><ele>751.5635457777687</ele><time>2020-05-16T09:36:30Z</time></trkpt>
<trkpt lat="43.323253" lon="13.230394"><ele>753.5630418554155</ele><time>2020-05-16T09:36:37Z</time></trkpt>
<trkpt lat="43.323213" lon="13.230292"><ele>753.562620525943</ele><time>2020-05-16T09:36:43Z</time></trkpt>
<trkpt lat="43.323188" lon="13.230186"><ele>752.562298078189</ele><time>2020-05-16T09:36:49Z</time></trkpt>
<trkpt lat="43.323159" lon="13.230078"><ele>754.5619495035578</ele><time>2020-05-16T09:36:55Z</time></trkpt>
<trkpt lat="43.323129" lon="13.229986"><ele>754.5616153389618</ele><time>2020-05-16T09:37:00Z</time></trkpt>
<trkpt lat="43.323085" lon="13.229880"><ele>754.5611528342272</ele><time>2020-05-16T09:37:06Z</time></trkpt>
<trkpt lat="43.323030" lon="13.229796"><ele>754.5606286823446</ele><time>2020-05-16T09:37:12Z</time></trkpt>
<trkpt lat="43.322969" lon="13.229709"><ele>755.560061190439</ele><time>2020-05-16T09:37:18Z</time></trkpt>
<trkpt lat="43.322909" lon="13.229633"><ele>756.5595146964941</ele><time>2020-05-16T09:37:23Z</time></trkpt>
<trkpt lat="43.322847" lon="13.229548"><ele>756.5589415948972</ele><time>2020-05-16T09:37:29Z</time></trkpt>
<trkpt lat="43.322788" lon="13.229479"><ele>756.558401901682</ele><time>2020-05-16T09:37:34Z</time></trkpt>
<trkpt lat="43.322725" lon="13.229401"><ele>757.557829657833</ele><time>2020-05-16T09:37:40Z</time></trkpt>
<trkpt lat="43.322658" lon="13.229324"><ele>758.5572242525011</ele><time>2020-05-16T09:37:46Z</time></trkpt>
<trkpt lat="43.322593" lon="13.229248"><ele>756.5566448765571</ele><time>2020-05-16T09:37:51Z</time></trkpt>
<trkpt lat="43.322542" lon="13.229174"><ele>755.556160114186</ele><time>2020-05-16T09:37:56Z</time></trkpt>
<trkpt lat="43.322487" lon="13.229094"><ele>754.5556465522116</ele><time>2020-05-16T09:38:01Z</time></trkpt>
<trkpt lat="43.322428" lon="13.229022"><ele>754.5551158076574</ele><time>2020-05-16T09:38:06Z</time></trkpt>
<trkpt lat="43.322366" lon="13.228965"><ele>756.5545737637515</ele><time>2020-05-16T09:38:11Z</time></trkpt>
<trkpt lat="43.322303" lon="13.228894"><ele>756.5540043248075</ele><time>2020-05-16T09:38:17Z</time></trkpt>
<trkpt lat="43.322237" lon="13.228817"><ele>758.5534168213609</ele><time>2020-05-16T09:38:24Z</time></trkpt>
<trkpt lat="43.322181" lon="13.228742"><ele>759.5528956068326</ele><time>2020-05-16T09:38:30Z</time></trkpt>
<trkpt lat="43.322121" lon="13.228655"><ele>762.5523378802187</ele><time>2020-05-16T09:38:37Z</time></trkpt>
<trkpt lat="43.322071" lon="13.228562"><ele>762.5518473066057</ele><time>2020-05-16T09:38:43Z</time></trkpt>
<trkpt lat="43.322025" lon="13.228478"><ele>762.5514022133343</ele><time>2020-05-16T09:38:49Z</time></trkpt>
<trkpt lat="43.322002" lon="13.228366"><ele>760.551095082</ele><time>2020-05-16T09:38:55Z</time></trkpt>
<trkpt lat="43.321978" lon="13.228252"><ele>761.5507778103504</ele><time>2020-05-16T09:39:02Z</time></trkpt>
<trkpt lat="43.321935" lon="13.228155"><ele>763.5503406341804</ele><time>2020-05-16T09:39:08Z</time></trkpt>
<trkpt lat="43.321880" lon="13.228074"><ele>762.5498208412167</ele><time>2020-05-16T09:39:14Z</time></trkpt>
<trkpt lat="43.321823" lon="13.227991"><ele>762.5492898509973</ele><time>2020-05-16T09:39:20Z</time></trkpt>
<trkpt lat="43.321770" lon="13.227918"><ele>762.5488036088885</ele><time>2020-05-16T09:39:25Z</time></trkpt>
<trkpt lat="43.321708" lon="13.227838"><ele>763.5482343172204</ele><time>2020-05-16T09:39:31Z</time></trkpt>
<trkpt lat="43.321629" lon="13.227780"><ele>763.5475636332417</ele><time>2020-05-16T09:39:37Z</time></trkpt>
<trkpt lat="43.321548" lon="13.227743"><ele>762.5469023872243</ele><time>2020-05-16T09:39:42Z</time></trkpt>
<trkpt lat="43.321459" lon="13.227734"><ele>763.5462159413397</ele><time>2020-05-16T09:39:48Z</time></trkpt>
<trkpt lat="43.321387" lon="13.227756"><ele>763.5456850702165</ele><time>2020-05-16T09:39:54Z</time></trkpt>
<trkpt lat="43.321299" lon="13.227780"><ele>763.5450423100192</ele><time>2020-05-16T09:40:00Z</time></trkpt>
<trkpt lat="43.321216" lon="13.227818"><ele>764.5444520419189</ele><time>2020-05-16T09:40:06Z</time></trkpt>
<trkpt lat="43.321136" lon="13.227838"><ele>766.54386282133</ele><time>2020-05-16T09:40:13Z</time></trkpt>
<trkpt lat="43.321067" lon="13.227881"><ele>767.5433829137439</ele><time>2020-05-16T09:40:18Z</time></trkpt>
<trkpt lat="43.320984" lon="13.227917"><ele>765.5427931164454</ele><time>2020-05-16T09:40:24Z</time></trkpt>
<trkpt lat="43.320902" lon="13.227960"><ele>767.5422135998476</ele><time>2020-05-16T09:40:30Z</time></trkpt>
<trkpt lat="43.320823" lon="13.227993"><ele>768.5416450971499</ele><time>2020-05-16T09:40:36Z</time></trkpt>
<trkpt lat="43.320748" lon="13.228036"><ele>768.5411205933048</ele><time>2020-05-16T09:40:42Z</time></trkpt>
<trkpt lat="43.320668" lon="13.228076"><ele>768.5405537220583</ele><time>2020-05-16T09:40:48Z</time></trkpt>
<trkpt lat="43.320591" lon="13.228122"><ele>769.5400145158153</ele><time>2020-05-16T09:40:54Z</time></trkpt>
<trkpt lat="43.320518" lon="13.228152"><ele>770.5394947626569</ele><time>2020-05-16T09:41:00Z</time></trkpt>
<trkpt lat="43.320435" lon="13.228191"><ele>769.5388987533906</ele><time>2020-05-16T09:41:06Z</time></trkpt>
<trkpt lat="43.320357" lon="13.228229"><ele>769.5383445365836</ele><time>2020-05-16T09:41:12Z</time></trkpt>
<trkpt lat="43.320276" lon="13.228282"><ele>768.5377907825388</ele><time>2020-05-16T09:41:19Z</time></trkpt>
<trkpt lat="43.320196" lon="13.228316"><ele>768.5372104492498</ele><time>2020-05-16T09:41:25Z</time></trkpt>
<trkpt lat="43.320121" lon="13.228360"><ele>769.5366881356877</ele><time>2020-05-16T09:41:31Z</time></trkpt>
<trkpt lat="43.320045" lon="13.228400"><ele>768.536155211211</ele><time>2020-05-16T09:41:37Z</time></trkpt>
<trkpt lat="43.319969" lon="13.228441"><ele>768.5356160120546</ele><time>2020-05-16T09:41:43Z</time></trkpt>
<trkpt lat="43.319883" lon="13.228472"><ele>769.5349945670172</ele><time>2020-05-16T09:41:49Z</time></trkpt>
<trkpt lat="43.319801" lon="13.228472"><ele>771.5343678660311</ele><time>2020-05-16T09:41:55Z</time></trkpt>
<trkpt lat="43.319717" lon="13.228463"><ele>771.5337092135711</ele><time>2020-05-16T09:42:01Z</time></trkpt>
<trkpt lat="43.319635" lon="13.228423"><ele>772.5330388119094</ele><time>2020-05-16T09:42:09Z</time></trkpt>
<trkpt lat="43.319546" lon="13.228406"><ele>774.5323390639095</ele><time>2020-05-16T09:42:15Z</time></trkpt>
<trkpt lat="43.319465" lon="13.228378"><ele>775.5316902504693</ele><time>2020-05-16T09:42:21Z</time></trkpt>
<trkpt lat="43.319384" lon="13.228346"><ele>775.5310310985716</ele><time>2020-05-16T09:42:27Z</time></trkpt>
<trkpt lat="43.319302" lon="13.228307"><ele>776.5303606266389</ele><time>2020-05-16T09:42:34Z</time></trkpt>
<trkpt lat="43.319224" lon="13.228266"><ele>777.5297158193671</ele><time>2020-05-16T09:42:40Z</time></trkpt>
<trkpt lat="43.319161" lon="13.228204"><ele>779.5291700531025</ele><time>2020-05-16T09:42:46Z</time></trkpt>
<trkpt lat="43.319091" lon="13.228150"><ele>781.528574830078</ele><time>2020-05-16T09:42:52Z</time></trkpt>
<trkpt lat="43.319015" lon="13.228088"><ele>782.527925259774</ele><time>2020-05-16T09:43:00Z</time></trkpt>
<trkpt lat="43.318941" lon="13.228045"><ele>783.5273135465849</ele><time>2020-05-16T09:43:07Z</time></trkpt>
<trkpt lat="43.318872" lon="13.227983"><ele>785.5267136202044</ele><time>2020-05-16T09:43:14Z</time></trkpt>
<trkpt lat="43.318796" lon="13.227929"><ele>783.5260709323996</ele><time>2020-05-16T09:43:20Z</time></trkpt>
<trkpt lat="43.318715" lon="13.227903"><ele>784.5254265818922</ele><time>2020-05-16T09:43:26Z</time></trkpt>
<trkpt lat="43.318649" lon="13.227830"><ele>787.5248374281109</ele><time>2020-05-16T09:43:32Z</time></trkpt>
<trkpt lat="43.318578" lon="13.227767"><ele>791.5242322183334</ele><time>2020-05-16T09:43:39Z</time></trkpt>
<trkpt lat="43.318501" lon="13.227718"><ele>792.523583733009</ele><time>2020-05-16T09:43:45Z</time></trkpt>
<trkpt lat="43.318427" lon="13.227669"><ele>793.5229681814179</ele><time>2020-05-16T09:43:51Z</time></trkpt>
<trkpt lat="43.318355" lon="13.227611"><ele>791.5223550170465</ele><time>2020-05-16T09:43:57Z</time></trkpt>
<trkpt lat="43.318284" lon="13.227544"><ele>791.5217362818026</ele><time>2020-05-16T09:44:03Z</time></trkpt>
<trkpt lat="43.318215" lon="13.227487"><ele>789.5211514999302</ele><time>2020-05-16T09:44:09Z</time></trkpt>
<trkpt lat="43.318155" lon="13.227418"><ele>790.5206140170379</ele><time>2020-05-16T09:44:15Z</time></trkpt>
<trkpt lat="43.318085" lon="13.227349"><ele>789.5200045145909</ele><time>2020-05-16T09:44:21Z</time></trkpt>
<trkpt lat="43.318016" lon="13.227279"><ele>789.5194030889681</ele><time>2020-05-16T09:44:28Z</time></trkpt>
<trkpt lat="43.317954" lon="13.227192"><ele>790.518834215932</ele><time>2020-05-16T09:44:35Z</time></trkpt>
<trkpt lat="43.317891" lon="13.227106"><ele>793.5182587847559</ele><time>2020-05-16T09:44:43Z</time></trkpt>
<trkpt lat="43.317833" lon="13.227027"><ele>793.517734531606</ele><time>2020-05-16T09:44:49Z</time></trkpt>
<trkpt lat="43.317770" lon="13.226953"><ele>795.517168164015</ele><time>2020-05-16T09:44:57Z</time></trkpt>
<trkpt lat="43.317705" lon="13.226893"><ele>795.5166064908939</ele><time>2020-05-16T09:45:03Z</time></trkpt>
<trkpt lat="43.317642" lon="13.226821"><ele>794.5160526848497</ele><time>2020-05-16T09:45:09Z</time></trkpt>
<trkpt lat="43.317574" lon="13.226745"><ele>794.515452771325</ele><time>2020-05-16T09:45:16Z</time></trkpt>
<trkpt lat="43.317536" lon="13.226657"><ele>795.5150612246621</ele><time>2020-05-16T09:45:22Z</time></trkpt>
<trkpt lat="43.317477" lon="13.226574"><ele>795.5145223598196</ele><time>2020-05-16T09:45:28Z</time></trkpt>
<trkpt lat="43.317424" lon="13.226506"><ele>794.5140461467788</ele><time>2020-05-16T09:45:39Z</time></trkpt>
<trkpt lat="43.317369" lon="13.226428"><ele>794.5135419552289</ele><time>2020-05-16T09:45:44Z</time></trkpt>
<trkpt lat="43.317299" lon="13.226368"><ele>742.5129452243112</ele><time>2020-05-16T09:45:48Z</time></trkpt>
<trkpt lat="43.317252" lon="13.226270"><ele>780.5124812810192</ele><time>2020-05-16T09:45:54Z</time></trkpt>
<trkpt lat="43.317189" lon="13.226202"><ele>788.5119270998841</ele><time>2020-05-16T09:45:58Z</time></trkpt>
<trkpt lat="43.317126" lon="13.226123"><ele>789.5113633440624</ele><time>2020-05-16T09:46:02Z</time></trkpt>
<trkpt lat="43.317080" lon="13.226040"><ele>790.5109260540723</ele><time>2020-05-16T09:46:08Z</time></trkpt>
<trkpt lat="43.317022" lon="13.225948"><ele>792.510382812622</ele><time>2020-05-16T09:46:13Z</time></trkpt>
<trkpt lat="43.316967" lon="13.225857"><ele>792.5098662412494</ele><time>2020-05-16T09:46:19Z</time></trkpt>
<trkpt lat="43.316911" lon="13.225779"><ele>792.5093553080399</ele><time>2020-05-16T09:46:24Z</time></trkpt>
<trkpt lat="43.316853" lon="13.225711"><ele>789.5088395926316</ele><time>2020-05-16T09:46:30Z</time></trkpt>
<trkpt lat="43.316804" lon="13.225631"><ele>791.5083848035821</ele><time>2020-05-16T09:46:38Z</time></trkpt>
<trkpt lat="43.316735" lon="13.225552"><ele>793.5077754342077</ele><time>2020-05-16T09:46:42Z</time></trkpt>
<trkpt lat="43.316672" lon="13.225468"><ele>792.5072037183672</ele><time>2020-05-16T09:46:49Z</time></trkpt>
<trkpt lat="43.316612" lon="13.225403"><ele>790.506677843582</ele><time>2020-05-16T09:46:53Z</time></trkpt>
<trkpt lat="43.316545" lon="13.225313"><ele>789.5060777061796</ele><time>2020-05-16T09:46:58Z</time></trkpt>
<trkpt lat="43.316502" lon="13.225227"><ele>790.5056545135933</ele><time>2020-05-16T09:47:04Z</time></trkpt>
<trkpt lat="43.316431" lon="13.225164"><ele>785.5050500677314</ele><time>2020-05-16T09:47:09Z</time></trkpt>
<trkpt lat="43.316367" lon="13.225088"><ele>784.5044811082666</ele><time>2020-05-16T09:47:15Z</time></trkpt>
<trkpt lat="43.316305" lon="13.225010"><ele>781.5039309046757</ele><time>2020-05-16T09:47:23Z</time></trkpt>
<trkpt lat="43.316257" lon="13.224935"><ele>781.5034824778794</ele><time>2020-05-16T09:47:28Z</time></trkpt>
<trkpt lat="43.316214" lon="13.224841"><ele>786.5030563437089</ele><time>2020-05-16T09:47:36Z</time></trkpt>
<trkpt lat="43.316137" lon="13.224747"><ele>788.5023724570534</ele><time>2020-05-16T09:47:41Z</time></trkpt>
<trkpt lat="43.316097" lon="13.224644"><ele>788.5019572853906</ele><time>2020-05-16T09:47:46Z</time></trkpt>
<trkpt lat="43.316050" lon="13.224546"><ele>790.5015018217448</ele><time>2020-05-16T09:47:55Z</time></trkpt>
<trkpt lat="43.316004" lon="13.224442"><ele>790.5010388429395</ele><time>2020-05-16T09:48:06Z</time></trkpt>
<trkpt lat="43.315958" lon="13.224348"><ele>788.5005935479801</ele><time>2020-05-16T09:48:12Z</time></trkpt>
<trkpt lat="43.315894" lon="13.224291"><ele>785.5000442317764</ele><time>2020-05-16T09:48:17Z</time></trkpt>
<trkpt lat="43.315817" lon="13.224226"><ele>785.4993967779376</ele><time>2020-05-16T09:48:23Z</time></trkpt>
<trkpt lat="43.315749" lon="13.224147"><ele>784.4987968567305</ele><time>2020-05-16T09:48:30Z</time></trkpt>
<trkpt lat="43.315683" lon="13.224087"><ele>783.4982311405189</ele><time>2020-05-16T09:48:34Z</time></trkpt>
<trkpt lat="43.315621" lon="13.224022"><ele>784.4976921174352</ele><time>2020-05-16T09:48:39Z</time></trkpt>
<trkpt lat="43.315520" lon="13.223946"><ele>786.4968500449013</ele><time>2020-05-16T09:48:44Z</time></trkpt>
<trkpt lat="43.315443" lon="13.223893"><ele>756.4962047735376</ele><time>2020-05-16T09:48:49Z</time></trkpt>
<trkpt lat="43.315371" lon="13.223844"><ele>780.4956082758293</ele><time>2020-05-16T09:48:55Z</time></trkpt>
<trkpt lat="43.315259" lon="13.223763"><ele>781.4946798000537</ele><time>2020-05-16T09:49:00Z</time></trkpt>
<trkpt lat="43.315179" lon="13.223701"><ele>781.4940086908331</ele><time>2020-05-16T09:49:04Z</time></trkpt>
<trkpt lat="43.315083" lon="13.223670"><ele>779.4932485563115</ele><time>2020-05-16T09:49:09Z</time></trkpt>
<trkpt lat="43.315004" lon="13.223621"><ele>777.4925985469584</ele><time>2020-05-16T09:49:15Z</time></trkpt>
<trkpt lat="43.314925" lon="13.223590"><ele>777.4919616866288</ele><time>2020-05-16T09:49:21Z</time></trkpt>
<trkpt lat="43.314848" lon="13.223557"><ele>776.4913468948959</ele><time>2020-05-16T09:49:27Z</time></trkpt>
<trkpt lat="43.314769" lon="13.223532"><ele>775.4907256188707</ele><time>2020-05-16T09:49:33Z</time></trkpt>
<trkpt lat="43.314689" lon="13.223489"><ele>775.4900683939765</ele><time>2020-05-16T09:49:40Z</time></trkpt>
<trkpt lat="43.314609" lon="13.223462"><ele>773.4894389869393</ele><time>2020-05-16T09:49:46Z</time></trkpt>
<trkpt lat="43.314534" lon="13.223454"><ele>776.4888595251866</ele><time>2020-05-16T09:49:52Z</time></trkpt>
<trkpt lat="43.314455" lon="13.223428"><ele>776.4882352065481</ele><time>2020-05-16T09:49:58Z</time></trkpt>
<trkpt lat="43.314382" lon="13.223399"><ele>775.4876565823394</ele><time>2020-05-16T09:50:05Z</time></trkpt>
<trkpt lat="43.314300" lon="13.223354"><ele>773.4869841556475</ele><time>2020-05-16T09:50:11Z</time></trkpt>
<trkpt lat="43.314219" lon="13.223325"><ele>772.4863441353159</ele><time>2020-05-16T09:50:17Z</time></trkpt>
<trkpt lat="43.314139" lon="13.223303"><ele>771.4857164096103</ele><time>2020-05-16T09:50:22Z</time></trkpt>
<trkpt lat="43.314047" lon="13.223265"><ele>767.484980955905</ele><time>2020-05-16T09:50:27Z</time></trkpt>
<trkpt lat="43.313966" lon="13.223234"><ele>768.484336276416</ele><time>2020-05-16T09:50:33Z</time></trkpt>
<trkpt lat="43.313898" lon="13.223218"><ele>766.483799727303</ele><time>2020-05-16T09:50:38Z</time></trkpt>
<trkpt lat="43.313816" lon="13.223223"><ele>768.4831866833215</ele><time>2020-05-16T09:50:44Z</time></trkpt>
<trkpt lat="43.313738" lon="13.223206"><ele>769.4825811486197</ele><time>2020-05-16T09:50:50Z</time></trkpt>
<trkpt lat="43.313661" lon="13.223189"><ele>767.4819805575984</ele><time>2020-05-16T09:50:54Z</time></trkpt>
<trkpt lat="43.313581" lon="13.223167"><ele>766.4813493099066</ele><time>2020-05-16T09:50:59Z</time></trkpt>
<trkpt lat="43.313494" lon="13.223144"><ele>766.4806691840084</ele><time>2020-05-16T09:51:05Z</time></trkpt>
<trkpt lat="43.313419" lon="13.223149"><ele>764.4801044697562</ele><time>2020-05-16T09:51:10Z</time></trkpt>
<trkpt lat="43.313342" lon="13.223212"><ele>762.4795841824852</ele><time>2020-05-16T09:51:17Z</time></trkpt>
<trkpt lat="43.313340" lon="13.223332"><ele>763.4796945047036</ele><time>2020-05-16T09:51:45Z</time></trkpt>
<trkpt lat="43.313297" lon="13.223437"><ele>760.4794781833361</ele><time>2020-05-16T09:51:53Z</time></trkpt>
<trkpt lat="43.313265" lon="13.223536"><ele>758.4793310456814</ele><time>2020-05-16T09:52:00Z</time></trkpt>
<trkpt lat="43.313226" lon="13.223644"><ele>757.4791498403582</ele><time>2020-05-16T09:52:08Z</time></trkpt>
<trkpt lat="43.313178" lon="13.223732"><ele>756.4788737027736</ele><time>2020-05-16T09:52:16Z</time></trkpt>
<trkpt lat="43.313146" lon="13.223838"><ele>754.4787364033161</ele><time>2020-05-16T09:52:35Z</time></trkpt>
<trkpt lat="43.313108" lon="13.223940"><ele>752.4785497199188</ele><time>2020-05-16T09:52:42Z</time></trkpt>
<trkpt lat="43.313066" lon="13.224034"><ele>751.4783241120441</ele><time>2020-05-16T09:52:48Z</time></trkpt>
<trkpt lat="43.313024" lon="13.224117"><ele>750.4780926397806</ele><time>2020-05-16T09:52:54Z</time></trkpt>
<trkpt lat="43.312996" lon="13.224209"><ele>750.4779752710532</ele><time>2020-05-16T09:53:00Z</time></trkpt>
<trkpt lat="43.312941" lon="13.224291"><ele>748.4776400094889</ele><time>2020-05-16T09:53:06Z</time></trkpt>
<trkpt lat="43.312864" lon="13.224327"><ele>750.4770910092632</ele><time>2020-05-16T09:53:12Z</time></trkpt>
<trkpt lat="43.312791" lon="13.224352"><ele>750.4765619523267</ele><time>2020-05-16T09:53:18Z</time></trkpt>
<trkpt lat="43.312714" lon="13.224377"><ele>754.4759996397528</ele><time>2020-05-16T09:53:23Z</time></trkpt>
<trkpt lat="43.312637" lon="13.224417"><ele>755.4754542322921</ele><time>2020-05-16T09:53:30Z</time></trkpt>
<trkpt lat="43.312557" lon="13.224468"><ele>758.4749006355149</ele><time>2020-05-16T09:53:37Z</time></trkpt>
<trkpt lat="43.312480" lon="13.224506"><ele>759.4743517902083</ele><time>2020-05-16T09:53:43Z</time></trkpt>
<trkpt lat="43.312414" lon="13.224551"><ele>760.4738980458836</ele><time>2020-05-16T09:53:49Z</time></trkpt>
<trkpt lat="43.312338" lon="13.224592"><ele>759.4733592863898</ele><time>2020-05-16T09:53:56Z</time></trkpt>
<trkpt lat="43.312264" lon="13.224643"><ele>761.4728510442933</ele><time>2020-05-16T09:54:03Z</time></trkpt>
<trkpt lat="43.312189" lon="13.224658"><ele>761.4722928182804</ele><time>2020-05-16T09:54:10Z</time></trkpt>
<trkpt lat="43.312113" lon="13.224713"><ele>762.4717743834985</ele><time>2020-05-16T09:54:15Z</time></trkpt>
<trkpt lat="43.312030" lon="13.224723"><ele>765.4711536536213</ele><time>2020-05-16T09:54:21Z</time></trkpt>
<trkpt lat="43.311945" lon="13.224697"><ele>765.4704798479812</ele><time>2020-05-16T09:54:28Z</time></trkpt>
<trkpt lat="43.311868" lon="13.224706"><ele>768.4699026421102</ele><time>2020-05-16T09:54:34Z</time></trkpt>
<trkpt lat="43.311790" lon="13.224698"><ele>772.4693031292577</ele><time>2020-05-16T09:54:40Z</time></trkpt>
<trkpt lat="43.311721" lon="13.224700"><ele>770.4687864509016</ele><time>2020-05-16T09:54:47Z</time></trkpt>
<trkpt lat="43.311635" lon="13.224682"><ele>772.4681140424158</ele><time>2020-05-16T09:54:55Z</time></trkpt>
<trkpt lat="43.311547" lon="13.224662"><ele>772.4674248729084</ele><time>2020-05-16T09:55:01Z</time></trkpt>
<trkpt lat="43.311479" lon="13.224651"><ele>772.4668947733226</ele><time>2020-05-16T09:55:05Z</time></trkpt>
<trkpt lat="43.311397" lon="13.224650"><ele>771.4662744347272</ele><time>2020-05-16T09:55:09Z</time></trkpt>
<trkpt lat="43.311326" lon="13.224650"><ele>770.4657301613342</ele><time>2020-05-16T09:55:14Z</time></trkpt>
<trkpt lat="43.311258" lon="13.224631"><ele>771.465200891681</ele><time>2020-05-16T09:55:19Z</time></trkpt>
<trkpt lat="43.311176" lon="13.224607"><ele>772.4645557397226</ele><time>2020-05-16T09:55:24Z</time></trkpt>
<trkpt lat="43.311099" lon="13.224590"><ele>774.4639491042764</ele><time>2020-05-16T09:55:30Z</time></trkpt>
<trkpt lat="43.311025" lon="13.224580"><ele>773.4633779626813</ele><time>2020-05-16T09:55:35Z</time></trkpt>
<trkpt lat="43.310937" lon="13.224567"><ele>773.4627006061723</ele><time>2020-05-16T09:55:41Z</time></trkpt>
<trkpt lat="43.310856" lon="13.224570"><ele>772.4620895351711</ele><time>2020-05-16T09:55:47Z</time></trkpt>
<trkpt lat="43.310778" lon="13.224568"><ele>772.4614904694306</ele><time>2020-05-16T09:55:52Z</time></trkpt>
<trkpt lat="43.310704" lon="13.224552"><ele>773.4609157434045</ele><time>2020-05-16T09:55:58Z</time></trkpt>
<trkpt lat="43.310627" lon="13.224550"><ele>771.4603252233428</ele><time>2020-05-16T09:56:03Z</time></trkpt>
<trkpt lat="43.310541" lon="13.224566"><ele>770.4596891419228</ele><time>2020-05-16T09:56:09Z</time></trkpt>
<trkpt lat="43.310457" lon="13.224551"><ele>770.4590384929008</ele><time>2020-05-16T09:56:15Z</time></trkpt>
<trkpt lat="43.310371" lon="13.224549"><ele>771.4583861897072</ele><time>2020-05-16T09:56:21Z</time></trkpt>
<trkpt lat="43.310286" lon="13.224554"><ele>771.4577416094651</ele><time>2020-05-16T09:56:27Z</time></trkpt>
<trkpt lat="43.310203" lon="13.224555"><ele>770.4571159451888</ele><time>2020-05-16T09:56:33Z</time></trkpt>
<trkpt lat="43.310117" lon="13.224571"><ele>770.4564746940484</ele><time>2020-05-16T09:56:39Z</time></trkpt>
<trkpt lat="43.310036" lon="13.224569"><ele>770.4558636023713</ele><time>2020-05-16T09:56:44Z</time></trkpt>
<trkpt lat="43.309965" lon="13.224568"><ele>771.4553170770624</ele><time>2020-05-16T09:56:49Z</time></trkpt>
<trkpt lat="43.309881" lon="13.224557"><ele>769.4546749230423</ele><time>2020-05-16T09:56:55Z</time></trkpt>
<trkpt lat="43.309801" lon="13.224547"><ele>770.4540560611581</ele><time>2020-05-16T09:57:00Z</time></trkpt>
<trkpt lat="43.309728" lon="13.224544"><ele>770.4535004433301</ele><time>2020-05-16T09:57:05Z</time></trkpt>
<trkpt lat="43.309654" lon="13.224525"><ele>770.4529177684508</ele><time>2020-05-16T09:57:10Z</time></trkpt>
<trkpt lat="43.309571" lon="13.224491"><ele>770.452252329052</ele><time>2020-05-16T09:57:15Z</time></trkpt>
<trkpt lat="43.309487" lon="13.224465"><ele>772.4515885742182</ele><time>2020-05-16T09:57:22Z</time></trkpt>
<trkpt lat="43.309417" lon="13.224437"><ele>772.4510366181382</ele><time>2020-05-16T09:57:27Z</time></trkpt>
<trkpt lat="43.309343" lon="13.224402"><ele>771.4504356662776</ele><time>2020-05-16T09:57:32Z</time></trkpt>
<trkpt lat="43.309261" lon="13.224357"><ele>770.4497748238579</ele><time>2020-05-16T09:57:38Z</time></trkpt>
<trkpt lat="43.309189" lon="13.224325"><ele>770.4491982211581</ele><time>2020-05-16T09:57:43Z</time></trkpt>
<trkpt lat="43.309115" lon="13.224290"><ele>770.4486002707129</ele><time>2020-05-16T09:57:48Z</time></trkpt>
<trkpt lat="43.309039" lon="13.224249"><ele>771.4479838687186</ele><time>2020-05-16T09:57:53Z</time></trkpt>
<trkpt lat="43.308973" lon="13.224184"><ele>770.4474233669441</ele><time>2020-05-16T09:57:59Z</time></trkpt>
<trkpt lat="43.308899" lon="13.224121"><ele>771.4468039511628</ele><time>2020-05-16T09:58:05Z</time></trkpt>
<trkpt lat="43.308820" lon="13.224064"><ele>771.4461501710002</ele><time>2020-05-16T09:58:11Z</time></trkpt>
<trkpt lat="43.308757" lon="13.224000"><ele>770.4456112026637</ele><time>2020-05-16T09:58:16Z</time></trkpt>
<trkpt lat="43.308693" lon="13.223947"><ele>769.4450794510963</ele><time>2020-05-16T09:58:22Z</time></trkpt>
<trkpt lat="43.308621" lon="13.223881"><ele>769.4444719099795</ele><time>2020-05-16T09:58:27Z</time></trkpt>
<trkpt lat="43.308559" lon="13.223810"><ele>768.4439303335736</ele><time>2020-05-16T09:58:32Z</time></trkpt>
<trkpt lat="43.308494" lon="13.223742"><ele>768.4433805991117</ele><time>2020-05-16T09:58:37Z</time></trkpt>
<trkpt lat="43.308428" lon="13.223668"><ele>766.4428108319513</ele><time>2020-05-16T09:58:42Z</time></trkpt>
<trkpt lat="43.308363" lon="13.223584"><ele>766.4422401940798</ele><time>2020-05-16T09:58:48Z</time></trkpt>
<trkpt lat="43.308303" lon="13.223496"><ele>766.4417000193599</ele><time>2020-05-16T09:58:54Z</time></trkpt>
<trkpt lat="43.308253" lon="13.223416"><ele>764.4412452019759</ele><time>2020-05-16T09:59:03Z</time></trkpt>
<trkpt lat="43.308196" lon="13.223327"><ele>764.4407331229911</ele><time>2020-05-16T09:59:09Z</time></trkpt>
<trkpt lat="43.308145" lon="13.223231"><ele>764.4402582829501</ele><time>2020-05-16T09:59:16Z</time></trkpt>
<trkpt lat="43.308105" lon="13.223122"><ele>764.439849039607</ele><time>2020-05-16T09:59:22Z</time></trkpt>
<trkpt lat="43.308088" lon="13.223017"><ele>765.4396286492556</ele><time>2020-05-16T09:59:27Z</time></trkpt>
<trkpt lat="43.308063" lon="13.222910"><ele>764.4393377255539</ele><time>2020-05-16T09:59:32Z</time></trkpt>
<trkpt lat="43.308046" lon="13.222792"><ele>764.4390995096488</ele><time>2020-05-16T09:59:38Z</time></trkpt>
<trkpt lat="43.308033" lon="13.222691"><ele>762.4389034480898</ele><time>2020-05-16T09:59:43Z</time></trkpt>
<trkpt lat="43.308025" lon="13.222591"><ele>762.4387541145965</ele><time>2020-05-16T09:59:48Z</time></trkpt>
<trkpt lat="43.308028" lon="13.222480"><ele>762.4386717808292</ele><time>2020-05-16T09:59:53Z</time></trkpt>
<trkpt lat="43.308038" lon="13.222366"><ele>763.438638686874</ele><time>2020-05-16T09:59:58Z</time></trkpt>
<trkpt lat="43.308051" lon="13.222256"><ele>762.4386354834686</ele><time>2020-05-16T10:00:04Z</time></trkpt>
<trkpt lat="43.308080" lon="13.222159"><ele>760.4387654006592</ele><time>2020-05-16T10:00:10Z</time></trkpt>
<trkpt lat="43.308112" lon="13.222056"><ele>758.4389106028306</ele><time>2020-05-16T10:00:16Z</time></trkpt>
<trkpt lat="43.308160" lon="13.221970"><ele>757.4391975337875</ele><time>2020-05-16T10:00:22Z</time></trkpt>
<trkpt lat="43.308210" lon="13.221895"><ele>757.439501310615</ele><time>2020-05-16T10:00:27Z</time></trkpt>
<trkpt lat="43.308263" lon="13.221814"><ele>756.4398287507644</ele><time>2020-05-16T10:00:32Z</time></trkpt>
<trkpt lat="43.308323" lon="13.221723"><ele>755.4401941863011</ele><time>2020-05-16T10:00:38Z</time></trkpt>
<trkpt lat="43.308371" lon="13.221621"><ele>753.4404616621028</ele><time>2020-05-16T10:00:45Z</time></trkpt>
<trkpt lat="43.308399" lon="13.221526"><ele>754.4405861876713</ele><time>2020-05-16T10:00:50Z</time></trkpt>
<trkpt lat="43.308410" lon="13.221417"><ele>753.440568886598</ele><time>2020-05-16T10:00:55Z</time></trkpt>
<trkpt lat="43.308414" lon="13.221301"><ele>752.4404874566054</ele><time>2020-05-16T10:01:01Z</time></trkpt>
<trkpt lat="43.308418" lon="13.221184"><ele>752.4404123377817</ele><time>2020-05-16T10:01:07Z</time></trkpt>
<trkpt lat="43.308409" lon="13.221066"><ele>752.4402340585801</ele><time>2020-05-16T10:01:13Z</time></trkpt>
<trkpt lat="43.308398" lon="13.220961"><ele>752.4400537073909</ele><time>2020-05-16T10:01:18Z</time></trkpt>
<trkpt lat="43.308374" lon="13.220864"><ele>751.4397769672136</ele><time>2020-05-16T10:01:23Z</time></trkpt>
<trkpt lat="43.308339" lon="13.220756"><ele>750.4394179713632</ele><time>2020-05-16T10:01:29Z</time></trkpt>
<trkpt lat="43.308311" lon="13.220647"><ele>750.4391016524131</ele><time>2020-05-16T10:01:35Z</time></trkpt>
<trkpt lat="43.308278" lon="13.220553"><ele>749.438763410825</ele><time>2020-05-16T10:01:40Z</time></trkpt>
<trkpt lat="43.308247" lon="13.220449"><ele>748.4384388349449</ele><time>2020-05-16T10:01:45Z</time></trkpt>
<trkpt lat="43.308208" lon="13.220340"><ele>748.4380415826906</ele><time>2020-05-16T10:01:51Z</time></trkpt>
<trkpt lat="43.308187" lon="13.220245"><ele>748.4377960131937</ele><time>2020-05-16T10:01:56Z</time></trkpt>
<trkpt lat="43.308152" lon="13.220144"><ele>748.4374354720145</ele><time>2020-05-16T10:02:02Z</time></trkpt>
<trkpt lat="43.308111" lon="13.220040"><ele>747.4370285841878</ele><time>2020-05-16T10:02:08Z</time></trkpt>
<trkpt lat="43.308088" lon="13.219932"><ele>747.4367573783281</ele><time>2020-05-16T10:02:14Z</time></trkpt>
<trkpt lat="43.308050" lon="13.219826"><ele>747.436377713216</ele><time>2020-05-16T10:02:20Z</time></trkpt>
<trkpt lat="43.308018" lon="13.219714"><ele>745.4360261526184</ele><time>2020-05-16T10:02:27Z</time></trkpt>
<trkpt lat="43.307994" lon="13.219606"><ele>746.4357466087304</ele><time>2020-05-16T10:02:32Z</time></trkpt>
<trkpt lat="43.307971" lon="13.219508"><ele>745.4354819246848</ele><time>2020-05-16T10:02:37Z</time></trkpt>
<trkpt lat="43.307964" lon="13.219397"><ele>744.435330339194</ele><time>2020-05-16T10:02:43Z</time></trkpt>
<trkpt lat="43.307961" lon="13.219277"><ele>744.4351924747257</ele><time>2020-05-16T10:02:48Z</time></trkpt>
<trkpt lat="43.307975" lon="13.219163"><ele>742.4351981536196</ele><time>2020-05-16T10:02:54Z</time></trkpt>
<trkpt lat="43.307996" lon="13.219046"><ele>742.4352453537616</ele><time>2020-05-16T10:03:00Z</time></trkpt>
<trkpt lat="43.308044" lon="13.218941"><ele>743.435505456592</ele><time>2020-05-16T10:03:06Z</time></trkpt>
<trkpt lat="43.308092" lon="13.218854"><ele>743.4357895416293</ele><time>2020-05-16T10:03:12Z</time></trkpt>
<trkpt lat="43.308137" lon="13.218752"><ele>743.436030805748</ele><time>2020-05-16T10:03:18Z</time></trkpt>
<trkpt lat="43.308190" lon="13.218666"><ele>744.4363492588918</ele><time>2020-05-16T10:03:23Z</time></trkpt>
<trkpt lat="43.308236" lon="13.218575"><ele>744.4366032207056</ele><time>2020-05-16T10:03:29Z</time></trkpt>
<trkpt lat="43.308289" lon="13.218484"><ele>745.4369201512006</ele><time>2020-05-16T10:03:35Z</time></trkpt>
<trkpt lat="43.308345" lon="13.218391"><ele>748.4372536110338</ele><time>2020-05-16T10:03:41Z</time></trkpt>
<trkpt lat="43.308406" lon="13.218305"><ele>748.4376319224884</ele><time>2020-05-16T10:03:47Z</time></trkpt>
<trkpt lat="43.308454" lon="13.218220"><ele>748.4379065004289</ele><time>2020-05-16T10:03:52Z</time></trkpt>
<trkpt lat="43.308499" lon="13.218132"><ele>748.4381661403996</ele><time>2020-05-16T10:03:58Z</time></trkpt>
<trkpt lat="43.308547" lon="13.218031"><ele>747.4384257553133</ele><time>2020-05-16T10:04:04Z</time></trkpt>
<trkpt lat="43.308590" lon="13.217941"><ele>749.4386669752697</ele><time>2020-05-16T10:04:09Z</time></trkpt>
<trkpt lat="43.308637" lon="13.217856"><ele>750.4389352929808</ele><time>2020-05-16T10:04:14Z</time></trkpt>
<trkpt lat="43.308679" lon="13.217770"><ele>749.4391741923364</ele><time>2020-05-16T10:04:20Z</time></trkpt>
<trkpt lat="43.308731" lon="13.217686"><ele>748.439479128354</ele><time>2020-05-16T10:04:26Z</time></trkpt>
<trkpt lat="43.308781" lon="13.217593"><ele>748.4397717299487</ele><time>2020-05-16T10:04:32Z</time></trkpt>
<trkpt lat="43.308844" lon="13.217507"><ele>748.4401585157858</ele><time>2020-05-16T10:04:38Z</time></trkpt>
<trkpt lat="43.308907" lon="13.217430"><ele>749.4405621430632</ele><time>2020-05-16T10:04:44Z</time></trkpt>
<trkpt lat="43.308972" lon="13.217356"><ele>750.4409722048283</ele><time>2020-05-16T10:04:49Z</time></trkpt>
<trkpt lat="43.309036" lon="13.217287"><ele>749.4413850136619</ele><time>2020-05-16T10:04:55Z</time></trkpt>
<trkpt lat="43.309109" lon="13.217232"><ele>748.4418822389056</ele><time>2020-05-16T10:05:00Z</time></trkpt>
<trkpt lat="43.309191" lon="13.217205"><ele>747.442472766533</ele><time>2020-05-16T10:05:06Z</time></trkpt>
<trkpt lat="43.309274" lon="13.217203"><ele>746.4430859772455</ele><time>2020-05-16T10:05:11Z</time></trkpt>
<trkpt lat="43.309362" lon="13.217212"><ele>742.4437557195614</ele><time>2020-05-16T10:05:20Z</time></trkpt>
<trkpt lat="43.309441" lon="13.217193"><ele>739.4443305356185</ele><time>2020-05-16T10:05:27Z</time></trkpt>
<trkpt lat="43.309518" lon="13.217148"><ele>739.4448554931448</ele><time>2020-05-16T10:05:33Z</time></trkpt>
<trkpt lat="43.309573" lon="13.217058"><ele>740.4451825455237</ele><time>2020-05-16T10:05:38Z</time></trkpt>
<trkpt lat="43.309634" lon="13.216971"><ele>740.4455602596521</ele><time>2020-05-16T10:05:44Z</time></trkpt>
<trkpt lat="43.309690" lon="13.216879"><ele>741.4458909884706</ele><time>2020-05-16T10:05:49Z</time></trkpt>
<trkpt lat="43.309752" lon="13.216798"><ele>741.4462744284223</ele><time>2020-05-16T10:05:55Z</time></trkpt>
<trkpt lat="43.309795" lon="13.216702"><ele>739.4465004776946</ele><time>2020-05-16T10:06:02Z</time></trkpt>
<trkpt lat="43.309795" lon="13.216588"><ele>738.4463974765988</ele><time>2020-05-16T10:06:08Z</time></trkpt>
<trkpt lat="43.309772" lon="13.216479"><ele>738.4461150834238</ele><time>2020-05-16T10:06:14Z</time></trkpt>
<trkpt lat="43.309756" lon="13.216380"><ele>737.4459010368697</ele><time>2020-05-16T10:06:20Z</time></trkpt>
<trkpt lat="43.309737" lon="13.216276"><ele>738.4456608621198</ele><time>2020-05-16T10:06:25Z</time></trkpt>
<trkpt lat="43.309728" lon="13.216166"><ele>735.4454926767443</ele><time>2020-05-16T10:06:33Z</time></trkpt>
<trkpt lat="43.309730" lon="13.216047"><ele>732.4453948178882</ele><time>2020-05-16T10:06:40Z</time></trkpt>
<trkpt lat="43.309720" lon="13.215926"><ele>730.4452018523814</ele><time>2020-05-16T10:06:47Z</time></trkpt>
<trkpt lat="43.309706" lon="13.215820"><ele>728.4449941462983</ele><time>2020-05-16T10:06:53Z</time></trkpt>
<trkpt lat="43.309697" lon="13.215702"><ele>727.4448165826689</ele><time>2020-05-16T10:07:00Z</time></trkpt>
<trkpt lat="43.309669" lon="13.215604"><ele>727.4445113691019</ele><time>2020-05-16T10:07:06Z</time></trkpt>
<trkpt lat="43.309627" lon="13.215507"><ele>725.4441100275267</ele><time>2020-05-16T10:07:12Z</time></trkpt>
<trkpt lat="43.309604" lon="13.215393"><ele>723.4438316161283</ele><time>2020-05-16T10:07:18Z</time></trkpt>
<trkpt lat="43.309597" lon="13.215278"><ele>724.4436682274028</ele><time>2020-05-16T10:07:24Z</time></trkpt>
<trkpt lat="43.309603" lon="13.215157"><ele>725.4435981782572</ele><time>2020-05-16T10:07:29Z</time></trkpt>
<trkpt lat="43.309634" lon="13.215049"><ele>722.4437227648369</ele><time>2020-05-16T10:07:36Z</time></trkpt>
<trkpt lat="43.309677" lon="13.214943"><ele>722.4439394447381</ele><time>2020-05-16T10:07:43Z</time></trkpt>
<trkpt lat="43.309715" lon="13.214847"><ele>721.4441321143354</ele><time>2020-05-16T10:07:49Z</time></trkpt>
<trkpt lat="43.309770" lon="13.214757"><ele>720.4444586991468</ele><time>2020-05-16T10:07:55Z</time></trkpt>
<trkpt lat="43.309818" lon="13.214667"><ele>719.4447284624872</ele><time>2020-05-16T10:08:01Z</time></trkpt>
<trkpt lat="43.309860" lon="13.214572"><ele>716.4449489584408</ele><time>2020-05-16T10:08:07Z</time></trkpt>
<trkpt lat="43.309912" lon="13.214483"><ele>716.4452518121126</ele><time>2020-05-16T10:08:13Z</time></trkpt>
<trkpt lat="43.309965" lon="13.214387"><ele>716.4455508329403</ele><time>2020-05-16T10:08:19Z</time></trkpt>
<trkpt lat="43.310027" lon="13.214312"><ele>716.4459412388863</ele><time>2020-05-16T10:08:25Z</time></trkpt>
<trkpt lat="43.310102" lon="13.214248"><ele>714.4464333375391</ele><time>2020-05-16T10:08:32Z</time></trkpt>
<trkpt lat="43.310180" lon="13.214211"><ele>713.4469823403689</ele><time>2020-05-16T10:08:38Z</time></trkpt>
<trkpt lat="43.310251" lon="13.214185"><ele>713.4474816751764</ele><time>2020-05-16T10:08:43Z</time></trkpt>
<trkpt lat="43.310328" lon="13.214170"><ele>711.4480387689766</ele><time>2020-05-16T10:08:48Z</time></trkpt>
<trkpt lat="43.310407" lon="13.214164"><ele>712.4486239210382</ele><time>2020-05-16T10:08:53Z</time></trkpt>
<trkpt lat="43.310489" lon="13.214156"><ele>711.44922111291</ele><time>2020-05-16T10:08:59Z</time></trkpt>
<trkpt lat="43.310564" lon="13.214101"><ele>709.4497210490969</ele><time>2020-05-16T10:09:06Z</time></trkpt>
<trkpt lat="43.310563" lon="13.213990"><ele>707.4496116323444</ele><time>2020-05-16T10:09:13Z</time></trkpt>
<trkpt lat="43.310500" lon="13.213916"><ele>704.4490715593587</ele><time>2020-05-16T10:09:20Z</time></trkpt>
<trkpt lat="43.310433" lon="13.213858"><ele>703.4485166108578</ele><time>2020-05-16T10:09:25Z</time></trkpt>
<trkpt lat="43.310358" lon="13.213806"><ele>702.4479069336325</ele><time>2020-05-16T10:09:30Z</time></trkpt>
<trkpt lat="43.310281" lon="13.213755"><ele>701.4472866422008</ele><time>2020-05-16T10:09:36Z</time></trkpt>
<trkpt lat="43.310202" lon="13.213711"><ele>700.4466596849084</ele><time>2020-05-16T10:09:42Z</time></trkpt>
<trkpt lat="43.310127" lon="13.213655"><ele>700.4460548116193</ele><time>2020-05-16T10:09:47Z</time></trkpt>
<trkpt lat="43.310053" lon="13.213618"><ele>698.4454630158356</ele><time>2020-05-16T10:09:53Z</time></trkpt>
<trkpt lat="43.309975" lon="13.213594"><ele>698.4448655005801</ele><time>2020-05-16T10:09:58Z</time></trkpt>
<trkpt lat="43.309899" lon="13.213578"><ele>697.4442856783597</ele><time>2020-05-16T10:10:03Z</time></trkpt>
<trkpt lat="43.309818" lon="13.213575"><ele>697.4436824380743</ele><time>2020-05-16T10:10:09Z</time></trkpt>
<trkpt lat="43.309730" lon="13.213574"><ele>696.443030326505</ele><time>2020-05-16T10:10:15Z</time></trkpt>
<trkpt lat="43.309646" lon="13.213582"><ele>695.4424093123764</ele><time>2020-05-16T10:10:21Z</time></trkpt>
<trkpt lat="43.309571" lon="13.213575"><ele>694.4418511358591</ele><time>2020-05-16T10:10:26Z</time></trkpt>
<trkpt lat="43.309488" lon="13.213565"><ele>692.441224929033</ele><time>2020-05-16T10:10:34Z</time></trkpt>
<trkpt lat="43.309418" lon="13.213535"><ele>692.4406752585166</ele><time>2020-05-16T10:10:39Z</time></trkpt>
<trkpt lat="43.309333" lon="13.213498"><ele>692.4400133540032</ele><time>2020-05-16T10:10:45Z</time></trkpt>
<trkpt lat="43.309258" lon="13.213454"><ele>691.4394106972061</ele><time>2020-05-16T10:10:51Z</time></trkpt>
<trkpt lat="43.309177" lon="13.213412"><ele>691.4387761820751</ele><time>2020-05-16T10:10:57Z</time></trkpt>
<trkpt lat="43.309100" lon="13.213381"><ele>689.4381690704055</ele><time>2020-05-16T10:11:03Z</time></trkpt>
<trkpt lat="43.309021" lon="13.213335"><ele>687.4375419231915</ele><time>2020-05-16T10:11:09Z</time></trkpt>
<trkpt lat="43.308941" lon="13.213299"><ele>685.4369129933638</ele><time>2020-05-16T10:11:16Z</time></trkpt>
<trkpt lat="43.308870" lon="13.213266"><ele>684.4363571695167</ele><time>2020-05-16T10:11:22Z</time></trkpt>
<trkpt lat="43.308794" lon="13.213231"><ele>683.4357616078089</ele><time>2020-05-16T10:11:28Z</time></trkpt>
<trkpt lat="43.308713" lon="13.213196"><ele>683.4351328233279</ele><time>2020-05-16T10:11:33Z</time></trkpt>
<trkpt lat="43.308641" lon="13.213166"><ele>682.4345691603003</ele><time>2020-05-16T10:11:39Z</time></trkpt>
<trkpt lat="43.308557" lon="13.213123"><ele>681.4339059237425</ele><time>2020-05-16T10:11:45Z</time></trkpt>
<trkpt lat="43.308477" lon="13.213073"><ele>679.4332627928956</ele><time>2020-05-16T10:11:52Z</time></trkpt>
<trkpt lat="43.308398" lon="13.213014"><ele>679.4326261906233</ele><time>2020-05-16T10:11:57Z</time></trkpt>
<trkpt lat="43.308316" lon="13.212963"><ele>678.4319738940272</ele><time>2020-05-16T10:12:03Z</time></trkpt>
<trkpt lat="43.308242" lon="13.212915"><ele>678.4313791279009</ele><time>2020-05-16T10:12:08Z</time></trkpt>
<trkpt lat="43.308162" lon="13.212878"><ele>677.4307518491735</ele><time>2020-05-16T10:12:15Z</time></trkpt>
<trkpt lat="43.308082" lon="13.212849"><ele>676.4301283973826</ele><time>2020-05-16T10:12:23Z</time></trkpt>
<trkpt lat="43.307999" lon="13.212821"><ele>674.4294898718935</ele><time>2020-05-16T10:12:31Z</time></trkpt>
<trkpt lat="43.307919" lon="13.212804"><ele>672.4288832163933</ele><time>2020-05-16T10:12:38Z</time></trkpt>
<trkpt lat="43.307835" lon="13.212774"><ele>671.4282320302419</ele><time>2020-05-16T10:12:44Z</time></trkpt>
<trkpt lat="43.307747" lon="13.212748"><ele>667.4275586517551</ele><time>2020-05-16T10:12:51Z</time></trkpt>
<trkpt lat="43.307672" lon="13.212717"><ele>665.4269720367488</ele><time>2020-05-16T10:12:58Z</time></trkpt>
<trkpt lat="43.307590" lon="13.212700"><ele>666.426348039397</ele><time>2020-05-16T10:13:03Z</time></trkpt>
<trkpt lat="43.307506" lon="13.212670"><ele>665.4256988464479</ele><time>2020-05-16T10:13:10Z</time></trkpt>
<trkpt lat="43.307422" lon="13.212635"><ele>663.4250506882684</ele><time>2020-05-16T10:13:16Z</time></trkpt>
<trkpt lat="43.307354" lon="13.212579"><ele>662.4244950822937</ele><time>2020-05-16T10:13:21Z</time></trkpt>
<trkpt lat="43.307276" lon="13.212531"><ele>660.4238734279446</ele><time>2020-05-16T10:13:27Z</time></trkpt>
<trkpt lat="43.307201" lon="13.212487"><ele>657.4232745509328</ele><time>2020-05-16T10:13:35Z</time></trkpt>
<trkpt lat="43.307122" lon="13.212446"><ele>655.4226519519874</ele><time>2020-05-16T10:13:42Z</time></trkpt>
<trkpt lat="43.307043" lon="13.212412"><ele>654.4220405508306</ele><time>2020-05-16T10:13:48Z</time></trkpt>
<trkpt lat="43.306970" lon="13.212386"><ele>654.4214754709631</ele><time>2020-05-16T10:13:54Z</time></trkpt>
<trkpt lat="43.306893" lon="13.212352"><ele>652.4208764921992</ele><time>2020-05-16T10:13:59Z</time></trkpt>
<trkpt lat="43.306820" lon="13.212335"><ele>651.4203140432132</ele><time>2020-05-16T10:14:04Z</time></trkpt>
<trkpt lat="43.306734" lon="13.212306"><ele>651.4196542193374</ele><time>2020-05-16T10:14:09Z</time></trkpt>
<trkpt lat="43.306652" lon="13.212287"><ele>651.4190346567157</ele><time>2020-05-16T10:14:14Z</time></trkpt>
<trkpt lat="43.306564" lon="13.212272"><ele>650.4183646296041</ele><time>2020-05-16T10:14:21Z</time></trkpt>
<trkpt lat="43.306475" lon="13.212260"><ele>648.4176956935931</ele><time>2020-05-16T10:14:27Z</time></trkpt>
<trkpt lat="43.306390" lon="13.212248"><ele>646.4170567397533</ele><time>2020-05-16T10:14:33Z</time></trkpt>
<trkpt lat="43.306310" lon="13.212255"><ele>645.4164702812238</ele><time>2020-05-16T10:14:39Z</time></trkpt>
<trkpt lat="43.306226" lon="13.212263"><ele>642.415859821649</ele><time>2020-05-16T10:14:45Z</time></trkpt>
<trkpt lat="43.306150" lon="13.212271"><ele>643.4153017965655</ele><time>2020-05-16T10:14:50Z</time></trkpt>
<trkpt lat="43.306063" lon="13.212263"><ele>641.4146503683085</ele><time>2020-05-16T10:14:57Z</time></trkpt>
<trkpt lat="43.305980" lon="13.212236"><ele>641.414016988414</ele><time>2020-05-16T10:15:02Z</time></trkpt>
<trkpt lat="43.305895" lon="13.212200"><ele>640.4133515450416</ele><time>2020-05-16T10:15:09Z</time></trkpt>
<trkpt lat="43.305815" lon="13.212166"><ele>638.4127324338606</ele><time>2020-05-16T10:15:16Z</time></trkpt>
<trkpt lat="43.305740" lon="13.212151"><ele>636.4121662664617</ele><time>2020-05-16T10:15:22Z</time></trkpt>
<trkpt lat="43.305652" lon="13.212133"><ele>637.411498589806</ele><time>2020-05-16T10:15:28Z</time></trkpt>
<trkpt lat="43.305576" lon="13.212120"><ele>637.4109206020471</ele><time>2020-05-16T10:15:33Z</time></trkpt>
<trkpt lat="43.305498" lon="13.212123"><ele>636.4103486524599</ele><time>2020-05-16T10:15:38Z</time></trkpt>
<trkpt lat="43.305412" lon="13.212126"><ele>636.4097179036386</ele><time>2020-05-16T10:15:44Z</time></trkpt>
<trkpt lat="43.305331" lon="13.212121"><ele>636.4091173833781</ele><time>2020-05-16T10:15:50Z</time></trkpt>
<trkpt lat="43.305248" lon="13.212113"><ele>635.4084939948615</ele><time>2020-05-16T10:15:56Z</time></trkpt>
<trkpt lat="43.305159" lon="13.212105"><ele>632.4078302651901</ele><time>2020-05-16T10:16:03Z</time></trkpt>
<trkpt lat="43.305078" lon="13.212082"><ele>632.407211984157</ele><time>2020-05-16T10:16:09Z</time></trkpt>
<trkpt lat="43.304996" lon="13.212071"><ele>630.4065931310599</ele><time>2020-05-16T10:16:15Z</time></trkpt>
<trkpt lat="43.304921" lon="13.212055"><ele>629.4060223203622</ele><time>2020-05-16T10:16:20Z</time></trkpt>
<trkpt lat="43.304845" lon="13.212030"><ele>628.4054438884933</ele><time>2020-05-16T10:16:26Z</time></trkpt>
<trkpt lat="43.304757" lon="13.212015"><ele>628.4047780186099</ele><time>2020-05-16T10:16:32Z</time></trkpt>
<trkpt lat="43.304677" lon="13.211998"><ele>627.4041690286514</ele><time>2020-05-16T10:16:37Z</time></trkpt>
<trkpt lat="43.304593" lon="13.211987"><ele>627.4035369551564</ele><time>2020-05-16T10:16:43Z</time></trkpt>
<trkpt lat="43.304507" lon="13.211976"><ele>625.4028915880149</ele><time>2020-05-16T10:16:50Z</time></trkpt>
<trkpt lat="43.304421" lon="13.211964"><ele>623.4022472292816</ele><time>2020-05-16T10:16:56Z</time></trkpt>
<trkpt lat="43.304342" lon="13.211954"><ele>621.4016558813289</ele><time>2020-05-16T10:17:02Z</time></trkpt>
<trkpt lat="43.304267" lon="13.211947"><ele>621.4010989934171</ele><time>2020-05-16T10:17:07Z</time></trkpt>
<trkpt lat="43.304180" lon="13.211937"><ele>620.4004449023796</ele><time>2020-05-16T10:17:13Z</time></trkpt>
<trkpt lat="43.304101" lon="13.211932"><ele>617.3998534083007</ele><time>2020-05-16T10:17:19Z</time></trkpt>
<trkpt lat="43.304012" lon="13.211914"><ele>618.3991849672336</ele><time>2020-05-16T10:17:24Z</time></trkpt>
<trkpt lat="43.303933" lon="13.211910"><ele>618.3985977083059</ele><time>2020-05-16T10:17:29Z</time></trkpt>
<trkpt lat="43.303852" lon="13.211901"><ele>618.3979880802708</ele><time>2020-05-16T10:17:35Z</time></trkpt>
<trkpt lat="43.303766" lon="13.211907"><ele>618.3973569515872</ele><time>2020-05-16T10:17:42Z</time></trkpt>
<trkpt lat="43.303693" lon="13.211907"><ele>617.3968210432838</ele><time>2020-05-16T10:17:48Z</time></trkpt>
<trkpt lat="43.303613" lon="13.211886"><ele>615.3962123583718</ele><time>2020-05-16T10:17:53Z</time></trkpt>
<trkpt lat="43.303536" lon="13.211844"><ele>615.395606164255</ele><time>2020-05-16T10:17:59Z</time></trkpt>
<trkpt lat="43.303468" lon="13.211793"><ele>615.3950550995096</ele><time>2020-05-16T10:18:05Z</time></trkpt>
<trkpt lat="43.303395" lon="13.211736"><ele>613.3944694185192</ele><time>2020-05-16T10:18:11Z</time></trkpt>
<trkpt lat="43.303321" lon="13.211688"><ele>611.3938797666078</ele><time>2020-05-16T10:18:17Z</time></trkpt>
<trkpt lat="43.303252" lon="13.211644"><ele>609.3933346737975</ele><time>2020-05-16T10:18:24Z</time></trkpt>
<trkpt lat="43.303170" lon="13.211606"><ele>606.3926982938849</ele><time>2020-05-16T10:18:30Z</time></trkpt>
<trkpt lat="43.303096" lon="13.211551"><ele>605.3921030009358</ele><time>2020-05-16T10:18:35Z</time></trkpt>
<trkpt lat="43.303025" lon="13.211519"><ele>603.391550352217</ele><time>2020-05-16T10:18:40Z</time></trkpt>
<trkpt lat="43.302953" lon="13.211483"><ele>603.3909919649955</ele><time>2020-05-16T10:18:45Z</time></trkpt>
<trkpt lat="43.302885" lon="13.211443"><ele>602.3904559939097</ele><time>2020-05-16T10:18:50Z</time></trkpt>
<trkpt lat="43.302810" lon="13.211408"><ele>601.3898724261727</ele><time>2020-05-16T10:18:55Z</time></trkpt>
<trkpt lat="43.302732" lon="13.211374"><ele>599.3892640362894</ele><time>2020-05-16T10:19:01Z</time></trkpt>
<trkpt lat="43.302659" lon="13.211345"><ele>598.3887021053451</ele><time>2020-05-16T10:19:06Z</time></trkpt>
<trkpt lat="43.302571" lon="13.211330"><ele>598.3880396572988</ele><time>2020-05-16T10:19:12Z</time></trkpt>
<trkpt lat="43.302485" lon="13.211318"><ele>598.3873960182698</ele><time>2020-05-16T10:19:18Z</time></trkpt>
<trkpt lat="43.302396" lon="13.211332"><ele>597.3867501231016</ele><time>2020-05-16T10:19:25Z</time></trkpt>
<trkpt lat="43.302324" lon="13.211361"><ele>597.386242309285</ele><time>2020-05-16T10:19:30Z</time></trkpt>
<trkpt lat="43.302254" lon="13.211410"><ele>597.3857652801115</ele><time>2020-05-16T10:19:35Z</time></trkpt>
<trkpt lat="43.302186" lon="13.211480"><ele>597.3853242955367</ele><time>2020-05-16T10:19:41Z</time></trkpt>
<trkpt lat="43.302122" lon="13.211556"><ele>597.3849179161001</ele><time>2020-05-16T10:19:47Z</time></trkpt>
<trkpt lat="43.302060" lon="13.211623"><ele>596.3845097883423</ele><time>2020-05-16T10:19:52Z</time></trkpt>
<trkpt lat="43.302004" lon="13.211697"><ele>597.3841616825432</ele><time>2020-05-16T10:19:57Z</time></trkpt>
<trkpt lat="43.301945" lon="13.211767"><ele>595.3837835867682</ele><time>2020-05-16T10:20:02Z</time></trkpt>
<trkpt lat="43.301876" lon="13.211846"><ele>594.3833431363406</ele><time>2020-05-16T10:20:08Z</time></trkpt>
<trkpt lat="43.301804" lon="13.211899"><ele>593.3828494255649</ele><time>2020-05-16T10:20:14Z</time></trkpt>
<trkpt lat="43.301721" lon="13.211925"><ele>592.3822616054048</ele><time>2020-05-16T10:20:20Z</time></trkpt>
<trkpt lat="43.301632" lon="13.211943"><ele>592.3816200898807</ele><time>2020-05-16T10:20:26Z</time></trkpt>
<trkpt lat="43.301551" lon="13.211942"><ele>591.3810196015895</ele><time>2020-05-16T10:20:31Z</time></trkpt>
<trkpt lat="43.301462" lon="13.211935"><ele>590.3803519729994</ele><time>2020-05-16T10:20:37Z</time></trkpt>
<trkpt lat="43.301378" lon="13.211919"><ele>589.3797222675951</ele><time>2020-05-16T10:20:43Z</time></trkpt>
<trkpt lat="43.301292" lon="13.211906"><ele>589.3790705123083</ele><time>2020-05-16T10:20:49Z</time></trkpt>
<trkpt lat="43.301216" lon="13.211902"><ele>588.3785118633989</ele><time>2020-05-16T10:20:54Z</time></trkpt>
<trkpt lat="43.301139" lon="13.211892"><ele>588.3779313829524</ele><time>2020-05-16T10:20:59Z</time></trkpt>
<trkpt lat="43.301059" lon="13.211878"><ele>586.377325982397</ele><time>2020-05-16T10:21:05Z</time></trkpt>
<trkpt lat="43.300976" lon="13.211865"><ele>585.3767018561219</ele><time>2020-05-16T10:21:11Z</time></trkpt>
<trkpt lat="43.300890" lon="13.211857"><ele>585.3760642829656</ele><time>2020-05-16T10:21:17Z</time></trkpt>
<trkpt lat="43.300813" lon="13.211846"><ele>584.3754858649837</ele><time>2020-05-16T10:21:23Z</time></trkpt>
<trkpt lat="43.300737" lon="13.211858"><ele>585.3749361368508</ele><time>2020-05-16T10:21:28Z</time></trkpt>
<trkpt lat="43.300660" lon="13.211847"><ele>585.3743528684154</ele><time>2020-05-16T10:21:33Z</time></trkpt>
<trkpt lat="43.300577" lon="13.211857"><ele>582.3737480791627</ele><time>2020-05-16T10:21:40Z</time></trkpt>
<trkpt lat="43.300499" lon="13.211845"><ele>582.3731633046647</ele><time>2020-05-16T10:21:46Z</time></trkpt>
<trkpt lat="43.300421" lon="13.211815"><ele>580.3725622805272</ele><time>2020-05-16T10:21:52Z</time></trkpt>
<trkpt lat="43.300343" lon="13.211761"><ele>579.3719433257231</ele><time>2020-05-16T10:21:58Z</time></trkpt>
<trkpt lat="43.300277" lon="13.211709"><ele>579.3714101071043</ele><time>2020-05-16T10:22:03Z</time></trkpt>
<trkpt lat="43.300203" lon="13.211643"><ele>578.3708163471891</ele><time>2020-05-16T10:22:09Z</time></trkpt>
<trkpt lat="43.300139" lon="13.211580"><ele>577.3702909555133</ele><time>2020-05-16T10:22:15Z</time></trkpt>
<trkpt lat="43.300061" lon="13.211519"><ele>575.3696679271778</ele><time>2020-05-16T10:22:21Z</time></trkpt>
<trkpt lat="43.299987" lon="13.211458"><ele>573.3690671816273</ele><time>2020-05-16T10:22:27Z</time></trkpt>
<trkpt lat="43.299909" lon="13.211409"><ele>571.368457433608</ele><time>2020-05-16T10:22:34Z</time></trkpt>
<trkpt lat="43.299837" lon="13.211359"><ele>570.3678845920069</ele><time>2020-05-16T10:22:39Z</time></trkpt>
<trkpt lat="43.299774" lon="13.211287"><ele>566.3673613222776</ele><time>2020-05-16T10:22:47Z</time></trkpt>
<trkpt lat="43.299699" lon="13.211230"><ele>564.3667603039096</ele><time>2020-05-16T10:22:55Z</time></trkpt>
<trkpt lat="43.299620" lon="13.211179"><ele>564.3661375280074</ele><time>2020-05-16T10:23:02Z</time></trkpt>
<trkpt lat="43.299537" lon="13.211147"><ele>563.3655023724093</ele><time>2020-05-16T10:23:08Z</time></trkpt>
<trkpt lat="43.299460" lon="13.211122"><ele>563.3649158694213</ele><time>2020-05-16T10:23:13Z</time></trkpt>
<trkpt lat="43.299373" lon="13.211103"><ele>561.364255152294</ele><time>2020-05-16T10:23:24Z</time></trkpt>
<trkpt lat="43.299294" lon="13.211113"><ele>561.3636803952535</ele><time>2020-05-16T10:23:41Z</time></trkpt>
<trkpt lat="43.299207" lon="13.211100"><ele>560.363028992537</ele><time>2020-05-16T10:23:48Z</time></trkpt>
<trkpt lat="43.299122" lon="13.211091"><ele>557.3623967210477</ele><time>2020-05-16T10:23:55Z</time></trkpt>
<trkpt lat="43.299041" lon="13.211095"><ele>556.3617988817008</ele><time>2020-05-16T10:24:01Z</time></trkpt>
<trkpt lat="43.298957" lon="13.211107"><ele>553.361193698024</ele><time>2020-05-16T10:24:09Z</time></trkpt>
<trkpt lat="43.298872" lon="13.211100"><ele>553.3605590483846</ele><time>2020-05-16T10:24:15Z</time></trkpt>
<trkpt lat="43.298787" lon="13.211097"><ele>552.359926106205</ele><time>2020-05-16T10:24:21Z</time></trkpt>
<trkpt lat="43.298703" lon="13.211093"><ele>549.3593056505142</ele><time>2020-05-16T10:24:28Z</time></trkpt>
<trkpt lat="43.298614" lon="13.211091"><ele>548.3586495480893</ele><time>2020-05-16T10:24:35Z</time></trkpt>
<trkpt lat="43.298527" lon="13.211074"><ele>547.3579947279508</ele><time>2020-05-16T10:24:41Z</time></trkpt>
<trkpt lat="43.298444" lon="13.211064"><ele>547.3573739373285</ele><time>2020-05-16T10:24:47Z</time></trkpt>
<trkpt lat="43.298362" lon="13.211069"><ele>546.3567707726314</ele><time>2020-05-16T10:24:53Z</time></trkpt>
<trkpt lat="43.298286" lon="13.211057"><ele>545.3561979588953</ele><time>2020-05-16T10:24:58Z</time></trkpt>
<trkpt lat="43.298201" lon="13.211022"><ele>543.3555444225451</ele><time>2020-05-16T10:25:03Z</time></trkpt>
<trkpt lat="43.298125" lon="13.211009"><ele>542.3549804571668</ele><time>2020-05-16T10:25:09Z</time></trkpt>
<trkpt lat="43.298044" lon="13.210976"><ele>541.354355922176</ele><time>2020-05-16T10:25:15Z</time></trkpt>
<trkpt lat="43.297956" lon="13.210961"><ele>539.3536969347786</ele><time>2020-05-16T10:25:22Z</time></trkpt>
<trkpt lat="43.297873" lon="13.210926"><ele>538.3530551189413</ele><time>2020-05-16T10:25:28Z</time></trkpt>
<trkpt lat="43.297803" lon="13.210894"><ele>538.3525151934638</ele><time>2020-05-16T10:25:33Z</time></trkpt>
<trkpt lat="43.297720" lon="13.210856"><ele>539.3518749677651</ele><time>2020-05-16T10:25:39Z</time></trkpt>
<trkpt lat="43.297642" lon="13.210815"><ele>537.3512689777403</ele><time>2020-05-16T10:25:45Z</time></trkpt>
<trkpt lat="43.297562" lon="13.210770"><ele>536.3506437706665</ele><time>2020-05-16T10:25:51Z</time></trkpt>
<trkpt lat="43.297487" lon="13.210719"><ele>535.3500504182358</ele><time>2020-05-16T10:25:57Z</time></trkpt>
<trkpt lat="43.297408" lon="13.210664"><ele>535.3494288469501</ele><time>2020-05-16T10:26:04Z</time></trkpt>
<trkpt lat="43.297345" lon="13.210609"><ele>534.3489222220213</ele><time>2020-05-16T10:26:10Z</time></trkpt>
<trkpt lat="43.297279" lon="13.210541"><ele>534.3483826186672</ele><time>2020-05-16T10:26:16Z</time></trkpt>
<trkpt lat="43.297207" lon="13.210468"><ele>534.3477970949247</ele><time>2020-05-16T10:26:22Z</time></trkpt>
<trkpt lat="43.297140" lon="13.210391"><ele>534.347249164445</ele><time>2020-05-16T10:26:28Z</time></trkpt>
<trkpt lat="43.297072" lon="13.210316"><ele>533.3466853031441</ele><time>2020-05-16T10:26:34Z</time></trkpt>
<trkpt lat="43.296999" lon="13.210257"><ele>535.3461096151398</ele><time>2020-05-16T10:26:40Z</time></trkpt>
<trkpt lat="43.296933" lon="13.210197"><ele>534.3455719395199</ele><time>2020-05-16T10:26:45Z</time></trkpt>
<trkpt lat="43.296860" lon="13.210134"><ele>532.3449899621485</ele><time>2020-05-16T10:26:51Z</time></trkpt>
<trkpt lat="43.296786" lon="13.210079"><ele>532.3444077382038</ele><time>2020-05-16T10:26:57Z</time></trkpt>
<trkpt lat="43.296714" lon="13.210041"><ele>532.3438435389133</ele><time>2020-05-16T10:27:03Z</time></trkpt>
<trkpt lat="43.296634" lon="13.209997"><ele>531.3432206054861</ele><time>2020-05-16T10:27:09Z</time></trkpt>
<trkpt lat="43.296558" lon="13.209956"><ele>531.342631664198</ele><time>2020-05-16T10:27:15Z</time></trkpt>
<trkpt lat="43.296473" lon="13.209931"><ele>531.3419925478847</ele><time>2020-05-16T10:27:20Z</time></trkpt>
<trkpt lat="43.296399" lon="13.209909"><ele>531.3414302516927</ele><time>2020-05-16T10:27:25Z</time></trkpt>
<trkpt lat="43.296318" lon="13.209892"><ele>531.340818929005</ele><time>2020-05-16T10:27:30Z</time></trkpt>
<trkpt lat="43.296237" lon="13.209875"><ele>532.3402147436124</ele><time>2020-05-16T10:27:35Z</time></trkpt>
<trkpt lat="43.296157" lon="13.209862"><ele>532.339615296815</ele><time>2020-05-16T10:27:40Z</time></trkpt>
<trkpt lat="43.296069" lon="13.209853"><ele>532.3389599638921</ele><time>2020-05-16T10:27:46Z</time></trkpt>
<trkpt lat="43.295990" lon="13.209859"><ele>532.3383835736263</ele><time>2020-05-16T10:27:51Z</time></trkpt>
<trkpt lat="43.295910" lon="13.209855"><ele>534.3377937892249</ele><time>2020-05-16T10:27:56Z</time></trkpt>
<trkpt lat="43.295834" lon="13.209842"><ele>534.3372231965972</ele><time>2020-05-16T10:28:01Z</time></trkpt>
<trkpt lat="43.295754" lon="13.209828"><ele>534.3366224433667</ele><time>2020-05-16T10:28:06Z</time></trkpt>
<trkpt lat="43.295677" lon="13.209810"><ele>536.3360453688815</ele><time>2020-05-16T10:28:11Z</time></trkpt>
<trkpt lat="43.295592" lon="13.209807"><ele>535.3354152004326</ele><time>2020-05-16T10:28:17Z</time></trkpt>
<trkpt lat="43.295518" lon="13.209771"><ele>534.3348463524899</ele><time>2020-05-16T10:28:23Z</time></trkpt>
<trkpt lat="43.295438" lon="13.209737"><ele>535.3342307478562</ele><time>2020-05-16T10:28:28Z</time></trkpt>
<trkpt lat="43.295372" lon="13.209686"><ele>535.3337090130156</ele><time>2020-05-16T10:28:33Z</time></trkpt>
<trkpt lat="43.295294" lon="13.209633"><ele>534.3330963552908</ele><time>2020-05-16T10:28:39Z</time></trkpt>
<trkpt lat="43.295232" lon="13.209573"><ele>534.3325997328607</ele><time>2020-05-16T10:28:44Z</time></trkpt>
<trkpt lat="43.295166" lon="13.209496"><ele>531.3320559289663</ele><time>2020-05-16T10:28:51Z</time></trkpt>
<trkpt lat="43.295093" lon="13.209431"><ele>529.3314717579952</ele><time>2020-05-16T10:28:58Z</time></trkpt>
<trkpt lat="43.295019" lon="13.209362"><ele>528.3308819175408</ele><time>2020-05-16T10:29:04Z</time></trkpt>
<trkpt lat="43.294952" lon="13.209309"><ele>528.3303520344986</ele><time>2020-05-16T10:29:09Z</time></trkpt>
<trkpt lat="43.294876" lon="13.209282"><ele>529.3297699945641</ele><time>2020-05-16T10:29:14Z</time></trkpt>
<trkpt lat="43.294800" lon="13.209272"><ele>528.3292053307584</ele><time>2020-05-16T10:29:19Z</time></trkpt>
<trkpt lat="43.294722" lon="13.209271"><ele>528.3286301235114</ele><time>2020-05-16T10:29:24Z</time></trkpt>
<trkpt lat="43.294646" lon="13.209278"><ele>529.3280788298473</ele><time>2020-05-16T10:29:29Z</time></trkpt>
<trkpt lat="43.294570" lon="13.209291"><ele>528.3275305609845</ele><time>2020-05-16T10:29:34Z</time></trkpt>
<trkpt lat="43.294482" lon="13.209310"><ele>528.3268963721855</ele><time>2020-05-16T10:29:40Z</time></trkpt>
<trkpt lat="43.294395" lon="13.209328"><ele>528.3262705597258</ele><time>2020-05-16T10:29:46Z</time></trkpt>
<trkpt lat="43.294311" lon="13.209339"><ele>525.3256588479936</ele><time>2020-05-16T10:29:52Z</time></trkpt>
<trkpt lat="43.294235" lon="13.209340"><ele>525.32510083701</ele><time>2020-05-16T10:29:57Z</time></trkpt>
<trkpt lat="43.294150" lon="13.209336"><ele>524.3244714509552</ele><time>2020-05-16T10:30:03Z</time></trkpt>
<trkpt lat="43.294064" lon="13.209333"><ele>523.3238424451553</ele><time>2020-05-16T10:30:09Z</time></trkpt>
<trkpt lat="43.293977" lon="13.209321"><ele>522.3231908226226</ele><time>2020-05-16T10:30:15Z</time></trkpt>
<trkpt lat="43.293894" lon="13.209296"><ele>521.3225641551613</ele><time>2020-05-16T10:30:21Z</time></trkpt>
<trkpt lat="43.293816" lon="13.209260"><ele>520.3219657649411</ele><time>2020-05-16T10:30:27Z</time></trkpt>
<trkpt lat="43.293740" lon="13.209234"><ele>520.3213897487594</ele><time>2020-05-16T10:30:32Z</time></trkpt>
<trkpt lat="43.293653" lon="13.209212"><ele>519.3207330229927</ele><time>2020-05-16T10:30:38Z</time></trkpt>
<trkpt lat="43.293567" lon="13.209180"><ele>518.320082823038</ele><time>2020-05-16T10:30:44Z</time></trkpt>
<trkpt lat="43.293484" lon="13.209141"><ele>517.3194478577212</ele><time>2020-05-16T10:30:50Z</time></trkpt>
<trkpt lat="43.293403" lon="13.209108"><ele>515.3188283496795</ele><time>2020-05-16T10:30:56Z</time></trkpt>
<trkpt lat="43.293326" lon="13.209089"><ele>515.3182476059969</ele><time>2020-05-16T10:31:01Z</time></trkpt>
<trkpt lat="43.293249" lon="13.209073"><ele>512.3176745080898</ele><time>2020-05-16T10:31:07Z</time></trkpt>
<trkpt lat="43.293165" lon="13.209071"><ele>510.31704962825535</ele><time>2020-05-16T10:31:13Z</time></trkpt>
<trkpt lat="43.293088" lon="13.209076"><ele>509.31648964344265</ele><time>2020-05-16T10:31:18Z</time></trkpt>
<trkpt lat="43.293009" lon="13.209098"><ele>510.3159261699276</ele><time>2020-05-16T10:31:23Z</time></trkpt>
<trkpt lat="43.292937" lon="13.209144"><ele>509.315426245972</ele><time>2020-05-16T10:31:28Z</time></trkpt>
<trkpt lat="43.292860" lon="13.209207"><ele>507.3149040730479</ele><time>2020-05-16T10:31:34Z</time></trkpt>
<trkpt lat="43.292796" lon="13.209265"><ele>507.31447239452234</ele><time>2020-05-16T10:31:39Z</time></trkpt>
<trkpt lat="43.292722" lon="13.209304"><ele>507.31395658180315</ele><time>2020-05-16T10:31:44Z</time></trkpt>
<trkpt lat="43.292649" lon="13.209359"><ele>506.3134571686682</ele><time>2020-05-16T10:31:50Z</time></trkpt>
<trkpt lat="43.292570" lon="13.209418"><ele>505.31292007978885</ele><time>2020-05-16T10:31:56Z</time></trkpt>
<trkpt lat="43.292491" lon="13.209471"><ele>503.312373998877</ele><time>2020-05-16T10:32:02Z</time></trkpt>
<trkpt lat="43.292420" lon="13.209526"><ele>504.3118923994284</ele><time>2020-05-16T10:32:07Z</time></trkpt>
<trkpt lat="43.292349" lon="13.209597"><ele>503.31141643574665</ele><time>2020-05-16T10:32:13Z</time></trkpt>
<trkpt lat="43.292273" lon="13.209643"><ele>501.3108854708725</ele><time>2020-05-16T10:32:19Z</time></trkpt>
<trkpt lat="43.292197" lon="13.209706"><ele>502.31036889893176</ele><time>2020-05-16T10:32:25Z</time></trkpt>
<trkpt lat="43.292118" lon="13.209753"><ele>501.3098186801423</ele><time>2020-05-16T10:32:31Z</time></trkpt>
<trkpt lat="43.292052" lon="13.209799"><ele>499.30937020817333</ele><time>2020-05-16T10:32:36Z</time></trkpt>
<trkpt lat="43.291967" lon="13.209826"><ele>499.30875734127466</ele><time>2020-05-16T10:32:42Z</time></trkpt>
<trkpt lat="43.291882" lon="13.209834"><ele>498.3081365152082</ele><time>2020-05-16T10:32:48Z</time></trkpt>
<trkpt lat="43.291800" lon="13.209840"><ele>499.30754257052644</ele><time>2020-05-16T10:32:53Z</time></trkpt>
<trkpt lat="43.291712" lon="13.209834"><ele>498.3068902890044</ele><time>2020-05-16T10:32:59Z</time></trkpt>
<trkpt lat="43.291632" lon="13.209834"><ele>495.30629991658503</ele><time>2020-05-16T10:33:05Z</time></trkpt>
<trkpt lat="43.291554" lon="13.209828"><ele>495.3057258645384</ele><time>2020-05-16T10:33:10Z</time></trkpt>
<trkpt lat="43.291473" lon="13.209829"><ele>495.30512516905407</ele><time>2020-05-16T10:33:15Z</time></trkpt>
<trkpt lat="43.291385" lon="13.209823"><ele>495.3044767508271</ele><time>2020-05-16T10:33:21Z</time></trkpt>
<trkpt lat="43.291298" lon="13.209826"><ele>494.303835847225</ele><time>2020-05-16T10:33:27Z</time></trkpt>
<trkpt lat="43.291220" lon="13.209832"><ele>494.3032651207717</ele><time>2020-05-16T10:33:32Z</time></trkpt>
<trkpt lat="43.291138" lon="13.209851"><ele>494.3026766846017</ele><time>2020-05-16T10:33:38Z</time></trkpt>
<trkpt lat="43.291051" lon="13.209873"><ele>492.3020540623834</ele><time>2020-05-16T10:33:44Z</time></trkpt>
<trkpt lat="43.290966" lon="13.209903"><ele>492.3014444948795</ele><time>2020-05-16T10:33:50Z</time></trkpt>
<trkpt lat="43.290890" lon="13.209916"><ele>493.3008942746178</ele><time>2020-05-16T10:33:55Z</time></trkpt>
<trkpt lat="43.290802" lon="13.209933"><ele>494.3002566823751</ele><time>2020-05-16T10:34:01Z</time></trkpt>
<trkpt lat="43.290731" lon="13.209946"><ele>492.29974405353676</ele><time>2020-05-16T10:34:06Z</time></trkpt>
<trkpt lat="43.290647" lon="13.209954"><ele>493.2991282998777</ele><time>2020-05-16T10:34:11Z</time></trkpt>
<trkpt lat="43.290561" lon="13.209966"><ele>492.29850822172494</ele><time>2020-05-16T10:34:17Z</time></trkpt>
<trkpt lat="43.290473" lon="13.209970"><ele>492.2978640113724</ele><time>2020-05-16T10:34:23Z</time></trkpt>
<trkpt lat="43.290384" lon="13.209969"><ele>492.29720631905326</ele><time>2020-05-16T10:34:29Z</time></trkpt>
<trkpt lat="43.290302" lon="13.209947"><ele>492.2965848218512</ele><time>2020-05-16T10:34:35Z</time></trkpt>
<trkpt lat="43.290224" lon="13.209946"><ele>491.2960139415894</ele><time>2020-05-16T10:34:40Z</time></trkpt>
<trkpt lat="43.290143" lon="13.209931"><ele>492.2954063580033</ele><time>2020-05-16T10:34:45Z</time></trkpt>
<trkpt lat="43.290068" lon="13.209911"><ele>492.29484489544177</ele><time>2020-05-16T10:34:50Z</time></trkpt>
<trkpt lat="43.289986" lon="13.209895"><ele>492.2942335778411</ele><time>2020-05-16T10:34:56Z</time></trkpt>
<trkpt lat="43.289910" lon="13.209869"><ele>492.29365418156965</ele><time>2020-05-16T10:35:01Z</time></trkpt>
<trkpt lat="43.289829" lon="13.209848"><ele>492.29304309682277</ele><time>2020-05-16T10:35:07Z</time></trkpt>
<trkpt lat="43.289747" lon="13.209834"><ele>492.2924351168373</ele><time>2020-05-16T10:35:13Z</time></trkpt>
<trkpt lat="43.289658" lon="13.209821"><ele>493.2917698208328</ele><time>2020-05-16T10:35:19Z</time></trkpt>
<trkpt lat="43.289572" lon="13.209808"><ele>493.2911283089817</ele><time>2020-05-16T10:35:25Z</time></trkpt>
<trkpt lat="43.289483" lon="13.209806"><ele>491.2904741929401</ele><time>2020-05-16T10:35:32Z</time></trkpt>
<trkpt lat="43.289405" lon="13.209804"><ele>490.2898978501713</ele><time>2020-05-16T10:35:38Z</time></trkpt>
<trkpt lat="43.289323" lon="13.209792"><ele>487.2892895178649</ele><time>2020-05-16T10:35:44Z</time></trkpt>
<trkpt lat="43.289252" lon="13.209787"><ele>487.28875751759574</ele><time>2020-05-16T10:35:49Z</time></trkpt>
<trkpt lat="43.289165" lon="13.209782"><ele>489.2881207258167</ele><time>2020-05-16T10:35:54Z</time></trkpt>
<trkpt lat="43.289089" lon="13.209794"><ele>487.2875647643899</ele><time>2020-05-16T10:35:59Z</time></trkpt>
<trkpt lat="43.289005" lon="13.209828"><ele>487.28697297099643</ele><time>2020-05-16T10:36:05Z</time></trkpt>
<trkpt lat="43.288932" lon="13.209892"><ele>485.28647564627016</ele><time>2020-05-16T10:36:11Z</time></trkpt>
<trkpt lat="43.288860" lon="13.209956"><ele>484.2859792087434</ele><time>2020-05-16T10:36:17Z</time></trkpt>
<trkpt lat="43.288793" lon="13.210031"><ele>482.2855332205132</ele><time>2020-05-16T10:36:23Z</time></trkpt>
<trkpt lat="43.288735" lon="13.210117"><ele>481.2851641018843</ele><time>2020-05-16T10:36:29Z</time></trkpt>
<trkpt lat="43.288672" lon="13.210185"><ele>481.2847401502892</ele><time>2020-05-16T10:36:34Z</time></trkpt>
<trkpt lat="43.288592" lon="13.210220"><ele>481.28417171959944</ele><time>2020-05-16T10:36:39Z</time></trkpt>
<trkpt lat="43.288518" lon="13.210232"><ele>480.28363582052117</ele><time>2020-05-16T10:36:44Z</time></trkpt>
<trkpt lat="43.288429" lon="13.210225"><ele>481.282977821465</ele><time>2020-05-16T10:36:50Z</time></trkpt>
<trkpt lat="43.288351" lon="13.210218"><ele>480.2823983800781</ele><time>2020-05-16T10:36:55Z</time></trkpt>
<trkpt lat="43.288271" lon="13.210192"><ele>480.281791607425</ele><time>2020-05-16T10:37:01Z</time></trkpt>
<trkpt lat="43.288188" lon="13.210174"><ele>479.28116616186554</ele><time>2020-05-16T10:37:07Z</time></trkpt>
<trkpt lat="43.288113" lon="13.210130"><ele>478.280592702758</ele><time>2020-05-16T10:37:13Z</time></trkpt>
<trkpt lat="43.288044" lon="13.210087"><ele>478.28005494415606</ele><time>2020-05-16T10:37:19Z</time></trkpt>
<trkpt lat="43.287974" lon="13.210019"><ele>476.2795039540027</ele><time>2020-05-16T10:37:25Z</time></trkpt>
<trkpt lat="43.287917" lon="13.209949"><ele>475.2790393746067</ele><time>2020-05-16T10:37:30Z</time></trkpt>
<trkpt lat="43.287847" lon="13.209874"><ele>474.2784762396835</ele><time>2020-05-16T10:37:36Z</time></trkpt>
<trkpt lat="43.287783" lon="13.209804"><ele>473.2779663597045</ele><time>2020-05-16T10:37:42Z</time></trkpt>
<trkpt lat="43.287709" lon="13.209749"><ele>470.2773866584111</ele><time>2020-05-16T10:37:49Z</time></trkpt>
<trkpt lat="43.287640" lon="13.209675"><ele>469.2768360199537</ele><time>2020-05-16T10:37:56Z</time></trkpt>
<trkpt lat="43.287567" lon="13.209614"><ele>466.27626316105136</ele><time>2020-05-16T10:38:02Z</time></trkpt>
<trkpt lat="43.287506" lon="13.209558"><ele>465.2757758773454</ele><time>2020-05-16T10:38:07Z</time></trkpt>
<trkpt lat="43.287440" lon="13.209486"><ele>464.2752507395878</ele><time>2020-05-16T10:38:13Z</time></trkpt>
<trkpt lat="43.287379" lon="13.209423"><ele>463.27476175689947</ele><time>2020-05-16T10:38:18Z</time></trkpt>
<trkpt lat="43.287314" lon="13.209342"><ele>462.2742388522535</ele><time>2020-05-16T10:38:24Z</time></trkpt>
<trkpt lat="43.287247" lon="13.209261"><ele>461.2736947390664</ele><time>2020-05-16T10:38:31Z</time></trkpt>
<trkpt lat="43.287183" lon="13.209186"><ele>461.27318512650555</ele><time>2020-05-16T10:38:37Z</time></trkpt>
<trkpt lat="43.287113" lon="13.209115"><ele>459.272627062972</ele><time>2020-05-16T10:38:43Z</time></trkpt>
<trkpt lat="43.287058" lon="13.209040"><ele>457.2721744351825</ele><time>2020-05-16T10:38:49Z</time></trkpt>
<trkpt lat="43.286991" lon="13.208981"><ele>457.27164950500423</ele><time>2020-05-16T10:38:54Z</time></trkpt>
<trkpt lat="43.286935" lon="13.208914"><ele>456.2711968044523</ele><time>2020-05-16T10:38:59Z</time></trkpt>
<trkpt lat="43.286871" lon="13.208842"><ele>456.27068506614717</ele><time>2020-05-16T10:39:04Z</time></trkpt>
<trkpt lat="43.286812" lon="13.208770"><ele>455.2702127320645</ele><time>2020-05-16T10:39:09Z</time></trkpt>
<trkpt lat="43.286748" lon="13.208695"><ele>454.2696997372691</ele><time>2020-05-16T10:39:15Z</time></trkpt>
<trkpt lat="43.286673" lon="13.208632"><ele>454.2691113475641</ele><time>2020-05-16T10:39:21Z</time></trkpt>
<trkpt lat="43.286594" lon="13.208606"><ele>452.26851338133116</ele><time>2020-05-16T10:39:27Z</time></trkpt>
<trkpt lat="43.286505" lon="13.208593"><ele>453.2678568805387</ele><time>2020-05-16T10:39:33Z</time></trkpt>
<trkpt lat="43.286420" lon="13.208573"><ele>452.2672224607211</ele><time>2020-05-16T10:39:39Z</time></trkpt>
<trkpt lat="43.286336" lon="13.208571"><ele>452.2666022775348</ele><time>2020-05-16T10:39:45Z</time></trkpt>
<trkpt lat="43.286258" lon="13.208574"><ele>450.2660296961574</ele><time>2020-05-16T10:39:51Z</time></trkpt>
<trkpt lat="43.286172" lon="13.208570"><ele>450.26539828895585</ele><time>2020-05-16T10:39:57Z</time></trkpt>
<trkpt lat="43.286085" lon="13.208552"><ele>449.2647468171073</ele><time>2020-05-16T10:40:03Z</time></trkpt>
<trkpt lat="43.286005" lon="13.208548"><ele>450.26416224635136</ele><time>2020-05-16T10:40:08Z</time></trkpt>
<trkpt lat="43.285929" lon="13.208544"><ele>451.2635995545929</ele><time>2020-05-16T10:40:13Z</time></trkpt>
<trkpt lat="43.285843" lon="13.208542"><ele>449.2629671341297</ele><time>2020-05-16T10:40:19Z</time></trkpt>
<trkpt lat="43.285753" lon="13.208534"><ele>448.26230570736345</ele><time>2020-05-16T10:40:25Z</time></trkpt>
<trkpt lat="43.285670" lon="13.208519"><ele>449.26168400238623</ele><time>2020-05-16T10:40:30Z</time></trkpt>
<trkpt lat="43.285588" lon="13.208506"><ele>449.26107642404475</ele><time>2020-05-16T10:40:36Z</time></trkpt>
<trkpt lat="43.285512" lon="13.208495"><ele>450.2605158386661</ele><time>2020-05-16T10:40:41Z</time></trkpt>
<trkpt lat="43.285426" lon="13.208482"><ele>449.25987725338746</ele><time>2020-05-16T10:40:47Z</time></trkpt>
<trkpt lat="43.285337" lon="13.208484"><ele>448.259220928609</ele><time>2020-05-16T10:40:53Z</time></trkpt>
<trkpt lat="43.285256" lon="13.208491"><ele>448.2586342426671</ele><time>2020-05-16T10:40:59Z</time></trkpt>
<trkpt lat="43.285176" lon="13.208502"><ele>447.25805161827356</ele><time>2020-05-16T10:41:05Z</time></trkpt>
<trkpt lat="43.285102" lon="13.208525"><ele>447.25752389275846</ele><time>2020-05-16T10:41:10Z</time></trkpt>
<trkpt lat="43.285017" lon="13.208552"><ele>447.25691732140496</ele><time>2020-05-16T10:41:16Z</time></trkpt>
<trkpt lat="43.284933" lon="13.208582"><ele>447.2563152096152</ele><time>2020-05-16T10:41:22Z</time></trkpt>
<trkpt lat="43.284848" lon="13.208605"><ele>447.255700634141</ele><time>2020-05-16T10:41:28Z</time></trkpt>
<trkpt lat="43.284774" lon="13.208631"><ele>446.25517782643976</ele><time>2020-05-16T10:41:33Z</time></trkpt>
<trkpt lat="43.284692" lon="13.208651"><ele>445.25458244641186</ele><time>2020-05-16T10:41:39Z</time></trkpt>
<trkpt lat="43.284618" lon="13.208664"><ele>445.2540480383948</ele><time>2020-05-16T10:41:44Z</time></trkpt>
<trkpt lat="43.284529" lon="13.208674"><ele>445.25340174390806</ele><time>2020-05-16T10:41:50Z</time></trkpt>
<trkpt lat="43.284443" lon="13.208680"><ele>444.2527695667464</ele><time>2020-05-16T10:41:56Z</time></trkpt>
<trkpt lat="43.284360" lon="13.208688"><ele>443.2521650178239</ele><time>2020-05-16T10:42:02Z</time></trkpt>
<trkpt lat="43.284279" lon="13.208699"><ele>442.2515790097257</ele><time>2020-05-16T10:42:08Z</time></trkpt>
<trkpt lat="43.284193" lon="13.208702"><ele>442.2509508233547</ele><time>2020-05-16T10:42:15Z</time></trkpt>
<trkpt lat="43.284111" lon="13.208713"><ele>440.2503550739768</ele><time>2020-05-16T10:42:22Z</time></trkpt>
<trkpt lat="43.284022" lon="13.208703"><ele>439.2496936505111</ele><time>2020-05-16T10:42:29Z</time></trkpt>
<trkpt lat="43.283942" lon="13.208701"><ele>437.24910588385575</ele><time>2020-05-16T10:42:35Z</time></trkpt>
<trkpt lat="43.283853" lon="13.208710"><ele>435.2484619889356</ele><time>2020-05-16T10:42:42Z</time></trkpt>
<trkpt lat="43.283778" lon="13.208761"><ele>435.24793557467535</ele><time>2020-05-16T10:42:50Z</time></trkpt>
<trkpt lat="43.283718" lon="13.208830"><ele>434.24753573847295</ele><time>2020-05-16T10:42:56Z</time></trkpt>
<trkpt lat="43.283664" lon="13.208903"><ele>433.24717408381184</ele><time>2020-05-16T10:43:01Z</time></trkpt>
<trkpt lat="43.283594" lon="13.208981"><ele>433.2467077111536</ele><time>2020-05-16T10:43:07Z</time></trkpt>
<trkpt lat="43.283526" lon="13.209051"><ele>432.2462417887288</ele><time>2020-05-16T10:43:13Z</time></trkpt>
<trkpt lat="43.283468" lon="13.209132"><ele>431.24585743426314</ele><time>2020-05-16T10:43:19Z</time></trkpt>
<trkpt lat="43.283408" lon="13.209220"><ele>430.2454649461448</ele><time>2020-05-16T10:43:25Z</time></trkpt>
<trkpt lat="43.283340" lon="13.209289"><ele>430.24500487541394</ele><time>2020-05-16T10:43:31Z</time></trkpt>
<trkpt lat="43.283278" lon="13.209369"><ele>430.2445874561078</ele><time>2020-05-16T10:43:37Z</time></trkpt>
<trkpt lat="43.283215" lon="13.209451"><ele>430.2441711788179</ele><time>2020-05-16T10:43:43Z</time></trkpt>
<trkpt lat="43.283149" lon="13.209518"><ele>429.2437192219461</ele><time>2020-05-16T10:43:49Z</time></trkpt>
<trkpt lat="43.283088" lon="13.209596"><ele>429.243314223334</ele><time>2020-05-16T10:43:55Z</time></trkpt>
<trkpt lat="43.283023" lon="13.209676"><ele>429.2428804475928</ele><time>2020-05-16T10:44:01Z</time></trkpt>
<trkpt lat="43.282958" lon="13.209755"><ele>429.24244054985326</ele><time>2020-05-16T10:44:07Z</time></trkpt>
<trkpt lat="43.282903" lon="13.209831"><ele>429.2420807627441</ele><time>2020-05-16T10:44:13Z</time></trkpt>
<trkpt lat="43.282850" lon="13.209912"><ele>428.2417326380751</ele><time>2020-05-16T10:44:19Z</time></trkpt>
<trkpt lat="43.282787" lon="13.209987"><ele>428.2413018523514</ele><time>2020-05-16T10:44:25Z</time></trkpt>
<trkpt lat="43.282720" lon="13.210056"><ele>427.2408480856203</ele><time>2020-05-16T10:44:32Z</time></trkpt>
<trkpt lat="43.282656" lon="13.210112"><ele>426.2404055809769</ele><time>2020-05-16T10:44:37Z</time></trkpt>
<trkpt lat="43.282592" lon="13.210180"><ele>426.23997155772366</ele><time>2020-05-16T10:44:43Z</time></trkpt>
<trkpt lat="43.282519" lon="13.210229"><ele>425.2394621544052</ele><time>2020-05-16T10:44:49Z</time></trkpt>
<trkpt lat="43.282449" lon="13.210292"><ele>425.2389790931824</ele><time>2020-05-16T10:44:55Z</time></trkpt>
<trkpt lat="43.282381" lon="13.210326"><ele>426.2384922761459</ele><time>2020-05-16T10:45:00Z</time></trkpt>
<trkpt lat="43.282307" lon="13.210346"><ele>429.237956242004</ele><time>2020-05-16T10:45:05Z</time></trkpt>
<trkpt lat="43.282228" lon="13.210351"><ele>428.23738265212484</ele><time>2020-05-16T10:45:10Z</time></trkpt>
<trkpt lat="43.282146" lon="13.210312"><ele>429.23675361105336</ele><time>2020-05-16T10:45:16Z</time></trkpt>
<trkpt lat="43.282067" lon="13.210259"><ele>429.2361496258503</ele><time>2020-05-16T10:45:22Z</time></trkpt>
<trkpt lat="43.281991" lon="13.210210"><ele>429.2355609603442</ele><time>2020-05-16T10:45:28Z</time></trkpt>
<trkpt lat="43.281914" lon="13.210167"><ele>428.2349732654209</ele><time>2020-05-16T10:45:34Z</time></trkpt>
<trkpt lat="43.281840" lon="13.210121"><ele>427.2344061234596</ele><time>2020-05-16T10:45:40Z</time></trkpt>
<trkpt lat="43.281756" lon="13.210077"><ele>426.2337660626889</ele><time>2020-05-16T10:45:46Z</time></trkpt>
<trkpt lat="43.281679" lon="13.210048"><ele>425.2331803429359</ele><time>2020-05-16T10:45:52Z</time></trkpt>
<trkpt lat="43.281599" lon="13.210038"><ele>424.232588410113</ele><time>2020-05-16T10:45:58Z</time></trkpt>
<trkpt lat="43.281511" lon="13.210016"><ele>423.2319309737507</ele><time>2020-05-16T10:46:04Z</time></trkpt>
<trkpt lat="43.281427" lon="13.210003"><ele>423.2313063679383</ele><time>2020-05-16T10:46:09Z</time></trkpt>
<trkpt lat="43.281351" lon="13.209982"><ele>422.23073748061654</ele><time>2020-05-16T10:46:14Z</time></trkpt>
<trkpt lat="43.281271" lon="13.209972"><ele>421.23014254831446</ele><time>2020-05-16T10:46:19Z</time></trkpt>
<trkpt lat="43.281195" lon="13.209944"><ele>421.22956848663136</ele><time>2020-05-16T10:46:24Z</time></trkpt>
<trkpt lat="43.281123" lon="13.209913"><ele>421.22902258918054</ele><time>2020-05-16T10:46:29Z</time></trkpt>
<trkpt lat="43.281044" lon="13.209872"><ele>421.2284235282624</ele><time>2020-05-16T10:46:34Z</time></trkpt>
<trkpt lat="43.280969" lon="13.209828"><ele>421.22785002586824</ele><time>2020-05-16T10:46:39Z</time></trkpt>
<trkpt lat="43.280901" lon="13.209781"><ele>420.22732133216937</ele><time>2020-05-16T10:46:44Z</time></trkpt>
<trkpt lat="43.280834" lon="13.209728"><ele>420.2268045123951</ele><time>2020-05-16T10:46:49Z</time></trkpt>
<trkpt lat="43.280758" lon="13.209673"><ele>420.22622104725014</ele><time>2020-05-16T10:46:54Z</time></trkpt>
<trkpt lat="43.280691" lon="13.209618"><ele>419.22570018180016</ele><time>2020-05-16T10:46:59Z</time></trkpt>
<trkpt lat="43.280629" lon="13.209566"><ele>419.22521608561163</ele><time>2020-05-16T10:47:04Z</time></trkpt>
<trkpt lat="43.280564" lon="13.209502"><ele>419.22470380069103</ele><time>2020-05-16T10:47:09Z</time></trkpt>
<trkpt lat="43.280503" lon="13.209431"><ele>419.2242220436475</ele><time>2020-05-16T10:47:14Z</time></trkpt>
<trkpt lat="43.280450" lon="13.209349"><ele>419.22379300152505</ele><time>2020-05-16T10:47:19Z</time></trkpt>
<trkpt lat="43.280404" lon="13.209260"><ele>419.22341202541236</ele><time>2020-05-16T10:47:24Z</time></trkpt>
<trkpt lat="43.280359" lon="13.209170"><ele>420.2230370706484</ele><time>2020-05-16T10:47:29Z</time></trkpt>
<trkpt lat="43.280323" lon="13.209080"><ele>421.22272991718535</ele><time>2020-05-16T10:47:34Z</time></trkpt>
<trkpt lat="43.280291" lon="13.208982"><ele>421.22245061796986</ele><time>2020-05-16T10:47:39Z</time></trkpt>
<trkpt lat="43.280258" lon="13.208882"><ele>421.2221550204655</ele><time>2020-05-16T10:47:45Z</time></trkpt>
<trkpt lat="43.280216" lon="13.208783"><ele>421.22180112242586</ele><time>2020-05-16T10:47:51Z</time></trkpt>
<trkpt lat="43.280162" lon="13.208694"><ele>422.22136140579875</ele><time>2020-05-16T10:47:57Z</time></trkpt>
<trkpt lat="43.280096" lon="13.208619"><ele>421.22084115703257</ele><time>2020-05-16T10:48:03Z</time></trkpt>
<trkpt lat="43.280037" lon="13.208552"><ele>421.22037865619654</ele><time>2020-05-16T10:48:08Z</time></trkpt>
<trkpt lat="43.279967" lon="13.208480"><ele>420.2198283772245</ele><time>2020-05-16T10:48:14Z</time></trkpt>
<trkpt lat="43.279896" lon="13.208414"><ele>419.21927788509987</ele><time>2020-05-16T10:48:20Z</time></trkpt>
<trkpt lat="43.279826" lon="13.208343"><ele>418.21873226980574</ele><time>2020-05-16T10:48:26Z</time></trkpt>
<trkpt lat="43.279749" lon="13.208284"><ele>417.21813779316386</ele><time>2020-05-16T10:48:32Z</time></trkpt>
<trkpt lat="43.279684" lon="13.208235"><ele>416.21763616271903</ele><time>2020-05-16T10:48:37Z</time></trkpt>
<trkpt lat="43.279619" lon="13.208181"><ele>415.2171345208269</ele><time>2020-05-16T10:48:42Z</time></trkpt>
<trkpt lat="43.279553" lon="13.208109"><ele>413.21661489588433</ele><time>2020-05-16T10:48:48Z</time></trkpt>
<trkpt lat="43.279485" lon="13.208034"><ele>413.2160818147415</ele><time>2020-05-16T10:48:54Z</time></trkpt>
<trkpt lat="43.279421" lon="13.207965"><ele>412.21558036417264</ele><time>2020-05-16T10:49:00Z</time></trkpt>
<trkpt lat="43.279355" lon="13.207891"><ele>410.21505957173923</ele><time>2020-05-16T10:49:06Z</time></trkpt>
<trkpt lat="43.279291" lon="13.207806"><ele>409.21455572967824</ele><time>2020-05-16T10:49:12Z</time></trkpt>
<trkpt lat="43.279229" lon="13.207731"><ele>408.2140669546778</ele><time>2020-05-16T10:49:18Z</time></trkpt>
<trkpt lat="43.279168" lon="13.207642"><ele>406.2135741757938</ele><time>2020-05-16T10:49:24Z</time></trkpt>
<trkpt lat="43.279105" lon="13.207558"><ele>405.2130733779667</ele><time>2020-05-16T10:49:30Z</time></trkpt>
<trkpt lat="43.279042" lon="13.207489"><ele>404.21257961682784</ele><time>2020-05-16T10:49:36Z</time></trkpt>
<trkpt lat="43.278971" lon="13.207414"><ele>403.2120283979792</ele><time>2020-05-16T10:49:42Z</time></trkpt>
<trkpt lat="43.278909" lon="13.207351"><ele>403.21154197542734</ele><time>2020-05-16T10:49:47Z</time></trkpt>
<trkpt lat="43.278840" lon="13.207281"><ele>402.2110063024177</ele><time>2020-05-16T10:49:53Z</time></trkpt>
<trkpt lat="43.278769" lon="13.207221"><ele>402.2104622062433</ele><time>2020-05-16T10:49:59Z</time></trkpt>
<trkpt lat="43.278705" lon="13.207160"><ele>402.2099632525227</ele><time>2020-05-16T10:50:04Z</time></trkpt>
<trkpt lat="43.278643" lon="13.207077"><ele>401.20947598031637</ele><time>2020-05-16T10:50:10Z</time></trkpt>
<trkpt lat="43.278583" lon="13.207002"><ele>401.2089965933619</ele><time>2020-05-16T10:50:16Z</time></trkpt>
<trkpt lat="43.278524" lon="13.206918"><ele>401.2085324314846</ele><time>2020-05-16T10:50:22Z</time></trkpt>
<trkpt lat="43.278475" lon="13.206840"><ele>399.20813693015566</ele><time>2020-05-16T10:50:29Z</time></trkpt>
<trkpt lat="43.278412" lon="13.206761"><ele>400.2076375068474</ele><time>2020-05-16T10:50:35Z</time></trkpt>
<trkpt lat="43.278366" lon="13.206673"><ele>399.2072607453701</ele><time>2020-05-16T10:50:41Z</time></trkpt>
<trkpt lat="43.278304" lon="13.206589"><ele>402.20676994543186</ele><time>2020-05-16T10:50:47Z</time></trkpt>
<trkpt lat="43.278263" lon="13.206491"><ele>403.20642890336774</ele><time>2020-05-16T10:50:53Z</time></trkpt>
<trkpt lat="43.278219" lon="13.206393"><ele>404.206065575495</ele><time>2020-05-16T10:51:00Z</time></trkpt>
<trkpt lat="43.278185" lon="13.206293"><ele>404.2057731097966</ele><time>2020-05-16T10:51:07Z</time></trkpt>
<trkpt lat="43.278158" lon="13.206188"><ele>405.2055283111809</ele><time>2020-05-16T10:51:14Z</time></trkpt>
<trkpt lat="43.278133" lon="13.206071"><ele>407.2052899856885</ele><time>2020-05-16T10:51:21Z</time></trkpt>
<trkpt lat="43.278150" lon="13.205965"><ele>408.2053649472588</ele><time>2020-05-16T10:51:27Z</time></trkpt>
<trkpt lat="43.278138" lon="13.205863"><ele>407.205229671194</ele><time>2020-05-16T10:51:34Z</time></trkpt>
<trkpt lat="43.278119" lon="13.205752"><ele>408.2050428501037</ele><time>2020-05-16T10:51:41Z</time></trkpt>
<trkpt lat="43.278111" lon="13.205636"><ele>407.20493645877235</ele><time>2020-05-16T10:51:48Z</time></trkpt>
<trkpt lat="43.278097" lon="13.205525"><ele>406.2047807594917</ele><time>2020-05-16T10:51:56Z</time></trkpt>
<trkpt lat="43.278088" lon="13.205422"><ele>403.20466786404074</ele><time>2020-05-16T10:52:03Z</time></trkpt>
<trkpt lat="43.278101" lon="13.205307"><ele>404.2047103307058</ele><time>2020-05-16T10:52:08Z</time></trkpt>
<trkpt lat="43.278101" lon="13.205186"><ele>405.204659279894</ele><time>2020-05-16T10:52:14Z</time></trkpt>
<trkpt lat="43.278108" lon="13.205083"><ele>406.2046603707104</ele><time>2020-05-16T10:52:19Z</time></trkpt>
<trkpt lat="43.278123" lon="13.204970"><ele>408.20472307178534</ele><time>2020-05-16T10:52:24Z</time></trkpt>
<trkpt lat="43.278116" lon="13.204860"><ele>409.20462389442304</ele><time>2020-05-16T10:52:29Z</time></trkpt>
<trkpt lat="43.278120" lon="13.204750"><ele>409.204602645643</ele><time>2020-05-16T10:52:35Z</time></trkpt>
<trkpt lat="43.278114" lon="13.204646"><ele>412.2045109230253</ele><time>2020-05-16T10:52:40Z</time></trkpt>
<trkpt lat="43.278077" lon="13.204550"><ele>414.20419565177235</ele><time>2020-05-16T10:52:46Z</time></trkpt>
<trkpt lat="43.278016" lon="13.204464"><ele>415.20371800276627</ele><time>2020-05-16T10:52:52Z</time></trkpt>
<trkpt lat="43.277953" lon="13.204386"><ele>416.2032217387706</ele><time>2020-05-16T10:52:58Z</time></trkpt>
<trkpt lat="43.277881" lon="13.204324"><ele>416.20266983625686</ele><time>2020-05-16T10:53:04Z</time></trkpt>
<trkpt lat="43.277810" lon="13.204274"><ele>418.2021319671505</ele><time>2020-05-16T10:53:09Z</time></trkpt>
<trkpt lat="43.277746" lon="13.204210"><ele>419.20163726855037</ele><time>2020-05-16T10:53:15Z</time></trkpt>
<trkpt lat="43.277682" lon="13.204148"><ele>420.201150403652</ele><time>2020-05-16T10:53:21Z</time></trkpt>
<trkpt lat="43.277610" lon="13.204083"><ele>421.20059537129094</ele><time>2020-05-16T10:53:27Z</time></trkpt>
<trkpt lat="43.277537" lon="13.204024"><ele>420.2000424768531</ele><time>2020-05-16T10:53:34Z</time></trkpt>
<trkpt lat="43.277468" lon="13.203970"><ele>420.1995143604084</ele><time>2020-05-16T10:53:40Z</time></trkpt>
<trkpt lat="43.277389" lon="13.203911"><ele>418.1989176228793</ele><time>2020-05-16T10:53:47Z</time></trkpt>
<trkpt lat="43.277316" lon="13.203863"><ele>421.19836322189127</ele><time>2020-05-16T10:53:52Z</time></trkpt>
<trkpt lat="43.277248" lon="13.203813"><ele>420.19785120035834</ele><time>2020-05-16T10:53:58Z</time></trkpt>
<trkpt lat="43.277173" lon="13.203780"><ele>421.19729094728126</ele><time>2020-05-16T10:54:03Z</time></trkpt>
<trkpt lat="43.277097" lon="13.203740"><ele>421.1967167941194</ele><time>2020-05-16T10:54:08Z</time></trkpt>
<trkpt lat="43.277016" lon="13.203708"><ele>419.19611853323283</ele><time>2020-05-16T10:54:14Z</time></trkpt>
<trkpt lat="43.276936" lon="13.203678"><ele>419.1955259591186</ele><time>2020-05-16T10:54:19Z</time></trkpt>
<trkpt lat="43.276860" lon="13.203639"><ele>421.1949538266116</ele><time>2020-05-16T10:54:24Z</time></trkpt>
<trkpt lat="43.276780" lon="13.203616"><ele>421.1943675093547</ele><time>2020-05-16T10:54:29Z</time></trkpt>
<trkpt lat="43.276695" lon="13.203601"><ele>420.19374414257726</ele><time>2020-05-16T10:54:35Z</time></trkpt>
<trkpt lat="43.276613" lon="13.203601"><ele>418.1931446543717</ele><time>2020-05-16T10:54:41Z</time></trkpt>
<trkpt lat="43.276536" lon="13.203613"><ele>418.19259118293206</ele><time>2020-05-16T10:54:46Z</time></trkpt>
<trkpt lat="43.276456" lon="13.203628"><ele>418.1920155138282</ele><time>2020-05-16T10:54:52Z</time></trkpt>
<trkpt lat="43.276372" lon="13.203650"><ele>418.19142123827874</ele><time>2020-05-16T10:54:58Z</time></trkpt>
<trkpt lat="43.276294" lon="13.203685"><ele>417.1908637877805</ele><time>2020-05-16T10:55:04Z</time></trkpt>
<trkpt lat="43.276216" lon="13.203710"><ele>416.1903104590159</ele><time>2020-05-16T10:55:10Z</time></trkpt>
<trkpt lat="43.276139" lon="13.203740"><ele>416.1897621852947</ele><time>2020-05-16T10:55:15Z</time></trkpt>
<trkpt lat="43.276060" lon="13.203754"><ele>416.18919567406186</ele><time>2020-05-16T10:55:20Z</time></trkpt>
<trkpt lat="43.275973" lon="13.203758"><ele>415.18856516170615</ele><time>2020-05-16T10:55:26Z</time></trkpt>
<trkpt lat="43.275884" lon="13.203756"><ele>413.1879218202434</ele><time>2020-05-16T10:55:32Z</time></trkpt>
<trkpt lat="43.275799" lon="13.203734"><ele>414.18729432920145</ele><time>2020-05-16T10:55:38Z</time></trkpt>
<trkpt lat="43.275726" lon="13.203697"><ele>415.1867490453744</ele><time>2020-05-16T10:55:43Z</time></trkpt>
<trkpt lat="43.275653" lon="13.203666"><ele>415.1862043289242</ele><time>2020-05-16T10:55:48Z</time></trkpt>
<trkpt lat="43.275567" lon="13.203637"><ele>416.18557189907744</ele><time>2020-05-16T10:55:54Z</time></trkpt>
<trkpt lat="43.275486" lon="13.203613"><ele>416.1849748334978</ele><time>2020-05-16T10:56:00Z</time></trkpt>
<trkpt lat="43.275405" lon="13.203591"><ele>418.1843741264728</ele><time>2020-05-16T10:56:06Z</time></trkpt>
<trkpt lat="43.275322" lon="13.203568"><ele>419.18376338222384</ele><time>2020-05-16T10:56:12Z</time></trkpt>
<trkpt lat="43.275239" lon="13.203546"><ele>419.18315636012613</ele><time>2020-05-16T10:56:18Z</time></trkpt>
<trkpt lat="43.275157" lon="13.203523"><ele>419.182547240456</ele><time>2020-05-16T10:56:24Z</time></trkpt>
<trkpt lat="43.275075" lon="13.203502"><ele>419.1819478195298</ele><time>2020-05-16T10:56:30Z</time></trkpt>
<trkpt lat="43.274992" lon="13.203477"><ele>420.1813316500246</ele><time>2020-05-16T10:56:36Z</time></trkpt>
<trkpt lat="43.274910" lon="13.203452"><ele>420.18072696646334</ele><time>2020-05-16T10:56:42Z</time></trkpt>
<trkpt lat="43.274826" lon="13.203438"><ele>421.18011042545896</ele><time>2020-05-16T10:56:48Z</time></trkpt>
<trkpt lat="43.274746" lon="13.203419"><ele>421.17952661731925</ele><time>2020-05-16T10:56:54Z</time></trkpt>
<trkpt lat="43.274660" lon="13.203406"><ele>420.17889904755555</ele><time>2020-05-16T10:57:01Z</time></trkpt>
<trkpt lat="43.274581" lon="13.203386"><ele>419.1783114868604</ele><time>2020-05-16T10:57:07Z</time></trkpt>
<trkpt lat="43.274499" lon="13.203372"><ele>419.17771106855224</ele><time>2020-05-16T10:57:13Z</time></trkpt>
<trkpt lat="43.274420" lon="13.203350"><ele>419.17712939120076</ele><time>2020-05-16T10:57:18Z</time></trkpt>
<trkpt lat="43.274338" lon="13.203326"><ele>419.17652912296944</ele><time>2020-05-16T10:57:24Z</time></trkpt>
<trkpt lat="43.274265" lon="13.203295"><ele>419.1759849971669</ele><time>2020-05-16T10:57:29Z</time></trkpt>
<trkpt lat="43.274189" lon="13.203263"><ele>419.1754213115141</ele><time>2020-05-16T10:57:35Z</time></trkpt>
<trkpt lat="43.274108" lon="13.203231"><ele>418.17482308330887</ele><time>2020-05-16T10:57:41Z</time></trkpt>
<trkpt lat="43.274033" lon="13.203195"><ele>417.1742664927107</ele><time>2020-05-16T10:57:47Z</time></trkpt>
<trkpt lat="43.273957" lon="13.203160"><ele>416.1737003943474</ele><time>2020-05-16T10:57:53Z</time></trkpt>
<trkpt lat="43.273874" lon="13.203132"><ele>415.173086495241</ele><time>2020-05-16T10:57:59Z</time></trkpt>
<trkpt lat="43.273791" lon="13.203108"><ele>413.1724774810318</ele><time>2020-05-16T10:58:05Z</time></trkpt>
<trkpt lat="43.273704" lon="13.203085"><ele>413.17183833249527</ele><time>2020-05-16T10:58:12Z</time></trkpt>
<trkpt lat="43.273619" lon="13.203079"><ele>411.17122018124303</ele><time>2020-05-16T10:58:18Z</time></trkpt>
<trkpt lat="43.273536" lon="13.203083"><ele>408.1706233170249</ele><time>2020-05-16T10:58:25Z</time></trkpt>
<trkpt lat="43.273456" lon="13.203087"><ele>406.17004205993896</ele><time>2020-05-16T10:58:31Z</time></trkpt>
<trkpt lat="43.273371" lon="13.203092"><ele>405.16942479366674</ele><time>2020-05-16T10:58:37Z</time></trkpt>
<trkpt lat="43.273289" lon="13.203088"><ele>405.16882993308394</ele><time>2020-05-16T10:58:43Z</time></trkpt>
<trkpt lat="43.273201" lon="13.203074"><ele>404.16819053357347</ele><time>2020-05-16T10:58:49Z</time></trkpt>
<trkpt lat="43.273127" lon="13.203053"><ele>403.16764372086914</ele><time>2020-05-16T10:58:54Z</time></trkpt>
<trkpt lat="43.273042" lon="13.203040"><ele>402.16702379313716</ele><time>2020-05-16T10:59:00Z</time></trkpt>
<trkpt lat="43.272960" lon="13.203034"><ele>400.16642998610047</ele><time>2020-05-16T10:59:06Z</time></trkpt>
<trkpt lat="43.272878" lon="13.203024"><ele>399.16583105731144</ele><time>2020-05-16T10:59:12Z</time></trkpt>
<trkpt lat="43.272797" lon="13.203001"><ele>398.16523142347995</ele><time>2020-05-16T10:59:18Z</time></trkpt>
<trkpt lat="43.272717" lon="13.202951"><ele>397.1646322846418</ele><time>2020-05-16T10:59:24Z</time></trkpt>
<trkpt lat="43.272649" lon="13.202893"><ele>396.1641205428788</ele><time>2020-05-16T10:59:30Z</time></trkpt>
<trkpt lat="43.272584" lon="13.202824"><ele>394.16362800651154</ele><time>2020-05-16T10:59:36Z</time></trkpt>
<trkpt lat="43.272516" lon="13.202751"><ele>393.1631090141548</ele><time>2020-05-16T10:59:43Z</time></trkpt>
<trkpt lat="43.272462" lon="13.202677"><ele>391.1626876113617</ele><time>2020-05-16T10:59:49Z</time></trkpt>
<trkpt lat="43.272407" lon="13.202598"><ele>391.16226174534546</ele><time>2020-05-16T10:59:55Z</time></trkpt>
<trkpt lat="43.272354" lon="13.202514"><ele>389.16184584974803</ele><time>2020-05-16T11:00:01Z</time></trkpt>
<trkpt lat="43.272305" lon="13.202427"><ele>388.1614614396953</ele><time>2020-05-16T11:00:07Z</time></trkpt>
<trkpt lat="43.272250" lon="13.202336"><ele>386.161030524485</ele><time>2020-05-16T11:00:14Z</time></trkpt>
<trkpt lat="43.272196" lon="13.202247"><ele>384.16061136048876</ele><time>2020-05-16T11:00:21Z</time></trkpt>
<trkpt lat="43.272145" lon="13.202165"><ele>384.1602093715127</ele><time>2020-05-16T11:00:27Z</time></trkpt>
<trkpt lat="43.272095" lon="13.202082"><ele>383.15981875683065</ele><time>2020-05-16T11:00:33Z</time></trkpt>
<trkpt lat="43.272042" lon="13.201989"><ele>383.1594066814926</ele><time>2020-05-16T11:00:44Z</time></trkpt>
<trkpt lat="43.271989" lon="13.201906"><ele>381.15899406274195</ele><time>2020-05-16T11:00:50Z</time></trkpt>
<trkpt lat="43.271931" lon="13.201820"><ele>381.15853846600885</ele><time>2020-05-16T11:00:56Z</time></trkpt>
<trkpt lat="43.271866" lon="13.201748"><ele>381.15804379650524</ele><time>2020-05-16T11:01:02Z</time></trkpt>
<trkpt lat="43.271785" lon="13.201700"><ele>381.15744612989397</ele><time>2020-05-16T11:01:08Z</time></trkpt>
<trkpt lat="43.271702" lon="13.201655"><ele>380.1568278120267</ele><time>2020-05-16T11:01:16Z</time></trkpt>
<trkpt lat="43.271624" lon="13.201682"><ele>381.1562712757843</ele><time>2020-05-16T11:01:22Z</time></trkpt>
<trkpt lat="43.271536" lon="13.201659"><ele>381.15563001177435</ele><time>2020-05-16T11:01:31Z</time></trkpt>
<trkpt lat="43.271447" lon="13.201643"><ele>381.15498545379774</ele><time>2020-05-16T11:01:40Z</time></trkpt>
<trkpt lat="43.271363" lon="13.201656"><ele>382.1543766531211</ele><time>2020-05-16T11:01:48Z</time></trkpt>
<trkpt lat="43.271275" lon="13.201677"><ele>383.15375025301404</ele><time>2020-05-16T11:01:55Z</time></trkpt>
<trkpt lat="43.271204" lon="13.201729"><ele>380.15325281839034</ele><time>2020-05-16T11:04:00Z</time></trkpt>
<trkpt lat="43.271126" lon="13.201773"><ele>380.15270842906654</ele><time>2020-05-16T11:04:09Z</time></trkpt>
<trkpt lat="43.271053" lon="13.201831"><ele>380.1521987337802</ele><time>2020-05-16T11:04:15Z</time></trkpt>
<trkpt lat="43.270980" lon="13.201902"><ele>380.1516956840088</ele><time>2020-05-16T11:04:24Z</time></trkpt>
<trkpt lat="43.270951" lon="13.202013"><ele>378.15152095383394</ele><time>2020-05-16T11:04:31Z</time></trkpt>
<trkpt lat="43.270924" lon="13.202127"><ele>377.15136633368724</ele><time>2020-05-16T11:04:39Z</time></trkpt>
<trkpt lat="43.270922" lon="13.202247"><ele>377.1513901193356</ele><time>2020-05-16T11:04:53Z</time></trkpt>
<trkpt lat="43.270889" lon="13.202359"><ele>377.151188136425</ele><time>2020-05-16T11:05:00Z</time></trkpt>
<trkpt lat="43.270851" lon="13.202466"><ele>375.1509488615142</ele><time>2020-05-16T11:05:08Z</time></trkpt>
<trkpt lat="43.270799" lon="13.202557"><ele>375.15060285725366</ele><time>2020-05-16T11:05:13Z</time></trkpt>
<trkpt lat="43.270745" lon="13.202639"><ele>376.1502380533025</ele><time>2020-05-16T11:05:18Z</time></trkpt>
<trkpt lat="43.270709" lon="13.202750"><ele>376.150016611512</ele><time>2020-05-16T11:05:24Z</time></trkpt>
<trkpt lat="43.270663" lon="13.202855"><ele>375.1497185795817</ele><time>2020-05-16T11:05:30Z</time></trkpt>
<trkpt lat="43.270633" lon="13.202971"><ele>376.1495360943777</ele><time>2020-05-16T11:05:36Z</time></trkpt>
<trkpt lat="43.270576" lon="13.203061"><ele>375.1491557045799</ele><time>2020-05-16T11:05:42Z</time></trkpt>
<trkpt lat="43.270501" lon="13.203103"><ele>371.14862158956316</ele><time>2020-05-16T11:05:49Z</time></trkpt>
<trkpt lat="43.270419" lon="13.203132"><ele>370.14804223156415</ele><time>2020-05-16T11:05:56Z</time></trkpt>
<trkpt lat="43.270347" lon="13.203162"><ele>370.14753038433713</ele><time>2020-05-16T11:06:01Z</time></trkpt>
<trkpt lat="43.270264" lon="13.203191"><ele>370.1469364180546</ele><time>2020-05-16T11:06:07Z</time></trkpt>
<trkpt lat="43.270177" lon="13.203206"><ele>371.1463060737256</ele><time>2020-05-16T11:06:13Z</time></trkpt>
<trkpt lat="43.270096" lon="13.203201"><ele>370.1457232822298</ele><time>2020-05-16T11:06:19Z</time></trkpt>
<trkpt lat="43.270017" lon="13.203185"><ele>371.14514317770886</ele><time>2020-05-16T11:06:25Z</time></trkpt>
<trkpt lat="43.269939" lon="13.203156"><ele>371.1445667902757</ele><time>2020-05-16T11:06:32Z</time></trkpt>
<trkpt lat="43.269864" lon="13.203107"><ele>373.1440079051738</ele><time>2020-05-16T11:06:38Z</time></trkpt>
<trkpt lat="43.269798" lon="13.203050"><ele>374.1435115062984</ele><time>2020-05-16T11:06:44Z</time></trkpt>
<trkpt lat="43.269728" lon="13.202996"><ele>376.14298656632224</ele><time>2020-05-16T11:06:50Z</time></trkpt>
<trkpt lat="43.269644" lon="13.202989"><ele>377.14237386934957</ele><time>2020-05-16T11:06:56Z</time></trkpt>
<trkpt lat="43.269569" lon="13.203028"><ele>378.14184470576373</ele><time>2020-05-16T11:07:02Z</time></trkpt>
<trkpt lat="43.269505" lon="13.203113"><ele>377.14140765627775</ele><time>2020-05-16T11:07:09Z</time></trkpt>
<trkpt lat="43.269449" lon="13.203194"><ele>379.1410247617258</ele><time>2020-05-16T11:07:15Z</time></trkpt>
<trkpt lat="43.269407" lon="13.203291"><ele>380.14074952744704</ele><time>2020-05-16T11:07:21Z</time></trkpt>
<trkpt lat="43.269374" lon="13.203398"><ele>380.14054898522636</ele><time>2020-05-16T11:07:28Z</time></trkpt>
<trkpt lat="43.269359" lon="13.203510"><ele>381.140468752977</ele><time>2020-05-16T11:07:34Z</time></trkpt>
<trkpt lat="43.269342" lon="13.203623"><ele>382.14038265045565</ele><time>2020-05-16T11:07:40Z</time></trkpt>
<trkpt lat="43.269318" lon="13.203735"><ele>383.14024209590815</ele><time>2020-05-16T11:07:46Z</time></trkpt>
<trkpt lat="43.269301" lon="13.203844"><ele>383.14015311133477</ele><time>2020-05-16T11:07:52Z</time></trkpt>
<trkpt lat="43.269291" lon="13.203959"><ele>383.1401188799956</ele><time>2020-05-16T11:07:58Z</time></trkpt>
<trkpt lat="43.269282" lon="13.204065"><ele>382.14008789087046</ele><time>2020-05-16T11:08:04Z</time></trkpt>
<trkpt lat="43.269280" lon="13.204184"><ele>382.1401047148049</ele><time>2020-05-16T11:08:10Z</time></trkpt>
<trkpt lat="43.269276" lon="13.204294"><ele>383.14010959117445</ele><time>2020-05-16T11:08:16Z</time></trkpt>
<trkpt lat="43.269297" lon="13.204401"><ele>382.14029823511623</ele><time>2020-05-16T11:08:22Z</time></trkpt>
<trkpt lat="43.269341" lon="13.204493"><ele>382.1406476838287</ele><time>2020-05-16T11:08:28Z</time></trkpt>
<trkpt lat="43.269373" lon="13.204606"><ele>384.14091049446426</ele><time>2020-05-16T11:08:35Z</time></trkpt>
<trkpt lat="43.269417" lon="13.204705"><ele>386.1412614199064</ele><time>2020-05-16T11:08:41Z</time></trkpt>
<trkpt lat="43.269469" lon="13.204805"><ele>390.14167309225866</ele><time>2020-05-16T11:08:47Z</time></trkpt>
<trkpt lat="43.269501" lon="13.204912"><ele>390.1419427360702</ele><time>2020-05-16T11:08:54Z</time></trkpt>
<trkpt lat="43.269528" lon="13.205027"><ele>391.1421756044681</ele><time>2020-05-16T11:09:00Z</time></trkpt>
<trkpt lat="43.269551" lon="13.205145"><ele>387.142375681358</ele><time>2020-05-16T11:09:08Z</time></trkpt>
<trkpt lat="43.269535" lon="13.205249"><ele>387.1422928012501</ele><time>2020-05-16T11:09:14Z</time></trkpt>
<trkpt lat="43.269516" lon="13.205357"><ele>387.1421891304737</ele><time>2020-05-16T11:09:20Z</time></trkpt>
<trkpt lat="43.269494" lon="13.205471"><ele>388.1420636663105</ele><time>2020-05-16T11:09:26Z</time></trkpt>
<trkpt lat="43.269470" lon="13.205573"><ele>388.1419184306817</ele><time>2020-05-16T11:09:32Z</time></trkpt>
<trkpt lat="43.269447" lon="13.205677"><ele>388.141786052457</ele><time>2020-05-16T11:09:38Z</time></trkpt>
<trkpt lat="43.269427" lon="13.205779"><ele>388.14166721806794</ele><time>2020-05-16T11:09:43Z</time></trkpt>
<trkpt lat="43.269435" lon="13.205896"><ele>389.1417689200204</ele><time>2020-05-16T11:09:49Z</time></trkpt>
<trkpt lat="43.269427" lon="13.206008"><ele>388.14174056518567</ele><time>2020-05-16T11:09:55Z</time></trkpt>
<trkpt lat="43.269425" lon="13.206131"><ele>387.1417672336506</ele><time>2020-05-16T11:10:02Z</time></trkpt>
<trkpt lat="43.269432" lon="13.206251"><ele>386.1418508495063</ele><time>2020-05-16T11:10:08Z</time></trkpt>
<trkpt lat="43.269433" lon="13.206367"><ele>389.1418997783644</ele><time>2020-05-16T11:10:14Z</time></trkpt>
<trkpt lat="43.269441" lon="13.206471"><ele>390.141988225281</ele><time>2020-05-16T11:10:19Z</time></trkpt>
<trkpt lat="43.269457" lon="13.206581"><ele>390.1421356891986</ele><time>2020-05-16T11:10:25Z</time></trkpt>
<trkpt lat="43.269468" lon="13.206695"><ele>389.1422548008619</ele><time>2020-05-16T11:10:32Z</time></trkpt>
<trkpt lat="43.269471" lon="13.206807"><ele>388.1423106002925</ele><time>2020-05-16T11:10:37Z</time></trkpt>
<trkpt lat="43.269471" lon="13.206930"><ele>386.1423533614747</ele><time>2020-05-16T11:10:43Z</time></trkpt>
<trkpt lat="43.269473" lon="13.207050"><ele>387.14240170793306</ele><time>2020-05-16T11:10:49Z</time></trkpt>
<trkpt lat="43.269472" lon="13.207162"><ele>385.14243179299604</ele><time>2020-05-16T11:10:55Z</time></trkpt>
<trkpt lat="43.269480" lon="13.207267"><ele>386.14252465080585</ele><time>2020-05-16T11:11:00Z</time></trkpt>
<trkpt lat="43.269477" lon="13.207383"><ele>387.1425373386027</ele><time>2020-05-16T11:11:06Z</time></trkpt>
<trkpt lat="43.269485" lon="13.207488"><ele>388.142628584875</ele><time>2020-05-16T11:11:12Z</time></trkpt>
<trkpt lat="43.269485" lon="13.207599"><ele>388.1426617169474</ele><time>2020-05-16T11:11:18Z</time></trkpt>
<trkpt lat="43.269483" lon="13.207716"><ele>389.14268433458165</ele><time>2020-05-16T11:11:24Z</time></trkpt>
<trkpt lat="43.269468" lon="13.207831"><ele>389.14260851033356</ele><time>2020-05-16T11:11:30Z</time></trkpt>
<trkpt lat="43.269456" lon="13.207943"><ele>389.14255924583887</ele><time>2020-05-16T11:11:36Z</time></trkpt>
<trkpt lat="43.269443" lon="13.208049"><ele>389.1424905501039</ele><time>2020-05-16T11:11:42Z</time></trkpt>
<trkpt lat="43.269420" lon="13.208167"><ele>389.14235981814875</ele><time>2020-05-16T11:11:48Z</time></trkpt>
<trkpt lat="43.269396" lon="13.208276"><ele>390.1422232224612</ele><time>2020-05-16T11:11:54Z</time></trkpt>
<trkpt lat="43.269373" lon="13.208378"><ele>390.1420826844343</ele><time>2020-05-16T11:11:59Z</time></trkpt>
<trkpt lat="43.269344" lon="13.208490"><ele>391.14190799653625</ele><time>2020-05-16T11:12:05Z</time></trkpt>
<trkpt lat="43.269320" lon="13.208597"><ele>390.1417612867914</ele><time>2020-05-16T11:12:11Z</time></trkpt>
<trkpt lat="43.269291" lon="13.208699"><ele>390.14157865731534</ele><time>2020-05-16T11:12:17Z</time></trkpt>
<trkpt lat="43.269266" lon="13.208791"><ele>390.1414238126635</ele><time>2020-05-16T11:12:22Z</time></trkpt>
<trkpt lat="43.269233" lon="13.208889"><ele>390.1412159227175</ele><time>2020-05-16T11:12:27Z</time></trkpt>
<trkpt lat="43.269209" lon="13.208999"><ele>389.1410729045985</ele><time>2020-05-16T11:12:33Z</time></trkpt>
<trkpt lat="43.269183" lon="13.209099"><ele>389.1409133679775</ele><time>2020-05-16T11:12:38Z</time></trkpt>
<trkpt lat="43.269161" lon="13.209215"><ele>389.14078119985675</ele><time>2020-05-16T11:12:44Z</time></trkpt>
<trkpt lat="43.269148" lon="13.209337"><ele>389.1407228507896</ele><time>2020-05-16T11:12:51Z</time></trkpt>
<trkpt lat="43.269146" lon="13.209450"><ele>388.1407464917561</ele><time>2020-05-16T11:12:58Z</time></trkpt>
<trkpt lat="43.269153" lon="13.209569"><ele>383.1408348771385</ele><time>2020-05-16T11:13:06Z</time></trkpt>
<trkpt lat="43.269178" lon="13.209686"><ele>381.14105578893145</ele><time>2020-05-16T11:13:13Z</time></trkpt>
<trkpt lat="43.269187" lon="13.209799"><ele>379.14115604013745</ele><time>2020-05-16T11:13:20Z</time></trkpt>
<trkpt lat="43.269200" lon="13.209895"><ele>377.14128022821717</ele><time>2020-05-16T11:13:25Z</time></trkpt>
<trkpt lat="43.269207" lon="13.210000"><ele>378.1413635382838</ele><time>2020-05-16T11:13:29Z</time></trkpt>
<trkpt lat="43.269194" lon="13.210109"><ele>377.14130274684914</ele><time>2020-05-16T11:13:35Z</time></trkpt>
<trkpt lat="43.269159" lon="13.210207"><ele>378.14107638825607</ele><time>2020-05-16T11:13:41Z</time></trkpt>
<trkpt lat="43.269113" lon="13.210290"><ele>377.14075952388185</ele><time>2020-05-16T11:13:47Z</time></trkpt>
<trkpt lat="43.269056" lon="13.210385"><ele>376.14037112539256</ele><time>2020-05-16T11:13:53Z</time></trkpt>
<trkpt lat="43.268997" lon="13.210471"><ele>376.13995837971936</ele><time>2020-05-16T11:14:00Z</time></trkpt>
<trkpt lat="43.268916" lon="13.210518"><ele>375.13937543612104</ele><time>2020-05-16T11:14:08Z</time></trkpt>
<trkpt lat="43.268845" lon="13.210559"><ele>376.13887030902686</ele><time>2020-05-16T11:14:15Z</time></trkpt>
<trkpt lat="43.268757" lon="13.210567"><ele>374.13822507461623</ele><time>2020-05-16T11:14:22Z</time></trkpt>
<trkpt lat="43.268669" lon="13.210579"><ele>375.13757655560664</ele><time>2020-05-16T11:14:27Z</time></trkpt>
<trkpt lat="43.268597" lon="13.210557"><ele>376.1370431422557</ele><time>2020-05-16T11:14:32Z</time></trkpt>
<trkpt lat="43.268529" lon="13.210509"><ele>376.13652188244043</ele><time>2020-05-16T11:14:38Z</time></trkpt>
<trkpt lat="43.268466" lon="13.210443"><ele>375.1360389555323</ele><time>2020-05-16T11:14:44Z</time></trkpt>
<trkpt lat="43.268409" lon="13.210385"><ele>374.1356062677177</ele><time>2020-05-16T11:14:49Z</time></trkpt>
<trkpt lat="43.268340" lon="13.210322"><ele>375.1350759621963</ele><time>2020-05-16T11:14:55Z</time></trkpt>
<trkpt lat="43.268272" lon="13.210265"><ele>374.1345584545795</ele><time>2020-05-16T11:15:02Z</time></trkpt>
<trkpt lat="43.268210" lon="13.210200"><ele>374.1340817183975</ele><time>2020-05-16T11:15:07Z</time></trkpt>
<trkpt lat="43.268156" lon="13.210123"><ele>372.1336662371283</ele><time>2020-05-16T11:15:12Z</time></trkpt>
<trkpt lat="43.268103" lon="13.210036"><ele>370.13324685903683</ele><time>2020-05-16T11:15:18Z</time></trkpt>
<trkpt lat="43.268040" lon="13.209955"><ele>370.1327597286584</ele><time>2020-05-16T11:15:23Z</time></trkpt>
<trkpt lat="43.267987" lon="13.209877"><ele>370.13234547933234</ele><time>2020-05-16T11:15:28Z</time></trkpt>
<trkpt lat="43.267931" lon="13.209790"><ele>370.13191197311465</ele><time>2020-05-16T11:15:34Z</time></trkpt>
<trkpt lat="43.267886" lon="13.209701"><ele>372.13155301766545</ele><time>2020-05-16T11:15:39Z</time></trkpt>
<trkpt lat="43.267836" lon="13.209614"><ele>372.1311596690606</ele><time>2020-05-16T11:15:45Z</time></trkpt>
<trkpt lat="43.267776" lon="13.209536"><ele>372.13069739113854</ele><time>2020-05-16T11:15:51Z</time></trkpt>
<trkpt lat="43.267714" lon="13.209450"><ele>370.13022129679183</ele><time>2020-05-16T11:15:58Z</time></trkpt>
<trkpt lat="43.267656" lon="13.209377"><ele>371.12976926740566</ele><time>2020-05-16T11:16:04Z</time></trkpt>
<trkpt lat="43.267599" lon="13.209300"><ele>368.1293340416049</ele><time>2020-05-16T11:16:11Z</time></trkpt>
<trkpt lat="43.267535" lon="13.209219"><ele>373.1288347897808</ele><time>2020-05-16T11:16:17Z</time></trkpt>
<trkpt lat="43.267477" lon="13.209153"><ele>373.12839374026896</ele><time>2020-05-16T11:16:22Z</time></trkpt>
<trkpt lat="43.267409" lon="13.209088"><ele>373.1278760090732</ele><time>2020-05-16T11:16:28Z</time></trkpt>
<trkpt lat="43.267356" lon="13.209014"><ele>373.12746380596616</ele><time>2020-05-16T11:16:33Z</time></trkpt>
<trkpt lat="43.267298" lon="13.208920"><ele>373.1270137680042</ele><time>2020-05-16T11:16:38Z</time></trkpt>
<trkpt lat="43.267239" lon="13.208845"><ele>374.12655982460905</ele><time>2020-05-16T11:16:44Z</time></trkpt>
<trkpt lat="43.267186" lon="13.208765"><ele>376.12614802032977</ele><time>2020-05-16T11:16:49Z</time></trkpt>
<trkpt lat="43.267130" lon="13.208684"><ele>376.12571775695136</ele><time>2020-05-16T11:16:56Z</time></trkpt>
<trkpt lat="43.267057" lon="13.208638"><ele>375.1251658895475</ele><time>2020-05-16T11:17:01Z</time></trkpt>
<trkpt lat="43.266983" lon="13.208599"><ele>373.12461738499337</ele><time>2020-05-16T11:17:07Z</time></trkpt>
<trkpt lat="43.266899" lon="13.208573"><ele>373.1239932063408</ele><time>2020-05-16T11:17:13Z</time></trkpt>
<trkpt lat="43.266821" lon="13.208564"><ele>374.1234140310151</ele><time>2020-05-16T11:17:19Z</time></trkpt>
<trkpt lat="43.266743" lon="13.208568"><ele>376.1228430702946</ele><time>2020-05-16T11:17:24Z</time></trkpt>
<trkpt lat="43.266656" lon="13.208566"><ele>376.1222041772195</ele><time>2020-05-16T11:17:31Z</time></trkpt>
<trkpt lat="43.266578" lon="13.208563"><ele>375.1216336275993</ele><time>2020-05-16T11:17:37Z</time></trkpt>
<trkpt lat="43.266493" lon="13.208553"><ele>374.1210063405901</ele><time>2020-05-16T11:17:43Z</time></trkpt>
<trkpt lat="43.266410" lon="13.208536"><ele>373.12039472411095</ele><time>2020-05-16T11:17:49Z</time></trkpt>
<trkpt lat="43.266334" lon="13.208508"><ele>373.1198283905418</ele><time>2020-05-16T11:17:55Z</time></trkpt>
<trkpt lat="43.266261" lon="13.208465"><ele>372.1192806632614</ele><time>2020-05-16T11:18:01Z</time></trkpt>
<trkpt lat="43.266176" lon="13.208426"><ele>373.1186506396791</ele><time>2020-05-16T11:18:08Z</time></trkpt>
<trkpt lat="43.266102" lon="13.208381"><ele>374.1180964921241</ele><time>2020-05-16T11:18:16Z</time></trkpt>
<trkpt lat="43.266026" lon="13.208347"><ele>376.11752791615925</ele><time>2020-05-16T11:18:23Z</time></trkpt>
<trkpt lat="43.265944" lon="13.208327"><ele>376.11692320890745</ele><time>2020-05-16T11:18:31Z</time></trkpt>
<trkpt lat="43.265865" lon="13.208315"><ele>376.1163390358149</ele><time>2020-05-16T11:18:39Z</time></trkpt>
<trkpt lat="43.265779" lon="13.208297"><ele>378.1157070212138</ele><time>2020-05-16T11:18:47Z</time></trkpt>
<trkpt lat="43.265699" lon="13.208287"><ele>380.11511506038323</ele><time>2020-05-16T11:18:56Z</time></trkpt>
<trkpt lat="43.265616" lon="13.208270"><ele>384.1145051552909</ele><time>2020-05-16T11:19:06Z</time></trkpt>
<trkpt lat="43.265530" lon="13.208266"><ele>383.11386624718955</ele><time>2020-05-16T11:19:14Z</time></trkpt>
<trkpt lat="43.265442" lon="13.208289"><ele>385.1132330335802</ele><time>2020-05-16T11:19:21Z</time></trkpt>
<trkpt lat="43.265365" lon="13.208340"><ele>385.11267833060157</ele><time>2020-05-16T11:19:27Z</time></trkpt>
<trkpt lat="43.265296" lon="13.208399"><ele>384.1121844321144</ele><time>2020-05-16T11:19:33Z</time></trkpt>
<trkpt lat="43.265215" lon="13.208449"><ele>385.11160587064194</ele><time>2020-05-16T11:19:39Z</time></trkpt>
<trkpt lat="43.265144" lon="13.208504"><ele>386.1111000384825</ele><time>2020-05-16T11:19:45Z</time></trkpt>
<trkpt lat="43.265077" lon="13.208546"><ele>387.1106166961058</ele><time>2020-05-16T11:19:51Z</time></trkpt>
<trkpt lat="43.265006" lon="13.208589"><ele>386.110106230365</ele><time>2020-05-16T11:19:56Z</time></trkpt>
<trkpt lat="43.264928" lon="13.208637"><ele>385.10954717365087</ele><time>2020-05-16T11:20:02Z</time></trkpt>
<trkpt lat="43.264874" lon="13.208720"><ele>385.10916674144494</ele><time>2020-05-16T11:20:10Z</time></trkpt>
<trkpt lat="43.264791" lon="13.208756"><ele>385.1085699905016</ele><time>2020-05-16T11:21:40Z</time></trkpt>
<trkpt lat="43.264712" lon="13.208789"><ele>381.1079925057221</ele><time>2020-05-16T11:23:37Z</time></trkpt>
<trkpt lat="43.264642" lon="13.208834"><ele>382.10749497269745</ele><time>2020-05-16T11:23:44Z</time></trkpt>
<trkpt lat="43.264569" lon="13.208863"><ele>383.10696617332144</ele><time>2020-05-16T11:23:49Z</time></trkpt>
<trkpt lat="43.264490" lon="13.208897"><ele>381.1063922942453</ele><time>2020-05-16T11:23:55Z</time></trkpt>
<trkpt lat="43.264403" lon="13.208915"><ele>381.10575430473085</ele><time>2020-05-16T11:24:02Z</time></trkpt>
<trkpt lat="43.264315" lon="13.208922"><ele>381.1051101799201</ele><time>2020-05-16T11:24:09Z</time></trkpt>
<trkpt lat="43.264231" lon="13.208883"><ele>380.10448316957775</ele><time>2020-05-16T11:24:16Z</time></trkpt>
<trkpt lat="43.264171" lon="13.208793"><ele>380.1040229456446</ele><time>2020-05-16T11:24:23Z</time></trkpt>
<trkpt lat="43.264145" lon="13.208683"><ele>380.10381267865046</ele><time>2020-05-16T11:24:29Z</time></trkpt>
<trkpt lat="43.264130" lon="13.208564"><ele>378.10367104054865</ele><time>2020-05-16T11:24:36Z</time></trkpt>
<trkpt lat="43.264110" lon="13.208458"><ele>377.10350087319307</ele><time>2020-05-16T11:24:42Z</time></trkpt>
<trkpt lat="43.264092" lon="13.208344"><ele>378.10334320816935</ele><time>2020-05-16T11:24:48Z</time></trkpt>
<trkpt lat="43.264068" lon="13.208241"><ele>378.103147805487</ele><time>2020-05-16T11:24:54Z</time></trkpt>
<trkpt lat="43.264044" lon="13.208131"><ele>376.1029412271424</ele><time>2020-05-16T11:25:00Z</time></trkpt>
<trkpt lat="43.264016" lon="13.208025"><ele>376.10271118347254</ele><time>2020-05-16T11:25:06Z</time></trkpt>
<trkpt lat="43.263993" lon="13.207921"><ele>375.10252044191003</ele><time>2020-05-16T11:25:12Z</time></trkpt>
<trkpt lat="43.263982" lon="13.207813"><ele>374.10242089719844</ele><time>2020-05-16T11:25:18Z</time></trkpt>
<trkpt lat="43.263975" lon="13.207701"><ele>374.1023443283989</ele><time>2020-05-16T11:25:24Z</time></trkpt>
<trkpt lat="43.263964" lon="13.207591"><ele>374.1022391008269</ele><time>2020-05-16T11:25:30Z</time></trkpt>
<trkpt lat="43.263968" lon="13.207469"><ele>372.10223637284747</ele><time>2020-05-16T11:25:37Z</time></trkpt>
<trkpt lat="43.263984" lon="13.207352"><ele>371.1023294463335</ele><time>2020-05-16T11:25:44Z</time></trkpt>
<trkpt lat="43.264001" lon="13.207248"><ele>369.102432366238</ele><time>2020-05-16T11:25:50Z</time></trkpt>
<trkpt lat="43.264011" lon="13.207136"><ele>367.102482535268</ele><time>2020-05-16T11:25:56Z</time></trkpt>
<trkpt lat="43.264021" lon="13.207033"><ele>366.1025256554772</ele><time>2020-05-16T11:26:02Z</time></trkpt>
<trkpt lat="43.264027" lon="13.206918"><ele>366.10254571907257</ele><time>2020-05-16T11:26:08Z</time></trkpt>
<trkpt lat="43.264037" lon="13.206799"><ele>364.102592777933</ele><time>2020-05-16T11:26:14Z</time></trkpt>
<trkpt lat="43.264048" lon="13.206696"><ele>363.1026494672943</ele><time>2020-05-16T11:26:19Z</time></trkpt>
<trkpt lat="43.264068" lon="13.206578"><ele>362.1027702624248</ele><time>2020-05-16T11:26:25Z</time></trkpt>
<trkpt lat="43.264081" lon="13.206463"><ele>362.1028425250149</ele><time>2020-05-16T11:26:31Z</time></trkpt>
<trkpt lat="43.264087" lon="13.206347"><ele>360.10285462516515</ele><time>2020-05-16T11:26:37Z</time></trkpt>
<trkpt lat="43.264104" lon="13.206235"><ele>359.10295747289075</ele><time>2020-05-16T11:26:43Z</time></trkpt>
<trkpt lat="43.264102" lon="13.206118"><ele>359.1029147067193</ele><time>2020-05-16T11:26:49Z</time></trkpt>
<trkpt lat="43.264105" lon="13.206010"><ele>358.10291161772335</ele><time>2020-05-16T11:26:55Z</time></trkpt>
<trkpt lat="43.264113" lon="13.205892"><ele>356.10294295304686</ele><time>2020-05-16T11:27:01Z</time></trkpt>
<trkpt lat="43.264095" lon="13.205785"><ele>355.10278963461985</ele><time>2020-05-16T11:27:07Z</time></trkpt>
<trkpt lat="43.264059" lon="13.205688"><ele>355.10250176653915</ele><time>2020-05-16T11:27:12Z</time></trkpt>
<trkpt lat="43.263990" lon="13.205592"><ele>358.10198085721123</ele><time>2020-05-16T11:27:17Z</time></trkpt>
<trkpt lat="43.263924" lon="13.205509"><ele>357.10148248713625</ele><time>2020-05-16T11:27:23Z</time></trkpt>
<trkpt lat="43.263867" lon="13.205440"><ele>358.1010520158895</ele><time>2020-05-16T11:27:28Z</time></trkpt>
<trkpt lat="43.263802" lon="13.205377"><ele>356.1005602902352</ele><time>2020-05-16T11:27:34Z</time></trkpt>
<trkpt lat="43.263745" lon="13.205302"><ele>354.1001308856214</ele><time>2020-05-16T11:27:40Z</time></trkpt>
<trkpt lat="43.263684" lon="13.205228"><ele>353.09966665115434</ele><time>2020-05-16T11:27:46Z</time></trkpt>
<trkpt lat="43.263616" lon="13.205148"><ele>351.09915494099573</ele><time>2020-05-16T11:27:52Z</time></trkpt>
<trkpt lat="43.263563" lon="13.205068"><ele>351.09875588827845</ele><time>2020-05-16T11:27:57Z</time></trkpt>
<trkpt lat="43.263508" lon="13.204979"><ele>351.0983324609219</ele><time>2020-05-16T11:28:03Z</time></trkpt>
<trkpt lat="43.263456" lon="13.204882"><ele>351.0979335028868</ele><time>2020-05-16T11:28:09Z</time></trkpt>
<trkpt lat="43.263403" lon="13.204788"><ele>350.0975249185626</ele><time>2020-05-16T11:28:16Z</time></trkpt>
<trkpt lat="43.263348" lon="13.204696"><ele>349.0971067735667</ele><time>2020-05-16T11:28:23Z</time></trkpt>
<trkpt lat="43.263291" lon="13.204612"><ele>350.09667718049764</ele><time>2020-05-16T11:28:29Z</time></trkpt>
<trkpt lat="43.263237" lon="13.204529"><ele>351.0962649217956</ele><time>2020-05-16T11:28:35Z</time></trkpt>
<trkpt lat="43.263167" lon="13.204461"><ele>351.0957387249393</ele><time>2020-05-16T11:28:41Z</time></trkpt>
<trkpt lat="43.263100" lon="13.204381"><ele>351.09523862176405</ele><time>2020-05-16T11:28:48Z</time></trkpt>
<trkpt lat="43.263034" lon="13.204317"><ele>352.09474505108096</ele><time>2020-05-16T11:28:54Z</time></trkpt>
<trkpt lat="43.262952" lon="13.204268"><ele>352.09413647593004</ele><time>2020-05-16T11:29:00Z</time></trkpt>
<trkpt lat="43.262875" lon="13.204220"><ele>349.0935713755061</ele><time>2020-05-16T11:29:06Z</time></trkpt>
<trkpt lat="43.262795" lon="13.204191"><ele>349.0929798402991</ele><time>2020-05-16T11:29:12Z</time></trkpt>
<trkpt lat="43.262726" lon="13.204150"><ele>348.09247480130193</ele><time>2020-05-16T11:29:17Z</time></trkpt>
<trkpt lat="43.262656" lon="13.204106"><ele>348.09195366782745</ele><time>2020-05-16T11:29:23Z</time></trkpt>
<trkpt lat="43.262583" lon="13.204062"><ele>347.0914127686988</ele><time>2020-05-16T11:29:29Z</time></trkpt>
<trkpt lat="43.262507" lon="13.204034"><ele>347.0908605776374</ele><time>2020-05-16T11:29:35Z</time></trkpt>
<trkpt lat="43.262424" lon="13.204003"><ele>345.09024601180084</ele><time>2020-05-16T11:29:41Z</time></trkpt>
<trkpt lat="43.262348" lon="13.203968"><ele>345.08969096498305</ele><time>2020-05-16T11:29:47Z</time></trkpt>
<trkpt lat="43.262264" lon="13.203951"><ele>345.0890765933447</ele><time>2020-05-16T11:29:53Z</time></trkpt>
<trkpt lat="43.262183" lon="13.203907"><ele>345.08848042222166</ele><time>2020-05-16T11:29:59Z</time></trkpt>
<trkpt lat="43.262103" lon="13.203883"><ele>344.08789209921366</ele><time>2020-05-16T11:30:05Z</time></trkpt>
<trkpt lat="43.262021" lon="13.203844"><ele>343.0872881682907</ele><time>2020-05-16T11:30:11Z</time></trkpt>
<trkpt lat="43.261944" lon="13.203812"><ele>342.08672744191284</ele><time>2020-05-16T11:30:16Z</time></trkpt>
<trkpt lat="43.261875" lon="13.203761"><ele>344.0862132029667</ele><time>2020-05-16T11:30:22Z</time></trkpt>
<trkpt lat="43.261805" lon="13.203702"><ele>343.0856965374608</ele><time>2020-05-16T11:30:28Z</time></trkpt>
<trkpt lat="43.261739" lon="13.203637"><ele>342.0852034503448</ele><time>2020-05-16T11:30:34Z</time></trkpt>
<trkpt lat="43.261670" lon="13.203572"><ele>343.08469202092016</ele><time>2020-05-16T11:30:40Z</time></trkpt>
<trkpt lat="43.261612" lon="13.203500"><ele>343.0842581585011</ele><time>2020-05-16T11:30:45Z</time></trkpt>
<trkpt lat="43.261552" lon="13.203429"><ele>342.08380972492495</ele><time>2020-05-16T11:30:50Z</time></trkpt>
<trkpt lat="43.261483" lon="13.203370"><ele>344.0832974914739</ele><time>2020-05-16T11:30:57Z</time></trkpt>
<trkpt lat="43.261418" lon="13.203305"><ele>344.0828115236669</ele><time>2020-05-16T11:31:02Z</time></trkpt>
<trkpt lat="43.261357" lon="13.203243"><ele>341.0823605442378</ele><time>2020-05-16T11:31:07Z</time></trkpt>
<trkpt lat="43.261293" lon="13.203194"><ele>340.08188752232104</ele><time>2020-05-16T11:31:12Z</time></trkpt>
<trkpt lat="43.261235" lon="13.203114"><ele>339.08145122860583</ele><time>2020-05-16T11:31:18Z</time></trkpt>
<trkpt lat="43.261169" lon="13.203038"><ele>339.08095933775223</ele><time>2020-05-16T11:31:24Z</time></trkpt>
<trkpt lat="43.261103" lon="13.202955"><ele>339.080468271422</ele><time>2020-05-16T11:31:30Z</time></trkpt>
<trkpt lat="43.261036" lon="13.202884"><ele>339.07997108558055</ele><time>2020-05-16T11:31:36Z</time></trkpt>
<trkpt lat="43.260971" lon="13.202821"><ele>339.0794880652449</ele><time>2020-05-16T11:31:41Z</time></trkpt>
<trkpt lat="43.260917" lon="13.202745"><ele>340.0790823442098</ele><time>2020-05-16T11:31:47Z</time></trkpt>
<trkpt lat="43.260854" lon="13.202667"><ele>340.0786144075439</ele><time>2020-05-16T11:31:53Z</time></trkpt>
<trkpt lat="43.260790" lon="13.202586"><ele>340.0781350436142</ele><time>2020-05-16T11:31:59Z</time></trkpt>
<trkpt lat="43.260739" lon="13.202500"><ele>339.0777531079947</ele><time>2020-05-16T11:32:05Z</time></trkpt>
<trkpt lat="43.260686" lon="13.202407"><ele>340.077352385282</ele><time>2020-05-16T11:32:11Z</time></trkpt>
<trkpt lat="43.260640" lon="13.202304"><ele>339.0769983879945</ele><time>2020-05-16T11:32:18Z</time></trkpt>
<trkpt lat="43.260585" lon="13.202217"><ele>338.0765851274465</ele><time>2020-05-16T11:32:25Z</time></trkpt>
<trkpt lat="43.260528" lon="13.202149"><ele>337.07616142435</ele><time>2020-05-16T11:32:31Z</time></trkpt>
<trkpt lat="43.260458" lon="13.202104"><ele>336.07564827740964</ele><time>2020-05-16T11:32:37Z</time></trkpt>
<trkpt lat="43.260387" lon="13.202038"><ele>335.07512357293575</ele><time>2020-05-16T11:32:44Z</time></trkpt>
<trkpt lat="43.260321" lon="13.201968"><ele>334.0746360938654</ele><time>2020-05-16T11:32:51Z</time></trkpt>
<trkpt lat="43.260274" lon="13.201882"><ele>334.07428362331507</ele><time>2020-05-16T11:32:57Z</time></trkpt>
<trkpt lat="43.260223" lon="13.201797"><ele>331.0738993560431</ele><time>2020-05-16T11:33:04Z</time></trkpt>
<trkpt lat="43.260183" lon="13.201711"><ele>329.0735951389381</ele><time>2020-05-16T11:33:10Z</time></trkpt>
<trkpt lat="43.260138" lon="13.201614"><ele>327.07325690004757</ele><time>2020-05-16T11:33:17Z</time></trkpt>
<trkpt lat="43.260097" lon="13.201516"><ele>325.0729464790389</ele><time>2020-05-16T11:33:24Z</time></trkpt>
<trkpt lat="43.260054" lon="13.201411"><ele>322.0726154773319</ele><time>2020-05-16T11:33:32Z</time></trkpt>
<trkpt lat="43.260009" lon="13.201312"><ele>322.0722779931349</ele><time>2020-05-16T11:33:37Z</time></trkpt>
<trkpt lat="43.259966" lon="13.201219"><ele>320.07195310325847</ele><time>2020-05-16T11:33:43Z</time></trkpt>
<trkpt lat="43.259928" lon="13.201123"><ele>318.0716622572332</ele><time>2020-05-16T11:33:49Z</time></trkpt>
<trkpt lat="43.259895" lon="13.201019"><ele>316.0714036730796</ele><time>2020-05-16T11:33:55Z</time></trkpt>
<trkpt lat="43.259869" lon="13.200906"><ele>315.0712021849603</ele><time>2020-05-16T11:34:01Z</time></trkpt>
<trkpt lat="43.259860" lon="13.200795"><ele>314.07111442727904</ele><time>2020-05-16T11:34:08Z</time></trkpt>
<trkpt lat="43.259862" lon="13.200685"><ele>312.0711115720506</ele><time>2020-05-16T11:34:15Z</time></trkpt>
<trkpt lat="43.259860" lon="13.200583"><ele>310.071084238789</ele><time>2020-05-16T11:34:21Z</time></trkpt>
<trkpt lat="43.259866" lon="13.200478"><ele>307.07111265016965</ele><time>2020-05-16T11:34:28Z</time></trkpt>
<trkpt lat="43.259863" lon="13.200361"><ele>307.0710673208241</ele><time>2020-05-16T11:34:34Z</time></trkpt>
<trkpt lat="43.259872" lon="13.200245"><ele>304.07111649253386</ele><time>2020-05-16T11:34:41Z</time></trkpt>
<trkpt lat="43.259883" lon="13.200143"><ele>303.07117930375415</ele><time>2020-05-16T11:34:47Z</time></trkpt>
<trkpt lat="43.259882" lon="13.200030"><ele>302.0711516420025</ele><time>2020-05-16T11:34:53Z</time></trkpt>
<trkpt lat="43.259862" lon="13.199939"><ele>302.07099381578985</ele><time>2020-05-16T11:34:57Z</time></trkpt>
<trkpt lat="43.259836" lon="13.199832"><ele>303.0707926416461</ele><time>2020-05-16T11:35:02Z</time></trkpt>
<trkpt lat="43.259800" lon="13.199740"><ele>302.07052115919635</ele><time>2020-05-16T11:35:07Z</time></trkpt>
<trkpt lat="43.259750" lon="13.199650"><ele>301.0701456423521</ele><time>2020-05-16T11:35:13Z</time></trkpt>
<trkpt lat="43.259695" lon="13.199560"><ele>299.06973531407124</ele><time>2020-05-16T11:35:20Z</time></trkpt>
<trkpt lat="43.259640" lon="13.199486"><ele>296.06932813758596</ele><time>2020-05-16T11:35:26Z</time></trkpt>
<trkpt lat="43.259597" lon="13.199390"><ele>293.06900449327134</ele><time>2020-05-16T11:35:33Z</time></trkpt>
<trkpt lat="43.259574" lon="13.199274"><ele>294.0688249806275</ele><time>2020-05-16T11:35:40Z</time></trkpt>
<trkpt lat="43.259560" lon="13.199152"><ele>291.06869938325076</ele><time>2020-05-16T11:35:47Z</time></trkpt>
<trkpt lat="43.259551" lon="13.199033"><ele>288.0686177347553</ele><time>2020-05-16T11:35:55Z</time></trkpt>
<trkpt lat="43.259533" lon="13.198914"><ele>288.06847294643165</ele><time>2020-05-16T11:36:01Z</time></trkpt>
<trkpt lat="43.259533" lon="13.198801"><ele>287.0684545462112</ele><time>2020-05-16T11:36:07Z</time></trkpt>
<trkpt lat="43.259524" lon="13.198698"><ele>285.0683747748004</ele><time>2020-05-16T11:36:13Z</time></trkpt>
<trkpt lat="43.259512" lon="13.198592"><ele>284.06827381622907</ele><time>2020-05-16T11:36:19Z</time></trkpt>
<trkpt lat="43.259497" lon="13.198478"><ele>282.0681437306709</ele><time>2020-05-16T11:36:25Z</time></trkpt>
<trkpt lat="43.259485" lon="13.198360"><ele>281.0680460422929</ele><time>2020-05-16T11:36:31Z</time></trkpt>
<trkpt lat="43.259475" lon="13.198252"><ele>280.06795281823946</ele><time>2020-05-16T11:36:37Z</time></trkpt>
<trkpt lat="43.259455" lon="13.198133"><ele>278.06779440703997</ele><time>2020-05-16T11:36:43Z</time></trkpt>
<trkpt lat="43.259438" lon="13.198025"><ele>278.06765434736235</ele><time>2020-05-16T11:36:49Z</time></trkpt>
<trkpt lat="43.259392" lon="13.197940"><ele>278.0673109226113</ele><time>2020-05-16T11:36:55Z</time></trkpt>
<trkpt lat="43.259315" lon="13.197886"><ele>279.0667558183868</ele><time>2020-05-16T11:37:01Z</time></trkpt>
<trkpt lat="43.259230" lon="13.197871"><ele>279.0661408490579</ele><time>2020-05-16T11:37:07Z</time></trkpt>
<trkpt lat="43.259148" lon="13.197862"><ele>278.065553884928</ele><time>2020-05-16T11:37:13Z</time></trkpt>
<trkpt lat="43.259060" lon="13.197857"><ele>276.06492042705304</ele><time>2020-05-16T11:37:19Z</time></trkpt>
<trkpt lat="43.258971" lon="13.197842"><ele>275.06428397864227</ele><time>2020-05-16T11:37:25Z</time></trkpt>
<trkpt lat="43.258882" lon="13.197838"><ele>273.06364168382606</ele><time>2020-05-16T11:37:32Z</time></trkpt>
<trkpt lat="43.258799" lon="13.197823"><ele>271.0630432883759</ele><time>2020-05-16T11:37:39Z</time></trkpt>
<trkpt lat="43.258714" lon="13.197806"><ele>270.0624322019962</ele><time>2020-05-16T11:37:45Z</time></trkpt>
<trkpt lat="43.258631" lon="13.197798"><ele>270.0618361158335</ele><time>2020-05-16T11:37:51Z</time></trkpt>
<trkpt lat="43.258553" lon="13.197785"><ele>268.06127721669134</ele><time>2020-05-16T11:37:58Z</time></trkpt>
<trkpt lat="43.258475" lon="13.197780"><ele>266.06072116593595</ele><time>2020-05-16T11:38:04Z</time></trkpt>
<trkpt lat="43.258393" lon="13.197763"><ele>265.06012679145545</ele><time>2020-05-16T11:38:10Z</time></trkpt>
<trkpt lat="43.258311" lon="13.197744"><ele>265.0595418035957</ele><time>2020-05-16T11:38:16Z</time></trkpt>
<trkpt lat="43.258231" lon="13.197718"><ele>266.0589660897637</ele><time>2020-05-16T11:38:22Z</time></trkpt>
<trkpt lat="43.258148" lon="13.197686"><ele>264.05836192411834</ele><time>2020-05-16T11:38:29Z</time></trkpt>
<trkpt lat="43.258065" lon="13.197641"><ele>264.0577633746107</ele><time>2020-05-16T11:38:35Z</time></trkpt>
<trkpt lat="43.258009" lon="13.197566"><ele>262.0573509704259</ele><time>2020-05-16T11:38:41Z</time></trkpt>
<trkpt lat="43.257957" lon="13.197483"><ele>261.0569689469686</ele><time>2020-05-16T11:38:47Z</time></trkpt>
<trkpt lat="43.257919" lon="13.197376"><ele>259.056681368578</ele><time>2020-05-16T11:38:55Z</time></trkpt>
<trkpt lat="43.257871" lon="13.197286"><ele>257.05632617412533</ele><time>2020-05-16T11:39:00Z</time></trkpt>
<trkpt lat="43.257809" lon="13.197198"><ele>256.0558766616291</ele><time>2020-05-16T11:39:07Z</time></trkpt>
<trkpt lat="43.257756" lon="13.197100"><ele>256.0554841969648</ele><time>2020-05-16T11:39:14Z</time></trkpt>
<trkpt lat="43.257702" lon="13.197014"><ele>254.05508481257897</ele><time>2020-05-16T11:39:20Z</time></trkpt>
<trkpt lat="43.257654" lon="13.196923"><ele>253.0547316440016</ele><time>2020-05-16T11:39:28Z</time></trkpt>
<trkpt lat="43.257623" lon="13.196808"><ele>249.0544975173824</ele><time>2020-05-16T11:39:35Z</time></trkpt>
<trkpt lat="43.257589" lon="13.196701"><ele>249.0542413983942</ele><time>2020-05-16T11:39:41Z</time></trkpt>
<trkpt lat="43.257563" lon="13.196610"><ele>252.05404572040857</ele><time>2020-05-16T11:39:47Z</time></trkpt>
<trkpt lat="43.257533" lon="13.196516"><ele>252.05381600472754</ele><time>2020-05-16T11:39:52Z</time></trkpt>
<trkpt lat="43.257493" lon="13.196418"><ele>250.0535236706928</ele><time>2020-05-16T11:39:57Z</time></trkpt>
<trkpt lat="43.257435" lon="13.196327"><ele>250.05309446245053</ele><time>2020-05-16T11:40:03Z</time></trkpt>
<trkpt lat="43.257368" lon="13.196247"><ele>247.05260639744535</ele><time>2020-05-16T11:40:08Z</time></trkpt>
<trkpt lat="43.257315" lon="13.196152"><ele>247.05221591334524</ele><time>2020-05-16T11:40:16Z</time></trkpt>
<trkpt lat="43.257261" lon="13.196055"><ele>244.05181748785802</ele><time>2020-05-16T11:40:23Z</time></trkpt>
<trkpt lat="43.257201" lon="13.195979"><ele>244.0513811163469</ele><time>2020-05-16T11:40:29Z</time></trkpt>
<trkpt lat="43.257130" lon="13.195908"><ele>242.05086993179108</ele><time>2020-05-16T11:40:35Z</time></trkpt>
<trkpt lat="43.257067" lon="13.195829"><ele>243.0504111004633</ele><time>2020-05-16T11:40:41Z</time></trkpt>
<trkpt lat="43.257031" lon="13.195717"><ele>248.05014120843614</ele><time>2020-05-16T11:40:59Z</time></trkpt>
<trkpt lat="43.256975" lon="13.195641"><ele>246.04973498942846</ele><time>2020-05-16T11:41:07Z</time></trkpt>
<trkpt lat="43.256913" lon="13.195613"><ele>241.04928735015213</ele><time>2020-05-16T11:41:12Z</time></trkpt>
<trkpt lat="43.256825" lon="13.195485"><ele>244.04864981965636</ele><time>2020-05-16T11:41:17Z</time></trkpt>
<trkpt lat="43.256759" lon="13.195433"><ele>245.04816808910346</ele><time>2020-05-16T11:41:24Z</time></trkpt>
<trkpt lat="43.256688" lon="13.195366"><ele>245.0476549790147</ele><time>2020-05-16T11:41:29Z</time></trkpt>
<trkpt lat="43.256606" lon="13.195336"><ele>246.0470733817058</ele><time>2020-05-16T11:41:37Z</time></trkpt>
<trkpt lat="43.256522" lon="13.195314"><ele>244.04646703097578</ele><time>2020-05-16T11:41:45Z</time></trkpt>
<trkpt lat="43.256448" lon="13.195258"><ele>245.04593621216452</ele><time>2020-05-16T11:41:50Z</time></trkpt>
<trkpt lat="43.256377" lon="13.195214"><ele>244.0454245342221</ele><time>2020-05-16T11:41:55Z</time></trkpt>
<trkpt lat="43.256306" lon="13.195186"><ele>245.0449200630356</ele><time>2020-05-16T11:42:00Z</time></trkpt>
<trkpt lat="43.256239" lon="13.195114"><ele>243.04443157433502</ele><time>2020-05-16T11:42:05Z</time></trkpt>
<trkpt lat="43.256193" lon="13.195016"><ele>239.04409341851252</ele><time>2020-05-16T11:42:10Z</time></trkpt>
<trkpt lat="43.256151" lon="13.194919"><ele>240.0437859112232</ele><time>2020-05-16T11:42:18Z</time></trkpt>
<trkpt lat="43.256106" lon="13.194854"><ele>238.04346029546855</ele><time>2020-05-16T11:42:23Z</time></trkpt>
<trkpt lat="43.256055" lon="13.194771"><ele>239.04309172702335</ele><time>2020-05-16T11:42:30Z</time></trkpt>
<trkpt lat="43.255993" lon="13.194690"><ele>239.04263977039477</ele><time>2020-05-16T11:42:35Z</time></trkpt>
<trkpt lat="43.255935" lon="13.194628"><ele>236.04222176773413</ele><time>2020-05-16T11:42:40Z</time></trkpt>
<trkpt lat="43.255880" lon="13.194565"><ele>236.04182184691726</ele><time>2020-05-16T11:42:45Z</time></trkpt>
<trkpt lat="43.255820" lon="13.194489"><ele>239.0413944125683</ele><time>2020-05-16T11:42:52Z</time></trkpt>
<trkpt lat="43.255767" lon="13.194411"><ele>239.04100724679708</ele><time>2020-05-16T11:42:57Z</time></trkpt>
<trkpt lat="43.255700" lon="13.194354"><ele>241.040523369361</ele><time>2020-05-16T11:43:03Z</time></trkpt>
<trkpt lat="43.255636" lon="13.194299"><ele>241.0400680860005</ele><time>2020-05-16T11:43:09Z</time></trkpt>
<trkpt lat="43.255568" lon="13.194249"><ele>243.03957562987495</ele><time>2020-05-16T11:43:14Z</time></trkpt>
<trkpt lat="43.255485" lon="13.194203"><ele>242.03898418799844</ele><time>2020-05-16T11:43:22Z</time></trkpt>
<trkpt lat="43.255413" lon="13.194155"><ele>245.0384698496498</ele><time>2020-05-16T11:43:30Z</time></trkpt>
<trkpt lat="43.255343" lon="13.194121"><ele>245.0379649638749</ele><time>2020-05-16T11:43:36Z</time></trkpt>
<trkpt lat="43.255271" lon="13.194063"><ele>245.03745208894517</ele><time>2020-05-16T11:43:43Z</time></trkpt>
<trkpt lat="43.255200" lon="13.194012"><ele>247.0369401245016</ele><time>2020-05-16T11:43:48Z</time></trkpt>
<trkpt lat="43.255123" lon="13.193963"><ele>249.03638940215967</ele><time>2020-05-16T11:43:54Z</time></trkpt>
<trkpt lat="43.255043" lon="13.193913"><ele>252.03581607116934</ele><time>2020-05-16T11:44:01Z</time></trkpt>
<trkpt lat="43.254970" lon="13.193864"><ele>249.03529874568216</ele><time>2020-05-16T11:44:07Z</time></trkpt>
<trkpt lat="43.254896" lon="13.193799"><ele>251.03476336670363</ele><time>2020-05-16T11:44:15Z</time></trkpt>
<trkpt lat="43.254813" lon="13.193758"><ele>251.03417123513452</ele><time>2020-05-16T11:44:21Z</time></trkpt>
<trkpt lat="43.254743" lon="13.193701"><ele>250.03367072275233</ele><time>2020-05-16T11:44:28Z</time></trkpt>
<trkpt lat="43.254675" lon="13.193635"><ele>257.0331844516405</ele><time>2020-05-16T11:52:31Z</time></trkpt>
<trkpt lat="43.254599" lon="13.193589"><ele>256.03264118903775</ele><time>2020-05-16T11:52:38Z</time></trkpt>
<trkpt lat="43.254525" lon="13.193545"><ele>257.03211388616324</ele><time>2020-05-16T11:52:46Z</time></trkpt>
<trkpt lat="43.254448" lon="13.193491"><ele>257.03156379092945</ele><time>2020-05-16T11:52:54Z</time></trkpt>
<trkpt lat="43.254371" lon="13.193432"><ele>258.0310118862283</ele><time>2020-05-16T11:53:03Z</time></trkpt>
<trkpt lat="43.254357" lon="13.193322"><ele>256.03090286742236</ele><time>2020-05-16T11:53:11Z</time></trkpt>
<trkpt lat="43.254380" lon="13.193215"><ele>253.03105750847394</ele><time>2020-05-16T11:53:18Z</time></trkpt>
<trkpt lat="43.254322" lon="13.193292"><ele>258.0306572249825</ele><time>2020-05-16T11:53:40Z</time></trkpt>
<trkpt lat="43.254273" lon="13.193388"><ele>257.03031275332955</ele><time>2020-05-16T11:53:46Z</time></trkpt>
<trkpt lat="43.254223" lon="13.193474"><ele>257.02996808481834</ele><time>2020-05-16T11:53:52Z</time></trkpt>
<trkpt lat="43.254174" lon="13.193559"><ele>258.02962048846115</ele><time>2020-05-16T11:53:58Z</time></trkpt>
<trkpt lat="43.254128" lon="13.193654"><ele>258.029303890974</ele><time>2020-05-16T11:54:05Z</time></trkpt>
<trkpt lat="43.254089" lon="13.193742"><ele>258.02903022492734</ele><time>2020-05-16T11:54:11Z</time></trkpt>
<trkpt lat="43.254056" lon="13.193838"><ele>258.0288010866997</ele><time>2020-05-16T11:54:16Z</time></trkpt>
<trkpt lat="43.253998" lon="13.193919"><ele>257.02840018817415</ele><time>2020-05-16T11:54:22Z</time></trkpt>
<trkpt lat="43.253943" lon="13.194003"><ele>255.02800835428167</ele><time>2020-05-16T11:54:28Z</time></trkpt>
<trkpt lat="43.253899" lon="13.194096"><ele>256.02770536435423</ele><time>2020-05-16T11:54:33Z</time></trkpt>
<trkpt lat="43.253859" lon="13.194188"><ele>256.02742616016945</ele><time>2020-05-16T11:54:38Z</time></trkpt>
<trkpt lat="43.253815" lon="13.194284"><ele>255.02712030442294</ele><time>2020-05-16T11:54:44Z</time></trkpt>
<trkpt lat="43.253773" lon="13.194383"><ele>257.0268240804099</ele><time>2020-05-16T11:54:49Z</time></trkpt>
<trkpt lat="43.253735" lon="13.194483"><ele>255.02656009406638</ele><time>2020-05-16T11:54:55Z</time></trkpt>
<trkpt lat="43.253697" lon="13.194586"><ele>257.02629781137404</ele><time>2020-05-16T11:55:00Z</time></trkpt>
<trkpt lat="43.253661" lon="13.194689"><ele>258.02604788062695</ele><time>2020-05-16T11:55:05Z</time></trkpt>
<trkpt lat="43.253624" lon="13.194798"><ele>256.0257927201637</ele><time>2020-05-16T11:55:12Z</time></trkpt>
<trkpt lat="43.253597" lon="13.194906"><ele>252.02560680078557</ele><time>2020-05-16T11:55:20Z</time></trkpt>
<trkpt lat="43.253548" lon="13.194997"><ele>252.02526102861486</ele><time>2020-05-16T11:55:27Z</time></trkpt>
<trkpt lat="43.253506" lon="13.195098"><ele>250.0249703684646</ele><time>2020-05-16T11:55:34Z</time></trkpt>
<trkpt lat="43.253466" lon="13.195206"><ele>250.024692481514</ele><time>2020-05-16T11:55:41Z</time></trkpt>
<trkpt lat="43.253422" lon="13.195301"><ele>248.0243805624119</ele><time>2020-05-16T11:55:48Z</time></trkpt>
<trkpt lat="43.253380" lon="13.195402"><ele>246.02408408741542</ele><time>2020-05-16T11:55:56Z</time></trkpt>
<trkpt lat="43.253355" lon="13.195488"><ele>244.02391355677636</ele><time>2020-05-16T11:56:02Z</time></trkpt>
<trkpt lat="43.253313" lon="13.195593"><ele>246.0236206274465</ele><time>2020-05-16T11:56:08Z</time></trkpt>
<trkpt lat="43.253272" lon="13.195687"><ele>248.02333382280457</ele><time>2020-05-16T11:56:14Z</time></trkpt>
<trkpt lat="43.253223" lon="13.195774"><ele>249.02298474058912</ele><time>2020-05-16T11:56:19Z</time></trkpt>
<trkpt lat="43.253168" lon="13.195849"><ele>248.02259855208945</ele><time>2020-05-16T11:56:25Z</time></trkpt>
<trkpt lat="43.253096" lon="13.195916"><ele>249.0220909447054</ele><time>2020-05-16T11:56:30Z</time></trkpt>
<trkpt lat="43.253010" lon="13.195917"><ele>247.0214774910804</ele><time>2020-05-16T11:56:36Z</time></trkpt>
<trkpt lat="43.252922" lon="13.195920"><ele>247.0208471636298</ele><time>2020-05-16T11:56:42Z</time></trkpt>
<trkpt lat="43.252835" lon="13.195906"><ele>246.02022873232266</ele><time>2020-05-16T11:56:49Z</time></trkpt>
<trkpt lat="43.252751" lon="13.195879"><ele>243.01962872974755</ele><time>2020-05-16T11:56:56Z</time></trkpt>
<trkpt lat="43.252676" lon="13.195868"><ele>240.0190883744067</ele><time>2020-05-16T11:57:02Z</time></trkpt>
<trkpt lat="43.252587" lon="13.195860"><ele>237.0184541781715</ele><time>2020-05-16T11:57:08Z</time></trkpt>
<trkpt lat="43.252503" lon="13.195889"><ele>239.01785783319684</ele><time>2020-05-16T11:57:15Z</time></trkpt>
<trkpt lat="43.252442" lon="13.195930"><ele>241.01742137645888</ele><time>2020-05-16T11:57:21Z</time></trkpt>
<trkpt lat="43.252365" lon="13.195983"><ele>242.01687391298145</ele><time>2020-05-16T11:57:26Z</time></trkpt>
<trkpt lat="43.252293" lon="13.196051"><ele>244.01636591693662</ele><time>2020-05-16T11:57:32Z</time></trkpt>
<trkpt lat="43.252220" lon="13.196111"><ele>243.01584905944253</ele><time>2020-05-16T11:57:38Z</time></trkpt>
<trkpt lat="43.252142" lon="13.196168"><ele>244.01529127460307</ele><time>2020-05-16T11:57:44Z</time></trkpt>
<trkpt lat="43.252067" lon="13.196223"><ele>243.01475527478192</ele><time>2020-05-16T11:57:51Z</time></trkpt>
<trkpt lat="43.251996" lon="13.196287"><ele>244.01425575997874</ele><time>2020-05-16T11:57:57Z</time></trkpt>
<trkpt lat="43.251929" lon="13.196347"><ele>243.013773969797</ele><time>2020-05-16T11:58:03Z</time></trkpt>
<trkpt lat="43.251858" lon="13.196403"><ele>240.01327273790997</ele><time>2020-05-16T11:58:09Z</time></trkpt>
<trkpt lat="43.251778" lon="13.196437"><ele>236.01269816773944</ele><time>2020-05-16T11:58:20Z</time></trkpt>
<trkpt lat="43.251692" lon="13.196452"><ele>236.01208713727763</ele><time>2020-05-16T11:58:24Z</time></trkpt>
<trkpt lat="43.251610" lon="13.196508"><ele>241.0114994814051</ele><time>2020-05-16T11:58:29Z</time></trkpt>
<trkpt lat="43.251540" lon="13.196520"><ele>242.01100039921852</ele><time>2020-05-16T11:58:33Z</time></trkpt>
<trkpt lat="43.251464" lon="13.196538"><ele>242.0104617150365</ele><time>2020-05-16T11:58:38Z</time></trkpt>
<trkpt lat="43.251387" lon="13.196547"><ele>241.00990704891873</ele><time>2020-05-16T11:58:43Z</time></trkpt>
<trkpt lat="43.251308" lon="13.196563"><ele>243.00934716777596</ele><time>2020-05-16T11:58:49Z</time></trkpt>
<trkpt lat="43.251229" lon="13.196562"><ele>242.0087811294206</ele><time>2020-05-16T11:58:56Z</time></trkpt>
<trkpt lat="43.251148" lon="13.196593"><ele>243.00819987529124</ele><time>2020-05-16T11:59:02Z</time></trkpt>
<trkpt lat="43.251067" lon="13.196615"><ele>244.0076218892051</ele><time>2020-05-16T11:59:09Z</time></trkpt>
<trkpt lat="43.250990" lon="13.196634"><ele>242.00707325158913</ele><time>2020-05-16T11:59:15Z</time></trkpt>
<trkpt lat="43.250914" lon="13.196645"><ele>239.00653531081056</ele><time>2020-05-16T11:59:20Z</time></trkpt>
<trkpt lat="43.250828" lon="13.196649"><ele>235.00591664033476</ele><time>2020-05-16T11:59:26Z</time></trkpt>
<trkpt lat="43.250752" lon="13.196675"><ele>238.00537304100072</ele><time>2020-05-16T11:59:32Z</time></trkpt>
<trkpt lat="43.250669" lon="13.196695"><ele>239.00478435381342</ele><time>2020-05-16T11:59:38Z</time></trkpt>
<trkpt lat="43.250587" lon="13.196704"><ele>239.0041940105719</ele><time>2020-05-16T11:59:45Z</time></trkpt>
<trkpt lat="43.250511" lon="13.196716"><ele>239.00365156240622</ele><time>2020-05-16T11:59:51Z</time></trkpt>
<trkpt lat="43.250430" lon="13.196727"><ele>240.00307205305882</ele><time>2020-05-16T11:59:57Z</time></trkpt>
<trkpt lat="43.250348" lon="13.196732"><ele>239.00248490168744</ele><time>2020-05-16T12:00:03Z</time></trkpt>
<trkpt lat="43.250262" lon="13.196754"><ele>239.00187593829406</ele><time>2020-05-16T12:00:09Z</time></trkpt>
<trkpt lat="43.250183" lon="13.196785"><ele>240.0013058265784</ele><time>2020-05-16T12:00:15Z</time></trkpt>
<trkpt lat="43.250103" lon="13.196817"><ele>239.00073964325395</ele><time>2020-05-16T12:00:21Z</time></trkpt>
<trkpt lat="43.250019" lon="13.196838"><ele>238.0001337654147</ele><time>2020-05-16T12:00:28Z</time></trkpt>
<trkpt lat="43.249942" lon="13.196889"><ele>239.99971905247634</ele><time>2020-05-16T12:00:34Z</time></trkpt>
<trkpt lat="43.249866" lon="13.196932"><ele>240.99934988305068</ele><time>2020-05-16T12:00:40Z</time></trkpt>
<trkpt lat="43.249795" lon="13.196983"><ele>243.9990079475328</ele><time>2020-05-16T12:00:46Z</time></trkpt>
<trkpt lat="43.249719" lon="13.197024"><ele>243.99863772407576</ele><time>2020-05-16T12:00:52Z</time></trkpt>
<trkpt lat="43.249638" lon="13.197067"><ele>246.99824308385666</ele><time>2020-05-16T12:01:00Z</time></trkpt>
<trkpt lat="43.249557" lon="13.197112"><ele>246.99785235474633</ele><time>2020-05-16T12:01:06Z</time></trkpt>
<trkpt lat="43.249485" lon="13.197162"><ele>248.99750354987947</ele><time>2020-05-16T12:01:11Z</time></trkpt>
<trkpt lat="43.249418" lon="13.197213"><ele>248.99717982203668</ele><time>2020-05-16T12:01:18Z</time></trkpt>
<trkpt lat="43.249333" lon="13.197243"><ele>245.99677043330308</ele><time>2020-05-16T12:01:24Z</time></trkpt>
<trkpt lat="43.249257" lon="13.197266"><ele>244.99639997939022</ele><time>2020-05-16T12:01:32Z</time></trkpt>
<trkpt lat="43.249179" lon="13.197282"><ele>243.99602499507577</ele><time>2020-05-16T12:01:37Z</time></trkpt>
<trkpt lat="43.249096" lon="13.197308"><ele>244.99562031472058</ele><time>2020-05-16T12:01:43Z</time></trkpt>
<trkpt lat="43.249010" lon="13.197344"><ele>247.99520708419112</ele><time>2020-05-16T12:01:52Z</time></trkpt>
<trkpt lat="43.248928" lon="13.197354"><ele>247.99480974061493</ele><time>2020-05-16T12:02:01Z</time></trkpt>
<trkpt lat="43.248843" lon="13.197360"><ele>247.9943974324008</ele><time>2020-05-16T12:02:09Z</time></trkpt>
<trkpt lat="43.248757" lon="13.197376"><ele>247.99398112098228</ele><time>2020-05-16T12:02:18Z</time></trkpt>
<trkpt lat="43.248675" lon="13.197411"><ele>250.99358589651877</ele><time>2020-05-16T12:02:26Z</time></trkpt>
<trkpt lat="43.248590" lon="13.197402"><ele>252.9931737735128</ele><time>2020-05-16T12:02:35Z</time></trkpt>
<trkpt lat="43.248537" lon="13.197309"><ele>251.99291296852044</ele><time>2020-05-16T12:02:46Z</time></trkpt>
<trkpt lat="43.248493" lon="13.197211"><ele>251.99269750253043</ele><time>2020-05-16T12:02:54Z</time></trkpt>
<trkpt lat="43.248435" lon="13.197119"><ele>249.9924164495541</ele><time>2020-05-16T12:03:04Z</time></trkpt>
<trkpt lat="43.248397" lon="13.197025"><ele>250.9922303267361</ele><time>2020-05-16T12:03:10Z</time></trkpt>
<trkpt lat="43.248344" lon="13.196940"><ele>249.99197171365486</ele><time>2020-05-16T12:03:16Z</time></trkpt>
<trkpt lat="43.248273" lon="13.196874"><ele>247.99162372888009</ele><time>2020-05-16T12:03:24Z</time></trkpt>
<trkpt lat="43.248224" lon="13.196791"><ele>249.99138280363042</ele><time>2020-05-16T12:03:31Z</time></trkpt>
<trkpt lat="43.248150" lon="13.196697"><ele>251.9910233813814</ele><time>2020-05-16T12:03:36Z</time></trkpt>
<trkpt lat="43.248081" lon="13.196644"><ele>255.99068662950623</ele><time>2020-05-16T12:03:43Z</time></trkpt>
<trkpt lat="43.248003" lon="13.196600"><ele>256.99030390478606</ele><time>2020-05-16T12:03:50Z</time></trkpt>
<trkpt lat="43.247926" lon="13.196561"><ele>257.98992897100874</ele><time>2020-05-16T12:03:58Z</time></trkpt>
<trkpt lat="43.247851" lon="13.196527"><ele>265.9895648602274</ele><time>2020-05-16T12:04:08Z</time></trkpt>
<trkpt lat="43.247768" lon="13.196484"><ele>261.9891599117765</ele><time>2020-05-16T12:04:14Z</time></trkpt>
<trkpt lat="43.247708" lon="13.196413"><ele>262.98886444241157</ele><time>2020-05-16T12:04:19Z</time></trkpt>
<trkpt lat="43.247636" lon="13.196347"><ele>261.988516387802</ele><time>2020-05-16T12:04:26Z</time></trkpt>
<trkpt lat="43.247566" lon="13.196283"><ele>261.98817145383674</ele><time>2020-05-16T12:04:32Z</time></trkpt>
<trkpt lat="43.247488" lon="13.196227"><ele>260.987792602122</ele><time>2020-05-16T12:04:39Z</time></trkpt>
<trkpt lat="43.247424" lon="13.196158"><ele>260.98747693175625</ele><time>2020-05-16T12:04:45Z</time></trkpt>
<trkpt lat="43.247347" lon="13.196100"><ele>263.98710201431226</ele><time>2020-05-16T12:04:54Z</time></trkpt>
<trkpt lat="43.247266" lon="13.196052"><ele>265.9867037043851</ele><time>2020-05-16T12:05:03Z</time></trkpt>
<trkpt lat="43.247194" lon="13.196003"><ele>266.98635250093184</ele><time>2020-05-16T12:05:10Z</time></trkpt>
<trkpt lat="43.247121" lon="13.195939"><ele>269.98599135762925</ele><time>2020-05-16T12:05:19Z</time></trkpt>
<trkpt lat="43.247048" lon="13.195886"><ele>270.98563515832194</ele><time>2020-05-16T12:05:26Z</time></trkpt>
<trkpt lat="43.246980" lon="13.195811"><ele>268.98530354012723</ele><time>2020-05-16T12:05:31Z</time></trkpt>
<trkpt lat="43.246915" lon="13.195747"><ele>270.98498435842197</ele><time>2020-05-16T12:05:38Z</time></trkpt>
<trkpt lat="43.246851" lon="13.195707"><ele>271.98466798306345</ele><time>2020-05-16T12:05:44Z</time></trkpt>
<trkpt lat="43.246764" lon="13.195692"><ele>271.98424351913803</ele><time>2020-05-16T12:05:52Z</time></trkpt>
<trkpt lat="43.246695" lon="13.195626"><ele>271.98390588542395</ele><time>2020-05-16T12:05:57Z</time></trkpt>
<trkpt lat="43.246649" lon="13.195548"><ele>273.9836741114469</ele><time>2020-05-16T12:06:02Z</time></trkpt>
<trkpt lat="43.246585" lon="13.195467"><ele>274.9833626885754</ele><time>2020-05-16T12:06:09Z</time></trkpt>
<trkpt lat="43.246508" lon="13.195420"><ele>273.98298010548046</ele><time>2020-05-16T12:06:15Z</time></trkpt>
<trkpt lat="43.246438" lon="13.195346"><ele>274.98263592465713</ele><time>2020-05-16T12:06:23Z</time></trkpt>
<trkpt lat="43.246362" lon="13.195294"><ele>275.98226304518454</ele><time>2020-05-16T12:06:30Z</time></trkpt>
<trkpt lat="43.246282" lon="13.195253"><ele>279.9818716736698</ele><time>2020-05-16T12:06:39Z</time></trkpt>
<trkpt lat="43.246201" lon="13.195243"><ele>284.9814754268988</ele><time>2020-05-16T12:06:48Z</time></trkpt>
<trkpt lat="43.246120" lon="13.195225"><ele>286.98107740872484</ele><time>2020-05-16T12:06:56Z</time></trkpt>
<trkpt lat="43.246041" lon="13.195166"><ele>285.9806914818937</ele><time>2020-05-16T12:07:02Z</time></trkpt>
<trkpt lat="43.245961" lon="13.195123"><ele>285.98029732766884</ele><time>2020-05-16T12:07:08Z</time></trkpt>
<trkpt lat="43.245895" lon="13.195081"><ele>282.9799742156571</ele><time>2020-05-16T12:07:15Z</time></trkpt>
<trkpt lat="43.245820" lon="13.195043"><ele>281.9796047211432</ele><time>2020-05-16T12:07:21Z</time></trkpt>
<trkpt lat="43.245733" lon="13.195032"><ele>281.97917987574556</ele><time>2020-05-16T12:07:29Z</time></trkpt>
<trkpt lat="43.245670" lon="13.194972"><ele>281.9788675912643</ele><time>2020-05-16T12:07:33Z</time></trkpt>
<trkpt lat="43.245599" lon="13.194899"><ele>281.97851774471377</ele><time>2020-05-16T12:07:40Z</time></trkpt>
<trkpt lat="43.245544" lon="13.194823"><ele>282.9782424245825</ele><time>2020-05-16T12:07:45Z</time></trkpt>
<trkpt lat="43.245472" lon="13.194768"><ele>282.977887550839</ele><time>2020-05-16T12:07:52Z</time></trkpt>
<trkpt lat="43.245400" lon="13.194707"><ele>281.97753261711915</ele><time>2020-05-16T12:07:58Z</time></trkpt>
<trkpt lat="43.245330" lon="13.194651"><ele>280.97718629862055</ele><time>2020-05-16T12:08:04Z</time></trkpt>
<trkpt lat="43.245262" lon="13.194616"><ele>277.9768494720567</ele><time>2020-05-16T12:08:10Z</time></trkpt>
<trkpt lat="43.245209" lon="13.194527"><ele>280.97658578618126</ele><time>2020-05-16T12:08:16Z</time></trkpt>
<trkpt lat="43.245165" lon="13.194465"><ele>281.9763630752479</ele><time>2020-05-16T12:08:20Z</time></trkpt>
<trkpt lat="43.245096" lon="13.194400"><ele>282.97601931501026</ele><time>2020-05-16T12:08:26Z</time></trkpt>
<trkpt lat="43.245025" lon="13.194366"><ele>279.9756695632133</ele><time>2020-05-16T12:08:31Z</time></trkpt>
<trkpt lat="43.244947" lon="13.194320"><ele>278.97528861376304</ele><time>2020-05-16T12:08:37Z</time></trkpt>
<trkpt lat="43.244883" lon="13.194258"><ele>278.97496913549054</ele><time>2020-05-16T12:08:43Z</time></trkpt>
<trkpt lat="43.244814" lon="13.194219"><ele>277.9746283988825</ele><time>2020-05-16T12:08:50Z</time></trkpt>
<trkpt lat="43.244746" lon="13.194159"><ele>278.97429148647973</ele><time>2020-05-16T12:08:55Z</time></trkpt>
<trkpt lat="43.244677" lon="13.194091"><ele>278.97394445811636</ele><time>2020-05-16T12:09:02Z</time></trkpt>
<trkpt lat="43.244603" lon="13.194027"><ele>279.97358047550256</ele><time>2020-05-16T12:09:08Z</time></trkpt>
<trkpt lat="43.244537" lon="13.193968"><ele>281.97325127391866</ele><time>2020-05-16T12:09:14Z</time></trkpt>
<trkpt lat="43.244472" lon="13.193883"><ele>284.9729244422979</ele><time>2020-05-16T12:09:22Z</time></trkpt>
<trkpt lat="43.244401" lon="13.193818"><ele>285.97257092687994</ele><time>2020-05-16T12:09:32Z</time></trkpt>
<trkpt lat="43.244331" lon="13.193757"><ele>284.97222019840274</ele><time>2020-05-16T12:09:38Z</time></trkpt>
<trkpt lat="43.244261" lon="13.193678"><ele>283.97187262406146</ele><time>2020-05-16T12:09:43Z</time></trkpt>
<trkpt lat="43.244194" lon="13.193623"><ele>281.9715386182033</ele><time>2020-05-16T12:09:49Z</time></trkpt>
<trkpt lat="43.244125" lon="13.193552"><ele>280.97119452744465</ele><time>2020-05-16T12:09:55Z</time></trkpt>
<trkpt lat="43.244055" lon="13.193478"><ele>280.970845480967</ele><time>2020-05-16T12:10:00Z</time></trkpt>
<trkpt lat="43.244000" lon="13.193384"><ele>280.9705654824621</ele><time>2020-05-16T12:10:06Z</time></trkpt>
<trkpt lat="43.243940" lon="13.193324"><ele>279.97026291345617</ele><time>2020-05-16T12:10:12Z</time></trkpt>
<trkpt lat="43.243903" lon="13.193214"><ele>280.970073506647</ele><time>2020-05-16T12:10:21Z</time></trkpt>
<trkpt lat="43.243876" lon="13.193107"><ele>280.96993069157907</ele><time>2020-05-16T12:10:26Z</time></trkpt>
<trkpt lat="43.243831" lon="13.193001"><ele>279.9696983804422</ele><time>2020-05-16T12:10:33Z</time></trkpt>
<trkpt lat="43.243805" lon="13.192900"><ele>279.9695595486265</ele><time>2020-05-16T12:10:38Z</time></trkpt>
<trkpt lat="43.243765" lon="13.192796"><ele>279.9693538192179</ele><time>2020-05-16T12:10:44Z</time></trkpt>
<trkpt lat="43.243735" lon="13.192683"><ele>278.96919461514346</ele><time>2020-05-16T12:10:51Z</time></trkpt>
<trkpt lat="43.243710" lon="13.192576"><ele>279.96906286244507</ele><time>2020-05-16T12:10:57Z</time></trkpt>
<trkpt lat="43.243670" lon="13.192470"><ele>277.9688542675418</ele><time>2020-05-16T12:11:04Z</time></trkpt>
<trkpt lat="43.243631" lon="13.192364"><ele>277.9686530277763</ele><time>2020-05-16T12:11:10Z</time></trkpt>
<trkpt lat="43.243594" lon="13.192255"><ele>277.968458521523</ele><time>2020-05-16T12:11:17Z</time></trkpt>
<trkpt lat="43.243565" lon="13.192153"><ele>277.9683061795425</ele><time>2020-05-16T12:11:25Z</time></trkpt>
<trkpt lat="43.243531" lon="13.192045"><ele>277.96812617822724</ele><time>2020-05-16T12:11:34Z</time></trkpt>
<trkpt lat="43.243487" lon="13.191927"><ele>278.9678969362619</ele><time>2020-05-16T12:11:39Z</time></trkpt>
<trkpt lat="43.243452" lon="13.191838"><ele>279.96771410275664</ele><time>2020-05-16T12:11:46Z</time></trkpt>
<trkpt lat="43.243419" lon="13.191733"><ele>279.967540056766</ele><time>2020-05-16T12:11:51Z</time></trkpt>
<trkpt lat="43.243392" lon="13.191624"><ele>278.9673939838204</ele><time>2020-05-16T12:11:59Z</time></trkpt>
<trkpt lat="43.243360" lon="13.191512"><ele>279.96722536391985</ele><time>2020-05-16T12:12:05Z</time></trkpt>
<trkpt lat="43.243325" lon="13.191401"><ele>279.9670403571587</ele><time>2020-05-16T12:12:11Z</time></trkpt>
<trkpt lat="43.243289" lon="13.191289"><ele>281.9668539780378</ele><time>2020-05-16T12:12:17Z</time></trkpt>
<trkpt lat="43.243247" lon="13.191197"><ele>279.9666335160705</ele><time>2020-05-16T12:12:24Z</time></trkpt>
<trkpt lat="43.243212" lon="13.191106"><ele>279.966451702904</ele><time>2020-05-16T12:12:29Z</time></trkpt>
<trkpt lat="43.243175" lon="13.191008"><ele>278.9662563984401</ele><time>2020-05-16T12:12:34Z</time></trkpt>
<trkpt lat="43.243154" lon="13.190897"><ele>281.9661400275741</ele><time>2020-05-16T12:12:41Z</time></trkpt>
<trkpt lat="43.243111" lon="13.190810"><ele>281.9659196204112</ele><time>2020-05-16T12:12:46Z</time></trkpt>
<trkpt lat="43.243070" lon="13.190702"><ele>281.9657064817727</ele><time>2020-05-16T12:12:52Z</time></trkpt>
<trkpt lat="43.243039" lon="13.190590"><ele>282.96554051076555</ele><time>2020-05-16T12:12:59Z</time></trkpt>
<trkpt lat="43.242995" lon="13.190486"><ele>282.9653076077589</ele><time>2020-05-16T12:13:05Z</time></trkpt>
<trkpt lat="43.242977" lon="13.190373"><ele>281.9652083129359</ele><time>2020-05-16T12:13:13Z</time></trkpt>
<trkpt lat="43.242959" lon="13.190265"><ele>281.96510882303954</ele><time>2020-05-16T12:13:18Z</time></trkpt>
<trkpt lat="43.242940" lon="13.190149"><ele>283.9650006697541</ele><time>2020-05-16T12:13:25Z</time></trkpt>
<trkpt lat="43.242939" lon="13.190026"><ele>282.964981096572</ele><time>2020-05-16T12:13:33Z</time></trkpt>
<trkpt lat="43.242937" lon="13.189914"><ele>282.9649569072453</ele><time>2020-05-16T12:13:41Z</time></trkpt>
<trkpt lat="43.242922" lon="13.189792"><ele>284.9648694391023</ele><time>2020-05-16T12:13:46Z</time></trkpt>
<trkpt lat="43.242892" lon="13.189682"><ele>284.96470868018497</ele><time>2020-05-16T12:13:51Z</time></trkpt>
<trkpt lat="43.242866" lon="13.189566"><ele>284.96456544697753</ele><time>2020-05-16T12:13:59Z</time></trkpt>
<trkpt lat="43.242824" lon="13.189478"><ele>282.9643494828204</ele><time>2020-05-16T12:14:05Z</time></trkpt>
<trkpt lat="43.242762" lon="13.189390"><ele>281.9640304246938</ele><time>2020-05-16T12:14:10Z</time></trkpt>
<trkpt lat="43.242700" lon="13.189312"><ele>279.96370932456637</ele><time>2020-05-16T12:14:23Z</time></trkpt>
<trkpt lat="43.242664" lon="13.189204"><ele>280.9635184749452</ele><time>2020-05-16T12:14:27Z</time></trkpt>
<trkpt lat="43.242630" lon="13.189090"><ele>282.9633390346924</ele><time>2020-05-16T12:14:32Z</time></trkpt>
<trkpt lat="43.242573" lon="13.188997"><ele>280.9630451448387</ele><time>2020-05-16T12:14:39Z</time></trkpt>
<trkpt lat="43.242528" lon="13.188903"><ele>279.962809895279</ele><time>2020-05-16T12:14:46Z</time></trkpt>
<trkpt lat="43.242502" lon="13.188811"><ele>279.9626668749273</ele><time>2020-05-16T12:14:50Z</time></trkpt>
<trkpt lat="43.242462" lon="13.188701"><ele>279.96245533707264</ele><time>2020-05-16T12:14:55Z</time></trkpt>
<trkpt lat="43.242435" lon="13.188592"><ele>278.96230773122005</ele><time>2020-05-16T12:15:01Z</time></trkpt>
<trkpt lat="43.242404" lon="13.188495"><ele>279.96214234452276</ele><time>2020-05-16T12:15:07Z</time></trkpt>
<trkpt lat="43.242367" lon="13.188388"><ele>280.96194135318865</ele><time>2020-05-16T12:15:13Z</time></trkpt>
<trkpt lat="43.242324" lon="13.188285"><ele>278.96171403944203</ele><time>2020-05-16T12:15:20Z</time></trkpt>
<trkpt lat="43.242278" lon="13.188193"><ele>276.96147572919585</ele><time>2020-05-16T12:15:27Z</time></trkpt>
<trkpt lat="43.242223" lon="13.188099"><ele>273.9611903720726</ele><time>2020-05-16T12:15:34Z</time></trkpt>
<trkpt lat="43.242177" lon="13.188018"><ele>271.96095032478087</ele><time>2020-05-16T12:15:40Z</time></trkpt>
<trkpt lat="43.242149" lon="13.187915"><ele>273.96079654745364</ele><time>2020-05-16T12:15:45Z</time></trkpt>
<trkpt lat="43.242108" lon="13.187809"><ele>270.96057801959637</ele><time>2020-05-16T12:15:52Z</time></trkpt>
<trkpt lat="43.242056" lon="13.187731"><ele>268.9603085895788</ele><time>2020-05-16T12:15:59Z</time></trkpt>
<trkpt lat="43.242017" lon="13.187629"><ele>266.96010394250425</ele><time>2020-05-16T12:16:06Z</time></trkpt>
<trkpt lat="43.241988" lon="13.187535"><ele>267.9599468197904</ele><time>2020-05-16T12:16:11Z</time></trkpt>
<trkpt lat="43.241940" lon="13.187441"><ele>265.95969111404156</ele><time>2020-05-16T12:16:16Z</time></trkpt>
<trkpt lat="43.241901" lon="13.187332"><ele>265.959483395008</ele><time>2020-05-16T12:16:23Z</time></trkpt>
<trkpt lat="43.241874" lon="13.187233"><ele>266.95933559572245</ele><time>2020-05-16T12:16:29Z</time></trkpt>
<trkpt lat="43.241879" lon="13.187121"><ele>266.9593443785462</ele><time>2020-05-16T12:16:35Z</time></trkpt>
<trkpt lat="43.241928" lon="13.187030"><ele>266.9595810579413</ele><time>2020-05-16T12:16:42Z</time></trkpt>
<trkpt lat="43.241950" lon="13.186924"><ele>266.9596777391729</ele><time>2020-05-16T12:16:48Z</time></trkpt>
<trkpt lat="43.242028" lon="13.186887"><ele>267.96006000674265</ele><time>2020-05-16T12:16:53Z</time></trkpt>
<trkpt lat="43.242112" lon="13.186871"><ele>268.9604808222633</ele><time>2020-05-16T12:16:59Z</time></trkpt>
<trkpt lat="43.242194" lon="13.186857"><ele>269.960889386403</ele><time>2020-05-16T12:17:05Z</time></trkpt>
<trkpt lat="43.242268" lon="13.186832"><ele>268.9612587175943</ele><time>2020-05-16T12:17:11Z</time></trkpt>
<trkpt lat="43.242350" lon="13.186815"><ele>269.96166801365507</ele><time>2020-05-16T12:17:17Z</time></trkpt>
<trkpt lat="43.242433" lon="13.186799"><ele>268.9620802226987</ele><time>2020-05-16T12:17:23Z</time></trkpt>
<trkpt lat="43.242514" lon="13.186794"><ele>268.9624865096798</ele><time>2020-05-16T12:17:29Z</time></trkpt>
<trkpt lat="43.242479" lon="13.186689"><ele>266.9622967806759</ele><time>2020-05-16T12:17:37Z</time></trkpt>
<trkpt lat="43.242435" lon="13.186598"><ele>266.96206692872613</ele><time>2020-05-16T12:17:43Z</time></trkpt>
<trkpt lat="43.242381" lon="13.186511"><ele>266.9617858363194</ele><time>2020-05-16T12:17:50Z</time></trkpt>
<trkpt lat="43.242328" lon="13.186451"><ele>267.9615099189677</ele><time>2020-05-16T12:17:54Z</time></trkpt>
<trkpt lat="43.242250" lon="13.186403"><ele>265.9611116106029</ele><time>2020-05-16T12:18:00Z</time></trkpt>
<trkpt lat="43.242167" lon="13.186355"><ele>264.96069255950016</ele><time>2020-05-16T12:18:08Z</time></trkpt>
<trkpt lat="43.242090" lon="13.186324"><ele>264.9603025724081</ele><time>2020-05-16T12:18:14Z</time></trkpt>
<trkpt lat="43.242020" lon="13.186288"><ele>263.95994348866856</ele><time>2020-05-16T12:18:20Z</time></trkpt>
<trkpt lat="43.241937" lon="13.186245"><ele>264.95952201505463</ele><time>2020-05-16T12:18:27Z</time></trkpt>
<trkpt lat="43.241857" lon="13.186200"><ele>265.9591136388233</ele><time>2020-05-16T12:18:35Z</time></trkpt>
<trkpt lat="43.241791" lon="13.186158"><ele>265.95878115615903</ele><time>2020-05-16T12:18:42Z</time></trkpt>
<trkpt lat="43.241697" lon="13.186114"><ele>260.9583007406055</ele><time>2020-05-16T12:18:47Z</time></trkpt>
<trkpt lat="43.241622" lon="13.186073"><ele>259.95791615919006</ele><time>2020-05-16T12:18:52Z</time></trkpt>
<trkpt lat="43.241545" lon="13.186026"><ele>259.95752703923904</ele><time>2020-05-16T12:18:59Z</time></trkpt>
<trkpt lat="43.241465" lon="13.185971"><ele>260.95711666288645</ele><time>2020-05-16T12:19:06Z</time></trkpt>
<trkpt lat="43.241380" lon="13.185933"><ele>261.9566839751243</ele><time>2020-05-16T12:19:13Z</time></trkpt>
<trkpt lat="43.241305" lon="13.185890"><ele>260.9563021252495</ele><time>2020-05-16T12:19:19Z</time></trkpt>
<trkpt lat="43.241229" lon="13.185842"><ele>260.95591108618476</ele><time>2020-05-16T12:19:25Z</time></trkpt>
<trkpt lat="43.241156" lon="13.185792"><ele>261.9555400608279</ele><time>2020-05-16T12:19:31Z</time></trkpt>
<trkpt lat="43.241073" lon="13.185753"><ele>260.95511547135607</ele><time>2020-05-16T12:19:38Z</time></trkpt>
<trkpt lat="43.240996" lon="13.185715"><ele>263.9547239606868</ele><time>2020-05-16T12:19:46Z</time></trkpt>
<trkpt lat="43.240911" lon="13.185676"><ele>263.95429006582583</ele><time>2020-05-16T12:19:53Z</time></trkpt>
<trkpt lat="43.240828" lon="13.185647"><ele>261.95386974446996</ele><time>2020-05-16T12:20:01Z</time></trkpt>
<trkpt lat="43.240740" lon="13.185626"><ele>261.95342416939775</ele><time>2020-05-16T12:20:10Z</time></trkpt>
<trkpt lat="43.240668" lon="13.185583"><ele>258.9530556168071</ele><time>2020-05-16T12:20:40Z</time></trkpt>
<trkpt lat="43.240582" lon="13.185571"><ele>257.95261878301505</ele><time>2020-05-16T12:20:45Z</time></trkpt>
<trkpt lat="43.240500" lon="13.185553"><ele>258.95220204064856</ele><time>2020-05-16T12:20:50Z</time></trkpt>
<trkpt lat="43.240416" lon="13.185539"><ele>258.951778795122</ele><time>2020-05-16T12:20:57Z</time></trkpt>
<trkpt lat="43.240340" lon="13.185511"><ele>257.95139476857287</ele><time>2020-05-16T12:21:03Z</time></trkpt>
<trkpt lat="43.240255" lon="13.185489"><ele>255.95096146713618</ele><time>2020-05-16T12:21:09Z</time></trkpt>
<trkpt lat="43.240167" lon="13.185470"><ele>255.9505144525085</ele><time>2020-05-16T12:21:16Z</time></trkpt>
<trkpt lat="43.240080" lon="13.185440"><ele>255.95007270082613</ele><time>2020-05-16T12:21:24Z</time></trkpt>
<trkpt lat="43.239997" lon="13.185425"><ele>256.94965123784345</ele><time>2020-05-16T12:21:31Z</time></trkpt>
<trkpt lat="43.239911" lon="13.185414"><ele>254.94921829991432</ele><time>2020-05-16T12:21:37Z</time></trkpt>
<trkpt lat="43.239830" lon="13.185401"><ele>253.94880937140965</ele><time>2020-05-16T12:21:43Z</time></trkpt>
<trkpt lat="43.239744" lon="13.185376"><ele>251.9483738014552</ele><time>2020-05-16T12:21:50Z</time></trkpt>
<trkpt lat="43.239660" lon="13.185348"><ele>250.94794608427276</ele><time>2020-05-16T12:21:57Z</time></trkpt>
<trkpt lat="43.239579" lon="13.185335"><ele>250.94753191868546</ele><time>2020-05-16T12:22:04Z</time></trkpt>
<trkpt lat="43.239504" lon="13.185301"><ele>250.94715031767686</ele><time>2020-05-16T12:22:11Z</time></trkpt>
<trkpt lat="43.239418" lon="13.185276"><ele>252.94671525910013</ele><time>2020-05-16T12:22:18Z</time></trkpt>
<trkpt lat="43.239342" lon="13.185253"><ele>252.94632542465453</ele><time>2020-05-16T12:22:24Z</time></trkpt>
<trkpt lat="43.239260" lon="13.185237"><ele>251.94591126738453</ele><time>2020-05-16T12:22:30Z</time></trkpt>
<trkpt lat="43.239176" lon="13.185221"><ele>250.94548343126104</ele><time>2020-05-16T12:22:37Z</time></trkpt>
<trkpt lat="43.239089" lon="13.185218"><ele>250.94504853344847</ele><time>2020-05-16T12:22:44Z</time></trkpt>
<trkpt lat="43.239009" lon="13.185197"><ele>248.9446416242159</ele><time>2020-05-16T12:22:51Z</time></trkpt>
<trkpt lat="43.238927" lon="13.185230"><ele>249.9442347292824</ele><time>2020-05-16T12:22:59Z</time></trkpt>
<trkpt lat="43.238848" lon="13.185261"><ele>249.9438396489367</ele><time>2020-05-16T12:23:05Z</time></trkpt>
<trkpt lat="43.238783" lon="13.185315"><ele>249.943522021262</ele><time>2020-05-16T12:23:11Z</time></trkpt>
<trkpt lat="43.238708" lon="13.185374"><ele>249.94315353954477</ele><time>2020-05-16T12:23:17Z</time></trkpt>
<trkpt lat="43.238638" lon="13.185427"><ele>247.94281398446154</ele><time>2020-05-16T12:23:23Z</time></trkpt>
<trkpt lat="43.238565" lon="13.185480"><ele>247.9424534463099</ele><time>2020-05-16T12:23:30Z</time></trkpt>
<trkpt lat="43.238500" lon="13.185546"><ele>244.94213924482486</ele><time>2020-05-16T12:23:36Z</time></trkpt>
<trkpt lat="43.238418" lon="13.185589"><ele>244.941733676239</ele><time>2020-05-16T12:23:42Z</time></trkpt>
<trkpt lat="43.238356" lon="13.185669"><ele>245.94144060222536</ele><time>2020-05-16T12:23:49Z</time></trkpt>
<trkpt lat="43.238282" lon="13.185711"><ele>244.941074073606</ele><time>2020-05-16T12:23:55Z</time></trkpt>
<trkpt lat="43.238216" lon="13.185768"><ele>244.9407519334784</ele><time>2020-05-16T12:24:00Z</time></trkpt>
<trkpt lat="43.238154" lon="13.185829"><ele>246.9404557418536</ele><time>2020-05-16T12:24:06Z</time></trkpt>
<trkpt lat="43.238087" lon="13.185898"><ele>245.94012809635956</ele><time>2020-05-16T12:24:14Z</time></trkpt>
<trkpt lat="43.238019" lon="13.185957"><ele>244.9397974755184</ele><time>2020-05-16T12:24:19Z</time></trkpt>
<trkpt lat="43.237944" lon="13.185995"><ele>246.93942923347845</ele><time>2020-05-16T12:24:25Z</time></trkpt>
<trkpt lat="43.237870" lon="13.186049"><ele>246.93906751314216</ele><time>2020-05-16T12:24:31Z</time></trkpt>
<trkpt lat="43.237796" lon="13.186114"><ele>245.93870911884514</ele><time>2020-05-16T12:24:38Z</time></trkpt>
<trkpt lat="43.237730" lon="13.186197"><ele>244.93839373923726</ele><time>2020-05-16T12:24:45Z</time></trkpt>
<trkpt lat="43.237662" lon="13.186267"><ele>243.93806658719444</ele><time>2020-05-16T12:24:52Z</time></trkpt>
<trkpt lat="43.237596" lon="13.186349"><ele>243.9377496595199</ele><time>2020-05-16T12:24:59Z</time></trkpt>
<trkpt lat="43.237513" lon="13.186391"><ele>243.93734547396207</ele><time>2020-05-16T12:25:07Z</time></trkpt>
<trkpt lat="43.237448" lon="13.186451"><ele>242.9370316470405</ele><time>2020-05-16T12:25:14Z</time></trkpt>
<trkpt lat="43.237367" lon="13.186486"><ele>243.9366279851848</ele><time>2020-05-16T12:25:20Z</time></trkpt>
<trkpt lat="43.237277" lon="13.186465"><ele>244.93617684462285</ele><time>2020-05-16T12:25:25Z</time></trkpt>
<trkpt lat="43.237193" lon="13.186438"><ele>243.93574872475733</ele><time>2020-05-16T12:25:32Z</time></trkpt>
<trkpt lat="43.237118" lon="13.186398"><ele>242.93536398082153</ele><time>2020-05-16T12:25:38Z</time></trkpt>
<trkpt lat="43.237036" lon="13.186350"><ele>241.9349426892291</ele><time>2020-05-16T12:25:45Z</time></trkpt>
<trkpt lat="43.236960" lon="13.186296"><ele>240.93455080073193</ele><time>2020-05-16T12:25:51Z</time></trkpt>
<trkpt lat="43.236896" lon="13.186239"><ele>239.93421426453853</ele><time>2020-05-16T12:25:57Z</time></trkpt>
<trkpt lat="43.236835" lon="13.186190"><ele>239.9338998737225</ele><time>2020-05-16T12:26:02Z</time></trkpt>
<trkpt lat="43.236769" lon="13.186146"><ele>239.9335567926727</ele><time>2020-05-16T12:26:07Z</time></trkpt>
<trkpt lat="43.236700" lon="13.186091"><ele>238.93320200483498</ele><time>2020-05-16T12:26:13Z</time></trkpt>
<trkpt lat="43.236613" lon="13.186070"><ele>238.93275749448674</ele><time>2020-05-16T12:26:20Z</time></trkpt>
<trkpt lat="43.236534" lon="13.186014"><ele>239.93234881470124</ele><time>2020-05-16T12:26:27Z</time></trkpt>
<trkpt lat="43.236466" lon="13.185951"><ele>239.93199625839534</ele><time>2020-05-16T12:26:35Z</time></trkpt>
<trkpt lat="43.236384" lon="13.185912"><ele>237.93157194271515</ele><time>2020-05-16T12:26:42Z</time></trkpt>
<trkpt lat="43.236301" lon="13.185906"><ele>237.93115468307735</ele><time>2020-05-16T12:26:48Z</time></trkpt>
<trkpt lat="43.236213" lon="13.185892"><ele>235.9307107214836</ele><time>2020-05-16T12:26:58Z</time></trkpt>
<trkpt lat="43.236127" lon="13.185874"><ele>235.93027354936723</ele><time>2020-05-16T12:27:04Z</time></trkpt>
<trkpt lat="43.236054" lon="13.185864"><ele>236.9299025480967</ele><time>2020-05-16T12:27:09Z</time></trkpt>
<trkpt lat="43.235973" lon="13.185855"><ele>237.9294973612523</ele><time>2020-05-16T12:27:17Z</time></trkpt>
<trkpt lat="43.235889" lon="13.185849"><ele>237.92907248777797</ele><time>2020-05-16T12:27:23Z</time></trkpt>
<trkpt lat="43.235815" lon="13.185843"><ele>236.9287011382745</ele><time>2020-05-16T12:27:29Z</time></trkpt>
<trkpt lat="43.235733" lon="13.185823"><ele>236.92828405701417</ele><time>2020-05-16T12:27:35Z</time></trkpt>
<trkpt lat="43.235648" lon="13.185808"><ele>235.92785152670461</ele><time>2020-05-16T12:27:41Z</time></trkpt>
<trkpt lat="43.235566" lon="13.185794"><ele>233.92743405528302</ele><time>2020-05-16T12:27:51Z</time></trkpt>
<trkpt lat="43.235490" lon="13.185783"><ele>234.92705052428812</ele><time>2020-05-16T12:27:55Z</time></trkpt>
<trkpt lat="43.235412" lon="13.185755"><ele>234.9266525091183</ele><time>2020-05-16T12:28:01Z</time></trkpt>
<trkpt lat="43.235335" lon="13.185729"><ele>235.92625960207278</ele><time>2020-05-16T12:28:06Z</time></trkpt>
<trkpt lat="43.235251" lon="13.185707"><ele>234.92583348425154</ele><time>2020-05-16T12:28:14Z</time></trkpt>
<trkpt lat="43.235175" lon="13.185678"><ele>233.92544411635905</ele><time>2020-05-16T12:28:19Z</time></trkpt>
<trkpt lat="43.235088" lon="13.185684"><ele>233.9250054616793</ele><time>2020-05-16T12:28:25Z</time></trkpt>
<trkpt lat="43.235010" lon="13.185672"><ele>233.92461074381606</ele><time>2020-05-16T12:28:31Z</time></trkpt>
<trkpt lat="43.234923" lon="13.185652"><ele>233.92416959188125</ele><time>2020-05-16T12:28:41Z</time></trkpt>
<trkpt lat="43.234844" lon="13.185608"><ele>231.92376153090868</ele><time>2020-05-16T12:29:14Z</time></trkpt>
<trkpt lat="43.234768" lon="13.185604"><ele>231.92337696803787</ele><time>2020-05-16T12:29:21Z</time></trkpt>
<trkpt lat="43.234682" lon="13.185579"><ele>230.92293704246904</ele><time>2020-05-16T12:29:28Z</time></trkpt>
<trkpt lat="43.234598" lon="13.185562"><ele>231.92251129419913</ele><time>2020-05-16T12:29:34Z</time></trkpt>
<trkpt lat="43.234529" lon="13.185504"><ele>230.9221502177719</ele><time>2020-05-16T12:29:42Z</time></trkpt>
<trkpt lat="43.234468" lon="13.185417"><ele>231.9218219779207</ele><time>2020-05-16T12:29:48Z</time></trkpt>
<trkpt lat="43.234440" lon="13.185311"><ele>230.92165313123553</ele><time>2020-05-16T12:29:54Z</time></trkpt>
<trkpt lat="43.234371" lon="13.185239"><ele>229.92128853589242</ele><time>2020-05-16T12:30:00Z</time></trkpt>
<trkpt lat="43.234329" lon="13.185139"><ele>228.9210513719458</ele><time>2020-05-16T12:30:08Z</time></trkpt>
<trkpt lat="43.234309" lon="13.185021"><ele>227.92092395717935</ele><time>2020-05-16T12:30:14Z</time></trkpt>
<trkpt lat="43.234286" lon="13.184922"><ele>229.9207821337893</ele><time>2020-05-16T12:30:20Z</time></trkpt>
<trkpt lat="43.234260" lon="13.184821"><ele>228.92062705026214</ele><time>2020-05-16T12:30:26Z</time></trkpt>
<trkpt lat="43.234226" lon="13.184719"><ele>229.92042984781284</ele><time>2020-05-16T12:30:32Z</time></trkpt>
<trkpt lat="43.234206" lon="13.184604"><ele>229.9202974071336</ele><time>2020-05-16T12:30:39Z</time></trkpt>
<trkpt lat="43.234184" lon="13.184487"><ele>227.92015849143795</ele><time>2020-05-16T12:30:47Z</time></trkpt>
<trkpt lat="43.234180" lon="13.184380"><ele>229.92011028319365</ele><time>2020-05-16T12:30:54Z</time></trkpt>
<trkpt lat="43.234157" lon="13.184272"><ele>228.9199680744432</ele><time>2020-05-16T12:31:01Z</time></trkpt>
<trkpt lat="43.234146" lon="13.184167"><ele>229.9198860792523</ele><time>2020-05-16T12:31:07Z</time></trkpt>
<trkpt lat="43.234115" lon="13.184058"><ele>227.9197017438299</ele><time>2020-05-16T12:31:13Z</time></trkpt>
<trkpt lat="43.234091" lon="13.183953"><ele>225.9195532223494</ele><time>2020-05-16T12:31:19Z</time></trkpt>
<trkpt lat="43.234074" lon="13.183836"><ele>228.91943394566547</ele><time>2020-05-16T12:31:25Z</time></trkpt>
<trkpt lat="43.234053" lon="13.183723"><ele>226.9193012700578</ele><time>2020-05-16T12:31:32Z</time></trkpt>
<trkpt lat="43.234021" lon="13.183616"><ele>225.9191141230315</ele><time>2020-05-16T12:31:38Z</time></trkpt>
<trkpt lat="43.234005" lon="13.183497"><ele>226.91900210270683</ele><time>2020-05-16T12:31:44Z</time></trkpt>
<trkpt lat="43.233996" lon="13.183386"><ele>230.9189279312726</ele><time>2020-05-16T12:31:52Z</time></trkpt>
<trkpt lat="43.234000" lon="13.183276"><ele>229.9189203523886</ele><time>2020-05-16T12:31:59Z</time></trkpt>
<trkpt lat="43.234029" lon="13.183162"><ele>229.9190363710802</ele><time>2020-05-16T12:32:05Z</time></trkpt>
<trkpt lat="43.233933" lon="13.183071"><ele>227.91852875673032</ele><time>2020-05-16T12:32:10Z</time></trkpt>
<trkpt lat="43.233926" lon="13.182974"><ele>225.9184663182858</ele><time>2020-05-16T12:32:20Z</time></trkpt>
<trkpt lat="43.233917" lon="13.182875"><ele>227.91839548119688</ele><time>2020-05-16T12:32:25Z</time></trkpt>
<trkpt lat="43.233893" lon="13.182769"><ele>230.9182452123614</ele><time>2020-05-16T12:32:30Z</time></trkpt>
<trkpt lat="43.233870" lon="13.182655"><ele>229.91809934942302</ele><time>2020-05-16T12:32:37Z</time></trkpt>
<trkpt lat="43.233846" lon="13.182538"><ele>229.91794525546044</ele><time>2020-05-16T12:32:43Z</time></trkpt>
<trkpt lat="43.233811" lon="13.182441"><ele>229.91774307130828</ele><time>2020-05-16T12:32:48Z</time></trkpt>
<trkpt lat="43.233767" lon="13.182351"><ele>229.91749645858496</ele><time>2020-05-16T12:32:52Z</time></trkpt>
<trkpt lat="43.233737" lon="13.182256"><ele>229.91732148322865</ele><time>2020-05-16T12:32:57Z</time></trkpt>
<trkpt lat="43.233696" lon="13.182148"><ele>229.91708170686303</ele><time>2020-05-16T12:33:02Z</time></trkpt>
<trkpt lat="43.233652" lon="13.182043"><ele>230.9168340324412</ele><time>2020-05-16T12:33:09Z</time></trkpt>
<trkpt lat="43.233624" lon="13.181930"><ele>233.91666024346347</ele><time>2020-05-16T12:33:17Z</time></trkpt>
<trkpt lat="43.233585" lon="13.181838"><ele>233.91643902922945</ele><time>2020-05-16T12:33:22Z</time></trkpt>
<trkpt lat="43.233548" lon="13.181760"><ele>233.9162298990439</ele><time>2020-05-16T12:33:27Z</time></trkpt>
<trkpt lat="43.233507" lon="13.181658"><ele>231.915993454183</ele><time>2020-05-16T12:33:35Z</time></trkpt>
<trkpt lat="43.233457" lon="13.181566"><ele>227.9157160961832</ele><time>2020-05-16T12:33:42Z</time></trkpt>
<trkpt lat="43.233405" lon="13.181495"><ele>226.9154303830745</ele><time>2020-05-16T12:33:47Z</time></trkpt>
<trkpt lat="43.233367" lon="13.181401"><ele>227.9152093342847</ele><time>2020-05-16T12:33:51Z</time></trkpt>
<trkpt lat="43.233336" lon="13.181301"><ele>230.91502916851158</ele><time>2020-05-16T12:33:56Z</time></trkpt>
<trkpt lat="43.233289" lon="13.181196"><ele>228.91476052176696</ele><time>2020-05-16T12:34:02Z</time></trkpt>
<trkpt lat="43.233232" lon="13.181103"><ele>229.91444331308696</ele><time>2020-05-16T12:34:09Z</time></trkpt>
<trkpt lat="43.233188" lon="13.181020"><ele>225.91419817286248</ele><time>2020-05-16T12:34:15Z</time></trkpt>
<trkpt lat="43.233120" lon="13.180957"><ele>225.91383424699166</ele><time>2020-05-16T12:34:22Z</time></trkpt>
<trkpt lat="43.233052" lon="13.180901"><ele>225.9134693392728</ele><time>2020-05-16T12:34:29Z</time></trkpt>
<trkpt lat="43.232974" lon="13.180885"><ele>224.9130677564547</ele><time>2020-05-16T12:34:37Z</time></trkpt>
<trkpt lat="43.232894" lon="13.180877"><ele>222.9126553756545</ele><time>2020-05-16T12:34:42Z</time></trkpt>
<trkpt lat="43.232821" lon="13.180829"><ele>225.91227284715478</ele><time>2020-05-16T12:34:48Z</time></trkpt>
<trkpt lat="43.232744" lon="13.180801"><ele>225.91187215140766</ele><time>2020-05-16T12:34:53Z</time></trkpt>
<trkpt lat="43.232659" lon="13.180784"><ele>226.9114293837074</ele><time>2020-05-16T12:35:00Z</time></trkpt>
<trkpt lat="43.232576" lon="13.180781"><ele>225.9110043913413</ele><time>2020-05-16T12:35:07Z</time></trkpt>
<trkpt lat="43.232497" lon="13.180753"><ele>226.910596025597</ele><time>2020-05-16T12:35:14Z</time></trkpt>
<trkpt lat="43.232422" lon="13.180738"><ele>230.9102063030116</ele><time>2020-05-16T12:35:24Z</time></trkpt>
<trkpt lat="43.232344" lon="13.180707"><ele>228.9098029937581</ele><time>2020-05-16T12:35:30Z</time></trkpt>
<trkpt lat="43.232270" lon="13.180686"><ele>231.9094165645808</ele><time>2020-05-16T12:35:36Z</time></trkpt>
<trkpt lat="43.232190" lon="13.180648"><ele>232.90899878582547</ele><time>2020-05-16T12:35:41Z</time></trkpt>
<trkpt lat="43.232114" lon="13.180641"><ele>233.90860943168343</ele><time>2020-05-16T12:35:47Z</time></trkpt>
<trkpt lat="43.232042" lon="13.180603"><ele>234.9082284395747</ele><time>2020-05-16T12:35:53Z</time></trkpt>
<trkpt lat="43.231974" lon="13.180589"><ele>233.90787875591684</ele><time>2020-05-16T12:35:58Z</time></trkpt>
<trkpt lat="43.231897" lon="13.180588"><ele>231.90748465979436</ele><time>2020-05-16T12:36:03Z</time></trkpt>
<trkpt lat="43.231826" lon="13.180586"><ele>231.90711820687343</ele><time>2020-05-16T12:36:08Z</time></trkpt>
<trkpt lat="43.231738" lon="13.180598"><ele>231.90667373906726</ele><time>2020-05-16T12:36:14Z</time></trkpt>
<trkpt lat="43.231654" lon="13.180595"><ele>229.90624138875336</ele><time>2020-05-16T12:36:24Z</time></trkpt>
<trkpt lat="43.231592" lon="13.180491"><ele>228.90589503684544</ele><time>2020-05-16T12:36:29Z</time></trkpt>
<trkpt lat="43.231519" lon="13.180464"><ele>232.9055140845234</ele><time>2020-05-16T12:36:38Z</time></trkpt>
<trkpt lat="43.231425" lon="13.180419"><ele>237.90501963795265</ele><time>2020-05-16T12:36:42Z</time></trkpt>
<trkpt lat="43.231326" lon="13.180360"><ele>237.90449497925314</ele><time>2020-05-16T12:36:47Z</time></trkpt>
<trkpt lat="43.231236" lon="13.180291"><ele>238.90401359401181</ele><time>2020-05-16T12:36:51Z</time></trkpt>
<trkpt lat="43.231150" lon="13.180376"><ele>242.9036034920396</ele><time>2020-05-16T12:36:56Z</time></trkpt>
<trkpt lat="43.231068" lon="13.180379"><ele>236.90318236476537</ele><time>2020-05-16T12:37:16Z</time></trkpt>
<trkpt lat="43.230985" lon="13.180388"><ele>236.9027588964023</ele><time>2020-05-16T12:37:20Z</time></trkpt>
<trkpt lat="43.230901" lon="13.180348"><ele>239.90231700138656</ele><time>2020-05-16T12:37:28Z</time></trkpt>
<trkpt lat="43.230765" lon="13.180322"><ele>237.90161375282764</ele><time>2020-05-16T12:37:32Z</time></trkpt>
<trkpt lat="43.230688" lon="13.180246"><ele>235.90119632370232</ele><time>2020-05-16T12:37:36Z</time></trkpt>
<trkpt lat="43.230609" lon="13.180221"><ele>233.9007844851933</ele><time>2020-05-16T12:37:49Z</time></trkpt>
<trkpt lat="43.230524" lon="13.180226"><ele>239.9003528870629</ele><time>2020-05-16T12:37:54Z</time></trkpt>
<trkpt lat="43.230440" lon="13.180228"><ele>240.89992659602865</ele><time>2020-05-16T12:38:00Z</time></trkpt>
<trkpt lat="43.230380" lon="13.180186"><ele>240.89960651654715</ele><time>2020-05-16T12:38:04Z</time></trkpt>
<trkpt lat="43.230321" lon="13.180119"><ele>242.8992791604999</ele><time>2020-05-16T12:38:09Z</time></trkpt>
<trkpt lat="43.230246" lon="13.180067"><ele>241.89888252267923</ele><time>2020-05-16T12:38:15Z</time></trkpt>
<trkpt lat="43.230155" lon="13.180016"><ele>240.89840096912008</ele><time>2020-05-16T12:38:20Z</time></trkpt>
<trkpt lat="43.230077" lon="13.180012"><ele>240.89799794688142</ele><time>2020-05-16T12:38:25Z</time></trkpt>
<trkpt lat="43.229997" lon="13.180053"><ele>238.89760347747352</ele><time>2020-05-16T12:38:29Z</time></trkpt>
<trkpt lat="43.229892" lon="13.180144"><ele>240.89709485909958</ele><time>2020-05-16T12:38:34Z</time></trkpt>
<trkpt lat="43.229851" lon="13.180035"><ele>239.89684869732423</ele><time>2020-05-16T12:38:42Z</time></trkpt>
<trkpt lat="43.229789" lon="13.179961"><ele>238.89650768604463</ele><time>2020-05-16T12:38:48Z</time></trkpt>
<trkpt lat="43.229716" lon="13.179994"><ele>236.89614340555366</ele><time>2020-05-16T12:38:54Z</time></trkpt>
<trkpt lat="43.229634" lon="13.179956"><ele>236.89571264451152</ele><time>2020-05-16T12:39:03Z</time></trkpt>
<trkpt lat="43.229556" lon="13.179974"><ele>237.8953157520878</ele><time>2020-05-16T12:39:08Z</time></trkpt>
<trkpt lat="43.229499" lon="13.179894"><ele>236.8950003676543</ele><time>2020-05-16T12:39:13Z</time></trkpt>
<trkpt lat="43.229420" lon="13.179876"><ele>237.89458904610055</ele><time>2020-05-16T12:39:18Z</time></trkpt>
<trkpt lat="43.229335" lon="13.179861"><ele>240.8941475656129</ele><time>2020-05-16T12:39:23Z</time></trkpt>
<trkpt lat="43.229265" lon="13.179834"><ele>239.89377975615113</ele><time>2020-05-16T12:39:32Z</time></trkpt>
<trkpt lat="43.229224" lon="13.179765"><ele>236.89354733561015</ele><time>2020-05-16T12:39:37Z</time></trkpt>
<trkpt lat="43.229170" lon="13.179693"><ele>239.8932464938812</ele><time>2020-05-16T12:39:42Z</time></trkpt>
<trkpt lat="43.229146" lon="13.179594"><ele>234.8930935503257</ele><time>2020-05-16T12:39:47Z</time></trkpt>
<trkpt lat="43.229091" lon="13.179519"><ele>234.8927866139941</ele><time>2020-05-16T12:39:52Z</time></trkpt>
<trkpt lat="43.229022" lon="13.179465"><ele>231.89241097084187</ele><time>2020-05-16T12:39:58Z</time></trkpt>
<trkpt lat="43.228969" lon="13.179379"><ele>227.89211384734733</ele><time>2020-05-16T12:40:05Z</time></trkpt>
<trkpt lat="43.228936" lon="13.179267"><ele>225.89190716819587</ele><time>2020-05-16T12:40:11Z</time></trkpt>
<trkpt lat="43.228896" lon="13.179164"><ele>228.89166679859977</ele><time>2020-05-16T12:40:19Z</time></trkpt>
<trkpt lat="43.228887" lon="13.179049"><ele>225.89157807373556</ele><time>2020-05-16T12:40:26Z</time></trkpt>
<trkpt lat="43.228869" lon="13.178939"><ele>222.8914491001954</ele><time>2020-05-16T12:40:33Z</time></trkpt>
<trkpt lat="43.228862" lon="13.178827"><ele>221.89137498770776</ele><time>2020-05-16T12:40:40Z</time></trkpt>
<trkpt lat="43.228850" lon="13.178714"><ele>222.89127771389352</ele><time>2020-05-16T12:40:47Z</time></trkpt>
<trkpt lat="43.228859" lon="13.178594"><ele>221.89128463906994</ele><time>2020-05-16T12:40:57Z</time></trkpt>
<trkpt lat="43.228861" lon="13.178497"><ele>223.89125882552116</ele><time>2020-05-16T12:41:03Z</time></trkpt>
<trkpt lat="43.228904" lon="13.178404"><ele>224.89145141656596</ele><time>2020-05-16T12:41:09Z</time></trkpt>
<trkpt lat="43.228943" lon="13.178300"><ele>226.8916130124994</ele><time>2020-05-16T12:41:17Z</time></trkpt>
<trkpt lat="43.229050" lon="13.178213"><ele>230.8921382277647</ele><time>2020-05-16T12:41:22Z</time></trkpt>
<trkpt lat="43.229044" lon="13.178117"><ele>231.89207520516402</ele><time>2020-05-16T12:41:26Z</time></trkpt>
<trkpt lat="43.229108" lon="13.177994"><ele>236.89236440101064</ele><time>2020-05-16T12:41:31Z</time></trkpt>
<trkpt lat="43.229120" lon="13.177910"><ele>237.89239724258752</ele><time>2020-05-16T12:41:35Z</time></trkpt>
<trkpt lat="43.229242" lon="13.177816"><ele>245.89299475671703</ele><time>2020-05-16T12:41:39Z</time></trkpt>
<trkpt lat="43.229278" lon="13.177707"><ele>245.8931407885712</ele><time>2020-05-16T12:41:45Z</time></trkpt>
<trkpt lat="43.229287" lon="13.177610"><ele>253.893158930852</ele><time>2020-05-16T12:42:03Z</time></trkpt>
<trkpt lat="43.229248" lon="13.177500"><ele>259.89292076387125</ele><time>2020-05-16T12:42:11Z</time></trkpt>
<trkpt lat="43.229201" lon="13.177467"><ele>267.89266660100174</ele><time>2020-05-16T12:42:38Z</time></trkpt>
<trkpt lat="43.229226" lon="13.177336"><ele>254.8927494856021</ele><time>2020-05-16T12:42:43Z</time></trkpt>
<trkpt lat="43.229183" lon="13.177253"><ele>248.89250388854313</ele><time>2020-05-16T12:42:47Z</time></trkpt>
<trkpt lat="43.229214" lon="13.177128"><ele>244.89262201830223</ele><time>2020-05-16T12:42:51Z</time></trkpt>
<trkpt lat="43.229213" lon="13.177008"><ele>240.89257504256696</ele><time>2020-05-16T12:43:01Z</time></trkpt>
<trkpt lat="43.229201" lon="13.176898"><ele>241.89247601553754</ele><time>2020-05-16T12:43:07Z</time></trkpt>
<trkpt lat="43.229198" lon="13.176780"><ele>240.89242427316154</ele><time>2020-05-16T12:43:16Z</time></trkpt>
<trkpt lat="43.229193" lon="13.176661"><ele>236.89235866589547</ele><time>2020-05-16T12:43:21Z</time></trkpt>
<trkpt lat="43.229221" lon="13.176551"><ele>238.89246637950546</ele><time>2020-05-16T12:43:29Z</time></trkpt>
<trkpt lat="43.229218" lon="13.176419"><ele>233.8924054820144</ele><time>2020-05-16T12:43:34Z</time></trkpt>
<trkpt lat="43.229192" lon="13.176301"><ele>233.89223352296645</ele><time>2020-05-16T12:43:42Z</time></trkpt>
<trkpt lat="43.229177" lon="13.176203"><ele>235.89212137135257</ele><time>2020-05-16T12:43:47Z</time></trkpt>
<trkpt lat="43.229168" lon="13.176094"><ele>237.89204017052577</ele><time>2020-05-16T12:43:54Z</time></trkpt>
<trkpt lat="43.229142" lon="13.175980"><ele>232.8918645936832</ele><time>2020-05-16T12:44:00Z</time></trkpt>
<trkpt lat="43.229057" lon="13.175954"><ele>231.89141483473364</ele><time>2020-05-16T12:44:08Z</time></trkpt>
<trkpt lat="43.228978" lon="13.175935"><ele>234.89100085678552</ele><time>2020-05-16T12:44:14Z</time></trkpt>
<trkpt lat="43.228915" lon="13.175872"><ele>242.890650125861</ele><time>2020-05-16T12:44:21Z</time></trkpt>
<trkpt lat="43.228832" lon="13.175830"><ele>243.8902048588405</ele><time>2020-05-16T12:44:26Z</time></trkpt>
<trkpt lat="43.228746" lon="13.175804"><ele>233.88975482238388</ele><time>2020-05-16T12:44:35Z</time></trkpt>
<trkpt lat="43.228682" lon="13.175722"><ele>226.88939403034175</ele><time>2020-05-16T12:44:47Z</time></trkpt>
<trkpt lat="43.228632" lon="13.175631"><ele>228.8891017748725</ele><time>2020-05-16T12:44:54Z</time></trkpt>
<trkpt lat="43.228615" lon="13.175517"><ele>228.88897654260484</ele><time>2020-05-16T12:45:02Z</time></trkpt>
<trkpt lat="43.228548" lon="13.175438"><ele>221.88860265567266</ele><time>2020-05-16T12:45:09Z</time></trkpt>
<trkpt lat="43.228473" lon="13.175392"><ele>220.88819458924456</ele><time>2020-05-16T12:45:15Z</time></trkpt>
<trkpt lat="43.228440" lon="13.175288"><ele>222.88798595304206</ele><time>2020-05-16T12:45:21Z</time></trkpt>
<trkpt lat="43.228385" lon="13.175192"><ele>227.8876686261692</ele><time>2020-05-16T12:45:27Z</time></trkpt>
<trkpt lat="43.228410" lon="13.175088"><ele>231.887760603394</ele><time>2020-05-16T12:45:38Z</time></trkpt>
<trkpt lat="43.228390" lon="13.174993"><ele>232.88762794739063</ele><time>2020-05-16T12:45:44Z</time></trkpt>
<trkpt lat="43.228372" lon="13.174894"><ele>238.88749610303472</ele><time>2020-05-16T12:45:50Z</time></trkpt>
<trkpt lat="43.228384" lon="13.174793"><ele>243.8875269006914</ele><time>2020-05-16T12:45:57Z</time></trkpt>
<trkpt lat="43.228375" lon="13.174677"><ele>246.88743769049452</ele><time>2020-05-16T12:46:11Z</time></trkpt>
<trkpt lat="43.228360" lon="13.174568"><ele>247.88732462161005</ele><time>2020-05-16T12:46:15Z</time></trkpt>
<trkpt lat="43.228304" lon="13.174482"><ele>243.88699880651993</ele><time>2020-05-16T12:46:22Z</time></trkpt>
<trkpt lat="43.228288" lon="13.174392"><ele>238.88688637177984</ele><time>2020-05-16T12:46:27Z</time></trkpt>
<trkpt lat="43.228310" lon="13.174275"><ele>235.88696118139168</ele><time>2020-05-16T12:46:38Z</time></trkpt>
<trkpt lat="43.228288" lon="13.174137"><ele>238.88679775545535</ele><time>2020-05-16T12:46:43Z</time></trkpt>
<trkpt lat="43.228273" lon="13.174021"><ele>240.8866799532853</ele><time>2020-05-16T12:46:47Z</time></trkpt>
<trkpt lat="43.228274" lon="13.173902"><ele>241.88664150720354</ele><time>2020-05-16T12:46:51Z</time></trkpt>
<trkpt lat="43.228271" lon="13.173806"><ele>239.88659156323445</ele><time>2020-05-16T12:46:56Z</time></trkpt>
<trkpt lat="43.228249" lon="13.173696"><ele>241.88644030494947</ele><time>2020-05-16T12:47:02Z</time></trkpt>
<trkpt lat="43.228266" lon="13.173593"><ele>242.88649410185923</ele><time>2020-05-16T12:47:06Z</time></trkpt>
<trkpt lat="43.228291" lon="13.173474"><ele>239.88658493254417</ele><time>2020-05-16T12:47:11Z</time></trkpt>
<trkpt lat="43.228299" lon="13.173367"><ele>242.88658991449995</ele><time>2020-05-16T12:47:17Z</time></trkpt>
<trkpt lat="43.228256" lon="13.173260"><ele>244.88632748854434</ele><time>2020-05-16T12:47:25Z</time></trkpt>
<trkpt lat="43.228188" lon="13.173197"><ele>246.88594850683984</ele><time>2020-05-16T12:47:32Z</time></trkpt>
<trkpt lat="43.228164" lon="13.173102"><ele>246.88578766187393</ele><time>2020-05-16T12:47:39Z</time></trkpt>
<trkpt lat="43.228141" lon="13.173011"><ele>245.88563567572737</ele><time>2020-05-16T12:47:44Z</time></trkpt>
<trkpt lat="43.228165" lon="13.172906"><ele>242.8857245493209</ele><time>2020-05-16T12:47:50Z</time></trkpt>
<trkpt lat="43.228157" lon="13.172791"><ele>242.8856457839973</ele><time>2020-05-16T12:47:57Z</time></trkpt>
<trkpt lat="43.228111" lon="13.172693"><ele>240.88536929561468</ele><time>2020-05-16T12:48:02Z</time></trkpt>
<trkpt lat="43.228073" lon="13.172585"><ele>244.88513080118167</ele><time>2020-05-16T12:48:09Z</time></trkpt>
<trkpt lat="43.228017" lon="13.172492"><ele>242.88480698644014</ele><time>2020-05-16T12:48:17Z</time></trkpt>
<trkpt lat="43.228018" lon="13.172386"><ele>241.88477581178537</ele><time>2020-05-16T12:48:25Z</time></trkpt>
<trkpt lat="43.228011" lon="13.172281"><ele>237.88469926809591</ele><time>2020-05-16T12:48:32Z</time></trkpt>
<trkpt lat="43.228052" lon="13.172172"><ele>238.88487808786215</ele><time>2020-05-16T12:48:40Z</time></trkpt>
<trkpt lat="43.228026" lon="13.172051"><ele>238.88469652549009</ele><time>2020-05-16T12:48:45Z</time></trkpt>
<trkpt lat="43.227989" lon="13.171944"><ele>241.88446832319391</ele><time>2020-05-16T12:48:52Z</time></trkpt>
<trkpt lat="43.227909" lon="13.171945"><ele>242.88404769000064</ele><time>2020-05-16T12:48:58Z</time></trkpt>
<trkpt lat="43.227830" lon="13.171908"><ele>242.88362004353704</ele><time>2020-05-16T12:49:03Z</time></trkpt>
<trkpt lat="43.227766" lon="13.171853"><ele>244.8832620817203</ele><time>2020-05-16T12:49:09Z</time></trkpt>
<trkpt lat="43.227676" lon="13.171848"><ele>243.88279001465838</ele><time>2020-05-16T12:49:15Z</time></trkpt>
<trkpt lat="43.227595" lon="13.171824"><ele>244.88235292899407</ele><time>2020-05-16T12:49:24Z</time></trkpt>
<trkpt lat="43.227516" lon="13.171792"><ele>244.88192935779512</ele><time>2020-05-16T12:49:31Z</time></trkpt>
<trkpt lat="43.227430" lon="13.171761"><ele>246.88146408682996</ele><time>2020-05-16T12:49:37Z</time></trkpt>
<trkpt lat="43.227377" lon="13.171663"><ele>249.88115006912307</ele><time>2020-05-16T12:49:46Z</time></trkpt>
<trkpt lat="43.227324" lon="13.171569"><ele>250.88083975710487</ele><time>2020-05-16T12:49:51Z</time></trkpt>
<trkpt lat="43.227276" lon="13.171471"><ele>248.88055129284493</ele><time>2020-05-16T12:49:59Z</time></trkpt>
<trkpt lat="43.227212" lon="13.171406"><ele>247.88019419912348</ele><time>2020-05-16T12:50:11Z</time></trkpt>
<trkpt lat="43.227147" lon="13.171328"><ele>247.87982316094303</ele><time>2020-05-16T12:50:19Z</time></trkpt>
<trkpt lat="43.227102" lon="13.171244"><ele>247.879552993422</ele><time>2020-05-16T12:51:14Z</time></trkpt>
<trkpt lat="43.227048" lon="13.171169"><ele>250.87924244303622</ele><time>2020-05-16T12:51:20Z</time></trkpt>
<trkpt lat="43.226973" lon="13.171108"><ele>251.87882458865465</ele><time>2020-05-16T12:52:52Z</time></trkpt>
<trkpt lat="43.226905" lon="13.171048"><ele>254.87844600141582</ele><time>2020-05-16T12:53:02Z</time></trkpt>
<trkpt lat="43.226854" lon="13.170969"><ele>256.8781482935611</ele><time>2020-05-16T12:53:09Z</time></trkpt>
<trkpt lat="43.226802" lon="13.170877"><ele>256.8778404422575</ele><time>2020-05-16T12:53:16Z</time></trkpt>
<trkpt lat="43.226742" lon="13.170798"><ele>256.8774959991613</ele><time>2020-05-16T12:53:24Z</time></trkpt>
<trkpt lat="43.226684" lon="13.170711"><ele>255.8771564345904</ele><time>2020-05-16T12:53:30Z</time></trkpt>
<trkpt lat="43.226620" lon="13.170645"><ele>255.87679431250706</ele><time>2020-05-16T12:53:39Z</time></trkpt>
<trkpt lat="43.226560" lon="13.170571"><ele>256.8764501232539</ele><time>2020-05-16T12:53:44Z</time></trkpt>
<trkpt lat="43.226500" lon="13.170489"><ele>258.87610533293673</ele><time>2020-05-16T12:53:54Z</time></trkpt>
<trkpt lat="43.226436" lon="13.170404"><ele>261.8757334521331</ele><time>2020-05-16T12:54:01Z</time></trkpt>
<trkpt lat="43.226387" lon="13.170306"><ele>259.87543743233994</ele><time>2020-05-16T12:54:10Z</time></trkpt>
<trkpt lat="43.226318" lon="13.170239"><ele>261.87505227215735</ele><time>2020-05-16T12:54:19Z</time></trkpt>
<trkpt lat="43.226261" lon="13.170158"><ele>264.8747162412785</ele><time>2020-05-16T12:54:27Z</time></trkpt>
<trkpt lat="43.226204" lon="13.170080"><ele>266.874388240009</ele><time>2020-05-16T12:54:34Z</time></trkpt>
<trkpt lat="43.226132" lon="13.170012"><ele>268.8739833377907</ele><time>2020-05-16T12:54:44Z</time></trkpt>
<trkpt lat="43.226067" lon="13.169936"><ele>267.87361169256803</ele><time>2020-05-16T12:54:53Z</time></trkpt>
<trkpt lat="43.225999" lon="13.169858"><ele>269.8732218694735</ele><time>2020-05-16T12:55:02Z</time></trkpt>
<trkpt lat="43.225934" lon="13.169775"><ele>271.8728437749887</ele><time>2020-05-16T12:55:09Z</time></trkpt>
<trkpt lat="43.225877" lon="13.169694"><ele>269.8725110411218</ele><time>2020-05-16T12:55:17Z</time></trkpt>
<trkpt lat="43.225808" lon="13.169632"><ele>270.87212460587</ele><time>2020-05-16T12:55:25Z</time></trkpt>
<trkpt lat="43.225749" lon="13.169545"><ele>272.8717759486533</ele><time>2020-05-16T12:55:35Z</time></trkpt>
<trkpt lat="43.225682" lon="13.169490"><ele>274.87140021778436</ele><time>2020-05-16T12:55:43Z</time></trkpt>
<trkpt lat="43.225626" lon="13.169399"><ele>277.8710729374669</ele><time>2020-05-16T12:55:51Z</time></trkpt>
<trkpt lat="43.225558" lon="13.169336"><ele>280.8706881197348</ele><time>2020-05-16T12:56:01Z</time></trkpt>
<trkpt lat="43.225498" lon="13.169255"><ele>283.8703356945184</ele><time>2020-05-16T12:56:11Z</time></trkpt>
<trkpt lat="43.225444" lon="13.169182"><ele>284.8700222506079</ele><time>2020-05-16T12:56:21Z</time></trkpt>
<trkpt lat="43.225380" lon="13.169109"><ele>284.8696565684654</ele><time>2020-05-16T12:56:29Z</time></trkpt>
<trkpt lat="43.225353" lon="13.168999"><ele>285.8694695370468</ele><time>2020-05-16T12:56:40Z</time></trkpt>
<trkpt lat="43.225375" lon="13.168887"><ele>286.86953970475105</ele><time>2020-05-16T12:56:48Z</time></trkpt>
<trkpt lat="43.225432" lon="13.168796"><ele>287.8698071679942</ele><time>2020-05-16T12:56:58Z</time></trkpt>
<trkpt lat="43.225507" lon="13.168751"><ele>290.8701876684275</ele><time>2020-05-16T12:57:07Z</time></trkpt>
<trkpt lat="43.225592" lon="13.168728"><ele>291.8706306916773</ele><time>2020-05-16T12:57:17Z</time></trkpt>
<trkpt lat="43.225670" lon="13.168748"><ele>292.8710523094142</ele><time>2020-05-16T12:57:24Z</time></trkpt>
<trkpt lat="43.225744" lon="13.168780"><ele>292.87145704927394</ele><time>2020-05-16T12:57:33Z</time></trkpt>
<trkpt lat="43.225827" lon="13.168802"><ele>295.87190247663176</ele><time>2020-05-16T12:57:43Z</time></trkpt>
<trkpt lat="43.225910" lon="13.168821"><ele>297.8723509558878</ele><time>2020-05-16T12:57:51Z</time></trkpt>
<trkpt lat="43.225966" lon="13.168760"><ele>298.8726234394617</ele><time>2020-05-16T12:58:21Z</time></trkpt>
<trkpt lat="43.225966" lon="13.168760"><ele>298.8726234394617</ele><time>2020-05-16T12:58:22Z</time></trkpt>
</trkseg>
</trk>
</gpx>
